<?xml version='1.0' encoding='UTF-8'?><gpx version="1.1" creator="JPX - https://github.com/jenetics/jpx" xmlns="http://www.topografix.com/GPX/1/1"><trk><trkseg><trkpt lat="44.1507169" lon="10.4124361"><ele>543.2</ele><time>2026-04-23T09:46:46.113Z</time></trkpt><trkpt lat="44.150645" lon="10.4123784"><ele>540.4000000000001</ele><time>2026-04-23T09:46:47.112Z</time></trkpt><trkpt lat="44.150665" lon="10.4122577"><ele>537.6</ele><time>2026-04-23T09:46:49.109Z</time></trkpt><trkpt lat="44.15068" lon="10.4121514"><ele>534.8000000000001</ele><time>2026-04-23T09:46:51.104Z</time></trkpt><trkpt lat="44.1508458" lon="10.4121113"><ele>532.0</ele><time>2026-04-23T09:46:53.102Z</time></trkpt><trkpt lat="44.1509131" lon="10.4121322"><ele>531.8333333333334</ele><time>2026-04-23T09:46:54.117Z</time></trkpt><trkpt lat="44.1509788" lon="10.4121288"><ele>531.6666666666667</ele><time>2026-04-23T09:46:56.103Z</time></trkpt><trkpt lat="44.1510592" lon="10.4120278"><ele>531.5</ele><time>2026-04-23T09:47:00.105Z</time></trkpt><trkpt lat="44.1510074" lon="10.411939"><ele>531.3333333333334</ele><time>2026-04-23T09:47:02.115Z</time></trkpt><trkpt lat="44.15092" lon="10.4118805"><ele>531.1666666666666</ele><time>2026-04-23T09:47:04.106Z</time></trkpt><trkpt lat="44.1508404" lon="10.4118274"><ele>531.0</ele><time>2026-04-23T09:47:06.113Z</time></trkpt><trkpt lat="44.1507451" lon="10.4118137"><ele>530.8</ele><time>2026-04-23T09:47:08.114Z</time></trkpt><trkpt lat="44.150633" lon="10.4118268"><ele>530.6</ele><time>2026-04-23T09:47:10.105Z</time></trkpt><trkpt lat="44.1505032" lon="10.4117989"><ele>530.4</ele><time>2026-04-23T09:47:12.11Z</time></trkpt><trkpt lat="44.150436" lon="10.4117642"><ele>530.2</ele><time>2026-04-23T09:47:13.103Z</time></trkpt><trkpt lat="44.1503691" lon="10.4117286"><ele>530.0</ele><time>2026-04-23T09:47:14.118Z</time></trkpt><trkpt lat="44.1502972" lon="10.4116882"><ele>530.0</ele><time>2026-04-23T09:47:15.117Z</time></trkpt><trkpt lat="44.1502212" lon="10.4116461"><ele>530.0</ele><time>2026-04-23T09:47:16.101Z</time></trkpt><trkpt lat="44.1501428" lon="10.4116057"><ele>530.0</ele><time>2026-04-23T09:47:17.109Z</time></trkpt><trkpt lat="44.1500625" lon="10.4115635"><ele>530.0</ele><time>2026-04-23T09:47:18.105Z</time></trkpt><trkpt lat="44.1499816" lon="10.4115167"><ele>530.0</ele><time>2026-04-23T09:47:19.115Z</time></trkpt><trkpt lat="44.1498986" lon="10.4114739"><ele>530.0</ele><time>2026-04-23T09:47:20.112Z</time></trkpt><trkpt lat="44.1498139" lon="10.4114351"><ele>529.0</ele><time>2026-04-23T09:47:21.103Z</time></trkpt><trkpt lat="44.1497316" lon="10.4113932"><ele>528.0</ele><time>2026-04-23T09:47:22.12Z</time></trkpt><trkpt lat="44.1496484" lon="10.41135"><ele>527.0</ele><time>2026-04-23T09:47:23.106Z</time></trkpt><trkpt lat="44.1495666" lon="10.4113026"><ele>526.0</ele><time>2026-04-23T09:47:24.115Z</time></trkpt><trkpt lat="44.1494862" lon="10.4112511"><ele>525.0</ele><time>2026-04-23T09:47:25.114Z</time></trkpt><trkpt lat="44.1494071" lon="10.4111976"><ele>524.0</ele><time>2026-04-23T09:47:26.113Z</time></trkpt><trkpt lat="44.1493287" lon="10.4111518"><ele>524.1666666666666</ele><time>2026-04-23T09:47:27.11Z</time></trkpt><trkpt lat="44.1492465" lon="10.4111279"><ele>524.3333333333333</ele><time>2026-04-23T09:47:28.108Z</time></trkpt><trkpt lat="44.1491652" lon="10.4111335"><ele>524.5</ele><time>2026-04-23T09:47:29.12Z</time></trkpt><trkpt lat="44.149091" lon="10.4111582"><ele>524.6666666666666</ele><time>2026-04-23T09:47:30.109Z</time></trkpt><trkpt lat="44.1490262" lon="10.4112022"><ele>524.8333333333334</ele><time>2026-04-23T09:47:31.104Z</time></trkpt><trkpt lat="44.1489615" lon="10.4112548"><ele>525.0</ele><time>2026-04-23T09:47:32.109Z</time></trkpt><trkpt lat="44.1489079" lon="10.4113135"><ele>525.0</ele><time>2026-04-23T09:47:33.112Z</time></trkpt><trkpt lat="44.1488534" lon="10.4113583"><ele>525.0</ele><time>2026-04-23T09:47:34.111Z</time></trkpt><trkpt lat="44.1487418" lon="10.411393"><ele>525.0</ele><time>2026-04-23T09:47:36.122Z</time></trkpt><trkpt lat="44.1486384" lon="10.4113366"><ele>525.0</ele><time>2026-04-23T09:47:38.101Z</time></trkpt><trkpt lat="44.1485647" lon="10.4112374"><ele>525.0</ele><time>2026-04-23T09:47:40.102Z</time></trkpt><trkpt lat="44.1485081" lon="10.4111177"><ele>525.0</ele><time>2026-04-23T09:47:42.105Z</time></trkpt><trkpt lat="44.1484596" lon="10.4109897"><ele>525.0</ele><time>2026-04-23T09:47:44.117Z</time></trkpt><trkpt lat="44.1484143" lon="10.4108681"><ele>525.0</ele><time>2026-04-23T09:47:46.107Z</time></trkpt><trkpt lat="44.1483706" lon="10.4107312"><ele>525.0</ele><time>2026-04-23T09:47:48.118Z</time></trkpt><trkpt lat="44.1483208" lon="10.4105947"><ele>525.0</ele><time>2026-04-23T09:47:50.117Z</time></trkpt><trkpt lat="44.1482739" lon="10.4104568"><ele>526.0</ele><time>2026-04-23T09:47:52.108Z</time></trkpt><trkpt lat="44.1482316" lon="10.4103196"><ele>527.0</ele><time>2026-04-23T09:47:54.112Z</time></trkpt><trkpt lat="44.1482047" lon="10.4101645"><ele>528.0</ele><time>2026-04-23T09:47:56.109Z</time></trkpt><trkpt lat="44.1481726" lon="10.410011"><ele>529.0</ele><time>2026-04-23T09:47:58.122Z</time></trkpt><trkpt lat="44.1481468" lon="10.4098522"><ele>525.0</ele><time>2026-04-23T09:48:00.112Z</time></trkpt><trkpt lat="44.148126" lon="10.4096784"><ele>521.0</ele><time>2026-04-23T09:48:02.11Z</time></trkpt><trkpt lat="44.1481136" lon="10.4095855"><ele>517.0</ele><time>2026-04-23T09:48:03.11Z</time></trkpt><trkpt lat="44.14811" lon="10.4094018"><ele>513.0</ele><time>2026-04-23T09:48:05.112Z</time></trkpt><trkpt lat="44.148103" lon="10.4093084"><ele>509.0</ele><time>2026-04-23T09:48:06.114Z</time></trkpt><trkpt lat="44.1480973" lon="10.4092153"><ele>508.99999999999994</ele><time>2026-04-23T09:48:07.115Z</time></trkpt><trkpt lat="44.1480853" lon="10.4091274"><ele>509.0</ele><time>2026-04-23T09:48:08.12Z</time></trkpt><trkpt lat="44.1480727" lon="10.4090379"><ele>508.99999999999994</ele><time>2026-04-23T09:48:09.119Z</time></trkpt><trkpt lat="44.1480631" lon="10.4089492"><ele>508.99999999999994</ele><time>2026-04-23T09:48:10.118Z</time></trkpt><trkpt lat="44.148056" lon="10.4088587"><ele>509.0</ele><time>2026-04-23T09:48:11.108Z</time></trkpt><trkpt lat="44.1480465" lon="10.4087694"><ele>508.99999999999994</ele><time>2026-04-23T09:48:12.113Z</time></trkpt><trkpt lat="44.1480366" lon="10.4086786"><ele>508.99999999999994</ele><time>2026-04-23T09:48:13.118Z</time></trkpt><trkpt lat="44.1480179" lon="10.4084974"><ele>508.8571428571428</ele><time>2026-04-23T09:48:15.11Z</time></trkpt><trkpt lat="44.1480144" lon="10.4084031"><ele>508.71428571428567</ele><time>2026-04-23T09:48:16.11Z</time></trkpt><trkpt lat="44.1480125" lon="10.4083067"><ele>508.57142857142856</ele><time>2026-04-23T09:48:17.114Z</time></trkpt><trkpt lat="44.1480066" lon="10.4082028"><ele>508.4285714285714</ele><time>2026-04-23T09:48:18.108Z</time></trkpt><trkpt lat="44.1480017" lon="10.4081027"><ele>508.2857142857142</ele><time>2026-04-23T09:48:19.108Z</time></trkpt><trkpt lat="44.1479871" lon="10.4079996"><ele>508.14285714285717</ele><time>2026-04-23T09:48:20.123Z</time></trkpt><trkpt lat="44.1479559" lon="10.4079075"><ele>508.0</ele><time>2026-04-23T09:48:21.122Z</time></trkpt><trkpt lat="44.1478969" lon="10.4078337"><ele>508.00000000000006</ele><time>2026-04-23T09:48:22.123Z</time></trkpt><trkpt lat="44.1478242" lon="10.4077866"><ele>508.0</ele><time>2026-04-23T09:48:23.114Z</time></trkpt><trkpt lat="44.1477385" lon="10.4077664"><ele>508.0</ele><time>2026-04-23T09:48:24.107Z</time></trkpt><trkpt lat="44.1476503" lon="10.4077509"><ele>508.0</ele><time>2026-04-23T09:48:25.105Z</time></trkpt><trkpt lat="44.1475598" lon="10.4077301"><ele>508.00000000000006</ele><time>2026-04-23T09:48:26.114Z</time></trkpt><trkpt lat="44.1474656" lon="10.4077274"><ele>508.0</ele><time>2026-04-23T09:48:27.118Z</time></trkpt><trkpt lat="44.1473711" lon="10.4077492"><ele>506.4</ele><time>2026-04-23T09:48:28.113Z</time></trkpt><trkpt lat="44.1472892" lon="10.4077928"><ele>504.79999999999995</ele><time>2026-04-23T09:48:29.114Z</time></trkpt><trkpt lat="44.147224" lon="10.4078428"><ele>503.2</ele><time>2026-04-23T09:48:30.116Z</time></trkpt><trkpt lat="44.1471561" lon="10.4079745"><ele>501.6</ele><time>2026-04-23T09:48:32.114Z</time></trkpt><trkpt lat="44.1471898" lon="10.4081177"><ele>500.0</ele><time>2026-04-23T09:48:34.111Z</time></trkpt><trkpt lat="44.1472386" lon="10.4081845"><ele>499.99999999999994</ele><time>2026-04-23T09:48:35.114Z</time></trkpt><trkpt lat="44.1472966" lon="10.4082597"><ele>500.0</ele><time>2026-04-23T09:48:36.114Z</time></trkpt><trkpt lat="44.1473509" lon="10.4083425"><ele>500.0</ele><time>2026-04-23T09:48:37.11Z</time></trkpt><trkpt lat="44.1473998" lon="10.4084306"><ele>500.0</ele><time>2026-04-23T09:48:38.119Z</time></trkpt><trkpt lat="44.1474318" lon="10.4085432"><ele>499.99999999999994</ele><time>2026-04-23T09:48:39.116Z</time></trkpt><trkpt lat="44.1474554" lon="10.4086583"><ele>500.0</ele><time>2026-04-23T09:48:40.11Z</time></trkpt><trkpt lat="44.1474776" lon="10.4087745"><ele>501.8</ele><time>2026-04-23T09:48:41.11Z</time></trkpt><trkpt lat="44.1475022" lon="10.4088997"><ele>503.6</ele><time>2026-04-23T09:48:42.113Z</time></trkpt><trkpt lat="44.1475246" lon="10.4090263"><ele>505.4</ele><time>2026-04-23T09:48:43.108Z</time></trkpt><trkpt lat="44.1475454" lon="10.4091575"><ele>507.2</ele><time>2026-04-23T09:48:44.105Z</time></trkpt><trkpt lat="44.1475641" lon="10.4092848"><ele>509.0</ele><time>2026-04-23T09:48:45.123Z</time></trkpt><trkpt lat="44.1475835" lon="10.4094085"><ele>509.0</ele><time>2026-04-23T09:48:46.123Z</time></trkpt><trkpt lat="44.147598" lon="10.4095563"><ele>509.0</ele><time>2026-04-23T09:48:47.11Z</time></trkpt><trkpt lat="44.1476179" lon="10.4096998"><ele>509.0</ele><time>2026-04-23T09:48:48.122Z</time></trkpt><trkpt lat="44.147641" lon="10.4098412"><ele>509.0</ele><time>2026-04-23T09:48:49.122Z</time></trkpt><trkpt lat="44.1476628" lon="10.4099843"><ele>509.0</ele><time>2026-04-23T09:48:50.115Z</time></trkpt><trkpt lat="44.1476804" lon="10.4101271"><ele>507.0</ele><time>2026-04-23T09:48:51.112Z</time></trkpt><trkpt lat="44.1477026" lon="10.4102742"><ele>505.0</ele><time>2026-04-23T09:48:52.122Z</time></trkpt><trkpt lat="44.147725" lon="10.4104183"><ele>503.0</ele><time>2026-04-23T09:48:53.113Z</time></trkpt><trkpt lat="44.147748" lon="10.4105613"><ele>501.0</ele><time>2026-04-23T09:48:54.104Z</time></trkpt><trkpt lat="44.1477715" lon="10.4107009"><ele>499.0</ele><time>2026-04-23T09:48:55.103Z</time></trkpt><trkpt lat="44.1477965" lon="10.4108411"><ele>498.0</ele><time>2026-04-23T09:48:56.107Z</time></trkpt><trkpt lat="44.1478235" lon="10.4109851"><ele>497.0</ele><time>2026-04-23T09:48:57.105Z</time></trkpt><trkpt lat="44.1478513" lon="10.4111279"><ele>496.0</ele><time>2026-04-23T09:48:58.108Z</time></trkpt><trkpt lat="44.1478768" lon="10.4112694"><ele>495.0</ele><time>2026-04-23T09:48:59.115Z</time></trkpt><trkpt lat="44.1478977" lon="10.4114089"><ele>494.0</ele><time>2026-04-23T09:49:00.122Z</time></trkpt><trkpt lat="44.1479204" lon="10.4115507"><ele>493.4</ele><time>2026-04-23T09:49:01.107Z</time></trkpt><trkpt lat="44.1479442" lon="10.4116923"><ele>492.79999999999995</ele><time>2026-04-23T09:49:02.117Z</time></trkpt><trkpt lat="44.1479653" lon="10.4118295"><ele>492.20000000000005</ele><time>2026-04-23T09:49:03.119Z</time></trkpt><trkpt lat="44.1479865" lon="10.4119628"><ele>491.6</ele><time>2026-04-23T09:49:04.115Z</time></trkpt><trkpt lat="44.1480099" lon="10.4120983"><ele>491.0</ele><time>2026-04-23T09:49:05.113Z</time></trkpt><trkpt lat="44.1480317" lon="10.4122269"><ele>491.0</ele><time>2026-04-23T09:49:06.116Z</time></trkpt><trkpt lat="44.1480582" lon="10.4123535"><ele>491.0</ele><time>2026-04-23T09:49:07.11Z</time></trkpt><trkpt lat="44.1480802" lon="10.4124836"><ele>491.0</ele><time>2026-04-23T09:49:08.107Z</time></trkpt><trkpt lat="44.1481059" lon="10.4126119"><ele>491.0</ele><time>2026-04-23T09:49:09.119Z</time></trkpt><trkpt lat="44.1481275" lon="10.4127404"><ele>491.0</ele><time>2026-04-23T09:49:10.12Z</time></trkpt><trkpt lat="44.1481543" lon="10.4128629"><ele>490.99999999999994</ele><time>2026-04-23T09:49:11.107Z</time></trkpt><trkpt lat="44.148174" lon="10.4129609"><ele>491.0</ele><time>2026-04-23T09:49:12.113Z</time></trkpt><trkpt lat="44.1481569" lon="10.4130988"><ele>491.0</ele><time>2026-04-23T09:49:14.132Z</time></trkpt><trkpt lat="44.1480689" lon="10.4130863"><ele>491.0</ele><time>2026-04-23T09:49:16.116Z</time></trkpt><trkpt lat="44.1479818" lon="10.4129835"><ele>490.99999999999994</ele><time>2026-04-23T09:49:18.108Z</time></trkpt><trkpt lat="44.1479355" lon="10.4129095"><ele>491.0</ele><time>2026-04-23T09:49:19.114Z</time></trkpt><trkpt lat="44.147894" lon="10.4128396"><ele>490.99999999999994</ele><time>2026-04-23T09:49:20.118Z</time></trkpt><trkpt lat="44.1478479" lon="10.4127719"><ele>491.0</ele><time>2026-04-23T09:49:21.115Z</time></trkpt><trkpt lat="44.1477993" lon="10.4126999"><ele>491.0</ele><time>2026-04-23T09:49:22.116Z</time></trkpt><trkpt lat="44.1477475" lon="10.4126237"><ele>491.0</ele><time>2026-04-23T09:49:23.11Z</time></trkpt><trkpt lat="44.147694" lon="10.412542"><ele>490.99999999999994</ele><time>2026-04-23T09:49:24.121Z</time></trkpt><trkpt lat="44.1476388" lon="10.4124595"><ele>491.0</ele><time>2026-04-23T09:49:25.111Z</time></trkpt><trkpt lat="44.1475805" lon="10.4123711"><ele>491.0</ele><time>2026-04-23T09:49:26.118Z</time></trkpt><trkpt lat="44.1475194" lon="10.4122826"><ele>491.0</ele><time>2026-04-23T09:49:27.119Z</time></trkpt><trkpt lat="44.147458" lon="10.4121964"><ele>491.0</ele><time>2026-04-23T09:49:28.112Z</time></trkpt><trkpt lat="44.1473954" lon="10.412106"><ele>491.0</ele><time>2026-04-23T09:49:29.111Z</time></trkpt><trkpt lat="44.1473294" lon="10.4120077"><ele>491.0</ele><time>2026-04-23T09:49:30.115Z</time></trkpt><trkpt lat="44.1472645" lon="10.4119066"><ele>490.20000000000005</ele><time>2026-04-23T09:49:31.113Z</time></trkpt><trkpt lat="44.1471959" lon="10.4118094"><ele>489.40000000000003</ele><time>2026-04-23T09:49:32.116Z</time></trkpt><trkpt lat="44.1471233" lon="10.4117096"><ele>488.6</ele><time>2026-04-23T09:49:33.106Z</time></trkpt><trkpt lat="44.1470499" lon="10.4116057"><ele>487.8</ele><time>2026-04-23T09:49:34.106Z</time></trkpt><trkpt lat="44.1469786" lon="10.4114993"><ele>487.0</ele><time>2026-04-23T09:49:35.102Z</time></trkpt><trkpt lat="44.1469056" lon="10.4113874"><ele>485.6</ele><time>2026-04-23T09:49:36.11Z</time></trkpt><trkpt lat="44.1468303" lon="10.4112805"><ele>484.20000000000005</ele><time>2026-04-23T09:49:37.103Z</time></trkpt><trkpt lat="44.1467538" lon="10.4111745"><ele>482.8</ele><time>2026-04-23T09:49:38.107Z</time></trkpt><trkpt lat="44.1466792" lon="10.4110687"><ele>481.4</ele><time>2026-04-23T09:49:39.105Z</time></trkpt><trkpt lat="44.1465896" lon="10.4109723"><ele>480.0</ele><time>2026-04-23T09:49:40.12Z</time></trkpt><trkpt lat="44.1464901" lon="10.4108973"><ele>478.75</ele><time>2026-04-23T09:49:41.125Z</time></trkpt><trkpt lat="44.1463865" lon="10.4108408"><ele>477.5</ele><time>2026-04-23T09:49:42.107Z</time></trkpt><trkpt lat="44.1462744" lon="10.4108025"><ele>476.25</ele><time>2026-04-23T09:49:43.118Z</time></trkpt><trkpt lat="44.1461622" lon="10.4107616"><ele>475.0</ele><time>2026-04-23T09:49:44.109Z</time></trkpt><trkpt lat="44.1460463" lon="10.4107254"><ele>475.0</ele><time>2026-04-23T09:49:45.103Z</time></trkpt><trkpt lat="44.1459321" lon="10.4106891"><ele>475.0</ele><time>2026-04-23T09:49:46.119Z</time></trkpt><trkpt lat="44.1458172" lon="10.4106506"><ele>475.0</ele><time>2026-04-23T09:49:47.114Z</time></trkpt><trkpt lat="44.1457003" lon="10.4106069"><ele>475.0</ele><time>2026-04-23T09:49:48.116Z</time></trkpt><trkpt lat="44.1455836" lon="10.4105638"><ele>474.5</ele><time>2026-04-23T09:49:49.111Z</time></trkpt><trkpt lat="44.1454678" lon="10.4105255"><ele>474.0</ele><time>2026-04-23T09:49:50.115Z</time></trkpt><trkpt lat="44.1453508" lon="10.4104873"><ele>473.5</ele><time>2026-04-23T09:49:51.121Z</time></trkpt><trkpt lat="44.1452306" lon="10.4104489"><ele>473.0</ele><time>2026-04-23T09:49:52.112Z</time></trkpt><trkpt lat="44.1451114" lon="10.4104109"><ele>472.5</ele><time>2026-04-23T09:49:53.118Z</time></trkpt><trkpt lat="44.1449906" lon="10.4103715"><ele>472.0</ele><time>2026-04-23T09:49:54.117Z</time></trkpt><trkpt lat="44.1448737" lon="10.4103326"><ele>471.5</ele><time>2026-04-23T09:49:55.112Z</time></trkpt><trkpt lat="44.144753" lon="10.4102907"><ele>471.0</ele><time>2026-04-23T09:49:56.103Z</time></trkpt><trkpt lat="44.1446349" lon="10.4102487"><ele>469.25</ele><time>2026-04-23T09:49:57.109Z</time></trkpt><trkpt lat="44.1445154" lon="10.4102107"><ele>467.5</ele><time>2026-04-23T09:49:58.128Z</time></trkpt><trkpt lat="44.144395" lon="10.410167"><ele>465.75</ele><time>2026-04-23T09:49:59.107Z</time></trkpt><trkpt lat="44.1442739" lon="10.4101234"><ele>464.0</ele><time>2026-04-23T09:50:00.113Z</time></trkpt><trkpt lat="44.1441557" lon="10.4100799"><ele>464.0</ele><time>2026-04-23T09:50:01.117Z</time></trkpt><trkpt lat="44.1440506" lon="10.410055"><ele>464.0</ele><time>2026-04-23T09:50:02.122Z</time></trkpt><trkpt lat="44.1439507" lon="10.4100584"><ele>464.0</ele><time>2026-04-23T09:50:03.111Z</time></trkpt><trkpt lat="44.14385" lon="10.4100886"><ele>464.0</ele><time>2026-04-23T09:50:04.116Z</time></trkpt><trkpt lat="44.1437493" lon="10.4101334"><ele>464.0</ele><time>2026-04-23T09:50:05.106Z</time></trkpt><trkpt lat="44.1436433" lon="10.4101904"><ele>461.66666666666663</ele><time>2026-04-23T09:50:06.11Z</time></trkpt><trkpt lat="44.1435425" lon="10.4102388"><ele>459.3333333333333</ele><time>2026-04-23T09:50:07.104Z</time></trkpt><trkpt lat="44.1434543" lon="10.4102852"><ele>457.0</ele><time>2026-04-23T09:50:08.116Z</time></trkpt><trkpt lat="44.1433798" lon="10.4103474"><ele>454.66666666666663</ele><time>2026-04-23T09:50:09.122Z</time></trkpt><trkpt lat="44.1433498" lon="10.4104322"><ele>452.3333333333333</ele><time>2026-04-23T09:50:10.114Z</time></trkpt><trkpt lat="44.1433442" lon="10.410521"><ele>450.0</ele><time>2026-04-23T09:50:11.111Z</time></trkpt><trkpt lat="44.1433681" lon="10.4106159"><ele>449.5</ele><time>2026-04-23T09:50:12.116Z</time></trkpt><trkpt lat="44.1434151" lon="10.4106942"><ele>449.0</ele><time>2026-04-23T09:50:13.111Z</time></trkpt><trkpt lat="44.1434802" lon="10.4107518"><ele>448.5</ele><time>2026-04-23T09:50:14.117Z</time></trkpt><trkpt lat="44.1435467" lon="10.4108212"><ele>448.0</ele><time>2026-04-23T09:50:15.113Z</time></trkpt><trkpt lat="44.143619" lon="10.4108868"><ele>447.5</ele><time>2026-04-23T09:50:16.112Z</time></trkpt><trkpt lat="44.1436873" lon="10.4109558"><ele>447.0</ele><time>2026-04-23T09:50:17.122Z</time></trkpt><trkpt lat="44.1437546" lon="10.4110238"><ele>447.0</ele><time>2026-04-23T09:50:18.112Z</time></trkpt><trkpt lat="44.1438277" lon="10.4110885"><ele>447.0</ele><time>2026-04-23T09:50:19.114Z</time></trkpt><trkpt lat="44.1438962" lon="10.4111662"><ele>447.0</ele><time>2026-04-23T09:50:20.133Z</time></trkpt><trkpt lat="44.1439567" lon="10.4112593"><ele>447.0</ele><time>2026-04-23T09:50:21.106Z</time></trkpt><trkpt lat="44.1439771" lon="10.4113852"><ele>447.0</ele><time>2026-04-23T09:50:22.119Z</time></trkpt><trkpt lat="44.1439814" lon="10.4115089"><ele>447.0</ele><time>2026-04-23T09:50:23.113Z</time></trkpt><trkpt lat="44.143954" lon="10.4116394"><ele>445.6</ele><time>2026-04-23T09:50:24.112Z</time></trkpt><trkpt lat="44.1438987" lon="10.4117559"><ele>444.20000000000005</ele><time>2026-04-23T09:50:25.106Z</time></trkpt><trkpt lat="44.1438262" lon="10.4118603"><ele>442.8</ele><time>2026-04-23T09:50:26.116Z</time></trkpt><trkpt lat="44.1437437" lon="10.4119522"><ele>441.4</ele><time>2026-04-23T09:50:27.109Z</time></trkpt><trkpt lat="44.1436497" lon="10.4120149"><ele>440.0</ele><time>2026-04-23T09:50:28.111Z</time></trkpt><trkpt lat="44.143547" lon="10.4120719"><ele>440.0</ele><time>2026-04-23T09:50:29.105Z</time></trkpt><trkpt lat="44.1434384" lon="10.4120861"><ele>440.0</ele><time>2026-04-23T09:50:30.11Z</time></trkpt><trkpt lat="44.1433331" lon="10.4121151"><ele>440.0</ele><time>2026-04-23T09:50:31.12Z</time></trkpt><trkpt lat="44.1432252" lon="10.412153"><ele>440.0</ele><time>2026-04-23T09:50:32.115Z</time></trkpt><trkpt lat="44.1431178" lon="10.4121986"><ele>440.0</ele><time>2026-04-23T09:50:33.103Z</time></trkpt><trkpt lat="44.143013" lon="10.4122433"><ele>437.8</ele><time>2026-04-23T09:50:34.112Z</time></trkpt><trkpt lat="44.1429032" lon="10.4122876"><ele>435.6</ele><time>2026-04-23T09:50:35.106Z</time></trkpt><trkpt lat="44.1428116" lon="10.4123302"><ele>433.4</ele><time>2026-04-23T09:50:36.109Z</time></trkpt><trkpt lat="44.1427363" lon="10.4123941"><ele>431.2</ele><time>2026-04-23T09:50:37.107Z</time></trkpt><trkpt lat="44.1426893" lon="10.4124814"><ele>429.0</ele><time>2026-04-23T09:50:38.107Z</time></trkpt><trkpt lat="44.1426696" lon="10.4125785"><ele>429.0</ele><time>2026-04-23T09:50:39.113Z</time></trkpt><trkpt lat="44.1426775" lon="10.412686"><ele>429.0</ele><time>2026-04-23T09:50:40.116Z</time></trkpt><trkpt lat="44.1427181" lon="10.412783"><ele>429.0</ele><time>2026-04-23T09:50:41.117Z</time></trkpt><trkpt lat="44.1427822" lon="10.4128472"><ele>429.0</ele><time>2026-04-23T09:50:42.107Z</time></trkpt><trkpt lat="44.1428534" lon="10.4128955"><ele>429.0</ele><time>2026-04-23T09:50:43.109Z</time></trkpt><trkpt lat="44.1429457" lon="10.4128946"><ele>429.0</ele><time>2026-04-23T09:50:44.115Z</time></trkpt><trkpt lat="44.1430376" lon="10.4129143"><ele>429.0</ele><time>2026-04-23T09:50:45.112Z</time></trkpt><trkpt lat="44.143123" lon="10.4129621"><ele>429.0</ele><time>2026-04-23T09:50:46.118Z</time></trkpt><trkpt lat="44.143199" lon="10.4130485"><ele>429.0</ele><time>2026-04-23T09:50:47.114Z</time></trkpt><trkpt lat="44.14325" lon="10.4131629"><ele>429.0</ele><time>2026-04-23T09:50:48.107Z</time></trkpt><trkpt lat="44.1432823" lon="10.4132915"><ele>429.0</ele><time>2026-04-23T09:50:49.105Z</time></trkpt><trkpt lat="44.1433099" lon="10.413419"><ele>429.4</ele><time>2026-04-23T09:50:50.113Z</time></trkpt><trkpt lat="44.1433331" lon="10.4135449"><ele>429.79999999999995</ele><time>2026-04-23T09:50:51.131Z</time></trkpt><trkpt lat="44.1433549" lon="10.4136735"><ele>430.20000000000005</ele><time>2026-04-23T09:50:52.11Z</time></trkpt><trkpt lat="44.1433723" lon="10.4138059"><ele>430.6</ele><time>2026-04-23T09:50:53.108Z</time></trkpt><trkpt lat="44.143378" lon="10.4139367"><ele>431.0</ele><time>2026-04-23T09:50:54.116Z</time></trkpt><trkpt lat="44.1433722" lon="10.4140717"><ele>429.8</ele><time>2026-04-23T09:50:55.113Z</time></trkpt><trkpt lat="44.143369" lon="10.4142046"><ele>428.6</ele><time>2026-04-23T09:50:56.105Z</time></trkpt><trkpt lat="44.1433673" lon="10.4143405"><ele>427.4</ele><time>2026-04-23T09:50:57.109Z</time></trkpt><trkpt lat="44.1433846" lon="10.414469"><ele>426.2</ele><time>2026-04-23T09:50:58.115Z</time></trkpt><trkpt lat="44.1434226" lon="10.4145751"><ele>425.0</ele><time>2026-04-23T09:50:59.113Z</time></trkpt><trkpt lat="44.1434833" lon="10.4146505"><ele>423.3333333333333</ele><time>2026-04-23T09:51:00.104Z</time></trkpt><trkpt lat="44.1435609" lon="10.4146939"><ele>421.66666666666663</ele><time>2026-04-23T09:51:01.112Z</time></trkpt><trkpt lat="44.1436447" lon="10.4147117"><ele>420.0</ele><time>2026-04-23T09:51:02.105Z</time></trkpt><trkpt lat="44.143734" lon="10.4147288"><ele>418.33333333333337</ele><time>2026-04-23T09:51:03.115Z</time></trkpt><trkpt lat="44.1438272" lon="10.4147433"><ele>416.6666666666667</ele><time>2026-04-23T09:51:04.104Z</time></trkpt><trkpt lat="44.143919" lon="10.4147771"><ele>415.0</ele><time>2026-04-23T09:51:05.108Z</time></trkpt><trkpt lat="44.143997" lon="10.4148189"><ele>415.0</ele><time>2026-04-23T09:51:06.104Z</time></trkpt><trkpt lat="44.1440589" lon="10.4148708"><ele>415.0</ele><time>2026-04-23T09:51:07.11Z</time></trkpt><trkpt lat="44.1441025" lon="10.4150179"><ele>415.0</ele><time>2026-04-23T09:51:09.11Z</time></trkpt><trkpt lat="44.1440165" lon="10.4150936"><ele>415.0</ele><time>2026-04-23T09:51:11.127Z</time></trkpt><trkpt lat="44.143896" lon="10.4150495"><ele>415.0</ele><time>2026-04-23T09:51:13.111Z</time></trkpt><trkpt lat="44.1438304" lon="10.415024"><ele>415.00000000000006</ele><time>2026-04-23T09:51:14.109Z</time></trkpt><trkpt lat="44.1437591" lon="10.4149994"><ele>415.0</ele><time>2026-04-23T09:51:15.122Z</time></trkpt><trkpt lat="44.143684" lon="10.4149729"><ele>415.0</ele><time>2026-04-23T09:51:16.109Z</time></trkpt><trkpt lat="44.1436065" lon="10.4149441"><ele>415.0</ele><time>2026-04-23T09:51:17.117Z</time></trkpt><trkpt lat="44.1435258" lon="10.4149213"><ele>415.00000000000006</ele><time>2026-04-23T09:51:18.12Z</time></trkpt><trkpt lat="44.1434342" lon="10.414897"><ele>415.0</ele><time>2026-04-23T09:51:19.11Z</time></trkpt><trkpt lat="44.1433457" lon="10.4148639"><ele>415.0</ele><time>2026-04-23T09:51:20.12Z</time></trkpt><trkpt lat="44.1432571" lon="10.4148416"><ele>415.0</ele><time>2026-04-23T09:51:21.107Z</time></trkpt><trkpt lat="44.1431576" lon="10.4148318"><ele>415.0</ele><time>2026-04-23T09:51:22.114Z</time></trkpt><trkpt lat="44.1430559" lon="10.4148485"><ele>415.0</ele><time>2026-04-23T09:51:23.12Z</time></trkpt><trkpt lat="44.1429578" lon="10.4148837"><ele>415.0</ele><time>2026-04-23T09:51:24.112Z</time></trkpt><trkpt lat="44.1428505" lon="10.4149117"><ele>412.0</ele><time>2026-04-23T09:51:25.124Z</time></trkpt><trkpt lat="44.1427441" lon="10.4149299"><ele>409.0</ele><time>2026-04-23T09:51:26.127Z</time></trkpt><trkpt lat="44.1426316" lon="10.4149362"><ele>406.0</ele><time>2026-04-23T09:51:27.113Z</time></trkpt><trkpt lat="44.1425155" lon="10.4149254"><ele>403.0</ele><time>2026-04-23T09:51:28.116Z</time></trkpt><trkpt lat="44.1423978" lon="10.4149068"><ele>401.5</ele><time>2026-04-23T09:51:29.112Z</time></trkpt><trkpt lat="44.1422741" lon="10.4148773"><ele>400.0</ele><time>2026-04-23T09:51:30.11Z</time></trkpt><trkpt lat="44.1421518" lon="10.4148458"><ele>398.5</ele><time>2026-04-23T09:51:31.106Z</time></trkpt><trkpt lat="44.1420222" lon="10.4148242"><ele>397.0</ele><time>2026-04-23T09:51:32.121Z</time></trkpt><trkpt lat="44.1418946" lon="10.4148136"><ele>397.0</ele><time>2026-04-23T09:51:33.113Z</time></trkpt><trkpt lat="44.1417662" lon="10.4148239"><ele>397.0</ele><time>2026-04-23T09:51:34.113Z</time></trkpt><trkpt lat="44.141635" lon="10.4148477"><ele>397.0</ele><time>2026-04-23T09:51:35.103Z</time></trkpt><trkpt lat="44.1415143" lon="10.414873"><ele>397.0</ele><time>2026-04-23T09:51:36.113Z</time></trkpt><trkpt lat="44.1414072" lon="10.4148982"><ele>396.20000000000005</ele><time>2026-04-23T09:51:37.112Z</time></trkpt><trkpt lat="44.1413053" lon="10.4149"><ele>395.4</ele><time>2026-04-23T09:51:38.112Z</time></trkpt><trkpt lat="44.1412157" lon="10.4148639"><ele>394.6</ele><time>2026-04-23T09:51:39.12Z</time></trkpt><trkpt lat="44.1411442" lon="10.4147883"><ele>393.79999999999995</ele><time>2026-04-23T09:51:40.114Z</time></trkpt><trkpt lat="44.1410954" lon="10.4146793"><ele>393.0</ele><time>2026-04-23T09:51:41.105Z</time></trkpt><trkpt lat="44.1410709" lon="10.4145547"><ele>393.0</ele><time>2026-04-23T09:51:42.117Z</time></trkpt><trkpt lat="44.1410603" lon="10.4144192"><ele>393.0</ele><time>2026-04-23T09:51:43.129Z</time></trkpt><trkpt lat="44.1410222" lon="10.4142941"><ele>393.0</ele><time>2026-04-23T09:51:44.115Z</time></trkpt><trkpt lat="44.1409587" lon="10.4141972"><ele>393.0</ele><time>2026-04-23T09:51:45.12Z</time></trkpt><trkpt lat="44.1408737" lon="10.4141458"><ele>393.0</ele><time>2026-04-23T09:51:46.115Z</time></trkpt><trkpt lat="44.1407836" lon="10.4141457"><ele>391.0</ele><time>2026-04-23T09:51:47.124Z</time></trkpt><trkpt lat="44.1407109" lon="10.4142044"><ele>389.0</ele><time>2026-04-23T09:51:48.112Z</time></trkpt><trkpt lat="44.1406589" lon="10.4143009"><ele>387.0</ele><time>2026-04-23T09:51:49.127Z</time></trkpt><trkpt lat="44.1406388" lon="10.4144211"><ele>385.0</ele><time>2026-04-23T09:51:50.115Z</time></trkpt><trkpt lat="44.1406365" lon="10.4145476"><ele>383.0</ele><time>2026-04-23T09:51:51.107Z</time></trkpt><trkpt lat="44.1406446" lon="10.414671"><ele>381.0</ele><time>2026-04-23T09:51:52.117Z</time></trkpt><trkpt lat="44.1406485" lon="10.4147952"><ele>380.4</ele><time>2026-04-23T09:51:53.117Z</time></trkpt><trkpt lat="44.1406532" lon="10.4149215"><ele>379.8</ele><time>2026-04-23T09:51:54.112Z</time></trkpt><trkpt lat="44.1406593" lon="10.4150486"><ele>379.2</ele><time>2026-04-23T09:51:55.126Z</time></trkpt><trkpt lat="44.1406671" lon="10.4151752"><ele>378.59999999999997</ele><time>2026-04-23T09:51:56.13Z</time></trkpt><trkpt lat="44.1406712" lon="10.4153044"><ele>378.0</ele><time>2026-04-23T09:51:57.125Z</time></trkpt><trkpt lat="44.140676" lon="10.4154341"><ele>377.8333333333333</ele><time>2026-04-23T09:51:58.116Z</time></trkpt><trkpt lat="44.1406769" lon="10.4155613"><ele>377.6666666666667</ele><time>2026-04-23T09:51:59.115Z</time></trkpt><trkpt lat="44.1406686" lon="10.4156886"><ele>377.5</ele><time>2026-04-23T09:52:00.115Z</time></trkpt><trkpt lat="44.1406474" lon="10.4158095"><ele>377.33333333333337</ele><time>2026-04-23T09:52:01.116Z</time></trkpt><trkpt lat="44.1406277" lon="10.4159271"><ele>377.1666666666667</ele><time>2026-04-23T09:52:02.107Z</time></trkpt><trkpt lat="44.14061" lon="10.4160426"><ele>377.0</ele><time>2026-04-23T09:52:03.117Z</time></trkpt><trkpt lat="44.1405957" lon="10.4161495"><ele>376.99999999999994</ele><time>2026-04-23T09:52:04.121Z</time></trkpt><trkpt lat="44.1405803" lon="10.416259"><ele>377.0</ele><time>2026-04-23T09:52:05.117Z</time></trkpt><trkpt lat="44.1405657" lon="10.4163691"><ele>377.0</ele><time>2026-04-23T09:52:06.119Z</time></trkpt><trkpt lat="44.1405532" lon="10.4164765"><ele>377.0</ele><time>2026-04-23T09:52:07.109Z</time></trkpt><trkpt lat="44.1405413" lon="10.4165771"><ele>377.0</ele><time>2026-04-23T09:52:08.108Z</time></trkpt><trkpt lat="44.140526" lon="10.4166721"><ele>376.99999999999994</ele><time>2026-04-23T09:52:09.11Z</time></trkpt><trkpt lat="44.1405161" lon="10.416763"><ele>377.0</ele><time>2026-04-23T09:52:10.131Z</time></trkpt><trkpt lat="44.1405039" lon="10.4168526"><ele>377.20000000000005</ele><time>2026-04-23T09:52:11.117Z</time></trkpt><trkpt lat="44.1404933" lon="10.4169414"><ele>377.4</ele><time>2026-04-23T09:52:12.123Z</time></trkpt><trkpt lat="44.1404696" lon="10.4171106"><ele>377.6</ele><time>2026-04-23T09:52:14.11Z</time></trkpt><trkpt lat="44.1404463" lon="10.4172743"><ele>377.79999999999995</ele><time>2026-04-23T09:52:16.126Z</time></trkpt><trkpt lat="44.1404254" lon="10.417425"><ele>378.0</ele><time>2026-04-23T09:52:18.118Z</time></trkpt><trkpt lat="44.1404061" lon="10.4175822"><ele>379.0</ele><time>2026-04-23T09:52:20.123Z</time></trkpt><trkpt lat="44.1403811" lon="10.417723"><ele>380.0</ele><time>2026-04-23T09:52:22.109Z</time></trkpt><trkpt lat="44.1403424" lon="10.4178604"><ele>381.0</ele><time>2026-04-23T09:52:24.111Z</time></trkpt><trkpt lat="44.1402863" lon="10.4179867"><ele>382.0</ele><time>2026-04-23T09:52:26.107Z</time></trkpt><trkpt lat="44.140218" lon="10.4180725"><ele>383.0</ele><time>2026-04-23T09:52:28.113Z</time></trkpt><trkpt lat="44.1401354" lon="10.4181121"><ele>385.1666666666667</ele><time>2026-04-23T09:52:30.106Z</time></trkpt><trkpt lat="44.1400457" lon="10.4181462"><ele>387.33333333333337</ele><time>2026-04-23T09:52:32.123Z</time></trkpt><trkpt lat="44.1399655" lon="10.4181635"><ele>389.5</ele><time>2026-04-23T09:52:34.109Z</time></trkpt><trkpt lat="44.1398868" lon="10.4181717"><ele>391.6666666666667</ele><time>2026-04-23T09:52:36.112Z</time></trkpt><trkpt lat="44.139809" lon="10.4181783"><ele>393.8333333333333</ele><time>2026-04-23T09:52:38.125Z</time></trkpt><trkpt lat="44.1397294" lon="10.4181873"><ele>396.0</ele><time>2026-04-23T09:52:40.12Z</time></trkpt><trkpt lat="44.1396479" lon="10.4181954"><ele>396.0</ele><time>2026-04-23T09:52:42.121Z</time></trkpt><trkpt lat="44.139567" lon="10.4181963"><ele>396.0</ele><time>2026-04-23T09:52:44.126Z</time></trkpt><trkpt lat="44.1394886" lon="10.4182014"><ele>396.0</ele><time>2026-04-23T09:52:46.133Z</time></trkpt><trkpt lat="44.1394098" lon="10.4182086"><ele>396.0</ele><time>2026-04-23T09:52:48.125Z</time></trkpt><trkpt lat="44.1393309" lon="10.4182109"><ele>396.0</ele><time>2026-04-23T09:52:50.117Z</time></trkpt><trkpt lat="44.139251" lon="10.4182058"><ele>396.0</ele><time>2026-04-23T09:52:52.117Z</time></trkpt><trkpt lat="44.1391739" lon="10.4181963"><ele>396.0</ele><time>2026-04-23T09:52:54.113Z</time></trkpt><trkpt lat="44.139097" lon="10.4181855"><ele>396.0</ele><time>2026-04-23T09:52:56.107Z</time></trkpt><trkpt lat="44.1390243" lon="10.418175"><ele>396.0</ele><time>2026-04-23T09:52:58.113Z</time></trkpt><trkpt lat="44.1389527" lon="10.4181844"><ele>396.0</ele><time>2026-04-23T09:53:00.116Z</time></trkpt><trkpt lat="44.1388757" lon="10.4181884"><ele>396.0</ele><time>2026-04-23T09:53:02.104Z</time></trkpt><trkpt lat="44.1388057" lon="10.4181941"><ele>396.0</ele><time>2026-04-23T09:53:04.101Z</time></trkpt><trkpt lat="44.1387346" lon="10.4181934"><ele>396.0</ele><time>2026-04-23T09:53:06.11Z</time></trkpt><trkpt lat="44.1386638" lon="10.4181945"><ele>397.0</ele><time>2026-04-23T09:53:08.106Z</time></trkpt><trkpt lat="44.1385907" lon="10.4181958"><ele>398.0</ele><time>2026-04-23T09:53:10.101Z</time></trkpt><trkpt lat="44.1385171" lon="10.4181906"><ele>399.0</ele><time>2026-04-23T09:53:12.102Z</time></trkpt><trkpt lat="44.1384414" lon="10.418177"><ele>400.0</ele><time>2026-04-23T09:53:14.106Z</time></trkpt><trkpt lat="44.13837" lon="10.4181609"><ele>401.0</ele><time>2026-04-23T09:53:16.104Z</time></trkpt><trkpt lat="44.1383034" lon="10.4181307"><ele>402.0</ele><time>2026-04-23T09:53:18.111Z</time></trkpt><trkpt lat="44.1382388" lon="10.4180996"><ele>403.0</ele><time>2026-04-23T09:53:20.101Z</time></trkpt><trkpt lat="44.1381722" lon="10.4180603"><ele>403.0</ele><time>2026-04-23T09:53:22.107Z</time></trkpt><trkpt lat="44.1381066" lon="10.4180161"><ele>403.0</ele><time>2026-04-23T09:53:24.102Z</time></trkpt><trkpt lat="44.1380417" lon="10.4179717"><ele>403.0</ele><time>2026-04-23T09:53:26.1Z</time></trkpt><trkpt lat="44.1379821" lon="10.4179184"><ele>403.0</ele><time>2026-04-23T09:53:28.113Z</time></trkpt><trkpt lat="44.1379232" lon="10.4178571"><ele>403.0</ele><time>2026-04-23T09:53:30.101Z</time></trkpt><trkpt lat="44.1378649" lon="10.4177973"><ele>403.0</ele><time>2026-04-23T09:53:32.105Z</time></trkpt><trkpt lat="44.1378061" lon="10.4177393"><ele>403.0</ele><time>2026-04-23T09:53:34.102Z</time></trkpt><trkpt lat="44.1377504" lon="10.4176776"><ele>402.5714285714286</ele><time>2026-04-23T09:53:36.103Z</time></trkpt><trkpt lat="44.1376956" lon="10.4176126"><ele>402.1428571428571</ele><time>2026-04-23T09:53:38.112Z</time></trkpt><trkpt lat="44.1376384" lon="10.4175483"><ele>401.7142857142857</ele><time>2026-04-23T09:53:40.119Z</time></trkpt><trkpt lat="44.1375779" lon="10.4174901"><ele>401.28571428571433</ele><time>2026-04-23T09:53:42.109Z</time></trkpt><trkpt lat="44.1375195" lon="10.4174311"><ele>400.8571428571429</ele><time>2026-04-23T09:53:44.117Z</time></trkpt><trkpt lat="44.1374644" lon="10.4173696"><ele>400.42857142857144</ele><time>2026-04-23T09:53:46.126Z</time></trkpt><trkpt lat="44.137409" lon="10.4173132"><ele>400.0</ele><time>2026-04-23T09:53:48.111Z</time></trkpt><trkpt lat="44.1373578" lon="10.4172561"><ele>399.2</ele><time>2026-04-23T09:53:50.108Z</time></trkpt><trkpt lat="44.1372975" lon="10.4171944"><ele>398.4</ele><time>2026-04-23T09:53:52.104Z</time></trkpt><trkpt lat="44.1372212" lon="10.4171153"><ele>397.6</ele><time>2026-04-23T09:53:54.106Z</time></trkpt><trkpt lat="44.1371461" lon="10.4170187"><ele>396.8</ele><time>2026-04-23T09:53:56.121Z</time></trkpt><trkpt lat="44.1370536" lon="10.4169215"><ele>396.0</ele><time>2026-04-23T09:53:58.117Z</time></trkpt><trkpt lat="44.1369533" lon="10.4168185"><ele>395.6666666666667</ele><time>2026-04-23T09:54:00.114Z</time></trkpt><trkpt lat="44.1368493" lon="10.4167062"><ele>395.33333333333337</ele><time>2026-04-23T09:54:02.117Z</time></trkpt><trkpt lat="44.1367963" lon="10.4166442"><ele>395.0</ele><time>2026-04-23T09:54:03.11Z</time></trkpt><trkpt lat="44.1367368" lon="10.4165849"><ele>394.6666666666667</ele><time>2026-04-23T09:54:04.113Z</time></trkpt><trkpt lat="44.1366732" lon="10.4165258"><ele>394.33333333333337</ele><time>2026-04-23T09:54:05.115Z</time></trkpt><trkpt lat="44.1366098" lon="10.4164646"><ele>394.0</ele><time>2026-04-23T09:54:06.111Z</time></trkpt><trkpt lat="44.136545" lon="10.4164014"><ele>393.00000000000006</ele><time>2026-04-23T09:54:07.116Z</time></trkpt><trkpt lat="44.1364801" lon="10.4163366"><ele>392.0</ele><time>2026-04-23T09:54:08.111Z</time></trkpt><trkpt lat="44.1364132" lon="10.4162726"><ele>391.0</ele><time>2026-04-23T09:54:09.115Z</time></trkpt><trkpt lat="44.1363462" lon="10.4162119"><ele>390.0</ele><time>2026-04-23T09:54:10.112Z</time></trkpt><trkpt lat="44.1362762" lon="10.4161552"><ele>389.00000000000006</ele><time>2026-04-23T09:54:11.113Z</time></trkpt><trkpt lat="44.1362002" lon="10.4161054"><ele>388.0</ele><time>2026-04-23T09:54:12.122Z</time></trkpt><trkpt lat="44.1361229" lon="10.4160574"><ele>388.00000000000006</ele><time>2026-04-23T09:54:13.126Z</time></trkpt><trkpt lat="44.1360446" lon="10.4160171"><ele>388.0</ele><time>2026-04-23T09:54:14.107Z</time></trkpt><trkpt lat="44.1359627" lon="10.4159787"><ele>388.0</ele><time>2026-04-23T09:54:15.108Z</time></trkpt><trkpt lat="44.1358834" lon="10.4159369"><ele>388.0</ele><time>2026-04-23T09:54:16.115Z</time></trkpt><trkpt lat="44.1357986" lon="10.4159039"><ele>388.00000000000006</ele><time>2026-04-23T09:54:17.12Z</time></trkpt><trkpt lat="44.1357126" lon="10.4158705"><ele>388.0</ele><time>2026-04-23T09:54:18.116Z</time></trkpt><trkpt lat="44.1356237" lon="10.4158374"><ele>387.2</ele><time>2026-04-23T09:54:19.113Z</time></trkpt><trkpt lat="44.1355403" lon="10.4157968"><ele>386.4</ele><time>2026-04-23T09:54:20.123Z</time></trkpt><trkpt lat="44.1354497" lon="10.4157539"><ele>385.59999999999997</ele><time>2026-04-23T09:54:21.117Z</time></trkpt><trkpt lat="44.1353579" lon="10.4157149"><ele>384.79999999999995</ele><time>2026-04-23T09:54:22.11Z</time></trkpt><trkpt lat="44.1352665" lon="10.4156697"><ele>384.0</ele><time>2026-04-23T09:54:23.114Z</time></trkpt><trkpt lat="44.1351771" lon="10.4156244"><ele>384.0</ele><time>2026-04-23T09:54:24.111Z</time></trkpt><trkpt lat="44.1350828" lon="10.415574"><ele>384.0</ele><time>2026-04-23T09:54:25.117Z</time></trkpt><trkpt lat="44.1349862" lon="10.415521"><ele>384.0</ele><time>2026-04-23T09:54:26.108Z</time></trkpt><trkpt lat="44.1348917" lon="10.4154654"><ele>384.0</ele><time>2026-04-23T09:54:27.115Z</time></trkpt><trkpt lat="44.1348012" lon="10.4153962"><ele>384.0</ele><time>2026-04-23T09:54:28.117Z</time></trkpt><trkpt lat="44.1347223" lon="10.4153116"><ele>383.6</ele><time>2026-04-23T09:54:29.125Z</time></trkpt><trkpt lat="44.134644" lon="10.4152187"><ele>383.2</ele><time>2026-04-23T09:54:30.105Z</time></trkpt><trkpt lat="44.1345641" lon="10.4151261"><ele>382.8</ele><time>2026-04-23T09:54:31.124Z</time></trkpt><trkpt lat="44.1344825" lon="10.4150368"><ele>382.40000000000003</ele><time>2026-04-23T09:54:32.106Z</time></trkpt><trkpt lat="44.1344032" lon="10.4149474"><ele>382.0</ele><time>2026-04-23T09:54:33.106Z</time></trkpt><trkpt lat="44.1343169" lon="10.4148525"><ele>382.0</ele><time>2026-04-23T09:54:34.11Z</time></trkpt><trkpt lat="44.1342324" lon="10.4147583"><ele>382.0</ele><time>2026-04-23T09:54:35.11Z</time></trkpt><trkpt lat="44.1341446" lon="10.4146672"><ele>382.0</ele><time>2026-04-23T09:54:36.118Z</time></trkpt><trkpt lat="44.1340603" lon="10.4145782"><ele>382.0</ele><time>2026-04-23T09:54:37.114Z</time></trkpt><trkpt lat="44.1339775" lon="10.4144874"><ele>382.0</ele><time>2026-04-23T09:54:38.107Z</time></trkpt><trkpt lat="44.1338972" lon="10.4143953"><ele>381.20000000000005</ele><time>2026-04-23T09:54:39.115Z</time></trkpt><trkpt lat="44.1338176" lon="10.4142995"><ele>380.4</ele><time>2026-04-23T09:54:40.118Z</time></trkpt><trkpt lat="44.1337387" lon="10.4142043"><ele>379.6</ele><time>2026-04-23T09:54:41.106Z</time></trkpt><trkpt lat="44.1336579" lon="10.414114"><ele>378.79999999999995</ele><time>2026-04-23T09:54:42.113Z</time></trkpt><trkpt lat="44.1335767" lon="10.4140317"><ele>378.0</ele><time>2026-04-23T09:54:43.127Z</time></trkpt><trkpt lat="44.1334938" lon="10.4139486"><ele>378.0</ele><time>2026-04-23T09:54:44.11Z</time></trkpt><trkpt lat="44.133402" lon="10.413889"><ele>378.0</ele><time>2026-04-23T09:54:45.112Z</time></trkpt><trkpt lat="44.1333154" lon="10.4138351"><ele>378.0</ele><time>2026-04-23T09:54:46.125Z</time></trkpt><trkpt lat="44.1332226" lon="10.413791"><ele>378.0</ele><time>2026-04-23T09:54:47.125Z</time></trkpt><trkpt lat="44.1331257" lon="10.4137558"><ele>378.0</ele><time>2026-04-23T09:54:48.12Z</time></trkpt><trkpt lat="44.1330299" lon="10.4137173"><ele>377.0</ele><time>2026-04-23T09:54:49.12Z</time></trkpt><trkpt lat="44.1329309" lon="10.4136785"><ele>376.0</ele><time>2026-04-23T09:54:50.116Z</time></trkpt><trkpt lat="44.1328294" lon="10.4136394"><ele>375.0</ele><time>2026-04-23T09:54:51.117Z</time></trkpt><trkpt lat="44.1327303" lon="10.4135978"><ele>374.0</ele><time>2026-04-23T09:54:52.115Z</time></trkpt><trkpt lat="44.1326308" lon="10.4135576"><ele>373.0</ele><time>2026-04-23T09:54:53.109Z</time></trkpt><trkpt lat="44.1325256" lon="10.4135176"><ele>373.0</ele><time>2026-04-23T09:54:54.107Z</time></trkpt><trkpt lat="44.1324231" lon="10.4134776"><ele>373.0</ele><time>2026-04-23T09:54:55.117Z</time></trkpt><trkpt lat="44.1323184" lon="10.4134372"><ele>373.0</ele><time>2026-04-23T09:54:56.123Z</time></trkpt><trkpt lat="44.1322147" lon="10.4133965"><ele>373.0</ele><time>2026-04-23T09:54:57.113Z</time></trkpt><trkpt lat="44.1321091" lon="10.4133518"><ele>373.0</ele><time>2026-04-23T09:54:58.119Z</time></trkpt><trkpt lat="44.1319999" lon="10.4133052"><ele>371.75</ele><time>2026-04-23T09:54:59.114Z</time></trkpt><trkpt lat="44.1318905" lon="10.4132538"><ele>370.5</ele><time>2026-04-23T09:55:00.125Z</time></trkpt><trkpt lat="44.1317827" lon="10.4132042"><ele>369.25</ele><time>2026-04-23T09:55:01.118Z</time></trkpt><trkpt lat="44.1316763" lon="10.4131495"><ele>368.0</ele><time>2026-04-23T09:55:02.109Z</time></trkpt><trkpt lat="44.1315736" lon="10.4130916"><ele>367.59999999999997</ele><time>2026-04-23T09:55:03.11Z</time></trkpt><trkpt lat="44.1314681" lon="10.4130313"><ele>367.2</ele><time>2026-04-23T09:55:04.118Z</time></trkpt><trkpt lat="44.1313671" lon="10.41297"><ele>366.8</ele><time>2026-04-23T09:55:05.114Z</time></trkpt><trkpt lat="44.1312684" lon="10.4128989"><ele>366.4</ele><time>2026-04-23T09:55:06.105Z</time></trkpt><trkpt lat="44.1311706" lon="10.4128204"><ele>366.0</ele><time>2026-04-23T09:55:07.109Z</time></trkpt><trkpt lat="44.1310698" lon="10.4127509"><ele>365.6</ele><time>2026-04-23T09:55:08.118Z</time></trkpt><trkpt lat="44.1309725" lon="10.4126807"><ele>365.20000000000005</ele><time>2026-04-23T09:55:09.117Z</time></trkpt><trkpt lat="44.1308697" lon="10.4126077"><ele>364.79999999999995</ele><time>2026-04-23T09:55:10.116Z</time></trkpt><trkpt lat="44.1307695" lon="10.4125347"><ele>364.4</ele><time>2026-04-23T09:55:11.111Z</time></trkpt><trkpt lat="44.13067" lon="10.412465"><ele>364.0</ele><time>2026-04-23T09:55:12.12Z</time></trkpt><trkpt lat="44.1305713" lon="10.4123928"><ele>363.79999999999995</ele><time>2026-04-23T09:55:13.123Z</time></trkpt><trkpt lat="44.1304702" lon="10.4123285"><ele>363.59999999999997</ele><time>2026-04-23T09:55:14.114Z</time></trkpt><trkpt lat="44.1303719" lon="10.4122655"><ele>363.4</ele><time>2026-04-23T09:55:15.118Z</time></trkpt><trkpt lat="44.130272" lon="10.4121955"><ele>363.2</ele><time>2026-04-23T09:55:16.115Z</time></trkpt><trkpt lat="44.1301758" lon="10.4121316"><ele>363.0</ele><time>2026-04-23T09:55:17.117Z</time></trkpt><trkpt lat="44.1300777" lon="10.4120575"><ele>362.59999999999997</ele><time>2026-04-23T09:55:18.109Z</time></trkpt><trkpt lat="44.1299768" lon="10.4119923"><ele>362.2</ele><time>2026-04-23T09:55:19.123Z</time></trkpt><trkpt lat="44.1298792" lon="10.4119351"><ele>361.8</ele><time>2026-04-23T09:55:20.12Z</time></trkpt><trkpt lat="44.1297802" lon="10.4118725"><ele>361.4</ele><time>2026-04-23T09:55:21.111Z</time></trkpt><trkpt lat="44.12968" lon="10.4118192"><ele>361.0</ele><time>2026-04-23T09:55:22.13Z</time></trkpt><trkpt lat="44.1295782" lon="10.4117799"><ele>360.0</ele><time>2026-04-23T09:55:23.123Z</time></trkpt><trkpt lat="44.1294722" lon="10.4117433"><ele>359.0</ele><time>2026-04-23T09:55:24.119Z</time></trkpt><trkpt lat="44.1293809" lon="10.4117087"><ele>358.0</ele><time>2026-04-23T09:55:25.134Z</time></trkpt><trkpt lat="44.1292972" lon="10.411679"><ele>357.0</ele><time>2026-04-23T09:55:26.114Z</time></trkpt><trkpt lat="44.1292187" lon="10.4116519"><ele>356.0</ele><time>2026-04-23T09:55:27.125Z</time></trkpt><trkpt lat="44.1291473" lon="10.4116249"><ele>355.0</ele><time>2026-04-23T09:55:28.111Z</time></trkpt><trkpt lat="44.1290841" lon="10.4116001"><ele>354.5</ele><time>2026-04-23T09:55:29.119Z</time></trkpt><trkpt lat="44.1289922" lon="10.4114999"><ele>354.0</ele><time>2026-04-23T09:55:31.119Z</time></trkpt><trkpt lat="44.1289229" lon="10.4113625"><ele>353.5</ele><time>2026-04-23T09:55:33.114Z</time></trkpt><trkpt lat="44.1288081" lon="10.4113456"><ele>353.0</ele><time>2026-04-23T09:55:35.109Z</time></trkpt><trkpt lat="44.1286896" lon="10.4113616"><ele>353.0</ele><time>2026-04-23T09:55:37.11Z</time></trkpt><trkpt lat="44.1286253" lon="10.4113565"><ele>353.0</ele><time>2026-04-23T09:55:38.109Z</time></trkpt><trkpt lat="44.1285571" lon="10.4113547"><ele>353.0</ele><time>2026-04-23T09:55:39.126Z</time></trkpt><trkpt lat="44.1284867" lon="10.4113585"><ele>353.0</ele><time>2026-04-23T09:55:40.123Z</time></trkpt><trkpt lat="44.1284179" lon="10.411359"><ele>353.0</ele><time>2026-04-23T09:55:41.108Z</time></trkpt><trkpt lat="44.1283444" lon="10.4113507"><ele>353.0</ele><time>2026-04-23T09:55:42.132Z</time></trkpt><trkpt lat="44.1282718" lon="10.4113268"><ele>353.0</ele><time>2026-04-23T09:55:43.112Z</time></trkpt><trkpt lat="44.1282026" lon="10.4112965"><ele>352.5</ele><time>2026-04-23T09:55:44.124Z</time></trkpt><trkpt lat="44.128131" lon="10.4112651"><ele>352.0</ele><time>2026-04-23T09:55:45.115Z</time></trkpt><trkpt lat="44.1280592" lon="10.4112406"><ele>351.5</ele><time>2026-04-23T09:55:46.119Z</time></trkpt><trkpt lat="44.1279872" lon="10.4112147"><ele>351.0</ele><time>2026-04-23T09:55:47.121Z</time></trkpt><trkpt lat="44.1279148" lon="10.411189"><ele>350.5</ele><time>2026-04-23T09:55:48.113Z</time></trkpt><trkpt lat="44.1278403" lon="10.4111659"><ele>350.0</ele><time>2026-04-23T09:55:49.128Z</time></trkpt><trkpt lat="44.1277652" lon="10.4111403"><ele>350.0</ele><time>2026-04-23T09:55:50.111Z</time></trkpt><trkpt lat="44.1276913" lon="10.4111147"><ele>350.0</ele><time>2026-04-23T09:55:51.11Z</time></trkpt><trkpt lat="44.1276194" lon="10.4110889"><ele>350.0</ele><time>2026-04-23T09:55:52.109Z</time></trkpt><trkpt lat="44.1275453" lon="10.4110584"><ele>350.0</ele><time>2026-04-23T09:55:53.126Z</time></trkpt><trkpt lat="44.127473" lon="10.4110318"><ele>350.0</ele><time>2026-04-23T09:55:54.109Z</time></trkpt><trkpt lat="44.1274" lon="10.4110125"><ele>350.0</ele><time>2026-04-23T09:55:55.112Z</time></trkpt><trkpt lat="44.1273268" lon="10.4109889"><ele>349.83333333333337</ele><time>2026-04-23T09:55:56.111Z</time></trkpt><trkpt lat="44.1272548" lon="10.4109685"><ele>349.6666666666667</ele><time>2026-04-23T09:55:57.118Z</time></trkpt><trkpt lat="44.1271825" lon="10.4109444"><ele>349.5</ele><time>2026-04-23T09:55:58.126Z</time></trkpt><trkpt lat="44.1271078" lon="10.4109236"><ele>349.3333333333333</ele><time>2026-04-23T09:55:59.118Z</time></trkpt><trkpt lat="44.1270313" lon="10.4109085"><ele>349.16666666666663</ele><time>2026-04-23T09:56:00.131Z</time></trkpt><trkpt lat="44.1269578" lon="10.4108936"><ele>349.0</ele><time>2026-04-23T09:56:01.13Z</time></trkpt><trkpt lat="44.1268771" lon="10.4108695"><ele>349.0</ele><time>2026-04-23T09:56:02.132Z</time></trkpt><trkpt lat="44.1267968" lon="10.4108491"><ele>349.0</ele><time>2026-04-23T09:56:03.108Z</time></trkpt><trkpt lat="44.12671" lon="10.4108269"><ele>349.0</ele><time>2026-04-23T09:56:04.107Z</time></trkpt><trkpt lat="44.1266305" lon="10.4108066"><ele>349.0</ele><time>2026-04-23T09:56:05.118Z</time></trkpt><trkpt lat="44.1265462" lon="10.4107831"><ele>349.0</ele><time>2026-04-23T09:56:06.112Z</time></trkpt><trkpt lat="44.1264598" lon="10.41076"><ele>349.0</ele><time>2026-04-23T09:56:07.113Z</time></trkpt><trkpt lat="44.1263762" lon="10.41074"><ele>348.79999999999995</ele><time>2026-04-23T09:56:08.116Z</time></trkpt><trkpt lat="44.1262886" lon="10.410715"><ele>348.59999999999997</ele><time>2026-04-23T09:56:09.112Z</time></trkpt><trkpt lat="44.1261987" lon="10.4106952"><ele>348.4</ele><time>2026-04-23T09:56:10.118Z</time></trkpt><trkpt lat="44.1261101" lon="10.4106697"><ele>348.2</ele><time>2026-04-23T09:56:11.106Z</time></trkpt><trkpt lat="44.1260219" lon="10.410641"><ele>348.0</ele><time>2026-04-23T09:56:12.107Z</time></trkpt><trkpt lat="44.1259287" lon="10.4106108"><ele>348.0</ele><time>2026-04-23T09:56:13.121Z</time></trkpt><trkpt lat="44.1258417" lon="10.4105818"><ele>348.0</ele><time>2026-04-23T09:56:14.131Z</time></trkpt><trkpt lat="44.1257553" lon="10.4105487"><ele>348.0</ele><time>2026-04-23T09:56:15.13Z</time></trkpt><trkpt lat="44.1256697" lon="10.4105141"><ele>348.0</ele><time>2026-04-23T09:56:16.131Z</time></trkpt><trkpt lat="44.1255793" lon="10.4104757"><ele>348.0</ele><time>2026-04-23T09:56:17.125Z</time></trkpt><trkpt lat="44.1254873" lon="10.4104324"><ele>347.3333333333333</ele><time>2026-04-23T09:56:18.129Z</time></trkpt><trkpt lat="44.1253992" lon="10.410385"><ele>346.6666666666667</ele><time>2026-04-23T09:56:19.119Z</time></trkpt><trkpt lat="44.125312" lon="10.4103416"><ele>346.0</ele><time>2026-04-23T09:56:20.109Z</time></trkpt><trkpt lat="44.1252342" lon="10.4102905"><ele>345.33333333333337</ele><time>2026-04-23T09:56:21.113Z</time></trkpt><trkpt lat="44.1251772" lon="10.4102182"><ele>344.6666666666667</ele><time>2026-04-23T09:56:22.135Z</time></trkpt><trkpt lat="44.1251298" lon="10.4101287"><ele>344.0</ele><time>2026-04-23T09:56:23.115Z</time></trkpt><trkpt lat="44.125075" lon="10.4100394"><ele>344.0</ele><time>2026-04-23T09:56:24.118Z</time></trkpt><trkpt lat="44.125008" lon="10.4099766"><ele>344.0</ele><time>2026-04-23T09:56:25.115Z</time></trkpt><trkpt lat="44.124929" lon="10.4099387"><ele>344.0</ele><time>2026-04-23T09:56:26.122Z</time></trkpt><trkpt lat="44.1248461" lon="10.4099212"><ele>344.0</ele><time>2026-04-23T09:56:27.115Z</time></trkpt><trkpt lat="44.1247603" lon="10.4099188"><ele>344.0</ele><time>2026-04-23T09:56:28.108Z</time></trkpt><trkpt lat="44.1246812" lon="10.4099341"><ele>344.0</ele><time>2026-04-23T09:56:29.105Z</time></trkpt><trkpt lat="44.1245978" lon="10.4099405"><ele>343.33333333333337</ele><time>2026-04-23T09:56:30.116Z</time></trkpt><trkpt lat="44.124513" lon="10.4099231"><ele>342.6666666666667</ele><time>2026-04-23T09:56:31.131Z</time></trkpt><trkpt lat="44.1244236" lon="10.4099017"><ele>342.0</ele><time>2026-04-23T09:56:32.126Z</time></trkpt><trkpt lat="44.124345" lon="10.4098556"><ele>341.3333333333333</ele><time>2026-04-23T09:56:33.121Z</time></trkpt><trkpt lat="44.1242617" lon="10.4098139"><ele>340.66666666666663</ele><time>2026-04-23T09:56:34.121Z</time></trkpt><trkpt lat="44.1241847" lon="10.4097683"><ele>340.0</ele><time>2026-04-23T09:56:35.119Z</time></trkpt><trkpt lat="44.1241084" lon="10.409734"><ele>339.3333333333333</ele><time>2026-04-23T09:56:36.124Z</time></trkpt><trkpt lat="44.1240091" lon="10.4096958"><ele>338.66666666666663</ele><time>2026-04-23T09:56:38.127Z</time></trkpt><trkpt lat="44.1239344" lon="10.4096617"><ele>338.0</ele><time>2026-04-23T09:56:42.126Z</time></trkpt><trkpt lat="44.1238567" lon="10.4096352"><ele>337.3333333333333</ele><time>2026-04-23T09:56:45.107Z</time></trkpt><trkpt lat="44.1237839" lon="10.4096107"><ele>336.6666666666667</ele><time>2026-04-23T09:56:47.133Z</time></trkpt><trkpt lat="44.1237015" lon="10.4095819"><ele>336.0</ele><time>2026-04-23T09:56:49.127Z</time></trkpt><trkpt lat="44.1236105" lon="10.4095523"><ele>335.8</ele><time>2026-04-23T09:56:51.143Z</time></trkpt><trkpt lat="44.1235154" lon="10.4095212"><ele>335.6</ele><time>2026-04-23T09:56:53.122Z</time></trkpt><trkpt lat="44.1234159" lon="10.4094896"><ele>335.4</ele><time>2026-04-23T09:56:55.13Z</time></trkpt><trkpt lat="44.1233052" lon="10.4094457"><ele>335.2</ele><time>2026-04-23T09:56:57.129Z</time></trkpt><trkpt lat="44.1231937" lon="10.4094061"><ele>335.0</ele><time>2026-04-23T09:56:59.13Z</time></trkpt><trkpt lat="44.1230804" lon="10.4093631"><ele>334.6</ele><time>2026-04-23T09:57:01.111Z</time></trkpt><trkpt lat="44.1229632" lon="10.4093305"><ele>334.2</ele><time>2026-04-23T09:57:03.132Z</time></trkpt><trkpt lat="44.1228382" lon="10.4093136"><ele>333.79999999999995</ele><time>2026-04-23T09:57:05.106Z</time></trkpt><trkpt lat="44.1227094" lon="10.4092931"><ele>333.4</ele><time>2026-04-23T09:57:07.11Z</time></trkpt><trkpt lat="44.1226423" lon="10.4092822"><ele>333.0</ele><time>2026-04-23T09:57:08.106Z</time></trkpt><trkpt lat="44.1225749" lon="10.4092704"><ele>333.0</ele><time>2026-04-23T09:57:09.117Z</time></trkpt><trkpt lat="44.1225072" lon="10.4092617"><ele>333.0</ele><time>2026-04-23T09:57:10.138Z</time></trkpt><trkpt lat="44.1224373" lon="10.4092486"><ele>333.0</ele><time>2026-04-23T09:57:11.172Z</time></trkpt><trkpt lat="44.1223661" lon="10.4092307"><ele>333.0</ele><time>2026-04-23T09:57:12.116Z</time></trkpt><trkpt lat="44.1222906" lon="10.4092172"><ele>333.0</ele><time>2026-04-23T09:57:13.12Z</time></trkpt><trkpt lat="44.1222166" lon="10.4091991"><ele>333.0</ele><time>2026-04-23T09:57:14.123Z</time></trkpt><trkpt lat="44.1221388" lon="10.4091808"><ele>333.0</ele><time>2026-04-23T09:57:15.133Z</time></trkpt><trkpt lat="44.12206" lon="10.4091662"><ele>332.5</ele><time>2026-04-23T09:57:16.113Z</time></trkpt><trkpt lat="44.1219821" lon="10.4091487"><ele>332.0</ele><time>2026-04-23T09:57:17.107Z</time></trkpt><trkpt lat="44.1219015" lon="10.409134"><ele>331.5</ele><time>2026-04-23T09:57:18.126Z</time></trkpt><trkpt lat="44.1218184" lon="10.4091161"><ele>331.0</ele><time>2026-04-23T09:57:19.125Z</time></trkpt><trkpt lat="44.1217342" lon="10.4091029"><ele>330.5</ele><time>2026-04-23T09:57:20.122Z</time></trkpt><trkpt lat="44.1216484" lon="10.4090957"><ele>330.0</ele><time>2026-04-23T09:57:21.133Z</time></trkpt><trkpt lat="44.1215644" lon="10.4090879"><ele>329.5</ele><time>2026-04-23T09:57:22.113Z</time></trkpt><trkpt lat="44.1214775" lon="10.40908"><ele>329.0</ele><time>2026-04-23T09:57:23.115Z</time></trkpt><trkpt lat="44.1213908" lon="10.4090675"><ele>328.5</ele><time>2026-04-23T09:57:24.125Z</time></trkpt><trkpt lat="44.1213009" lon="10.4090626"><ele>328.0</ele><time>2026-04-23T09:57:25.122Z</time></trkpt><trkpt lat="44.1212154" lon="10.4090499"><ele>327.5</ele><time>2026-04-23T09:57:26.114Z</time></trkpt><trkpt lat="44.121127" lon="10.4090405"><ele>327.0</ele><time>2026-04-23T09:57:27.124Z</time></trkpt><trkpt lat="44.1210337" lon="10.4090318"><ele>327.0</ele><time>2026-04-23T09:57:28.124Z</time></trkpt><trkpt lat="44.1209411" lon="10.4090197"><ele>327.0</ele><time>2026-04-23T09:57:29.104Z</time></trkpt><trkpt lat="44.1208472" lon="10.4090145"><ele>327.0</ele><time>2026-04-23T09:57:30.132Z</time></trkpt><trkpt lat="44.1207582" lon="10.4090078"><ele>327.0</ele><time>2026-04-23T09:57:31.119Z</time></trkpt><trkpt lat="44.1206806" lon="10.408997"><ele>327.0</ele><time>2026-04-23T09:57:32.119Z</time></trkpt><trkpt lat="44.1206137" lon="10.4089866"><ele>327.0</ele><time>2026-04-23T09:57:33.125Z</time></trkpt><trkpt lat="44.1205413" lon="10.4089132"><ele>326.6</ele><time>2026-04-23T09:57:35.111Z</time></trkpt><trkpt lat="44.1205508" lon="10.4088045"><ele>326.20000000000005</ele><time>2026-04-23T09:57:37.119Z</time></trkpt><trkpt lat="44.1206096" lon="10.4086971"><ele>325.8</ele><time>2026-04-23T09:57:39.119Z</time></trkpt><trkpt lat="44.1206699" lon="10.4086003"><ele>325.4</ele><time>2026-04-23T09:57:41.119Z</time></trkpt><trkpt lat="44.1207361" lon="10.4085059"><ele>325.0</ele><time>2026-04-23T09:57:43.117Z</time></trkpt><trkpt lat="44.1207984" lon="10.4084037"><ele>325.0</ele><time>2026-04-23T09:57:45.115Z</time></trkpt><trkpt lat="44.1208624" lon="10.4083097"><ele>325.0</ele><time>2026-04-23T09:57:47.121Z</time></trkpt><trkpt lat="44.1209288" lon="10.4082076"><ele>325.0</ele><time>2026-04-23T09:57:49.132Z</time></trkpt><trkpt lat="44.1209907" lon="10.4081048"><ele>325.0</ele><time>2026-04-23T09:57:51.118Z</time></trkpt><trkpt lat="44.1210562" lon="10.4080055"><ele>325.0</ele><time>2026-04-23T09:57:53.143Z</time></trkpt><trkpt lat="44.1211186" lon="10.4078989"><ele>323.2</ele><time>2026-04-23T09:57:55.143Z</time></trkpt><trkpt lat="44.1211831" lon="10.4078019"><ele>321.4</ele><time>2026-04-23T09:57:57.113Z</time></trkpt><trkpt lat="44.1212459" lon="10.4077053"><ele>319.6</ele><time>2026-04-23T09:57:59.118Z</time></trkpt><trkpt lat="44.1213038" lon="10.4076023"><ele>317.8</ele><time>2026-04-23T09:58:01.127Z</time></trkpt><trkpt lat="44.1213581" lon="10.4074929"><ele>316.0</ele><time>2026-04-23T09:58:03.136Z</time></trkpt><trkpt lat="44.1214177" lon="10.4073872"><ele>316.0</ele><time>2026-04-23T09:58:05.125Z</time></trkpt><trkpt lat="44.1214796" lon="10.4072951"><ele>316.0</ele><time>2026-04-23T09:58:07.113Z</time></trkpt><trkpt lat="44.1215457" lon="10.4071991"><ele>316.0</ele><time>2026-04-23T09:58:09.111Z</time></trkpt><trkpt lat="44.121603" lon="10.4071016"><ele>316.0</ele><time>2026-04-23T09:58:11.109Z</time></trkpt><trkpt lat="44.1216672" lon="10.4070016"><ele>316.0</ele><time>2026-04-23T09:58:13.137Z</time></trkpt><trkpt lat="44.1217272" lon="10.4069029"><ele>317.0</ele><time>2026-04-23T09:58:15.117Z</time></trkpt><trkpt lat="44.121788" lon="10.406799"><ele>318.0</ele><time>2026-04-23T09:58:17.119Z</time></trkpt><trkpt lat="44.1218469" lon="10.4066911"><ele>319.0</ele><time>2026-04-23T09:58:19.115Z</time></trkpt><trkpt lat="44.1219081" lon="10.4065943"><ele>320.0</ele><time>2026-04-23T09:58:21.119Z</time></trkpt><trkpt lat="44.1219699" lon="10.4064992"><ele>321.0</ele><time>2026-04-23T09:58:23.122Z</time></trkpt><trkpt lat="44.1220283" lon="10.4064013"><ele>318.2</ele><time>2026-04-23T09:58:25.118Z</time></trkpt><trkpt lat="44.1220867" lon="10.4063055"><ele>315.40000000000003</ele><time>2026-04-23T09:58:27.125Z</time></trkpt><trkpt lat="44.1221483" lon="10.4062082"><ele>312.6</ele><time>2026-04-23T09:58:29.125Z</time></trkpt><trkpt lat="44.1222067" lon="10.4061112"><ele>309.8</ele><time>2026-04-23T09:58:31.121Z</time></trkpt><trkpt lat="44.1222715" lon="10.4060191"><ele>307.0</ele><time>2026-04-23T09:58:33.122Z</time></trkpt><trkpt lat="44.1223313" lon="10.4059216"><ele>307.0</ele><time>2026-04-23T09:58:35.121Z</time></trkpt><trkpt lat="44.1223949" lon="10.4058221"><ele>307.0</ele><time>2026-04-23T09:58:37.118Z</time></trkpt><trkpt lat="44.122454" lon="10.4057246"><ele>307.0</ele><time>2026-04-23T09:58:39.103Z</time></trkpt><trkpt lat="44.1225151" lon="10.4056295"><ele>307.0</ele><time>2026-04-23T09:58:41.125Z</time></trkpt><trkpt lat="44.122577" lon="10.4055269"><ele>307.0</ele><time>2026-04-23T09:58:43.138Z</time></trkpt><trkpt lat="44.1226344" lon="10.405425"><ele>310.2</ele><time>2026-04-23T09:58:45.125Z</time></trkpt><trkpt lat="44.122691" lon="10.4053304"><ele>313.4</ele><time>2026-04-23T09:58:47.116Z</time></trkpt><trkpt lat="44.1227501" lon="10.4052293"><ele>316.59999999999997</ele><time>2026-04-23T09:58:49.119Z</time></trkpt><trkpt lat="44.1228132" lon="10.4051243"><ele>319.79999999999995</ele><time>2026-04-23T09:58:51.106Z</time></trkpt><trkpt lat="44.1228726" lon="10.405031"><ele>323.0</ele><time>2026-04-23T09:58:53.125Z</time></trkpt><trkpt lat="44.1229303" lon="10.4049317"><ele>323.0</ele><time>2026-04-23T09:58:55.126Z</time></trkpt><trkpt lat="44.1229928" lon="10.4048286"><ele>323.0</ele><time>2026-04-23T09:58:57.114Z</time></trkpt><trkpt lat="44.1230558" lon="10.4047249"><ele>323.0</ele><time>2026-04-23T09:58:59.111Z</time></trkpt><trkpt lat="44.1231192" lon="10.4046249"><ele>323.0</ele><time>2026-04-23T09:59:01.125Z</time></trkpt><trkpt lat="44.1231822" lon="10.4045272"><ele>323.0</ele><time>2026-04-23T09:59:03.113Z</time></trkpt><trkpt lat="44.1232413" lon="10.4044281"><ele>323.2</ele><time>2026-04-23T09:59:05.125Z</time></trkpt><trkpt lat="44.1232988" lon="10.4043287"><ele>323.4</ele><time>2026-04-23T09:59:07.127Z</time></trkpt><trkpt lat="44.1233527" lon="10.4042313"><ele>323.59999999999997</ele><time>2026-04-23T09:59:09.118Z</time></trkpt><trkpt lat="44.1234141" lon="10.4041337"><ele>323.79999999999995</ele><time>2026-04-23T09:59:11.118Z</time></trkpt><trkpt lat="44.1234702" lon="10.4040298"><ele>324.0</ele><time>2026-04-23T09:59:13.126Z</time></trkpt><trkpt lat="44.1235283" lon="10.4039257"><ele>323.4</ele><time>2026-04-23T09:59:15.11Z</time></trkpt><trkpt lat="44.1235903" lon="10.4038252"><ele>322.79999999999995</ele><time>2026-04-23T09:59:17.109Z</time></trkpt><trkpt lat="44.1236513" lon="10.4037267"><ele>322.20000000000005</ele><time>2026-04-23T09:59:19.125Z</time></trkpt><trkpt lat="44.1237079" lon="10.4036327"><ele>321.6</ele><time>2026-04-23T09:59:21.11Z</time></trkpt><trkpt lat="44.1237734" lon="10.4035302"><ele>321.0</ele><time>2026-04-23T09:59:23.11Z</time></trkpt><trkpt lat="44.1238354" lon="10.4034377"><ele>321.0</ele><time>2026-04-23T09:59:25.103Z</time></trkpt><trkpt lat="44.1238947" lon="10.403345"><ele>321.0</ele><time>2026-04-23T09:59:27.11Z</time></trkpt><trkpt lat="44.1239548" lon="10.4032493"><ele>321.0</ele><time>2026-04-23T09:59:29.132Z</time></trkpt><trkpt lat="44.1240133" lon="10.4031466"><ele>321.0</ele><time>2026-04-23T09:59:31.117Z</time></trkpt><trkpt lat="44.1240779" lon="10.4030563"><ele>321.0</ele><time>2026-04-23T09:59:33.117Z</time></trkpt><trkpt lat="44.1241344" lon="10.4029525"><ele>321.20000000000005</ele><time>2026-04-23T09:59:35.127Z</time></trkpt><trkpt lat="44.1241906" lon="10.4028549"><ele>321.40000000000003</ele><time>2026-04-23T09:59:37.115Z</time></trkpt><trkpt lat="44.1242477" lon="10.4027546"><ele>321.6</ele><time>2026-04-23T09:59:39.116Z</time></trkpt><trkpt lat="44.1243064" lon="10.4026596"><ele>321.8</ele><time>2026-04-23T09:59:41.118Z</time></trkpt><trkpt lat="44.1243673" lon="10.4025647"><ele>322.0</ele><time>2026-04-23T09:59:43.126Z</time></trkpt><trkpt lat="44.1244234" lon="10.4024708"><ele>322.0</ele><time>2026-04-23T09:59:45.127Z</time></trkpt><trkpt lat="44.1244844" lon="10.4023723"><ele>322.0</ele><time>2026-04-23T09:59:47.121Z</time></trkpt><trkpt lat="44.1245432" lon="10.4022763"><ele>322.0</ele><time>2026-04-23T09:59:49.122Z</time></trkpt><trkpt lat="44.1246055" lon="10.4021807"><ele>322.0</ele><time>2026-04-23T09:59:51.117Z</time></trkpt><trkpt lat="44.1246612" lon="10.4020842"><ele>322.0</ele><time>2026-04-23T09:59:53.118Z</time></trkpt><trkpt lat="44.1247175" lon="10.4019787"><ele>322.40000000000003</ele><time>2026-04-23T09:59:55.123Z</time></trkpt><trkpt lat="44.124776" lon="10.4018837"><ele>322.8</ele><time>2026-04-23T09:59:57.127Z</time></trkpt><trkpt lat="44.1248395" lon="10.4017824"><ele>323.2</ele><time>2026-04-23T09:59:59.122Z</time></trkpt><trkpt lat="44.1248965" lon="10.4016833"><ele>323.6</ele><time>2026-04-23T10:00:01.12Z</time></trkpt><trkpt lat="44.1249556" lon="10.4015862"><ele>324.0</ele><time>2026-04-23T10:00:03.119Z</time></trkpt><trkpt lat="44.1250191" lon="10.4014891"><ele>324.0</ele><time>2026-04-23T10:00:05.123Z</time></trkpt><trkpt lat="44.1250818" lon="10.4013928"><ele>324.0</ele><time>2026-04-23T10:00:07.116Z</time></trkpt><trkpt lat="44.1251365" lon="10.4012865"><ele>324.0</ele><time>2026-04-23T10:00:09.107Z</time></trkpt><trkpt lat="44.1251866" lon="10.401197"><ele>324.0</ele><time>2026-04-23T10:00:11.106Z</time></trkpt><trkpt lat="44.1252354" lon="10.4011013"><ele>324.0</ele><time>2026-04-23T10:00:13.103Z</time></trkpt><trkpt lat="44.1252938" lon="10.4010183"><ele>324.0</ele><time>2026-04-23T10:00:15.106Z</time></trkpt><trkpt lat="44.12537" lon="10.4009896"><ele>323.3333333333333</ele><time>2026-04-23T10:00:18.107Z</time></trkpt><trkpt lat="44.1254199" lon="10.4009024"><ele>322.6666666666667</ele><time>2026-04-23T10:00:22.109Z</time></trkpt><trkpt lat="44.1254688" lon="10.4008132"><ele>322.0</ele><time>2026-04-23T10:00:25.111Z</time></trkpt><trkpt lat="44.1255272" lon="10.4007292"><ele>321.33333333333337</ele><time>2026-04-23T10:00:28.113Z</time></trkpt><trkpt lat="44.1255805" lon="10.4006361"><ele>320.6666666666667</ele><time>2026-04-23T10:00:31.112Z</time></trkpt><trkpt lat="44.1256265" lon="10.4005496"><ele>320.0</ele><time>2026-04-23T10:00:34.115Z</time></trkpt><trkpt lat="44.1256389" lon="10.4004561"><ele>320.0</ele><time>2026-04-23T10:00:37.114Z</time></trkpt><trkpt lat="44.1256349" lon="10.4003662"><ele>320.0</ele><time>2026-04-23T10:00:41.119Z</time></trkpt><trkpt lat="44.1257108" lon="10.4003398"><ele>320.0</ele><time>2026-04-23T10:00:45.106Z</time></trkpt><trkpt lat="44.1257781" lon="10.4003242"><ele>320.0</ele><time>2026-04-23T10:00:49.124Z</time></trkpt><trkpt lat="44.1257601" lon="10.4002261"><ele>320.0</ele><time>2026-04-23T10:00:52.125Z</time></trkpt><trkpt lat="44.1257448" lon="10.4001263"><ele>320.0</ele><time>2026-04-23T10:00:54.11Z</time></trkpt><trkpt lat="44.1257253" lon="10.4000418"><ele>320.0</ele><time>2026-04-23T10:00:56.113Z</time></trkpt><trkpt lat="44.1257717" lon="10.4001045"><ele>320.0</ele><time>2026-04-23T10:01:01.126Z</time></trkpt><trkpt lat="44.1257872" lon="10.4001965"><ele>320.0</ele><time>2026-04-23T10:01:03.134Z</time></trkpt><trkpt lat="44.1258042" lon="10.4003089"><ele>320.0</ele><time>2026-04-23T10:01:05.116Z</time></trkpt><trkpt lat="44.1258229" lon="10.4004117"><ele>320.0</ele><time>2026-04-23T10:01:07.112Z</time></trkpt><trkpt lat="44.1258995" lon="10.4004336"><ele>320.0</ele><time>2026-04-23T10:01:10.113Z</time></trkpt><trkpt lat="44.1259324" lon="10.400351"><ele>320.0</ele><time>2026-04-23T10:01:15.114Z</time></trkpt><trkpt lat="44.1258961" lon="10.4002532"><ele>320.0</ele><time>2026-04-23T10:01:18.113Z</time></trkpt><trkpt lat="44.1258702" lon="10.4001612"><ele>320.0</ele><time>2026-04-23T10:01:20.117Z</time></trkpt><trkpt lat="44.1259324" lon="10.4000481"><ele>320.0</ele><time>2026-04-23T10:01:22.108Z</time></trkpt><trkpt lat="44.1260288" lon="10.3999542"><ele>320.0</ele><time>2026-04-23T10:01:24.112Z</time></trkpt><trkpt lat="44.1260861" lon="10.3999125"><ele>320.0</ele><time>2026-04-23T10:01:25.117Z</time></trkpt><trkpt lat="44.126149" lon="10.3998871"><ele>320.0</ele><time>2026-04-23T10:01:26.136Z</time></trkpt><trkpt lat="44.1262111" lon="10.3998599"><ele>320.0</ele><time>2026-04-23T10:01:27.111Z</time></trkpt><trkpt lat="44.126276" lon="10.3998393"><ele>320.0</ele><time>2026-04-23T10:01:28.114Z</time></trkpt><trkpt lat="44.1263411" lon="10.3998112"><ele>320.0</ele><time>2026-04-23T10:01:29.107Z</time></trkpt><trkpt lat="44.1264062" lon="10.3997782"><ele>320.0</ele><time>2026-04-23T10:01:30.116Z</time></trkpt><trkpt lat="44.12647" lon="10.3997495"><ele>320.0</ele><time>2026-04-23T10:01:31.119Z</time></trkpt><trkpt lat="44.1265397" lon="10.3997188"><ele>320.0</ele><time>2026-04-23T10:01:32.116Z</time></trkpt><trkpt lat="44.1266094" lon="10.3996891"><ele>320.0</ele><time>2026-04-23T10:01:33.114Z</time></trkpt><trkpt lat="44.1266814" lon="10.3996586"><ele>319.0</ele><time>2026-04-23T10:01:34.121Z</time></trkpt><trkpt lat="44.1267557" lon="10.399628"><ele>318.0</ele><time>2026-04-23T10:01:35.108Z</time></trkpt><trkpt lat="44.12683" lon="10.3995994"><ele>317.0</ele><time>2026-04-23T10:01:36.12Z</time></trkpt><trkpt lat="44.1268987" lon="10.3995631"><ele>316.0</ele><time>2026-04-23T10:01:37.115Z</time></trkpt><trkpt lat="44.1269664" lon="10.3995121"><ele>315.0</ele><time>2026-04-23T10:01:38.125Z</time></trkpt><trkpt lat="44.1270144" lon="10.3994332"><ele>314.0</ele><time>2026-04-23T10:01:39.118Z</time></trkpt><trkpt lat="44.1270391" lon="10.3993377"><ele>314.0</ele><time>2026-04-23T10:01:40.112Z</time></trkpt><trkpt lat="44.1270464" lon="10.399243"><ele>314.0</ele><time>2026-04-23T10:01:41.117Z</time></trkpt><trkpt lat="44.1270112" lon="10.3990913"><ele>314.0</ele><time>2026-04-23T10:01:43.116Z</time></trkpt><trkpt lat="44.1269671" lon="10.3989704"><ele>314.0</ele><time>2026-04-23T10:01:45.121Z</time></trkpt><trkpt lat="44.1269337" lon="10.398872"><ele>314.0</ele><time>2026-04-23T10:01:47.111Z</time></trkpt><trkpt lat="44.1268989" lon="10.3987945"><ele>314.0</ele><time>2026-04-23T10:01:49.105Z</time></trkpt><trkpt lat="44.1268636" lon="10.3987173"><ele>315.33333333333337</ele><time>2026-04-23T10:01:51.113Z</time></trkpt><trkpt lat="44.1268212" lon="10.3986081"><ele>316.6666666666667</ele><time>2026-04-23T10:01:54.112Z</time></trkpt><trkpt lat="44.1267829" lon="10.3985031"><ele>318.0</ele><time>2026-04-23T10:01:57.11Z</time></trkpt><trkpt lat="44.1267384" lon="10.3984041"><ele>319.3333333333333</ele><time>2026-04-23T10:02:00.114Z</time></trkpt><trkpt lat="44.1266956" lon="10.3983017"><ele>320.66666666666663</ele><time>2026-04-23T10:02:03.123Z</time></trkpt><trkpt lat="44.126654" lon="10.3981937"><ele>322.0</ele><time>2026-04-23T10:02:06.113Z</time></trkpt><trkpt lat="44.1266115" lon="10.3980905"><ele>322.5</ele><time>2026-04-23T10:02:09.117Z</time></trkpt><trkpt lat="44.1265706" lon="10.3979876"><ele>323.0</ele><time>2026-04-23T10:02:12.113Z</time></trkpt><trkpt lat="44.1265548" lon="10.397871"><ele>323.5</ele><time>2026-04-23T10:02:15.104Z</time></trkpt><trkpt lat="44.1265741" lon="10.397746"><ele>324.0</ele><time>2026-04-23T10:02:18.124Z</time></trkpt><trkpt lat="44.1266156" lon="10.3976313"><ele>324.5</ele><time>2026-04-23T10:02:21.122Z</time></trkpt><trkpt lat="44.1266569" lon="10.3975627"><ele>325.0</ele><time>2026-04-23T10:02:23.118Z</time></trkpt><trkpt lat="44.1266999" lon="10.3974908"><ele>325.0</ele><time>2026-04-23T10:02:25.111Z</time></trkpt><trkpt lat="44.1267418" lon="10.3974186"><ele>325.0</ele><time>2026-04-23T10:02:27.116Z</time></trkpt><trkpt lat="44.1267814" lon="10.3973453"><ele>325.0</ele><time>2026-04-23T10:02:29.106Z</time></trkpt><trkpt lat="44.1268204" lon="10.3972632"><ele>325.0</ele><time>2026-04-23T10:02:31.131Z</time></trkpt><trkpt lat="44.1268583" lon="10.397181"><ele>325.0</ele><time>2026-04-23T10:02:33.133Z</time></trkpt><trkpt lat="44.1268957" lon="10.3971012"><ele>325.0</ele><time>2026-04-23T10:02:35.113Z</time></trkpt><trkpt lat="44.1269232" lon="10.3970153"><ele>325.0</ele><time>2026-04-23T10:02:37.108Z</time></trkpt><trkpt lat="44.1269523" lon="10.3969307"><ele>324.0</ele><time>2026-04-23T10:02:39.116Z</time></trkpt><trkpt lat="44.1269901" lon="10.3968525"><ele>323.0</ele><time>2026-04-23T10:02:41.11Z</time></trkpt><trkpt lat="44.1270287" lon="10.3967762"><ele>322.0</ele><time>2026-04-23T10:02:43.122Z</time></trkpt><trkpt lat="44.1270715" lon="10.3967026"><ele>321.0</ele><time>2026-04-23T10:02:45.125Z</time></trkpt><trkpt lat="44.1271159" lon="10.3966305"><ele>320.0</ele><time>2026-04-23T10:02:47.116Z</time></trkpt><trkpt lat="44.1271599" lon="10.3965557"><ele>319.0</ele><time>2026-04-23T10:02:49.115Z</time></trkpt><trkpt lat="44.1272002" lon="10.3964772"><ele>318.0</ele><time>2026-04-23T10:02:51.12Z</time></trkpt><trkpt lat="44.1272435" lon="10.3963964"><ele>317.7142857142857</ele><time>2026-04-23T10:02:53.141Z</time></trkpt><trkpt lat="44.1272887" lon="10.3963157"><ele>317.42857142857144</ele><time>2026-04-23T10:02:55.134Z</time></trkpt><trkpt lat="44.1273327" lon="10.3962379"><ele>317.14285714285717</ele><time>2026-04-23T10:02:57.117Z</time></trkpt><trkpt lat="44.1273776" lon="10.3961585"><ele>316.8571428571429</ele><time>2026-04-23T10:02:59.111Z</time></trkpt><trkpt lat="44.1274176" lon="10.3960704"><ele>316.57142857142856</ele><time>2026-04-23T10:03:01.119Z</time></trkpt><trkpt lat="44.1274572" lon="10.3959794"><ele>316.28571428571433</ele><time>2026-04-23T10:03:03.109Z</time></trkpt><trkpt lat="44.1274938" lon="10.3958819"><ele>316.0</ele><time>2026-04-23T10:03:05.114Z</time></trkpt><trkpt lat="44.1275239" lon="10.3957814"><ele>317.5</ele><time>2026-04-23T10:03:07.119Z</time></trkpt><trkpt lat="44.1275497" lon="10.3956809"><ele>319.0</ele><time>2026-04-23T10:03:09.108Z</time></trkpt><trkpt lat="44.1275701" lon="10.3955783"><ele>320.5</ele><time>2026-04-23T10:03:11.117Z</time></trkpt><trkpt lat="44.1275804" lon="10.3954712"><ele>322.0</ele><time>2026-04-23T10:03:13.111Z</time></trkpt><trkpt lat="44.1275923" lon="10.3953678"><ele>323.5</ele><time>2026-04-23T10:03:15.101Z</time></trkpt><trkpt lat="44.1276014" lon="10.3952597"><ele>325.0</ele><time>2026-04-23T10:03:17.102Z</time></trkpt><trkpt lat="44.1276111" lon="10.3951539"><ele>325.0</ele><time>2026-04-23T10:03:19.101Z</time></trkpt><trkpt lat="44.1276184" lon="10.3950522"><ele>325.0</ele><time>2026-04-23T10:03:21.112Z</time></trkpt><trkpt lat="44.1276301" lon="10.3949517"><ele>325.0</ele><time>2026-04-23T10:03:23.11Z</time></trkpt><trkpt lat="44.127647" lon="10.3948487"><ele>325.0</ele><time>2026-04-23T10:03:25.122Z</time></trkpt><trkpt lat="44.1276607" lon="10.3947478"><ele>325.0</ele><time>2026-04-23T10:03:27.116Z</time></trkpt><trkpt lat="44.1276705" lon="10.394642"><ele>325.0</ele><time>2026-04-23T10:03:29.115Z</time></trkpt><trkpt lat="44.1276819" lon="10.3945398"><ele>325.0</ele><time>2026-04-23T10:03:31.115Z</time></trkpt><trkpt lat="44.1276953" lon="10.3944342"><ele>324.8333333333333</ele><time>2026-04-23T10:03:33.109Z</time></trkpt><trkpt lat="44.1277154" lon="10.3943254"><ele>324.66666666666663</ele><time>2026-04-23T10:03:35.118Z</time></trkpt><trkpt lat="44.1277348" lon="10.3942169"><ele>324.5</ele><time>2026-04-23T10:03:37.123Z</time></trkpt><trkpt lat="44.1277632" lon="10.3941111"><ele>324.3333333333333</ele><time>2026-04-23T10:03:39.114Z</time></trkpt><trkpt lat="44.1278032" lon="10.3940178"><ele>324.1666666666667</ele><time>2026-04-23T10:03:41.119Z</time></trkpt><trkpt lat="44.1278553" lon="10.3939321"><ele>324.0</ele><time>2026-04-23T10:03:43.11Z</time></trkpt><trkpt lat="44.1279145" lon="10.3938535"><ele>323.8333333333333</ele><time>2026-04-23T10:03:45.111Z</time></trkpt><trkpt lat="44.1279794" lon="10.3937943"><ele>323.6666666666667</ele><time>2026-04-23T10:03:47.115Z</time></trkpt><trkpt lat="44.1280504" lon="10.3937517"><ele>323.5</ele><time>2026-04-23T10:03:49.11Z</time></trkpt><trkpt lat="44.1281255" lon="10.3937227"><ele>323.33333333333337</ele><time>2026-04-23T10:03:51.117Z</time></trkpt><trkpt lat="44.1281985" lon="10.3936895"><ele>323.1666666666667</ele><time>2026-04-23T10:03:53.121Z</time></trkpt><trkpt lat="44.1282738" lon="10.3936639"><ele>323.0</ele><time>2026-04-23T10:03:55.123Z</time></trkpt><trkpt lat="44.1283475" lon="10.3936376"><ele>324.6666666666667</ele><time>2026-04-23T10:03:57.115Z</time></trkpt><trkpt lat="44.1284232" lon="10.393606"><ele>326.33333333333337</ele><time>2026-04-23T10:03:59.105Z</time></trkpt><trkpt lat="44.1284994" lon="10.3935809"><ele>328.0</ele><time>2026-04-23T10:04:01.103Z</time></trkpt><trkpt lat="44.1285741" lon="10.3935501"><ele>329.6666666666667</ele><time>2026-04-23T10:04:03.118Z</time></trkpt><trkpt lat="44.1286483" lon="10.3935199"><ele>331.3333333333333</ele><time>2026-04-23T10:04:05.106Z</time></trkpt><trkpt lat="44.1287227" lon="10.3934842"><ele>333.0</ele><time>2026-04-23T10:04:07.11Z</time></trkpt><trkpt lat="44.128792" lon="10.3934376"><ele>333.0</ele><time>2026-04-23T10:04:09.125Z</time></trkpt><trkpt lat="44.1288592" lon="10.393386"><ele>333.0</ele><time>2026-04-23T10:04:11.121Z</time></trkpt><trkpt lat="44.1289254" lon="10.3933317"><ele>333.0</ele><time>2026-04-23T10:04:13.117Z</time></trkpt><trkpt lat="44.1289903" lon="10.393271"><ele>333.0</ele><time>2026-04-23T10:04:15.106Z</time></trkpt><trkpt lat="44.1290572" lon="10.3932137"><ele>333.0</ele><time>2026-04-23T10:04:17.112Z</time></trkpt><trkpt lat="44.1291217" lon="10.3931498"><ele>333.0</ele><time>2026-04-23T10:04:19.111Z</time></trkpt><trkpt lat="44.1291846" lon="10.3930849"><ele>333.3333333333333</ele><time>2026-04-23T10:04:21.111Z</time></trkpt><trkpt lat="44.1292394" lon="10.3930105"><ele>333.6666666666667</ele><time>2026-04-23T10:04:23.115Z</time></trkpt><trkpt lat="44.1292875" lon="10.3929319"><ele>334.0</ele><time>2026-04-23T10:04:25.118Z</time></trkpt><trkpt lat="44.1293341" lon="10.3928519"><ele>334.33333333333337</ele><time>2026-04-23T10:04:27.115Z</time></trkpt><trkpt lat="44.1293831" lon="10.3927744"><ele>334.6666666666667</ele><time>2026-04-23T10:04:29.116Z</time></trkpt><trkpt lat="44.1294306" lon="10.3926929"><ele>335.0</ele><time>2026-04-23T10:04:31.116Z</time></trkpt><trkpt lat="44.1294778" lon="10.39261"><ele>335.0</ele><time>2026-04-23T10:04:33.111Z</time></trkpt><trkpt lat="44.1295274" lon="10.3925301"><ele>335.0</ele><time>2026-04-23T10:04:35.114Z</time></trkpt><trkpt lat="44.1295779" lon="10.3924514"><ele>335.0</ele><time>2026-04-23T10:04:37.111Z</time></trkpt><trkpt lat="44.1296307" lon="10.3923766"><ele>335.0</ele><time>2026-04-23T10:04:39.125Z</time></trkpt><trkpt lat="44.1296905" lon="10.3923093"><ele>335.0</ele><time>2026-04-23T10:04:41.114Z</time></trkpt><trkpt lat="44.1297946" lon="10.3922325"><ele>335.0</ele><time>2026-04-23T10:04:44.1Z</time></trkpt><trkpt lat="44.1298644" lon="10.3921949"><ele>335.5</ele><time>2026-04-23T10:04:46.108Z</time></trkpt><trkpt lat="44.1299379" lon="10.3921719"><ele>336.0</ele><time>2026-04-23T10:04:48.107Z</time></trkpt><trkpt lat="44.1300149" lon="10.3921561"><ele>336.5</ele><time>2026-04-23T10:04:50.116Z</time></trkpt><trkpt lat="44.1301295" lon="10.3921263"><ele>337.0</ele><time>2026-04-23T10:04:53.109Z</time></trkpt><trkpt lat="44.1302035" lon="10.3921117"><ele>337.5</ele><time>2026-04-23T10:04:55.119Z</time></trkpt><trkpt lat="44.130278" lon="10.3920914"><ele>338.0</ele><time>2026-04-23T10:04:57.119Z</time></trkpt><trkpt lat="44.1303556" lon="10.3920732"><ele>338.0</ele><time>2026-04-23T10:04:59.114Z</time></trkpt><trkpt lat="44.1304316" lon="10.3920539"><ele>338.0</ele><time>2026-04-23T10:05:01.112Z</time></trkpt><trkpt lat="44.1305097" lon="10.3920329"><ele>338.0</ele><time>2026-04-23T10:05:03.111Z</time></trkpt><trkpt lat="44.1305863" lon="10.392012"><ele>338.0</ele><time>2026-04-23T10:05:05.115Z</time></trkpt><trkpt lat="44.1306639" lon="10.3920028"><ele>338.0</ele><time>2026-04-23T10:05:07.119Z</time></trkpt><trkpt lat="44.1307431" lon="10.3920061"><ele>338.0</ele><time>2026-04-23T10:05:09.116Z</time></trkpt><trkpt lat="44.1308193" lon="10.3920257"><ele>338.6666666666667</ele><time>2026-04-23T10:05:11.12Z</time></trkpt><trkpt lat="44.1308946" lon="10.3920474"><ele>339.33333333333337</ele><time>2026-04-23T10:05:13.118Z</time></trkpt><trkpt lat="44.1309716" lon="10.3920693"><ele>340.0</ele><time>2026-04-23T10:05:15.116Z</time></trkpt><trkpt lat="44.131049" lon="10.3920886"><ele>340.6666666666667</ele><time>2026-04-23T10:05:17.119Z</time></trkpt><trkpt lat="44.1311241" lon="10.3921106"><ele>341.3333333333333</ele><time>2026-04-23T10:05:19.119Z</time></trkpt><trkpt lat="44.1311944" lon="10.3921323"><ele>342.0</ele><time>2026-04-23T10:05:21.114Z</time></trkpt><trkpt lat="44.131269" lon="10.3921503"><ele>344.5</ele><time>2026-04-23T10:05:23.109Z</time></trkpt><trkpt lat="44.1313431" lon="10.3921753"><ele>347.0</ele><time>2026-04-23T10:05:25.107Z</time></trkpt><trkpt lat="44.1314096" lon="10.3922062"><ele>349.5</ele><time>2026-04-23T10:05:27.109Z</time></trkpt><trkpt lat="44.1314829" lon="10.3922507"><ele>352.0</ele><time>2026-04-23T10:05:29.125Z</time></trkpt><trkpt lat="44.1315513" lon="10.3922994"><ele>354.5</ele><time>2026-04-23T10:05:31.105Z</time></trkpt><trkpt lat="44.1316285" lon="10.3923588"><ele>357.0</ele><time>2026-04-23T10:05:33.13Z</time></trkpt><trkpt lat="44.1316932" lon="10.3924117"><ele>357.0</ele><time>2026-04-23T10:05:35.119Z</time></trkpt><trkpt lat="44.1317629" lon="10.3924671"><ele>357.0</ele><time>2026-04-23T10:05:37.103Z</time></trkpt><trkpt lat="44.1318279" lon="10.3925286"><ele>357.0</ele><time>2026-04-23T10:05:39.117Z</time></trkpt><trkpt lat="44.1318981" lon="10.3925785"><ele>357.0</ele><time>2026-04-23T10:05:41.107Z</time></trkpt><trkpt lat="44.1319692" lon="10.3926283"><ele>357.0</ele><time>2026-04-23T10:05:43.119Z</time></trkpt><trkpt lat="44.1320366" lon="10.392672"><ele>357.0</ele><time>2026-04-23T10:05:45.115Z</time></trkpt><trkpt lat="44.1321058" lon="10.3927139"><ele>357.0</ele><time>2026-04-23T10:05:47.102Z</time></trkpt><trkpt lat="44.1321777" lon="10.3927385"><ele>357.0</ele><time>2026-04-23T10:05:49.103Z</time></trkpt><trkpt lat="44.1322532" lon="10.3927463"><ele>357.0</ele><time>2026-04-23T10:05:51.114Z</time></trkpt><trkpt lat="44.132331" lon="10.3927362"><ele>357.0</ele><time>2026-04-23T10:05:53.102Z</time></trkpt><trkpt lat="44.132414" lon="10.392717"><ele>357.0</ele><time>2026-04-23T10:05:55.11Z</time></trkpt><trkpt lat="44.1324992" lon="10.3926937"><ele>357.0</ele><time>2026-04-23T10:05:57.114Z</time></trkpt><trkpt lat="44.132587" lon="10.3926687"><ele>355.20000000000005</ele><time>2026-04-23T10:05:59.124Z</time></trkpt><trkpt lat="44.1326763" lon="10.3926458"><ele>353.4</ele><time>2026-04-23T10:06:01.12Z</time></trkpt><trkpt lat="44.1327739" lon="10.3926304"><ele>351.6</ele><time>2026-04-23T10:06:03.127Z</time></trkpt><trkpt lat="44.1328762" lon="10.3926326"><ele>349.79999999999995</ele><time>2026-04-23T10:06:05.119Z</time></trkpt><trkpt lat="44.1329824" lon="10.3926617"><ele>348.0</ele><time>2026-04-23T10:06:07.117Z</time></trkpt><trkpt lat="44.1331018" lon="10.3927324"><ele>348.0</ele><time>2026-04-23T10:06:09.134Z</time></trkpt><trkpt lat="44.1331597" lon="10.3927702"><ele>348.0</ele><time>2026-04-23T10:06:10.127Z</time></trkpt><trkpt lat="44.1332241" lon="10.3928032"><ele>348.0</ele><time>2026-04-23T10:06:11.126Z</time></trkpt><trkpt lat="44.1332851" lon="10.3928362"><ele>348.0</ele><time>2026-04-23T10:06:12.101Z</time></trkpt><trkpt lat="44.1333439" lon="10.3928717"><ele>348.0</ele><time>2026-04-23T10:06:13.107Z</time></trkpt><trkpt lat="44.1334058" lon="10.3929091"><ele>348.0</ele><time>2026-04-23T10:06:14.115Z</time></trkpt><trkpt lat="44.1334722" lon="10.3929478"><ele>348.0</ele><time>2026-04-23T10:06:15.104Z</time></trkpt><trkpt lat="44.1335391" lon="10.3929896"><ele>348.1428571428571</ele><time>2026-04-23T10:06:16.103Z</time></trkpt><trkpt lat="44.1336031" lon="10.3930265"><ele>348.2857142857143</ele><time>2026-04-23T10:06:17.11Z</time></trkpt><trkpt lat="44.1336681" lon="10.3930518"><ele>348.42857142857144</ele><time>2026-04-23T10:06:18.112Z</time></trkpt><trkpt lat="44.13374" lon="10.3930681"><ele>348.57142857142856</ele><time>2026-04-23T10:06:19.113Z</time></trkpt><trkpt lat="44.1338177" lon="10.3930776"><ele>348.7142857142857</ele><time>2026-04-23T10:06:20.122Z</time></trkpt><trkpt lat="44.1338969" lon="10.3930892"><ele>348.85714285714283</ele><time>2026-04-23T10:06:21.114Z</time></trkpt><trkpt lat="44.1339726" lon="10.3930945"><ele>349.0</ele><time>2026-04-23T10:06:22.11Z</time></trkpt><trkpt lat="44.1340518" lon="10.393091"><ele>349.0</ele><time>2026-04-23T10:06:23.108Z</time></trkpt><trkpt lat="44.1341317" lon="10.3930806"><ele>349.0</ele><time>2026-04-23T10:06:24.113Z</time></trkpt><trkpt lat="44.1342156" lon="10.3930579"><ele>349.0</ele><time>2026-04-23T10:06:25.105Z</time></trkpt><trkpt lat="44.1342959" lon="10.3930139"><ele>349.0</ele><time>2026-04-23T10:06:26.11Z</time></trkpt><trkpt lat="44.1343746" lon="10.3929471"><ele>349.0</ele><time>2026-04-23T10:06:27.117Z</time></trkpt><trkpt lat="44.1344514" lon="10.3928764"><ele>349.0</ele><time>2026-04-23T10:06:28.117Z</time></trkpt><trkpt lat="44.1345372" lon="10.3928284"><ele>346.6</ele><time>2026-04-23T10:06:29.117Z</time></trkpt><trkpt lat="44.1346307" lon="10.3928043"><ele>344.2</ele><time>2026-04-23T10:06:30.11Z</time></trkpt><trkpt lat="44.1347336" lon="10.3927992"><ele>341.8</ele><time>2026-04-23T10:06:31.114Z</time></trkpt><trkpt lat="44.1348361" lon="10.3928047"><ele>339.40000000000003</ele><time>2026-04-23T10:06:32.114Z</time></trkpt><trkpt lat="44.134939" lon="10.3927932"><ele>337.0</ele><time>2026-04-23T10:06:33.131Z</time></trkpt><trkpt lat="44.1350393" lon="10.3927541"><ele>336.40000000000003</ele><time>2026-04-23T10:06:34.109Z</time></trkpt><trkpt lat="44.1351337" lon="10.3926915"><ele>335.8</ele><time>2026-04-23T10:06:35.118Z</time></trkpt><trkpt lat="44.1352158" lon="10.39261"><ele>335.2</ele><time>2026-04-23T10:06:36.117Z</time></trkpt><trkpt lat="44.1352903" lon="10.3925302"><ele>334.6</ele><time>2026-04-23T10:06:37.122Z</time></trkpt><trkpt lat="44.1353631" lon="10.3924492"><ele>334.0</ele><time>2026-04-23T10:06:38.121Z</time></trkpt><trkpt lat="44.135433" lon="10.3923737"><ele>334.0</ele><time>2026-04-23T10:06:39.12Z</time></trkpt><trkpt lat="44.1354826" lon="10.3922855"><ele>334.0</ele><time>2026-04-23T10:06:40.119Z</time></trkpt><trkpt lat="44.1355122" lon="10.3921959"><ele>334.0</ele><time>2026-04-23T10:06:41.124Z</time></trkpt><trkpt lat="44.1355261" lon="10.3921063"><ele>334.0</ele><time>2026-04-23T10:06:42.119Z</time></trkpt><trkpt lat="44.1355168" lon="10.3919779"><ele>334.0</ele><time>2026-04-23T10:06:44.116Z</time></trkpt><trkpt lat="44.1354872" lon="10.391888"><ele>334.0</ele><time>2026-04-23T10:06:46.108Z</time></trkpt><trkpt lat="44.1354435" lon="10.3917959"><ele>333.8333333333333</ele><time>2026-04-23T10:06:49.118Z</time></trkpt><trkpt lat="44.135393" lon="10.3917113"><ele>333.66666666666663</ele><time>2026-04-23T10:06:52.113Z</time></trkpt><trkpt lat="44.1353522" lon="10.3916435"><ele>333.5</ele><time>2026-04-23T10:06:54.1Z</time></trkpt><trkpt lat="44.1352964" lon="10.391554"><ele>333.3333333333333</ele><time>2026-04-23T10:06:57.119Z</time></trkpt><trkpt lat="44.1352411" lon="10.3914587"><ele>333.1666666666667</ele><time>2026-04-23T10:07:00.123Z</time></trkpt><trkpt lat="44.135185" lon="10.3913674"><ele>333.0</ele><time>2026-04-23T10:07:03.125Z</time></trkpt><trkpt lat="44.135132" lon="10.3912667"><ele>331.3333333333333</ele><time>2026-04-23T10:07:06.115Z</time></trkpt><trkpt lat="44.135079" lon="10.3911606"><ele>329.6666666666667</ele><time>2026-04-23T10:07:09.119Z</time></trkpt><trkpt lat="44.1350289" lon="10.3910623"><ele>328.0</ele><time>2026-04-23T10:07:12.111Z</time></trkpt><trkpt lat="44.1349846" lon="10.3909582"><ele>326.33333333333337</ele><time>2026-04-23T10:07:15.123Z</time></trkpt><trkpt lat="44.1349428" lon="10.390856"><ele>324.6666666666667</ele><time>2026-04-23T10:07:18.111Z</time></trkpt><trkpt lat="44.1349046" lon="10.3907498"><ele>323.0</ele><time>2026-04-23T10:07:21.11Z</time></trkpt><trkpt lat="44.1348679" lon="10.3906446"><ele>323.0</ele><time>2026-04-23T10:07:24.115Z</time></trkpt><trkpt lat="44.1348312" lon="10.3905438"><ele>323.0</ele><time>2026-04-23T10:07:27.121Z</time></trkpt><trkpt lat="44.1347897" lon="10.3904449"><ele>323.0</ele><time>2026-04-23T10:07:30.111Z</time></trkpt><trkpt lat="44.1347506" lon="10.3903382"><ele>323.0</ele><time>2026-04-23T10:07:33.106Z</time></trkpt><trkpt lat="44.1347121" lon="10.3902338"><ele>323.0</ele><time>2026-04-23T10:07:36.124Z</time></trkpt><trkpt lat="44.1346758" lon="10.3901295"><ele>323.0</ele><time>2026-04-23T10:07:39.111Z</time></trkpt><trkpt lat="44.1346392" lon="10.3900241"><ele>324.1666666666667</ele><time>2026-04-23T10:07:42.117Z</time></trkpt><trkpt lat="44.1346177" lon="10.3899061"><ele>325.33333333333337</ele><time>2026-04-23T10:07:45.109Z</time></trkpt><trkpt lat="44.1346121" lon="10.3897865"><ele>326.5</ele><time>2026-04-23T10:07:48.12Z</time></trkpt><trkpt lat="44.1346408" lon="10.3896708"><ele>327.6666666666667</ele><time>2026-04-23T10:07:51.116Z</time></trkpt><trkpt lat="44.1346752" lon="10.3895533"><ele>328.8333333333333</ele><time>2026-04-23T10:07:54.118Z</time></trkpt><trkpt lat="44.1347104" lon="10.3894387"><ele>330.0</ele><time>2026-04-23T10:07:57.115Z</time></trkpt><trkpt lat="44.1347472" lon="10.3893313"><ele>331.5714285714286</ele><time>2026-04-23T10:08:00.117Z</time></trkpt><trkpt lat="44.1347835" lon="10.3892108"><ele>333.14285714285717</ele><time>2026-04-23T10:08:03.121Z</time></trkpt><trkpt lat="44.1347978" lon="10.3891233"><ele>334.7142857142857</ele><time>2026-04-23T10:08:05.106Z</time></trkpt><trkpt lat="44.134811" lon="10.3890324"><ele>336.28571428571433</ele><time>2026-04-23T10:08:07.119Z</time></trkpt><trkpt lat="44.1348256" lon="10.388942"><ele>337.8571428571429</ele><time>2026-04-23T10:08:09.11Z</time></trkpt><trkpt lat="44.1348339" lon="10.3888467"><ele>339.42857142857144</ele><time>2026-04-23T10:08:11.119Z</time></trkpt><trkpt lat="44.1348408" lon="10.3887528"><ele>341.0</ele><time>2026-04-23T10:08:13.115Z</time></trkpt><trkpt lat="44.1348442" lon="10.3886585"><ele>341.42857142857144</ele><time>2026-04-23T10:08:15.118Z</time></trkpt><trkpt lat="44.134855" lon="10.38857"><ele>341.8571428571429</ele><time>2026-04-23T10:08:17.113Z</time></trkpt><trkpt lat="44.1348691" lon="10.3884798"><ele>342.28571428571433</ele><time>2026-04-23T10:08:19.11Z</time></trkpt><trkpt lat="44.1348904" lon="10.3883903"><ele>342.7142857142857</ele><time>2026-04-23T10:08:21.105Z</time></trkpt><trkpt lat="44.1349196" lon="10.3883068"><ele>343.14285714285717</ele><time>2026-04-23T10:08:23.111Z</time></trkpt><trkpt lat="44.1349478" lon="10.3882193"><ele>343.5714285714286</ele><time>2026-04-23T10:08:25.114Z</time></trkpt><trkpt lat="44.1349748" lon="10.3881327"><ele>344.0</ele><time>2026-04-23T10:08:27.127Z</time></trkpt><trkpt lat="44.1350028" lon="10.3880466"><ele>345.5714285714286</ele><time>2026-04-23T10:08:29.108Z</time></trkpt><trkpt lat="44.135032" lon="10.3879638"><ele>347.14285714285717</ele><time>2026-04-23T10:08:31.118Z</time></trkpt><trkpt lat="44.1350588" lon="10.3878792"><ele>348.7142857142857</ele><time>2026-04-23T10:08:33.117Z</time></trkpt><trkpt lat="44.1350856" lon="10.387791"><ele>350.28571428571433</ele><time>2026-04-23T10:08:35.124Z</time></trkpt><trkpt lat="44.1351178" lon="10.3877048"><ele>351.8571428571429</ele><time>2026-04-23T10:08:37.122Z</time></trkpt><trkpt lat="44.1351485" lon="10.3876189"><ele>353.42857142857144</ele><time>2026-04-23T10:08:39.131Z</time></trkpt><trkpt lat="44.1351772" lon="10.3875309"><ele>355.0</ele><time>2026-04-23T10:08:41.122Z</time></trkpt><trkpt lat="44.13521" lon="10.3874469"><ele>355.0</ele><time>2026-04-23T10:08:43.109Z</time></trkpt><trkpt lat="44.1352425" lon="10.3873626"><ele>355.0</ele><time>2026-04-23T10:08:45.114Z</time></trkpt><trkpt lat="44.135274" lon="10.3872783"><ele>355.0</ele><time>2026-04-23T10:08:47.117Z</time></trkpt><trkpt lat="44.1353044" lon="10.3871964"><ele>355.0</ele><time>2026-04-23T10:08:49.12Z</time></trkpt><trkpt lat="44.1353404" lon="10.3871169"><ele>355.0</ele><time>2026-04-23T10:08:51.113Z</time></trkpt><trkpt lat="44.135385" lon="10.3870479"><ele>355.0</ele><time>2026-04-23T10:08:53.11Z</time></trkpt><trkpt lat="44.1354433" lon="10.3869963"><ele>355.0</ele><time>2026-04-23T10:08:55.111Z</time></trkpt><trkpt lat="44.1355046" lon="10.3869574"><ele>354.42857142857144</ele><time>2026-04-23T10:08:57.122Z</time></trkpt><trkpt lat="44.1355674" lon="10.3869193"><ele>353.8571428571429</ele><time>2026-04-23T10:08:59.114Z</time></trkpt><trkpt lat="44.135634" lon="10.3868902"><ele>353.28571428571433</ele><time>2026-04-23T10:09:01.129Z</time></trkpt><trkpt lat="44.135702" lon="10.38686"><ele>352.7142857142857</ele><time>2026-04-23T10:09:03.105Z</time></trkpt><trkpt lat="44.1357741" lon="10.3868293"><ele>352.14285714285717</ele><time>2026-04-23T10:09:05.111Z</time></trkpt><trkpt lat="44.1358454" lon="10.3867946"><ele>351.5714285714286</ele><time>2026-04-23T10:09:07.122Z</time></trkpt><trkpt lat="44.1359171" lon="10.3867618"><ele>351.0</ele><time>2026-04-23T10:09:09.115Z</time></trkpt><trkpt lat="44.1359891" lon="10.3867322"><ele>352.3333333333333</ele><time>2026-04-23T10:09:11.121Z</time></trkpt><trkpt lat="44.1360596" lon="10.3867012"><ele>353.6666666666667</ele><time>2026-04-23T10:09:13.121Z</time></trkpt><trkpt lat="44.1361303" lon="10.38667"><ele>355.0</ele><time>2026-04-23T10:09:15.126Z</time></trkpt><trkpt lat="44.136201" lon="10.386637"><ele>356.33333333333337</ele><time>2026-04-23T10:09:17.114Z</time></trkpt><trkpt lat="44.1362759" lon="10.3866116"><ele>357.6666666666667</ele><time>2026-04-23T10:09:19.102Z</time></trkpt><trkpt lat="44.1363495" lon="10.38658"><ele>359.0</ele><time>2026-04-23T10:09:21.116Z</time></trkpt><trkpt lat="44.1364227" lon="10.3865473"><ele>359.0</ele><time>2026-04-23T10:09:23.117Z</time></trkpt><trkpt lat="44.1364956" lon="10.386518"><ele>359.0</ele><time>2026-04-23T10:09:25.115Z</time></trkpt><trkpt lat="44.1365679" lon="10.3864887"><ele>359.0</ele><time>2026-04-23T10:09:27.112Z</time></trkpt><trkpt lat="44.136642" lon="10.3864596"><ele>359.0</ele><time>2026-04-23T10:09:29.111Z</time></trkpt><trkpt lat="44.1367161" lon="10.3864268"><ele>359.0</ele><time>2026-04-23T10:09:31.116Z</time></trkpt><trkpt lat="44.1367843" lon="10.3863744"><ele>359.0</ele><time>2026-04-23T10:09:33.127Z</time></trkpt><trkpt lat="44.1368412" lon="10.3862964"><ele>359.83333333333337</ele><time>2026-04-23T10:09:35.114Z</time></trkpt><trkpt lat="44.1368765" lon="10.3861967"><ele>360.6666666666667</ele><time>2026-04-23T10:09:37.12Z</time></trkpt><trkpt lat="44.1368905" lon="10.3860891"><ele>361.5</ele><time>2026-04-23T10:09:39.11Z</time></trkpt><trkpt lat="44.1368877" lon="10.3859805"><ele>362.3333333333333</ele><time>2026-04-23T10:09:41.112Z</time></trkpt><trkpt lat="44.1368763" lon="10.3858752"><ele>363.16666666666663</ele><time>2026-04-23T10:09:43.111Z</time></trkpt><trkpt lat="44.1368627" lon="10.385767"><ele>364.0</ele><time>2026-04-23T10:09:45.117Z</time></trkpt><trkpt lat="44.1368488" lon="10.3856585"><ele>364.0</ele><time>2026-04-23T10:09:47.105Z</time></trkpt><trkpt lat="44.1368301" lon="10.3855486"><ele>364.0</ele><time>2026-04-23T10:09:49.105Z</time></trkpt><trkpt lat="44.1368131" lon="10.3854365"><ele>364.0</ele><time>2026-04-23T10:09:51.11Z</time></trkpt><trkpt lat="44.1367976" lon="10.385322"><ele>364.0</ele><time>2026-04-23T10:09:53.108Z</time></trkpt><trkpt lat="44.1367852" lon="10.3852035"><ele>364.0</ele><time>2026-04-23T10:09:55.11Z</time></trkpt><trkpt lat="44.1367666" lon="10.3850873"><ele>364.0</ele><time>2026-04-23T10:09:57.113Z</time></trkpt><trkpt lat="44.1367518" lon="10.3849697"><ele>364.66666666666663</ele><time>2026-04-23T10:09:59.126Z</time></trkpt><trkpt lat="44.1367367" lon="10.3848493"><ele>365.3333333333333</ele><time>2026-04-23T10:10:01.106Z</time></trkpt><trkpt lat="44.1367187" lon="10.3847311"><ele>366.0</ele><time>2026-04-23T10:10:03.111Z</time></trkpt><trkpt lat="44.1367051" lon="10.3846157"><ele>366.6666666666667</ele><time>2026-04-23T10:10:05.109Z</time></trkpt><trkpt lat="44.1366921" lon="10.3844968"><ele>367.33333333333337</ele><time>2026-04-23T10:10:07.129Z</time></trkpt><trkpt lat="44.1366784" lon="10.3843787"><ele>368.0</ele><time>2026-04-23T10:10:09.108Z</time></trkpt><trkpt lat="44.1366625" lon="10.3842621"><ele>369.0</ele><time>2026-04-23T10:10:11.132Z</time></trkpt><trkpt lat="44.1366486" lon="10.384146"><ele>370.0</ele><time>2026-04-23T10:10:13.123Z</time></trkpt><trkpt lat="44.1366378" lon="10.3840314"><ele>371.0</ele><time>2026-04-23T10:10:15.109Z</time></trkpt><trkpt lat="44.136626" lon="10.3839158"><ele>372.0</ele><time>2026-04-23T10:10:17.128Z</time></trkpt><trkpt lat="44.1366125" lon="10.3837985"><ele>373.0</ele><time>2026-04-23T10:10:19.115Z</time></trkpt><trkpt lat="44.1366023" lon="10.3836817"><ele>374.0</ele><time>2026-04-23T10:10:21.109Z</time></trkpt><trkpt lat="44.1366003" lon="10.3835733"><ele>374.0</ele><time>2026-04-23T10:10:23.104Z</time></trkpt><trkpt lat="44.1366043" lon="10.3834512"><ele>374.0</ele><time>2026-04-23T10:10:25.107Z</time></trkpt><trkpt lat="44.1366258" lon="10.38333"><ele>374.0</ele><time>2026-04-23T10:10:27.119Z</time></trkpt><trkpt lat="44.136663" lon="10.3832186"><ele>374.0</ele><time>2026-04-23T10:10:29.115Z</time></trkpt><trkpt lat="44.1367117" lon="10.383113"><ele>374.0</ele><time>2026-04-23T10:10:31.105Z</time></trkpt><trkpt lat="44.1367728" lon="10.3830207"><ele>374.0</ele><time>2026-04-23T10:10:33.115Z</time></trkpt><trkpt lat="44.1368423" lon="10.3829436"><ele>372.6</ele><time>2026-04-23T10:10:35.111Z</time></trkpt><trkpt lat="44.1369211" lon="10.3828786"><ele>371.2</ele><time>2026-04-23T10:10:37.119Z</time></trkpt><trkpt lat="44.1370012" lon="10.3828304"><ele>369.8</ele><time>2026-04-23T10:10:39.134Z</time></trkpt><trkpt lat="44.1370846" lon="10.3827832"><ele>368.40000000000003</ele><time>2026-04-23T10:10:41.114Z</time></trkpt><trkpt lat="44.1371669" lon="10.382727"><ele>367.0</ele><time>2026-04-23T10:10:43.112Z</time></trkpt><trkpt lat="44.1372509" lon="10.3826767"><ele>367.0</ele><time>2026-04-23T10:10:45.12Z</time></trkpt><trkpt lat="44.1373348" lon="10.3826264"><ele>367.0</ele><time>2026-04-23T10:10:47.11Z</time></trkpt><trkpt lat="44.1374134" lon="10.3825774"><ele>367.0</ele><time>2026-04-23T10:10:49.106Z</time></trkpt><trkpt lat="44.1374982" lon="10.3825207"><ele>367.0</ele><time>2026-04-23T10:10:51.12Z</time></trkpt><trkpt lat="44.1375722" lon="10.3824455"><ele>367.0</ele><time>2026-04-23T10:10:53.108Z</time></trkpt><trkpt lat="44.1376357" lon="10.3823586"><ele>367.6</ele><time>2026-04-23T10:10:55.111Z</time></trkpt><trkpt lat="44.1376931" lon="10.3822602"><ele>368.20000000000005</ele><time>2026-04-23T10:10:57.114Z</time></trkpt><trkpt lat="44.137749" lon="10.3821517"><ele>368.8</ele><time>2026-04-23T10:10:59.111Z</time></trkpt><trkpt lat="44.1377975" lon="10.3820431"><ele>369.4</ele><time>2026-04-23T10:11:01.114Z</time></trkpt><trkpt lat="44.1378459" lon="10.3819298"><ele>370.0</ele><time>2026-04-23T10:11:03.126Z</time></trkpt><trkpt lat="44.1378938" lon="10.38182"><ele>370.0</ele><time>2026-04-23T10:11:05.12Z</time></trkpt><trkpt lat="44.1379583" lon="10.3817378"><ele>370.0</ele><time>2026-04-23T10:11:07.105Z</time></trkpt><trkpt lat="44.1380392" lon="10.3816714"><ele>370.0</ele><time>2026-04-23T10:11:09.117Z</time></trkpt><trkpt lat="44.1381192" lon="10.3816217"><ele>370.0</ele><time>2026-04-23T10:11:11.119Z</time></trkpt><trkpt lat="44.1381924" lon="10.3815543"><ele>370.0</ele><time>2026-04-23T10:11:13.111Z</time></trkpt><trkpt lat="44.1382585" lon="10.3814647"><ele>370.0</ele><time>2026-04-23T10:11:15.119Z</time></trkpt><trkpt lat="44.138322" lon="10.3813716"><ele>371.8</ele><time>2026-04-23T10:11:17.111Z</time></trkpt><trkpt lat="44.1383823" lon="10.3812784"><ele>373.6</ele><time>2026-04-23T10:11:19.106Z</time></trkpt><trkpt lat="44.1384469" lon="10.3811918"><ele>375.4</ele><time>2026-04-23T10:11:21.1Z</time></trkpt><trkpt lat="44.1385193" lon="10.3811139"><ele>377.2</ele><time>2026-04-23T10:11:23.108Z</time></trkpt><trkpt lat="44.1385923" lon="10.3810346"><ele>379.0</ele><time>2026-04-23T10:11:25.111Z</time></trkpt><trkpt lat="44.1386633" lon="10.3809618"><ele>379.0</ele><time>2026-04-23T10:11:27.106Z</time></trkpt><trkpt lat="44.1387367" lon="10.380894"><ele>379.0</ele><time>2026-04-23T10:11:29.111Z</time></trkpt><trkpt lat="44.1388114" lon="10.3808223"><ele>379.0</ele><time>2026-04-23T10:11:31.106Z</time></trkpt><trkpt lat="44.1388836" lon="10.380755"><ele>379.0</ele><time>2026-04-23T10:11:33.104Z</time></trkpt><trkpt lat="44.1389562" lon="10.3806843"><ele>379.0</ele><time>2026-04-23T10:11:35.113Z</time></trkpt><trkpt lat="44.1390255" lon="10.3806075"><ele>379.0</ele><time>2026-04-23T10:11:37.119Z</time></trkpt><trkpt lat="44.1390862" lon="10.3805181"><ele>380.5</ele><time>2026-04-23T10:11:39.115Z</time></trkpt><trkpt lat="44.1391442" lon="10.3804228"><ele>382.0</ele><time>2026-04-23T10:11:41.11Z</time></trkpt><trkpt lat="44.1391873" lon="10.3803155"><ele>383.5</ele><time>2026-04-23T10:11:43.125Z</time></trkpt><trkpt lat="44.1392314" lon="10.3802105"><ele>385.0</ele><time>2026-04-23T10:11:45.111Z</time></trkpt><trkpt lat="44.1392774" lon="10.3801041"><ele>386.50000000000006</ele><time>2026-04-23T10:11:47.106Z</time></trkpt><trkpt lat="44.1393208" lon="10.3799953"><ele>388.0</ele><time>2026-04-23T10:11:49.114Z</time></trkpt><trkpt lat="44.1393654" lon="10.37989"><ele>388.00000000000006</ele><time>2026-04-23T10:11:51.119Z</time></trkpt><trkpt lat="44.1394139" lon="10.3797886"><ele>388.0</ele><time>2026-04-23T10:11:53.105Z</time></trkpt><trkpt lat="44.1394649" lon="10.3796903"><ele>388.0</ele><time>2026-04-23T10:11:55.108Z</time></trkpt><trkpt lat="44.1395233" lon="10.3796"><ele>388.0</ele><time>2026-04-23T10:11:57.103Z</time></trkpt><trkpt lat="44.1395858" lon="10.3795151"><ele>388.00000000000006</ele><time>2026-04-23T10:11:59.124Z</time></trkpt><trkpt lat="44.1396502" lon="10.3794323"><ele>388.0</ele><time>2026-04-23T10:12:01.117Z</time></trkpt><trkpt lat="44.1397172" lon="10.3793578"><ele>387.1666666666667</ele><time>2026-04-23T10:12:03.106Z</time></trkpt><trkpt lat="44.1397807" lon="10.3792799"><ele>386.33333333333337</ele><time>2026-04-23T10:12:05.102Z</time></trkpt><trkpt lat="44.1398456" lon="10.3792015"><ele>385.5</ele><time>2026-04-23T10:12:07.11Z</time></trkpt><trkpt lat="44.1399075" lon="10.3791132"><ele>384.6666666666667</ele><time>2026-04-23T10:12:09.11Z</time></trkpt><trkpt lat="44.1399563" lon="10.3790156"><ele>383.83333333333337</ele><time>2026-04-23T10:12:11.133Z</time></trkpt><trkpt lat="44.1400016" lon="10.378911"><ele>383.0</ele><time>2026-04-23T10:12:13.121Z</time></trkpt><trkpt lat="44.1400442" lon="10.3788091"><ele>385.79999999999995</ele><time>2026-04-23T10:12:15.104Z</time></trkpt><trkpt lat="44.1400837" lon="10.3787044"><ele>388.6</ele><time>2026-04-23T10:12:17.112Z</time></trkpt><trkpt lat="44.1401185" lon="10.3786008"><ele>391.4</ele><time>2026-04-23T10:12:19.126Z</time></trkpt><trkpt lat="44.1401531" lon="10.378496"><ele>394.20000000000005</ele><time>2026-04-23T10:12:21.121Z</time></trkpt><trkpt lat="44.1401934" lon="10.3783962"><ele>397.0</ele><time>2026-04-23T10:12:23.106Z</time></trkpt><trkpt lat="44.1402672" lon="10.378254"><ele>397.00000000000006</ele><time>2026-04-23T10:12:26.109Z</time></trkpt><trkpt lat="44.1403275" lon="10.3781749"><ele>397.0</ele><time>2026-04-23T10:12:28.106Z</time></trkpt><trkpt lat="44.1403994" lon="10.3781132"><ele>397.0</ele><time>2026-04-23T10:12:30.106Z</time></trkpt><trkpt lat="44.1404814" lon="10.3780685"><ele>397.0</ele><time>2026-04-23T10:12:32.117Z</time></trkpt><trkpt lat="44.1405628" lon="10.3780338"><ele>397.00000000000006</ele><time>2026-04-23T10:12:34.113Z</time></trkpt><trkpt lat="44.1406467" lon="10.3780161"><ele>397.0</ele><time>2026-04-23T10:12:36.104Z</time></trkpt><trkpt lat="44.1407305" lon="10.3780159"><ele>397.33333333333337</ele><time>2026-04-23T10:12:38.119Z</time></trkpt><trkpt lat="44.1408143" lon="10.3780183"><ele>397.6666666666667</ele><time>2026-04-23T10:12:40.129Z</time></trkpt><trkpt lat="44.1408998" lon="10.3780106"><ele>398.0</ele><time>2026-04-23T10:12:42.113Z</time></trkpt><trkpt lat="44.1409889" lon="10.3779888"><ele>398.33333333333337</ele><time>2026-04-23T10:12:44.104Z</time></trkpt><trkpt lat="44.1410724" lon="10.3779531"><ele>398.6666666666667</ele><time>2026-04-23T10:12:46.118Z</time></trkpt><trkpt lat="44.1411562" lon="10.3778975"><ele>399.0</ele><time>2026-04-23T10:12:48.129Z</time></trkpt><trkpt lat="44.1412338" lon="10.3778261"><ele>399.0</ele><time>2026-04-23T10:12:50.131Z</time></trkpt><trkpt lat="44.141309" lon="10.3777504"><ele>399.0</ele><time>2026-04-23T10:12:52.13Z</time></trkpt><trkpt lat="44.1413874" lon="10.3776793"><ele>399.0</ele><time>2026-04-23T10:12:54.101Z</time></trkpt><trkpt lat="44.1414704" lon="10.3776016"><ele>399.0</ele><time>2026-04-23T10:12:56.108Z</time></trkpt><trkpt lat="44.1415493" lon="10.377524"><ele>399.0</ele><time>2026-04-23T10:12:58.135Z</time></trkpt><trkpt lat="44.1416259" lon="10.3774566"><ele>399.0</ele><time>2026-04-23T10:13:00.132Z</time></trkpt><trkpt lat="44.1417062" lon="10.3773981"><ele>399.0</ele><time>2026-04-23T10:13:02.106Z</time></trkpt><trkpt lat="44.1417884" lon="10.3773342"><ele>399.0</ele><time>2026-04-23T10:13:04.117Z</time></trkpt><trkpt lat="44.1418548" lon="10.3772334"><ele>399.0</ele><time>2026-04-23T10:13:06.105Z</time></trkpt><trkpt lat="44.1419095" lon="10.3771293"><ele>399.0</ele><time>2026-04-23T10:13:08.12Z</time></trkpt><trkpt lat="44.1419635" lon="10.3770186"><ele>399.0</ele><time>2026-04-23T10:13:10.107Z</time></trkpt><trkpt lat="44.142008" lon="10.3768996"><ele>399.0</ele><time>2026-04-23T10:13:12.128Z</time></trkpt><trkpt lat="44.1420522" lon="10.3767813"><ele>399.0</ele><time>2026-04-23T10:13:14.132Z</time></trkpt><trkpt lat="44.1421053" lon="10.3766611"><ele>399.0</ele><time>2026-04-23T10:13:16.116Z</time></trkpt><trkpt lat="44.1421467" lon="10.3765406"><ele>399.0</ele><time>2026-04-23T10:13:18.107Z</time></trkpt><trkpt lat="44.1421883" lon="10.376417"><ele>398.2</ele><time>2026-04-23T10:13:20.121Z</time></trkpt><trkpt lat="44.1422168" lon="10.3762831"><ele>397.4</ele><time>2026-04-23T10:13:22.132Z</time></trkpt><trkpt lat="44.1422427" lon="10.3761557"><ele>396.6</ele><time>2026-04-23T10:13:24.113Z</time></trkpt><trkpt lat="44.1422636" lon="10.3760254"><ele>395.8</ele><time>2026-04-23T10:13:26.122Z</time></trkpt><trkpt lat="44.1422733" lon="10.3758917"><ele>395.0</ele><time>2026-04-23T10:13:28.12Z</time></trkpt><trkpt lat="44.1422844" lon="10.375759"><ele>395.0</ele><time>2026-04-23T10:13:30.139Z</time></trkpt><trkpt lat="44.1422845" lon="10.3756234"><ele>395.0</ele><time>2026-04-23T10:13:32.11Z</time></trkpt><trkpt lat="44.1422834" lon="10.375493"><ele>395.0</ele><time>2026-04-23T10:13:34.122Z</time></trkpt><trkpt lat="44.142288" lon="10.375358"><ele>395.0</ele><time>2026-04-23T10:13:36.13Z</time></trkpt><trkpt lat="44.1423068" lon="10.375222"><ele>395.0</ele><time>2026-04-23T10:13:38.116Z</time></trkpt><trkpt lat="44.1423362" lon="10.3750896"><ele>394.8</ele><time>2026-04-23T10:13:40.122Z</time></trkpt><trkpt lat="44.1423688" lon="10.3749678"><ele>394.6</ele><time>2026-04-23T10:13:42.122Z</time></trkpt><trkpt lat="44.1424118" lon="10.3748477"><ele>394.4</ele><time>2026-04-23T10:13:44.139Z</time></trkpt><trkpt lat="44.1424526" lon="10.3747265"><ele>394.2</ele><time>2026-04-23T10:13:46.122Z</time></trkpt><trkpt lat="44.1424916" lon="10.3745989"><ele>394.0</ele><time>2026-04-23T10:13:48.126Z</time></trkpt><trkpt lat="44.1425283" lon="10.3744778"><ele>397.2</ele><time>2026-04-23T10:13:50.129Z</time></trkpt><trkpt lat="44.1425683" lon="10.3743584"><ele>400.4</ele><time>2026-04-23T10:13:52.117Z</time></trkpt><trkpt lat="44.1426063" lon="10.3742348"><ele>403.6</ele><time>2026-04-23T10:13:54.108Z</time></trkpt><trkpt lat="44.1426393" lon="10.3741097"><ele>406.8</ele><time>2026-04-23T10:13:56.11Z</time></trkpt><trkpt lat="44.1426756" lon="10.3739849"><ele>410.0</ele><time>2026-04-23T10:13:58.134Z</time></trkpt><trkpt lat="44.142714" lon="10.3738619"><ele>410.4</ele><time>2026-04-23T10:14:00.111Z</time></trkpt><trkpt lat="44.1427629" lon="10.3737494"><ele>410.8</ele><time>2026-04-23T10:14:02.111Z</time></trkpt><trkpt lat="44.1428377" lon="10.3736629"><ele>411.20000000000005</ele><time>2026-04-23T10:14:04.118Z</time></trkpt><trkpt lat="44.1429319" lon="10.373625"><ele>411.6</ele><time>2026-04-23T10:14:06.122Z</time></trkpt><trkpt lat="44.1430246" lon="10.3736358"><ele>412.0</ele><time>2026-04-23T10:14:08.127Z</time></trkpt><trkpt lat="44.1431205" lon="10.3736869"><ele>412.6</ele><time>2026-04-23T10:14:10.139Z</time></trkpt><trkpt lat="44.1432152" lon="10.3737532"><ele>413.20000000000005</ele><time>2026-04-23T10:14:12.118Z</time></trkpt><trkpt lat="44.1433035" lon="10.3738244"><ele>413.8</ele><time>2026-04-23T10:14:14.117Z</time></trkpt><trkpt lat="44.1433914" lon="10.373882"><ele>414.4</ele><time>2026-04-23T10:14:16.119Z</time></trkpt><trkpt lat="44.1434808" lon="10.3739521"><ele>415.0</ele><time>2026-04-23T10:14:18.114Z</time></trkpt><trkpt lat="44.1435706" lon="10.3740011"><ele>415.0</ele><time>2026-04-23T10:14:20.123Z</time></trkpt><trkpt lat="44.143657" lon="10.3740421"><ele>415.0</ele><time>2026-04-23T10:14:22.128Z</time></trkpt><trkpt lat="44.1437486" lon="10.3740654"><ele>415.0</ele><time>2026-04-23T10:14:24.135Z</time></trkpt><trkpt lat="44.1438479" lon="10.3740736"><ele>415.0</ele><time>2026-04-23T10:14:26.102Z</time></trkpt><trkpt lat="44.1439469" lon="10.3740649"><ele>415.0</ele><time>2026-04-23T10:14:28.124Z</time></trkpt><trkpt lat="44.1440499" lon="10.3740466"><ele>415.8</ele><time>2026-04-23T10:14:30.109Z</time></trkpt><trkpt lat="44.1441483" lon="10.3740186"><ele>416.6</ele><time>2026-04-23T10:14:32.113Z</time></trkpt><trkpt lat="44.144242" lon="10.3739779"><ele>417.4</ele><time>2026-04-23T10:14:34.118Z</time></trkpt><trkpt lat="44.1443362" lon="10.3739279"><ele>418.2</ele><time>2026-04-23T10:14:36.128Z</time></trkpt><trkpt lat="44.1444199" lon="10.3738549"><ele>419.0</ele><time>2026-04-23T10:14:38.123Z</time></trkpt><trkpt lat="44.1445034" lon="10.373783"><ele>418.2</ele><time>2026-04-23T10:14:40.115Z</time></trkpt><trkpt lat="44.1445871" lon="10.373715"><ele>417.4</ele><time>2026-04-23T10:14:42.127Z</time></trkpt><trkpt lat="44.1446689" lon="10.3736503"><ele>416.6</ele><time>2026-04-23T10:14:44.135Z</time></trkpt><trkpt lat="44.1447584" lon="10.3735794"><ele>415.8</ele><time>2026-04-23T10:14:46.114Z</time></trkpt><trkpt lat="44.1448395" lon="10.3735038"><ele>415.0</ele><time>2026-04-23T10:14:48.114Z</time></trkpt><trkpt lat="44.1449227" lon="10.3734399"><ele>415.0</ele><time>2026-04-23T10:14:50.114Z</time></trkpt><trkpt lat="44.1450029" lon="10.373371"><ele>415.0</ele><time>2026-04-23T10:14:52.117Z</time></trkpt><trkpt lat="44.1450873" lon="10.3732906"><ele>415.0</ele><time>2026-04-23T10:14:54.128Z</time></trkpt><trkpt lat="44.1451668" lon="10.373217"><ele>415.0</ele><time>2026-04-23T10:14:56.104Z</time></trkpt><trkpt lat="44.1452467" lon="10.3731555"><ele>415.0</ele><time>2026-04-23T10:14:58.11Z</time></trkpt><trkpt lat="44.1453282" lon="10.3730762"><ele>414.6</ele><time>2026-04-23T10:15:00.151Z</time></trkpt><trkpt lat="44.1454081" lon="10.3729969"><ele>414.2</ele><time>2026-04-23T10:15:02.117Z</time></trkpt><trkpt lat="44.1454858" lon="10.372923"><ele>413.79999999999995</ele><time>2026-04-23T10:15:04.116Z</time></trkpt><trkpt lat="44.145572" lon="10.3728475"><ele>413.4</ele><time>2026-04-23T10:15:06.125Z</time></trkpt><trkpt lat="44.1456533" lon="10.3727743"><ele>413.0</ele><time>2026-04-23T10:15:08.122Z</time></trkpt><trkpt lat="44.1457196" lon="10.372713"><ele>413.0</ele><time>2026-04-23T10:15:10.104Z</time></trkpt><trkpt lat="44.1458262" lon="10.3727348"><ele>413.0</ele><time>2026-04-23T10:15:12.133Z</time></trkpt><trkpt lat="44.1459252" lon="10.372778"><ele>413.0</ele><time>2026-04-23T10:15:14.115Z</time></trkpt><trkpt lat="44.1460224" lon="10.3728132"><ele>413.0</ele><time>2026-04-23T10:15:16.108Z</time></trkpt><trkpt lat="44.1461257" lon="10.3728442"><ele>413.0</ele><time>2026-04-23T10:15:18.139Z</time></trkpt><trkpt lat="44.1462244" lon="10.372878"><ele>413.0</ele><time>2026-04-23T10:15:20.119Z</time></trkpt><trkpt lat="44.146319" lon="10.3729153"><ele>413.0</ele><time>2026-04-23T10:15:22.134Z</time></trkpt><trkpt lat="44.1464116" lon="10.3729524"><ele>413.0</ele><time>2026-04-23T10:15:24.125Z</time></trkpt><trkpt lat="44.146512" lon="10.3729648"><ele>413.0</ele><time>2026-04-23T10:15:26.112Z</time></trkpt><trkpt lat="44.1466115" lon="10.3729551"><ele>413.0</ele><time>2026-04-23T10:15:28.124Z</time></trkpt><trkpt lat="44.1467083" lon="10.3729116"><ele>414.0</ele><time>2026-04-23T10:15:30.135Z</time></trkpt><trkpt lat="44.1467853" lon="10.3728331"><ele>415.0</ele><time>2026-04-23T10:15:32.127Z</time></trkpt><trkpt lat="44.1468455" lon="10.3727189"><ele>416.0</ele><time>2026-04-23T10:15:34.121Z</time></trkpt><trkpt lat="44.1468758" lon="10.3725801"><ele>417.0</ele><time>2026-04-23T10:15:36.127Z</time></trkpt><trkpt lat="44.1468732" lon="10.3724377"><ele>418.0</ele><time>2026-04-23T10:15:38.121Z</time></trkpt><trkpt lat="44.1468571" lon="10.3722895"><ele>418.0</ele><time>2026-04-23T10:15:40.12Z</time></trkpt><trkpt lat="44.1468442" lon="10.3721456"><ele>418.0</ele><time>2026-04-23T10:15:42.12Z</time></trkpt><trkpt lat="44.1468304" lon="10.3720037"><ele>418.0</ele><time>2026-04-23T10:15:44.119Z</time></trkpt><trkpt lat="44.1468327" lon="10.3718579"><ele>418.0</ele><time>2026-04-23T10:15:46.118Z</time></trkpt><trkpt lat="44.1468406" lon="10.3717114"><ele>418.0</ele><time>2026-04-23T10:15:48.137Z</time></trkpt><trkpt lat="44.1468501" lon="10.371575"><ele>418.0</ele><time>2026-04-23T10:15:50.118Z</time></trkpt><trkpt lat="44.14687" lon="10.3714375"><ele>418.0</ele><time>2026-04-23T10:15:52.11Z</time></trkpt><trkpt lat="44.1468964" lon="10.3712988"><ele>418.0</ele><time>2026-04-23T10:15:54.114Z</time></trkpt><trkpt lat="44.1469308" lon="10.3711648"><ele>418.0</ele><time>2026-04-23T10:15:56.115Z</time></trkpt><trkpt lat="44.1469692" lon="10.3710404"><ele>418.0</ele><time>2026-04-23T10:15:58.113Z</time></trkpt><trkpt lat="44.147015" lon="10.3709196"><ele>417.2</ele><time>2026-04-23T10:16:00.117Z</time></trkpt><trkpt lat="44.1470742" lon="10.3708045"><ele>416.4</ele><time>2026-04-23T10:16:02.124Z</time></trkpt><trkpt lat="44.1471376" lon="10.370699"><ele>415.59999999999997</ele><time>2026-04-23T10:16:04.123Z</time></trkpt><trkpt lat="44.1472062" lon="10.370599"><ele>414.79999999999995</ele><time>2026-04-23T10:16:06.117Z</time></trkpt><trkpt lat="44.1472892" lon="10.3705139"><ele>414.0</ele><time>2026-04-23T10:16:08.108Z</time></trkpt><trkpt lat="44.147371" lon="10.370426"><ele>415.0</ele><time>2026-04-23T10:16:10.126Z</time></trkpt><trkpt lat="44.1474612" lon="10.3703414"><ele>416.0</ele><time>2026-04-23T10:16:12.103Z</time></trkpt><trkpt lat="44.147542" lon="10.370266"><ele>417.0</ele><time>2026-04-23T10:16:14.118Z</time></trkpt><trkpt lat="44.1476331" lon="10.3701977"><ele>418.0</ele><time>2026-04-23T10:16:16.12Z</time></trkpt><trkpt lat="44.1477229" lon="10.3701491"><ele>419.0</ele><time>2026-04-23T10:16:18.106Z</time></trkpt><trkpt lat="44.1478171" lon="10.370104"><ele>419.0</ele><time>2026-04-23T10:16:20.123Z</time></trkpt><trkpt lat="44.1479105" lon="10.3700688"><ele>419.0</ele><time>2026-04-23T10:16:22.121Z</time></trkpt><trkpt lat="44.1480074" lon="10.3700421"><ele>419.0</ele><time>2026-04-23T10:16:24.107Z</time></trkpt><trkpt lat="44.1481122" lon="10.3700081"><ele>419.0</ele><time>2026-04-23T10:16:26.134Z</time></trkpt><trkpt lat="44.1482158" lon="10.3699709"><ele>419.0</ele><time>2026-04-23T10:16:28.117Z</time></trkpt><trkpt lat="44.1483187" lon="10.369924"><ele>419.0</ele><time>2026-04-23T10:16:30.115Z</time></trkpt><trkpt lat="44.1484112" lon="10.3698681"><ele>419.0</ele><time>2026-04-23T10:16:32.118Z</time></trkpt><trkpt lat="44.1484981" lon="10.3697913"><ele>419.0</ele><time>2026-04-23T10:16:34.112Z</time></trkpt><trkpt lat="44.1485823" lon="10.3696949"><ele>419.0</ele><time>2026-04-23T10:16:36.111Z</time></trkpt><trkpt lat="44.148646" lon="10.3695815"><ele>419.0</ele><time>2026-04-23T10:16:38.103Z</time></trkpt><trkpt lat="44.1487048" lon="10.3694566"><ele>419.0</ele><time>2026-04-23T10:16:40.119Z</time></trkpt><trkpt lat="44.1487435" lon="10.3693215"><ele>419.0</ele><time>2026-04-23T10:16:42.118Z</time></trkpt><trkpt lat="44.1487646" lon="10.3691841"><ele>419.0</ele><time>2026-04-23T10:16:44.117Z</time></trkpt><trkpt lat="44.1487815" lon="10.3690355"><ele>419.0</ele><time>2026-04-23T10:16:46.124Z</time></trkpt><trkpt lat="44.148782" lon="10.3688896"><ele>419.0</ele><time>2026-04-23T10:16:48.127Z</time></trkpt><trkpt lat="44.148775" lon="10.3687509"><ele>417.6</ele><time>2026-04-23T10:16:50.121Z</time></trkpt><trkpt lat="44.1487746" lon="10.3686121"><ele>416.2</ele><time>2026-04-23T10:16:52.103Z</time></trkpt><trkpt lat="44.1487655" lon="10.3684813"><ele>414.8</ele><time>2026-04-23T10:16:54.117Z</time></trkpt><trkpt lat="44.1487597" lon="10.368351"><ele>413.40000000000003</ele><time>2026-04-23T10:16:56.122Z</time></trkpt><trkpt lat="44.1487752" lon="10.368217"><ele>412.0</ele><time>2026-04-23T10:16:58.109Z</time></trkpt><trkpt lat="44.1487804" lon="10.368085"><ele>411.20000000000005</ele><time>2026-04-23T10:17:00.113Z</time></trkpt><trkpt lat="44.148815" lon="10.3679612"><ele>410.4</ele><time>2026-04-23T10:17:02.125Z</time></trkpt><trkpt lat="44.148881" lon="10.3678615"><ele>409.6</ele><time>2026-04-23T10:17:04.117Z</time></trkpt><trkpt lat="44.1489684" lon="10.3678144"><ele>408.79999999999995</ele><time>2026-04-23T10:17:06.107Z</time></trkpt><trkpt lat="44.1490633" lon="10.36777"><ele>408.0</ele><time>2026-04-23T10:17:08.119Z</time></trkpt><trkpt lat="44.1491674" lon="10.3677309"><ele>410.59999999999997</ele><time>2026-04-23T10:17:10.109Z</time></trkpt><trkpt lat="44.1492648" lon="10.3676886"><ele>413.2</ele><time>2026-04-23T10:17:12.118Z</time></trkpt><trkpt lat="44.1493582" lon="10.3676503"><ele>415.8</ele><time>2026-04-23T10:17:14.118Z</time></trkpt><trkpt lat="44.1494563" lon="10.3676093"><ele>418.4</ele><time>2026-04-23T10:17:16.113Z</time></trkpt><trkpt lat="44.1495598" lon="10.3675561"><ele>421.0</ele><time>2026-04-23T10:17:18.111Z</time></trkpt><trkpt lat="44.1496634" lon="10.367506"><ele>421.0</ele><time>2026-04-23T10:17:20.123Z</time></trkpt><trkpt lat="44.1497665" lon="10.3674503"><ele>421.0</ele><time>2026-04-23T10:17:22.109Z</time></trkpt><trkpt lat="44.1498713" lon="10.3673955"><ele>421.0</ele><time>2026-04-23T10:17:24.106Z</time></trkpt><trkpt lat="44.14998" lon="10.3673445"><ele>421.0</ele><time>2026-04-23T10:17:26.127Z</time></trkpt><trkpt lat="44.1500793" lon="10.3672991"><ele>421.0</ele><time>2026-04-23T10:17:28.12Z</time></trkpt><trkpt lat="44.1501831" lon="10.3672538"><ele>423.5</ele><time>2026-04-23T10:17:30.116Z</time></trkpt><trkpt lat="44.1502931" lon="10.3672252"><ele>426.0</ele><time>2026-04-23T10:17:32.101Z</time></trkpt><trkpt lat="44.1504113" lon="10.3672202"><ele>428.5</ele><time>2026-04-23T10:17:34.11Z</time></trkpt><trkpt lat="44.1505301" lon="10.3672308"><ele>431.0</ele><time>2026-04-23T10:17:36.129Z</time></trkpt><trkpt lat="44.1506458" lon="10.3672548"><ele>432.6</ele><time>2026-04-23T10:17:38.121Z</time></trkpt><trkpt lat="44.150749" lon="10.3672394"><ele>434.20000000000005</ele><time>2026-04-23T10:17:40.115Z</time></trkpt><trkpt lat="44.1508378" lon="10.3671982"><ele>435.79999999999995</ele><time>2026-04-23T10:17:42.104Z</time></trkpt><trkpt lat="44.1509176" lon="10.3671449"><ele>437.4</ele><time>2026-04-23T10:17:44.119Z</time></trkpt><trkpt lat="44.1510016" lon="10.3671005"><ele>439.0</ele><time>2026-04-23T10:17:46.102Z</time></trkpt><trkpt lat="44.1510861" lon="10.3670298"><ele>435.0</ele><time>2026-04-23T10:17:48.118Z</time></trkpt><trkpt lat="44.1511764" lon="10.3669809"><ele>431.0</ele><time>2026-04-23T10:17:50.13Z</time></trkpt><trkpt lat="44.1512642" lon="10.3669412"><ele>427.0</ele><time>2026-04-23T10:17:52.12Z</time></trkpt><trkpt lat="44.1513569" lon="10.3669084"><ele>423.0</ele><time>2026-04-23T10:17:54.12Z</time></trkpt><trkpt lat="44.1514487" lon="10.366885"><ele>419.0</ele><time>2026-04-23T10:17:56.124Z</time></trkpt><trkpt lat="44.1515375" lon="10.3668713"><ele>421.6</ele><time>2026-04-23T10:17:58.113Z</time></trkpt><trkpt lat="44.151629" lon="10.3668567"><ele>424.2</ele><time>2026-04-23T10:18:00.122Z</time></trkpt><trkpt lat="44.1517202" lon="10.3668456"><ele>426.80000000000007</ele><time>2026-04-23T10:18:02.11Z</time></trkpt><trkpt lat="44.1518155" lon="10.3668375"><ele>429.40000000000003</ele><time>2026-04-23T10:18:04.115Z</time></trkpt><trkpt lat="44.1519067" lon="10.3668178"><ele>432.0</ele><time>2026-04-23T10:18:06.109Z</time></trkpt><trkpt lat="44.1519983" lon="10.3667761"><ele>432.0</ele><time>2026-04-23T10:18:08.13Z</time></trkpt><trkpt lat="44.1520786" lon="10.3667095"><ele>432.00000000000006</ele><time>2026-04-23T10:18:10.11Z</time></trkpt><trkpt lat="44.1521509" lon="10.3666333"><ele>432.00000000000006</ele><time>2026-04-23T10:18:12.105Z</time></trkpt><trkpt lat="44.1522209" lon="10.3665516"><ele>432.0</ele><time>2026-04-23T10:18:14.115Z</time></trkpt><trkpt lat="44.1522966" lon="10.3664629"><ele>432.0</ele><time>2026-04-23T10:18:16.106Z</time></trkpt><trkpt lat="44.1523815" lon="10.3664036"><ele>433.20000000000005</ele><time>2026-04-23T10:18:18.117Z</time></trkpt><trkpt lat="44.152467" lon="10.3663705"><ele>434.40000000000003</ele><time>2026-04-23T10:18:20.132Z</time></trkpt><trkpt lat="44.1525619" lon="10.3663573"><ele>435.59999999999997</ele><time>2026-04-23T10:18:22.126Z</time></trkpt><trkpt lat="44.1526582" lon="10.3663569"><ele>436.79999999999995</ele><time>2026-04-23T10:18:24.116Z</time></trkpt><trkpt lat="44.1527496" lon="10.36637"><ele>438.0</ele><time>2026-04-23T10:18:26.118Z</time></trkpt><trkpt lat="44.1528415" lon="10.3663802"><ele>438.0</ele><time>2026-04-23T10:18:28.114Z</time></trkpt><trkpt lat="44.152936" lon="10.366394"><ele>437.99999999999994</ele><time>2026-04-23T10:18:30.116Z</time></trkpt><trkpt lat="44.1530289" lon="10.3664084"><ele>437.99999999999994</ele><time>2026-04-23T10:18:32.11Z</time></trkpt><trkpt lat="44.1531296" lon="10.3664182"><ele>438.0</ele><time>2026-04-23T10:18:34.114Z</time></trkpt><trkpt lat="44.1532258" lon="10.3664242"><ele>438.0</ele><time>2026-04-23T10:18:36.111Z</time></trkpt><trkpt lat="44.1533179" lon="10.3664201"><ele>439.4</ele><time>2026-04-23T10:18:38.119Z</time></trkpt><trkpt lat="44.1534126" lon="10.3664279"><ele>440.79999999999995</ele><time>2026-04-23T10:18:40.128Z</time></trkpt><trkpt lat="44.1535082" lon="10.3664289"><ele>442.2</ele><time>2026-04-23T10:18:42.12Z</time></trkpt><trkpt lat="44.1536009" lon="10.366437"><ele>443.6</ele><time>2026-04-23T10:18:44.108Z</time></trkpt><trkpt lat="44.1536945" lon="10.3664378"><ele>445.0</ele><time>2026-04-23T10:18:46.11Z</time></trkpt><trkpt lat="44.1537895" lon="10.366442"><ele>445.0</ele><time>2026-04-23T10:18:48.111Z</time></trkpt><trkpt lat="44.1538833" lon="10.3664526"><ele>445.0</ele><time>2026-04-23T10:18:50.101Z</time></trkpt><trkpt lat="44.1539704" lon="10.3664653"><ele>445.0</ele><time>2026-04-23T10:18:52.111Z</time></trkpt><trkpt lat="44.154067" lon="10.3664907"><ele>445.0</ele><time>2026-04-23T10:18:54.104Z</time></trkpt><trkpt lat="44.1541603" lon="10.3665204"><ele>445.0</ele><time>2026-04-23T10:18:56.104Z</time></trkpt><trkpt lat="44.1542533" lon="10.3665512"><ele>444.6</ele><time>2026-04-23T10:18:58.103Z</time></trkpt><trkpt lat="44.1543401" lon="10.366596"><ele>444.2</ele><time>2026-04-23T10:19:00.105Z</time></trkpt><trkpt lat="44.154431" lon="10.3666429"><ele>443.79999999999995</ele><time>2026-04-23T10:19:02.102Z</time></trkpt><trkpt lat="44.1545143" lon="10.3666952"><ele>443.4</ele><time>2026-04-23T10:19:04.105Z</time></trkpt><trkpt lat="44.1545952" lon="10.3667495"><ele>443.0</ele><time>2026-04-23T10:19:06.132Z</time></trkpt><trkpt lat="44.1546789" lon="10.3668008"><ele>443.0</ele><time>2026-04-23T10:19:08.119Z</time></trkpt><trkpt lat="44.154766" lon="10.3668418"><ele>442.99999999999994</ele><time>2026-04-23T10:19:10.116Z</time></trkpt><trkpt lat="44.1548556" lon="10.3668502"><ele>442.99999999999994</ele><time>2026-04-23T10:19:12.111Z</time></trkpt><trkpt lat="44.1549504" lon="10.366835"><ele>443.0</ele><time>2026-04-23T10:19:14.128Z</time></trkpt><trkpt lat="44.1550312" lon="10.3667853"><ele>443.0</ele><time>2026-04-23T10:19:16.141Z</time></trkpt><trkpt lat="44.1551107" lon="10.3667109"><ele>442.4</ele><time>2026-04-23T10:19:18.12Z</time></trkpt><trkpt lat="44.1551728" lon="10.3666282"><ele>441.79999999999995</ele><time>2026-04-23T10:19:20.11Z</time></trkpt><trkpt lat="44.1552376" lon="10.366535"><ele>441.2</ele><time>2026-04-23T10:19:22.112Z</time></trkpt><trkpt lat="44.1553012" lon="10.3664444"><ele>440.6</ele><time>2026-04-23T10:19:24.108Z</time></trkpt><trkpt lat="44.1553647" lon="10.3663335"><ele>440.0</ele><time>2026-04-23T10:19:26.109Z</time></trkpt><trkpt lat="44.1554377" lon="10.3662421"><ele>439.66666666666663</ele><time>2026-04-23T10:19:28.136Z</time></trkpt><trkpt lat="44.1555202" lon="10.3661608"><ele>439.3333333333333</ele><time>2026-04-23T10:19:30.131Z</time></trkpt><trkpt lat="44.1556012" lon="10.3661124"><ele>439.0</ele><time>2026-04-23T10:19:32.112Z</time></trkpt><trkpt lat="44.1556818" lon="10.3660863"><ele>438.66666666666663</ele><time>2026-04-23T10:19:34.108Z</time></trkpt><trkpt lat="44.1557537" lon="10.3660733"><ele>438.3333333333333</ele><time>2026-04-23T10:19:36.111Z</time></trkpt><trkpt lat="44.1558347" lon="10.3660873"><ele>438.0</ele><time>2026-04-23T10:19:38.105Z</time></trkpt><trkpt lat="44.1559202" lon="10.3660904"><ele>438.0</ele><time>2026-04-23T10:19:40.116Z</time></trkpt><trkpt lat="44.1560047" lon="10.3660885"><ele>438.0</ele><time>2026-04-23T10:19:42.123Z</time></trkpt><trkpt lat="44.1560875" lon="10.3660708"><ele>438.0</ele><time>2026-04-23T10:19:44.125Z</time></trkpt><trkpt lat="44.1561662" lon="10.3660297"><ele>438.0</ele><time>2026-04-23T10:19:46.125Z</time></trkpt><trkpt lat="44.1562309" lon="10.3659564"><ele>438.0</ele><time>2026-04-23T10:19:48.135Z</time></trkpt><trkpt lat="44.1562822" lon="10.3658568"><ele>438.0</ele><time>2026-04-23T10:19:50.113Z</time></trkpt><trkpt lat="44.1563338" lon="10.3657433"><ele>438.0</ele><time>2026-04-23T10:19:52.107Z</time></trkpt><trkpt lat="44.1563887" lon="10.3656378"><ele>438.0</ele><time>2026-04-23T10:19:54.126Z</time></trkpt><trkpt lat="44.1564375" lon="10.3655311"><ele>438.0</ele><time>2026-04-23T10:19:56.115Z</time></trkpt><trkpt lat="44.1564706" lon="10.3654211"><ele>438.0</ele><time>2026-04-23T10:19:58.107Z</time></trkpt><trkpt lat="44.1564966" lon="10.3653062"><ele>438.0</ele><time>2026-04-23T10:20:00.122Z</time></trkpt><trkpt lat="44.156485" lon="10.3651891"><ele>438.0</ele><time>2026-04-23T10:20:02.127Z</time></trkpt><trkpt lat="44.1564445" lon="10.3650809"><ele>437.5</ele><time>2026-04-23T10:20:04.117Z</time></trkpt><trkpt lat="44.1563934" lon="10.3649755"><ele>437.0</ele><time>2026-04-23T10:20:06.113Z</time></trkpt><trkpt lat="44.1563397" lon="10.3648783"><ele>436.5</ele><time>2026-04-23T10:20:08.111Z</time></trkpt><trkpt lat="44.156287" lon="10.3647787"><ele>436.0</ele><time>2026-04-23T10:20:10.118Z</time></trkpt><trkpt lat="44.1562492" lon="10.3646662"><ele>435.5</ele><time>2026-04-23T10:20:12.135Z</time></trkpt><trkpt lat="44.1562251" lon="10.3645478"><ele>435.0</ele><time>2026-04-23T10:20:14.111Z</time></trkpt><trkpt lat="44.1562174" lon="10.3644298"><ele>434.8</ele><time>2026-04-23T10:20:16.114Z</time></trkpt><trkpt lat="44.1562291" lon="10.3643076"><ele>434.6</ele><time>2026-04-23T10:20:18.11Z</time></trkpt><trkpt lat="44.1562598" lon="10.3641914"><ele>434.4</ele><time>2026-04-23T10:20:20.11Z</time></trkpt><trkpt lat="44.1562887" lon="10.3640739"><ele>434.2</ele><time>2026-04-23T10:20:22.118Z</time></trkpt><trkpt lat="44.1563148" lon="10.363955"><ele>434.0</ele><time>2026-04-23T10:20:24.111Z</time></trkpt><trkpt lat="44.1563373" lon="10.3638272"><ele>434.49999999999994</ele><time>2026-04-23T10:20:26.108Z</time></trkpt><trkpt lat="44.1563625" lon="10.3636952"><ele>435.0</ele><time>2026-04-23T10:20:28.114Z</time></trkpt><trkpt lat="44.156386" lon="10.3635679"><ele>435.5</ele><time>2026-04-23T10:20:30.103Z</time></trkpt><trkpt lat="44.1564087" lon="10.3634429"><ele>436.0</ele><time>2026-04-23T10:20:32.105Z</time></trkpt><trkpt lat="44.1564349" lon="10.3633272"><ele>436.49999999999994</ele><time>2026-04-23T10:20:34.104Z</time></trkpt><trkpt lat="44.1564543" lon="10.3632271"><ele>437.0</ele><time>2026-04-23T10:20:36.104Z</time></trkpt><trkpt lat="44.1564792" lon="10.3631405"><ele>437.0</ele><time>2026-04-23T10:20:38.112Z</time></trkpt><trkpt lat="44.1564988" lon="10.3630556"><ele>437.0</ele><time>2026-04-23T10:20:40.108Z</time></trkpt><trkpt lat="44.1565219" lon="10.3629706"><ele>437.0</ele><time>2026-04-23T10:20:42.108Z</time></trkpt><trkpt lat="44.1565419" lon="10.3628799"><ele>437.0</ele><time>2026-04-23T10:20:44.122Z</time></trkpt><trkpt lat="44.1565578" lon="10.3627875"><ele>437.0</ele><time>2026-04-23T10:20:46.115Z</time></trkpt><trkpt lat="44.156578" lon="10.3627022"><ele>437.0</ele><time>2026-04-23T10:20:48.114Z</time></trkpt><trkpt lat="44.1566017" lon="10.3626183"><ele>437.0</ele><time>2026-04-23T10:20:50.105Z</time></trkpt><trkpt lat="44.1566269" lon="10.3625362"><ele>439.1428571428571</ele><time>2026-04-23T10:20:52.111Z</time></trkpt><trkpt lat="44.1566575" lon="10.3624569"><ele>441.28571428571433</ele><time>2026-04-23T10:20:54.118Z</time></trkpt><trkpt lat="44.1567009" lon="10.3623879"><ele>443.42857142857144</ele><time>2026-04-23T10:20:56.112Z</time></trkpt><trkpt lat="44.1567586" lon="10.3623408"><ele>445.57142857142856</ele><time>2026-04-23T10:20:58.121Z</time></trkpt><trkpt lat="44.1568273" lon="10.3623154"><ele>447.71428571428567</ele><time>2026-04-23T10:21:00.113Z</time></trkpt><trkpt lat="44.156892" lon="10.362311"><ele>449.8571428571429</ele><time>2026-04-23T10:21:02.107Z</time></trkpt><trkpt lat="44.1569578" lon="10.3623109"><ele>452.0</ele><time>2026-04-23T10:21:04.104Z</time></trkpt><trkpt lat="44.1570227" lon="10.3623153"><ele>451.99999999999994</ele><time>2026-04-23T10:21:06.116Z</time></trkpt><trkpt lat="44.1571175" lon="10.362315"><ele>452.0</ele><time>2026-04-23T10:21:09.117Z</time></trkpt><trkpt lat="44.1571839" lon="10.3623111"><ele>452.0</ele><time>2026-04-23T10:21:11.108Z</time></trkpt><trkpt lat="44.1572468" lon="10.3622967"><ele>452.0</ele><time>2026-04-23T10:21:13.126Z</time></trkpt><trkpt lat="44.1573364" lon="10.3622472"><ele>451.99999999999994</ele><time>2026-04-23T10:21:16.128Z</time></trkpt><trkpt lat="44.157398" lon="10.3621966"><ele>452.0</ele><time>2026-04-23T10:21:18.135Z</time></trkpt><trkpt lat="44.1574478" lon="10.362137"><ele>452.57142857142856</ele><time>2026-04-23T10:21:20.112Z</time></trkpt><trkpt lat="44.1574962" lon="10.3620742"><ele>453.1428571428571</ele><time>2026-04-23T10:21:22.111Z</time></trkpt><trkpt lat="44.1575445" lon="10.3620124"><ele>453.71428571428567</ele><time>2026-04-23T10:21:24.124Z</time></trkpt><trkpt lat="44.1575924" lon="10.3619479"><ele>454.2857142857143</ele><time>2026-04-23T10:21:26.105Z</time></trkpt><trkpt lat="44.1576397" lon="10.3618853"><ele>454.8571428571428</ele><time>2026-04-23T10:21:28.11Z</time></trkpt><trkpt lat="44.1576894" lon="10.3618215"><ele>455.4285714285714</ele><time>2026-04-23T10:21:30.114Z</time></trkpt><trkpt lat="44.1577384" lon="10.3617563"><ele>456.0</ele><time>2026-04-23T10:21:32.122Z</time></trkpt><trkpt lat="44.1577921" lon="10.3616987"><ele>456.0</ele><time>2026-04-23T10:21:34.111Z</time></trkpt><trkpt lat="44.1578429" lon="10.3616367"><ele>455.99999999999994</ele><time>2026-04-23T10:21:36.106Z</time></trkpt><trkpt lat="44.157895" lon="10.361567"><ele>456.0</ele><time>2026-04-23T10:21:38.108Z</time></trkpt><trkpt lat="44.1579436" lon="10.3614944"><ele>456.0</ele><time>2026-04-23T10:21:40.107Z</time></trkpt><trkpt lat="44.1579919" lon="10.3614313"><ele>455.99999999999994</ele><time>2026-04-23T10:21:42.125Z</time></trkpt><trkpt lat="44.1580364" lon="10.3613592"><ele>456.0</ele><time>2026-04-23T10:21:44.122Z</time></trkpt><trkpt lat="44.1580725" lon="10.3612768"><ele>456.0</ele><time>2026-04-23T10:21:46.114Z</time></trkpt><trkpt lat="44.1580987" lon="10.3611882"><ele>456.85714285714283</ele><time>2026-04-23T10:21:48.115Z</time></trkpt><trkpt lat="44.1581179" lon="10.3610967"><ele>457.71428571428567</ele><time>2026-04-23T10:21:50.114Z</time></trkpt><trkpt lat="44.1581356" lon="10.3610054"><ele>458.57142857142856</ele><time>2026-04-23T10:21:52.125Z</time></trkpt><trkpt lat="44.1581556" lon="10.3609147"><ele>459.42857142857144</ele><time>2026-04-23T10:21:54.128Z</time></trkpt><trkpt lat="44.1581784" lon="10.3607772"><ele>460.2857142857143</ele><time>2026-04-23T10:21:57.106Z</time></trkpt><trkpt lat="44.1581946" lon="10.3606857"><ele>461.1428571428571</ele><time>2026-04-23T10:21:59.119Z</time></trkpt><trkpt lat="44.1582095" lon="10.3605933"><ele>462.0</ele><time>2026-04-23T10:22:01.114Z</time></trkpt><trkpt lat="44.1582287" lon="10.3605072"><ele>462.0</ele><time>2026-04-23T10:22:03.113Z</time></trkpt><trkpt lat="44.1582602" lon="10.3603867"><ele>462.0</ele><time>2026-04-23T10:22:06.108Z</time></trkpt><trkpt lat="44.1582804" lon="10.3603031"><ele>462.0</ele><time>2026-04-23T10:22:08.117Z</time></trkpt><trkpt lat="44.1583091" lon="10.3602191"><ele>462.0</ele><time>2026-04-23T10:22:10.112Z</time></trkpt><trkpt lat="44.1583462" lon="10.3601343"><ele>462.0</ele><time>2026-04-23T10:22:12.103Z</time></trkpt><trkpt lat="44.1583956" lon="10.3600703"><ele>462.0</ele><time>2026-04-23T10:22:14.13Z</time></trkpt><trkpt lat="44.1584518" lon="10.3600187"><ele>462.0</ele><time>2026-04-23T10:22:16.107Z</time></trkpt><trkpt lat="44.1585101" lon="10.3599823"><ele>462.0</ele><time>2026-04-23T10:22:18.111Z</time></trkpt><trkpt lat="44.1586" lon="10.3599526"><ele>462.0</ele><time>2026-04-23T10:22:21.117Z</time></trkpt><trkpt lat="44.1586654" lon="10.3599294"><ele>462.0</ele><time>2026-04-23T10:22:23.122Z</time></trkpt><trkpt lat="44.1587301" lon="10.3599037"><ele>462.0</ele><time>2026-04-23T10:22:25.108Z</time></trkpt><trkpt lat="44.1587955" lon="10.3598796"><ele>462.0</ele><time>2026-04-23T10:22:27.113Z</time></trkpt><trkpt lat="44.1588629" lon="10.3598553"><ele>462.0</ele><time>2026-04-23T10:22:29.105Z</time></trkpt><trkpt lat="44.1589306" lon="10.3598342"><ele>462.0</ele><time>2026-04-23T10:22:31.129Z</time></trkpt><trkpt lat="44.1589951" lon="10.3598105"><ele>461.7142857142857</ele><time>2026-04-23T10:22:33.118Z</time></trkpt><trkpt lat="44.1590591" lon="10.359783"><ele>461.42857142857144</ele><time>2026-04-23T10:22:35.119Z</time></trkpt><trkpt lat="44.1591257" lon="10.3597537"><ele>461.1428571428571</ele><time>2026-04-23T10:22:37.109Z</time></trkpt><trkpt lat="44.1591921" lon="10.3597238"><ele>460.85714285714283</ele><time>2026-04-23T10:22:39.13Z</time></trkpt><trkpt lat="44.1592569" lon="10.3596928"><ele>460.57142857142856</ele><time>2026-04-23T10:22:41.108Z</time></trkpt><trkpt lat="44.1593233" lon="10.3596719"><ele>460.2857142857142</ele><time>2026-04-23T10:22:43.121Z</time></trkpt><trkpt lat="44.1593919" lon="10.3596458"><ele>459.99999999999994</ele><time>2026-04-23T10:22:45.125Z</time></trkpt><trkpt lat="44.1594595" lon="10.3596196"><ele>459.99999999999994</ele><time>2026-04-23T10:22:47.121Z</time></trkpt><trkpt lat="44.1595302" lon="10.359593"><ele>460.0</ele><time>2026-04-23T10:22:49.11Z</time></trkpt><trkpt lat="44.1596024" lon="10.3595669"><ele>459.99999999999994</ele><time>2026-04-23T10:22:51.114Z</time></trkpt><trkpt lat="44.159673" lon="10.3595357"><ele>459.99999999999994</ele><time>2026-04-23T10:22:53.122Z</time></trkpt><trkpt lat="44.1597437" lon="10.3595037"><ele>460.0</ele><time>2026-04-23T10:22:55.118Z</time></trkpt><trkpt lat="44.1598113" lon="10.359465"><ele>459.99999999999994</ele><time>2026-04-23T10:22:57.121Z</time></trkpt><trkpt lat="44.1598785" lon="10.359415"><ele>459.99999999999994</ele><time>2026-04-23T10:22:59.109Z</time></trkpt><trkpt lat="44.1599434" lon="10.3593586"><ele>462.6666666666667</ele><time>2026-04-23T10:23:01.112Z</time></trkpt><trkpt lat="44.1600081" lon="10.3593013"><ele>465.33333333333337</ele><time>2026-04-23T10:23:03.123Z</time></trkpt><trkpt lat="44.160065" lon="10.3592354"><ele>468.0</ele><time>2026-04-23T10:23:05.103Z</time></trkpt><trkpt lat="44.1601202" lon="10.3591667"><ele>470.66666666666663</ele><time>2026-04-23T10:23:07.113Z</time></trkpt><trkpt lat="44.1601711" lon="10.3590934"><ele>473.3333333333333</ele><time>2026-04-23T10:23:09.114Z</time></trkpt><trkpt lat="44.1602199" lon="10.3590095"><ele>476.0</ele><time>2026-04-23T10:23:11.104Z</time></trkpt><trkpt lat="44.1602717" lon="10.3589307"><ele>475.16666666666663</ele><time>2026-04-23T10:23:13.106Z</time></trkpt><trkpt lat="44.1603217" lon="10.3588516"><ele>474.3333333333333</ele><time>2026-04-23T10:23:15.105Z</time></trkpt><trkpt lat="44.1603707" lon="10.3587708"><ele>473.5</ele><time>2026-04-23T10:23:17.115Z</time></trkpt><trkpt lat="44.1604217" lon="10.3586894"><ele>472.66666666666663</ele><time>2026-04-23T10:23:19.115Z</time></trkpt><trkpt lat="44.1604753" lon="10.3586093"><ele>471.8333333333333</ele><time>2026-04-23T10:23:21.125Z</time></trkpt><trkpt lat="44.1605298" lon="10.3585303"><ele>471.0</ele><time>2026-04-23T10:23:23.112Z</time></trkpt><trkpt lat="44.160577" lon="10.3584452"><ele>471.0</ele><time>2026-04-23T10:23:25.114Z</time></trkpt><trkpt lat="44.1606281" lon="10.3583628"><ele>471.0</ele><time>2026-04-23T10:23:27.114Z</time></trkpt><trkpt lat="44.1606804" lon="10.3582813"><ele>471.0</ele><time>2026-04-23T10:23:29.114Z</time></trkpt><trkpt lat="44.160733" lon="10.3582025"><ele>471.0</ele><time>2026-04-23T10:23:31.118Z</time></trkpt><trkpt lat="44.1607814" lon="10.3581181"><ele>471.0</ele><time>2026-04-23T10:23:33.127Z</time></trkpt><trkpt lat="44.1608286" lon="10.3580299"><ele>471.0</ele><time>2026-04-23T10:23:35.121Z</time></trkpt><trkpt lat="44.1608787" lon="10.3579422"><ele>473.0</ele><time>2026-04-23T10:23:37.104Z</time></trkpt><trkpt lat="44.1609249" lon="10.3578481"><ele>475.0</ele><time>2026-04-23T10:23:39.122Z</time></trkpt><trkpt lat="44.160964" lon="10.3577473"><ele>477.0</ele><time>2026-04-23T10:23:41.126Z</time></trkpt><trkpt lat="44.160995" lon="10.3576434"><ele>479.0</ele><time>2026-04-23T10:23:43.112Z</time></trkpt><trkpt lat="44.1610241" lon="10.3575409"><ele>481.0</ele><time>2026-04-23T10:23:45.127Z</time></trkpt><trkpt lat="44.1610537" lon="10.3574388"><ele>483.0</ele><time>2026-04-23T10:23:47.103Z</time></trkpt><trkpt lat="44.1610813" lon="10.3573389"><ele>483.0</ele><time>2026-04-23T10:23:49.108Z</time></trkpt><trkpt lat="44.1611083" lon="10.3572406"><ele>483.0</ele><time>2026-04-23T10:23:51.126Z</time></trkpt><trkpt lat="44.161135" lon="10.3571451"><ele>483.0</ele><time>2026-04-23T10:23:53.113Z</time></trkpt><trkpt lat="44.1611623" lon="10.3570482"><ele>483.0</ele><time>2026-04-23T10:23:55.118Z</time></trkpt><trkpt lat="44.1611909" lon="10.3569521"><ele>483.0</ele><time>2026-04-23T10:23:57.117Z</time></trkpt><trkpt lat="44.1612219" lon="10.3568557"><ele>483.0</ele><time>2026-04-23T10:23:59.129Z</time></trkpt><trkpt lat="44.1612497" lon="10.3567545"><ele>483.0</ele><time>2026-04-23T10:24:01.112Z</time></trkpt><trkpt lat="44.1612784" lon="10.3566535"><ele>483.0</ele><time>2026-04-23T10:24:03.129Z</time></trkpt><trkpt lat="44.1613052" lon="10.3565514"><ele>483.0</ele><time>2026-04-23T10:24:05.128Z</time></trkpt><trkpt lat="44.1613314" lon="10.3564499"><ele>483.0</ele><time>2026-04-23T10:24:07.111Z</time></trkpt><trkpt lat="44.1613611" lon="10.3563511"><ele>483.0</ele><time>2026-04-23T10:24:09.115Z</time></trkpt><trkpt lat="44.1613925" lon="10.3562545"><ele>483.0</ele><time>2026-04-23T10:24:11.113Z</time></trkpt><trkpt lat="44.1614211" lon="10.356155"><ele>483.0</ele><time>2026-04-23T10:24:13.106Z</time></trkpt><trkpt lat="44.1614474" lon="10.3560549"><ele>483.0</ele><time>2026-04-23T10:24:15.132Z</time></trkpt><trkpt lat="44.1614671" lon="10.3559485"><ele>483.0</ele><time>2026-04-23T10:24:17.125Z</time></trkpt><trkpt lat="44.1614637" lon="10.3558411"><ele>483.0</ele><time>2026-04-23T10:24:19.107Z</time></trkpt><trkpt lat="44.1614312" lon="10.355744"><ele>483.0</ele><time>2026-04-23T10:24:21.129Z</time></trkpt><trkpt lat="44.1613788" lon="10.3556608"><ele>483.0</ele><time>2026-04-23T10:24:23.133Z</time></trkpt><trkpt lat="44.161324" lon="10.3555933"><ele>484.5</ele><time>2026-04-23T10:24:25.108Z</time></trkpt><trkpt lat="44.1612611" lon="10.3555208"><ele>486.0</ele><time>2026-04-23T10:24:27.117Z</time></trkpt><trkpt lat="44.1612017" lon="10.3554449"><ele>487.5</ele><time>2026-04-23T10:24:29.125Z</time></trkpt><trkpt lat="44.1611446" lon="10.3553685"><ele>489.0</ele><time>2026-04-23T10:24:31.115Z</time></trkpt><trkpt lat="44.1610858" lon="10.3552957"><ele>490.5</ele><time>2026-04-23T10:24:33.111Z</time></trkpt><trkpt lat="44.1610292" lon="10.355226"><ele>492.0</ele><time>2026-04-23T10:24:35.113Z</time></trkpt><trkpt lat="44.1609715" lon="10.3551539"><ele>492.0</ele><time>2026-04-23T10:24:37.117Z</time></trkpt><trkpt lat="44.1609139" lon="10.3550796"><ele>492.0</ele><time>2026-04-23T10:24:39.103Z</time></trkpt><trkpt lat="44.1608566" lon="10.3550095"><ele>492.0</ele><time>2026-04-23T10:24:41.108Z</time></trkpt><trkpt lat="44.1608036" lon="10.3549374"><ele>492.0</ele><time>2026-04-23T10:24:43.102Z</time></trkpt><trkpt lat="44.1607448" lon="10.3548665"><ele>492.0</ele><time>2026-04-23T10:24:45.109Z</time></trkpt><trkpt lat="44.1606925" lon="10.3547861"><ele>492.0</ele><time>2026-04-23T10:24:47.106Z</time></trkpt><trkpt lat="44.1606569" lon="10.3546918"><ele>492.8333333333333</ele><time>2026-04-23T10:24:49.119Z</time></trkpt><trkpt lat="44.1606371" lon="10.3545906"><ele>493.66666666666663</ele><time>2026-04-23T10:24:51.114Z</time></trkpt><trkpt lat="44.1606387" lon="10.3544924"><ele>494.5</ele><time>2026-04-23T10:24:53.13Z</time></trkpt><trkpt lat="44.1606568" lon="10.3543838"><ele>495.3333333333333</ele><time>2026-04-23T10:24:55.134Z</time></trkpt><trkpt lat="44.1606953" lon="10.3542858"><ele>496.16666666666663</ele><time>2026-04-23T10:24:57.128Z</time></trkpt><trkpt lat="44.1607428" lon="10.3541959"><ele>497.0</ele><time>2026-04-23T10:24:59.133Z</time></trkpt><trkpt lat="44.1607873" lon="10.3541024"><ele>496.99999999999994</ele><time>2026-04-23T10:25:01.111Z</time></trkpt><trkpt lat="44.1608339" lon="10.3540124"><ele>497.0</ele><time>2026-04-23T10:25:03.103Z</time></trkpt><trkpt lat="44.1608818" lon="10.3539261"><ele>497.0</ele><time>2026-04-23T10:25:05.122Z</time></trkpt><trkpt lat="44.1609266" lon="10.3538414"><ele>497.0</ele><time>2026-04-23T10:25:07.119Z</time></trkpt><trkpt lat="44.1609772" lon="10.3537585"><ele>496.99999999999994</ele><time>2026-04-23T10:25:09.11Z</time></trkpt><trkpt lat="44.1610337" lon="10.3536819"><ele>497.0</ele><time>2026-04-23T10:25:11.102Z</time></trkpt><trkpt lat="44.1610973" lon="10.3536203"><ele>495.49999999999994</ele><time>2026-04-23T10:25:13.115Z</time></trkpt><trkpt lat="44.1611654" lon="10.3535939"><ele>494.0</ele><time>2026-04-23T10:25:15.13Z</time></trkpt><trkpt lat="44.1612456" lon="10.3536123"><ele>492.5</ele><time>2026-04-23T10:25:17.122Z</time></trkpt><trkpt lat="44.1613233" lon="10.3536421"><ele>491.0</ele><time>2026-04-23T10:25:19.109Z</time></trkpt><trkpt lat="44.1613896" lon="10.3536932"><ele>489.49999999999994</ele><time>2026-04-23T10:25:21.115Z</time></trkpt><trkpt lat="44.1614477" lon="10.3537636"><ele>488.0</ele><time>2026-04-23T10:25:23.127Z</time></trkpt><trkpt lat="44.1615142" lon="10.3538259"><ele>490.49999999999994</ele><time>2026-04-23T10:25:25.105Z</time></trkpt><trkpt lat="44.1615758" lon="10.3538915"><ele>493.0</ele><time>2026-04-23T10:25:27.109Z</time></trkpt><trkpt lat="44.16164" lon="10.3539574"><ele>495.5</ele><time>2026-04-23T10:25:29.107Z</time></trkpt><trkpt lat="44.1617043" lon="10.3540241"><ele>498.0</ele><time>2026-04-23T10:25:31.1Z</time></trkpt><trkpt lat="44.161767" lon="10.3540974"><ele>500.49999999999994</ele><time>2026-04-23T10:25:33.126Z</time></trkpt><trkpt lat="44.1618322" lon="10.354163"><ele>503.0</ele><time>2026-04-23T10:25:35.109Z</time></trkpt><trkpt lat="44.1618924" lon="10.354233"><ele>502.99999999999994</ele><time>2026-04-23T10:25:37.116Z</time></trkpt><trkpt lat="44.1619552" lon="10.3542997"><ele>503.0</ele><time>2026-04-23T10:25:39.116Z</time></trkpt><trkpt lat="44.1620198" lon="10.3543654"><ele>503.0</ele><time>2026-04-23T10:25:41.109Z</time></trkpt><trkpt lat="44.1620837" lon="10.3544273"><ele>503.0</ele><time>2026-04-23T10:25:43.119Z</time></trkpt><trkpt lat="44.162151" lon="10.3544799"><ele>502.99999999999994</ele><time>2026-04-23T10:25:45.123Z</time></trkpt><trkpt lat="44.1622227" lon="10.3545268"><ele>503.0</ele><time>2026-04-23T10:25:47.124Z</time></trkpt><trkpt lat="44.1622881" lon="10.3545612"><ele>502.99999999999994</ele><time>2026-04-23T10:25:49.112Z</time></trkpt><trkpt lat="44.1623575" lon="10.3545842"><ele>503.0</ele><time>2026-04-23T10:25:51.11Z</time></trkpt><trkpt lat="44.1624335" lon="10.3545881"><ele>503.0</ele><time>2026-04-23T10:25:53.13Z</time></trkpt><trkpt lat="44.1625118" lon="10.3545882"><ele>503.0</ele><time>2026-04-23T10:25:55.117Z</time></trkpt><trkpt lat="44.1625901" lon="10.3545879"><ele>502.99999999999994</ele><time>2026-04-23T10:25:57.109Z</time></trkpt><trkpt lat="44.1626657" lon="10.3545762"><ele>503.0</ele><time>2026-04-23T10:25:59.121Z</time></trkpt><trkpt lat="44.1627432" lon="10.3545646"><ele>501.8333333333333</ele><time>2026-04-23T10:26:01.119Z</time></trkpt><trkpt lat="44.1628217" lon="10.3545609"><ele>500.66666666666663</ele><time>2026-04-23T10:26:03.115Z</time></trkpt><trkpt lat="44.1628978" lon="10.3545558"><ele>499.5</ele><time>2026-04-23T10:26:05.117Z</time></trkpt><trkpt lat="44.1629772" lon="10.3545387"><ele>498.33333333333337</ele><time>2026-04-23T10:26:07.116Z</time></trkpt><trkpt lat="44.1630571" lon="10.354524"><ele>497.1666666666667</ele><time>2026-04-23T10:26:09.106Z</time></trkpt><trkpt lat="44.1631334" lon="10.3545108"><ele>496.0</ele><time>2026-04-23T10:26:11.103Z</time></trkpt><trkpt lat="44.1632162" lon="10.3544937"><ele>496.00000000000006</ele><time>2026-04-23T10:26:13.113Z</time></trkpt><trkpt lat="44.1632994" lon="10.3544797"><ele>496.0</ele><time>2026-04-23T10:26:15.109Z</time></trkpt><trkpt lat="44.1633823" lon="10.3544642"><ele>496.0</ele><time>2026-04-23T10:26:17.115Z</time></trkpt><trkpt lat="44.1634675" lon="10.3544469"><ele>496.0</ele><time>2026-04-23T10:26:19.116Z</time></trkpt><trkpt lat="44.1635538" lon="10.3544327"><ele>496.00000000000006</ele><time>2026-04-23T10:26:21.109Z</time></trkpt><trkpt lat="44.1636494" lon="10.3544168"><ele>496.0</ele><time>2026-04-23T10:26:23.109Z</time></trkpt><trkpt lat="44.1637372" lon="10.3544003"><ele>496.00000000000006</ele><time>2026-04-23T10:26:25.124Z</time></trkpt><trkpt lat="44.1638246" lon="10.3543877"><ele>496.0</ele><time>2026-04-23T10:26:27.11Z</time></trkpt><trkpt lat="44.1639131" lon="10.3543744"><ele>496.0</ele><time>2026-04-23T10:26:29.134Z</time></trkpt><trkpt lat="44.1639996" lon="10.3543536"><ele>496.0</ele><time>2026-04-23T10:26:31.111Z</time></trkpt><trkpt lat="44.1640799" lon="10.3543044"><ele>496.00000000000006</ele><time>2026-04-23T10:26:33.109Z</time></trkpt><trkpt lat="44.1641554" lon="10.3542449"><ele>496.0</ele><time>2026-04-23T10:26:35.107Z</time></trkpt><trkpt lat="44.1642287" lon="10.3541839"><ele>496.1666666666667</ele><time>2026-04-23T10:26:37.107Z</time></trkpt><trkpt lat="44.1642975" lon="10.3541133"><ele>496.33333333333337</ele><time>2026-04-23T10:26:39.112Z</time></trkpt><trkpt lat="44.1643615" lon="10.3540273"><ele>496.5</ele><time>2026-04-23T10:26:41.103Z</time></trkpt><trkpt lat="44.1644243" lon="10.3539369"><ele>496.66666666666663</ele><time>2026-04-23T10:26:43.102Z</time></trkpt><trkpt lat="44.1644845" lon="10.3538524"><ele>496.8333333333333</ele><time>2026-04-23T10:26:45.114Z</time></trkpt><trkpt lat="44.1645438" lon="10.353758"><ele>497.0</ele><time>2026-04-23T10:26:47.129Z</time></trkpt><trkpt lat="44.1646007" lon="10.3536621"><ele>497.66666666666663</ele><time>2026-04-23T10:26:49.131Z</time></trkpt><trkpt lat="44.1646618" lon="10.353575"><ele>498.3333333333333</ele><time>2026-04-23T10:26:51.111Z</time></trkpt><trkpt lat="44.1647215" lon="10.3534918"><ele>499.0</ele><time>2026-04-23T10:26:53.125Z</time></trkpt><trkpt lat="44.1647777" lon="10.3534075"><ele>499.66666666666663</ele><time>2026-04-23T10:26:55.104Z</time></trkpt><trkpt lat="44.164838" lon="10.353326"><ele>500.3333333333333</ele><time>2026-04-23T10:26:57.113Z</time></trkpt><trkpt lat="44.1649044" lon="10.3532526"><ele>501.0</ele><time>2026-04-23T10:26:59.115Z</time></trkpt><trkpt lat="44.1649792" lon="10.3531763"><ele>501.0</ele><time>2026-04-23T10:27:01.118Z</time></trkpt><trkpt lat="44.1650594" lon="10.3531235"><ele>501.0</ele><time>2026-04-23T10:27:03.107Z</time></trkpt><trkpt lat="44.1651486" lon="10.3530819"><ele>501.0</ele><time>2026-04-23T10:27:05.109Z</time></trkpt><trkpt lat="44.1652344" lon="10.3530482"><ele>501.0</ele><time>2026-04-23T10:27:07.118Z</time></trkpt><trkpt lat="44.1653187" lon="10.35301"><ele>501.0</ele><time>2026-04-23T10:27:09.112Z</time></trkpt><trkpt lat="44.1654051" lon="10.3529759"><ele>499.8</ele><time>2026-04-23T10:27:11.105Z</time></trkpt><trkpt lat="44.1654912" lon="10.3529408"><ele>498.6</ele><time>2026-04-23T10:27:13.103Z</time></trkpt><trkpt lat="44.1655781" lon="10.3529039"><ele>497.4</ele><time>2026-04-23T10:27:15.103Z</time></trkpt><trkpt lat="44.1656656" lon="10.3528674"><ele>496.2</ele><time>2026-04-23T10:27:17.111Z</time></trkpt><trkpt lat="44.1657532" lon="10.3528337"><ele>495.0</ele><time>2026-04-23T10:27:19.114Z</time></trkpt><trkpt lat="44.1658422" lon="10.3527987"><ele>495.0</ele><time>2026-04-23T10:27:21.119Z</time></trkpt><trkpt lat="44.1659287" lon="10.3527624"><ele>495.0</ele><time>2026-04-23T10:27:23.109Z</time></trkpt><trkpt lat="44.166013" lon="10.3527345"><ele>495.0</ele><time>2026-04-23T10:27:25.109Z</time></trkpt><trkpt lat="44.1660994" lon="10.3527034"><ele>495.0</ele><time>2026-04-23T10:27:27.141Z</time></trkpt><trkpt lat="44.1661869" lon="10.3526635"><ele>495.0</ele><time>2026-04-23T10:27:29.111Z</time></trkpt><trkpt lat="44.166273" lon="10.3526337"><ele>495.0</ele><time>2026-04-23T10:27:31.108Z</time></trkpt><trkpt lat="44.1663565" lon="10.3525969"><ele>495.0</ele><time>2026-04-23T10:27:33.109Z</time></trkpt><trkpt lat="44.166443" lon="10.3525622"><ele>495.0</ele><time>2026-04-23T10:27:35.121Z</time></trkpt><trkpt lat="44.1665277" lon="10.3525315"><ele>495.0</ele><time>2026-04-23T10:27:37.123Z</time></trkpt><trkpt lat="44.1666117" lon="10.3524969"><ele>495.0</ele><time>2026-04-23T10:27:39.106Z</time></trkpt><trkpt lat="44.1666952" lon="10.3524598"><ele>495.0</ele><time>2026-04-23T10:27:41.108Z</time></trkpt><trkpt lat="44.166774" lon="10.3524058"><ele>495.0</ele><time>2026-04-23T10:27:43.114Z</time></trkpt><trkpt lat="44.1668517" lon="10.3523437"><ele>493.4</ele><time>2026-04-23T10:27:45.112Z</time></trkpt><trkpt lat="44.1669233" lon="10.3522678"><ele>491.8</ele><time>2026-04-23T10:27:47.102Z</time></trkpt><trkpt lat="44.1669936" lon="10.3521872"><ele>490.20000000000005</ele><time>2026-04-23T10:27:49.111Z</time></trkpt><trkpt lat="44.1670616" lon="10.3521044"><ele>488.6</ele><time>2026-04-23T10:27:51.107Z</time></trkpt><trkpt lat="44.167128" lon="10.3520218"><ele>487.0</ele><time>2026-04-23T10:27:53.131Z</time></trkpt><trkpt lat="44.1671956" lon="10.3519349"><ele>487.00000000000006</ele><time>2026-04-23T10:27:55.128Z</time></trkpt><trkpt lat="44.1672641" lon="10.3518462"><ele>487.0</ele><time>2026-04-23T10:27:57.123Z</time></trkpt><trkpt lat="44.1673393" lon="10.3517755"><ele>487.0</ele><time>2026-04-23T10:27:59.12Z</time></trkpt><trkpt lat="44.1674256" lon="10.3517248"><ele>487.0</ele><time>2026-04-23T10:28:01.118Z</time></trkpt><trkpt lat="44.1675041" lon="10.3516943"><ele>487.00000000000006</ele><time>2026-04-23T10:28:03.129Z</time></trkpt><trkpt lat="44.1675884" lon="10.3516709"><ele>487.0</ele><time>2026-04-23T10:28:05.105Z</time></trkpt><trkpt lat="44.1676735" lon="10.3516674"><ele>491.00000000000006</ele><time>2026-04-23T10:28:07.123Z</time></trkpt><trkpt lat="44.1677552" lon="10.3516717"><ele>495.0</ele><time>2026-04-23T10:28:09.118Z</time></trkpt><trkpt lat="44.1678378" lon="10.3516736"><ele>499.0</ele><time>2026-04-23T10:28:11.119Z</time></trkpt><trkpt lat="44.16792" lon="10.351678"><ele>503.0</ele><time>2026-04-23T10:28:13.115Z</time></trkpt><trkpt lat="44.1680005" lon="10.3517073"><ele>507.00000000000006</ele><time>2026-04-23T10:28:15.125Z</time></trkpt><trkpt lat="44.1680842" lon="10.3517413"><ele>511.0</ele><time>2026-04-23T10:28:17.114Z</time></trkpt><trkpt lat="44.1681647" lon="10.351779"><ele>513.5</ele><time>2026-04-23T10:28:19.106Z</time></trkpt><trkpt lat="44.1682481" lon="10.3518054"><ele>516.0</ele><time>2026-04-23T10:28:21.105Z</time></trkpt><trkpt lat="44.168336" lon="10.3518179"><ele>518.5</ele><time>2026-04-23T10:28:23.11Z</time></trkpt><trkpt lat="44.1684245" lon="10.3518003"><ele>521.0</ele><time>2026-04-23T10:28:25.107Z</time></trkpt><trkpt lat="44.1684994" lon="10.3517385"><ele>523.5</ele><time>2026-04-23T10:28:27.115Z</time></trkpt><trkpt lat="44.168569" lon="10.3516498"><ele>526.0</ele><time>2026-04-23T10:28:29.106Z</time></trkpt><trkpt lat="44.168607" lon="10.3515261"><ele>526.0</ele><time>2026-04-23T10:28:31.116Z</time></trkpt><trkpt lat="44.1686316" lon="10.3513983"><ele>526.0</ele><time>2026-04-23T10:28:33.11Z</time></trkpt><trkpt lat="44.1686517" lon="10.3512659"><ele>526.0</ele><time>2026-04-23T10:28:35.121Z</time></trkpt><trkpt lat="44.1686697" lon="10.351134"><ele>526.0</ele><time>2026-04-23T10:28:37.112Z</time></trkpt><trkpt lat="44.1686912" lon="10.3510044"><ele>526.0</ele><time>2026-04-23T10:28:39.108Z</time></trkpt><trkpt lat="44.1687071" lon="10.3508805"><ele>523.4285714285714</ele><time>2026-04-23T10:28:41.132Z</time></trkpt><trkpt lat="44.1687083" lon="10.3507627"><ele>520.8571428571428</ele><time>2026-04-23T10:28:43.116Z</time></trkpt><trkpt lat="44.168686" lon="10.3506459"><ele>518.2857142857142</ele><time>2026-04-23T10:28:46.109Z</time></trkpt><trkpt lat="44.1686536" lon="10.3505673"><ele>515.7142857142857</ele><time>2026-04-23T10:28:48.105Z</time></trkpt><trkpt lat="44.1686075" lon="10.3504949"><ele>513.1428571428571</ele><time>2026-04-23T10:28:50.11Z</time></trkpt><trkpt lat="44.1685709" lon="10.3504222"><ele>510.57142857142856</ele><time>2026-04-23T10:28:52.108Z</time></trkpt><trkpt lat="44.1685387" lon="10.3503432"><ele>508.0</ele><time>2026-04-23T10:28:54.111Z</time></trkpt><trkpt lat="44.1684976" lon="10.3502291"><ele>508.00000000000006</ele><time>2026-04-23T10:28:57.121Z</time></trkpt><trkpt lat="44.168486" lon="10.3501036"><ele>508.0</ele><time>2026-04-23T10:29:00.119Z</time></trkpt><trkpt lat="44.1684771" lon="10.3500147"><ele>508.0</ele><time>2026-04-23T10:29:02.11Z</time></trkpt><trkpt lat="44.1684745" lon="10.3499209"><ele>508.0</ele><time>2026-04-23T10:29:04.107Z</time></trkpt><trkpt lat="44.1684961" lon="10.3497941"><ele>508.00000000000006</ele><time>2026-04-23T10:29:07.116Z</time></trkpt><trkpt lat="44.1685294" lon="10.3496754"><ele>508.0</ele><time>2026-04-23T10:29:10.127Z</time></trkpt><trkpt lat="44.1685628" lon="10.3495628"><ele>508.1666666666667</ele><time>2026-04-23T10:29:13.116Z</time></trkpt><trkpt lat="44.1685891" lon="10.3494573"><ele>508.33333333333337</ele><time>2026-04-23T10:29:16.115Z</time></trkpt><trkpt lat="44.1686118" lon="10.3493654"><ele>508.5</ele><time>2026-04-23T10:29:19.12Z</time></trkpt><trkpt lat="44.168598" lon="10.349277"><ele>508.66666666666663</ele><time>2026-04-23T10:29:22.121Z</time></trkpt><trkpt lat="44.1685594" lon="10.3491879"><ele>508.8333333333333</ele><time>2026-04-23T10:29:24.101Z</time></trkpt><trkpt lat="44.1685292" lon="10.3490492"><ele>509.0</ele><time>2026-04-23T10:29:26.125Z</time></trkpt><trkpt lat="44.1684863" lon="10.3488982"><ele>509.49999999999994</ele><time>2026-04-23T10:29:28.12Z</time></trkpt><trkpt lat="44.1684609" lon="10.3488131"><ele>510.0</ele><time>2026-04-23T10:29:29.109Z</time></trkpt><trkpt lat="44.1684362" lon="10.3487249"><ele>510.5</ele><time>2026-04-23T10:29:30.116Z</time></trkpt><trkpt lat="44.1684027" lon="10.3486321"><ele>511.0</ele><time>2026-04-23T10:29:31.13Z</time></trkpt><trkpt lat="44.1683677" lon="10.3485331"><ele>511.49999999999994</ele><time>2026-04-23T10:29:32.113Z</time></trkpt><trkpt lat="44.1683327" lon="10.3484295"><ele>512.0</ele><time>2026-04-23T10:29:33.125Z</time></trkpt><trkpt lat="44.1682989" lon="10.3483214"><ele>512.0</ele><time>2026-04-23T10:29:34.13Z</time></trkpt><trkpt lat="44.1682539" lon="10.3482101"><ele>512.0</ele><time>2026-04-23T10:29:35.106Z</time></trkpt><trkpt lat="44.1681858" lon="10.3481112"><ele>512.0</ele><time>2026-04-23T10:29:36.118Z</time></trkpt><trkpt lat="44.1680932" lon="10.3480497"><ele>512.0</ele><time>2026-04-23T10:29:37.115Z</time></trkpt><trkpt lat="44.167996" lon="10.3480305"><ele>512.0</ele><time>2026-04-23T10:29:38.111Z</time></trkpt><trkpt lat="44.1678968" lon="10.3480267"><ele>511.20000000000005</ele><time>2026-04-23T10:29:39.107Z</time></trkpt><trkpt lat="44.1677865" lon="10.3480389"><ele>510.40000000000003</ele><time>2026-04-23T10:29:40.109Z</time></trkpt><trkpt lat="44.1676781" lon="10.3480496"><ele>509.59999999999997</ele><time>2026-04-23T10:29:41.105Z</time></trkpt><trkpt lat="44.1675683" lon="10.3480615"><ele>508.79999999999995</ele><time>2026-04-23T10:29:42.112Z</time></trkpt><trkpt lat="44.1674595" lon="10.3480611"><ele>508.0</ele><time>2026-04-23T10:29:43.101Z</time></trkpt><trkpt lat="44.1673569" lon="10.3480431"><ele>503.4</ele><time>2026-04-23T10:29:44.105Z</time></trkpt><trkpt lat="44.1672682" lon="10.3479883"><ele>498.79999999999995</ele><time>2026-04-23T10:29:45.119Z</time></trkpt><trkpt lat="44.1671991" lon="10.3479047"><ele>494.2</ele><time>2026-04-23T10:29:46.14Z</time></trkpt><trkpt lat="44.1671518" lon="10.3477888"><ele>489.6</ele><time>2026-04-23T10:29:47.106Z</time></trkpt><trkpt lat="44.1671353" lon="10.3476614"><ele>485.0</ele><time>2026-04-23T10:29:48.106Z</time></trkpt><trkpt lat="44.1671456" lon="10.3475275"><ele>484.99999999999994</ele><time>2026-04-23T10:29:49.125Z</time></trkpt><trkpt lat="44.1671795" lon="10.347394"><ele>485.0</ele><time>2026-04-23T10:29:50.126Z</time></trkpt><trkpt lat="44.1672163" lon="10.347264"><ele>485.0</ele><time>2026-04-23T10:29:51.111Z</time></trkpt><trkpt lat="44.1672184" lon="10.3471384"><ele>485.0</ele><time>2026-04-23T10:29:52.112Z</time></trkpt><trkpt lat="44.1671969" lon="10.3470321"><ele>484.99999999999994</ele><time>2026-04-23T10:29:53.109Z</time></trkpt><trkpt lat="44.1671625" lon="10.3469378"><ele>485.0</ele><time>2026-04-23T10:29:54.125Z</time></trkpt><trkpt lat="44.1670633" lon="10.3469182"><ele>486.66666666666663</ele><time>2026-04-23T10:29:55.116Z</time></trkpt><trkpt lat="44.1669922" lon="10.3469013"><ele>488.3333333333333</ele><time>2026-04-23T10:29:56.138Z</time></trkpt><trkpt lat="44.1668999" lon="10.3469346"><ele>490.0</ele><time>2026-04-23T10:29:57.107Z</time></trkpt><trkpt lat="44.166811" lon="10.3469487"><ele>491.66666666666663</ele><time>2026-04-23T10:29:58.107Z</time></trkpt><trkpt lat="44.1667234" lon="10.3469684"><ele>493.3333333333333</ele><time>2026-04-23T10:29:59.128Z</time></trkpt><trkpt lat="44.1666341" lon="10.3469859"><ele>495.0</ele><time>2026-04-23T10:30:00.103Z</time></trkpt><trkpt lat="44.1665502" lon="10.3470025"><ele>493.8333333333333</ele><time>2026-04-23T10:30:01.125Z</time></trkpt><trkpt lat="44.1664653" lon="10.3470185"><ele>492.66666666666663</ele><time>2026-04-23T10:30:02.116Z</time></trkpt><trkpt lat="44.1663798" lon="10.3470344"><ele>491.5</ele><time>2026-04-23T10:30:03.135Z</time></trkpt><trkpt lat="44.1662977" lon="10.3470541"><ele>490.3333333333333</ele><time>2026-04-23T10:30:04.111Z</time></trkpt><trkpt lat="44.1662163" lon="10.3470686"><ele>489.16666666666663</ele><time>2026-04-23T10:30:05.104Z</time></trkpt><trkpt lat="44.1661315" lon="10.3470637"><ele>488.0</ele><time>2026-04-23T10:30:06.111Z</time></trkpt><trkpt lat="44.1660449" lon="10.3470448"><ele>487.99999999999994</ele><time>2026-04-23T10:30:07.108Z</time></trkpt><trkpt lat="44.1659628" lon="10.3470166"><ele>488.0</ele><time>2026-04-23T10:30:08.111Z</time></trkpt><trkpt lat="44.1658856" lon="10.3469812"><ele>488.0</ele><time>2026-04-23T10:30:09.137Z</time></trkpt><trkpt lat="44.1658146" lon="10.3469437"><ele>488.0</ele><time>2026-04-23T10:30:10.126Z</time></trkpt><trkpt lat="44.1657549" lon="10.3469016"><ele>487.99999999999994</ele><time>2026-04-23T10:30:11.117Z</time></trkpt><trkpt lat="44.1656948" lon="10.3468643"><ele>488.0</ele><time>2026-04-23T10:30:12.121Z</time></trkpt><trkpt lat="44.1655871" lon="10.3467836"><ele>487.4</ele><time>2026-04-23T10:30:14.118Z</time></trkpt><trkpt lat="44.1654997" lon="10.3466905"><ele>486.79999999999995</ele><time>2026-04-23T10:30:16.115Z</time></trkpt><trkpt lat="44.1654244" lon="10.346582"><ele>486.2</ele><time>2026-04-23T10:30:18.105Z</time></trkpt><trkpt lat="44.1653461" lon="10.3464677"><ele>485.6</ele><time>2026-04-23T10:30:20.109Z</time></trkpt><trkpt lat="44.1652698" lon="10.3463597"><ele>485.0</ele><time>2026-04-23T10:30:22.105Z</time></trkpt><trkpt lat="44.1651986" lon="10.3462374"><ele>485.0</ele><time>2026-04-23T10:30:24.123Z</time></trkpt><trkpt lat="44.1651263" lon="10.3461256"><ele>485.0</ele><time>2026-04-23T10:30:26.131Z</time></trkpt><trkpt lat="44.1650565" lon="10.3460139"><ele>485.0</ele><time>2026-04-23T10:30:28.113Z</time></trkpt><trkpt lat="44.1650224" lon="10.345889"><ele>485.0</ele><time>2026-04-23T10:30:30.125Z</time></trkpt><trkpt lat="44.1650166" lon="10.3457447"><ele>485.0</ele><time>2026-04-23T10:30:32.114Z</time></trkpt><trkpt lat="44.165058" lon="10.3456064"><ele>484.6</ele><time>2026-04-23T10:30:34.127Z</time></trkpt><trkpt lat="44.1651191" lon="10.3454649"><ele>484.2</ele><time>2026-04-23T10:30:36.102Z</time></trkpt><trkpt lat="44.1651859" lon="10.3453181"><ele>483.79999999999995</ele><time>2026-04-23T10:30:38.115Z</time></trkpt><trkpt lat="44.1652215" lon="10.3452412"><ele>483.4</ele><time>2026-04-23T10:30:39.107Z</time></trkpt><trkpt lat="44.1652578" lon="10.3451581"><ele>483.0</ele><time>2026-04-23T10:30:40.103Z</time></trkpt><trkpt lat="44.1652912" lon="10.3450635"><ele>483.0</ele><time>2026-04-23T10:30:41.114Z</time></trkpt><trkpt lat="44.1653159" lon="10.3449612"><ele>483.0</ele><time>2026-04-23T10:30:42.11Z</time></trkpt><trkpt lat="44.1653341" lon="10.3448501"><ele>483.0</ele><time>2026-04-23T10:30:43.108Z</time></trkpt><trkpt lat="44.1653531" lon="10.344736"><ele>483.0</ele><time>2026-04-23T10:30:44.131Z</time></trkpt><trkpt lat="44.1653621" lon="10.3446238"><ele>483.0</ele><time>2026-04-23T10:30:45.109Z</time></trkpt><trkpt lat="44.1653625" lon="10.3445111"><ele>483.0</ele><time>2026-04-23T10:30:46.122Z</time></trkpt><trkpt lat="44.1653508" lon="10.3444006"><ele>482.3333333333333</ele><time>2026-04-23T10:30:47.105Z</time></trkpt><trkpt lat="44.1653256" lon="10.3442911"><ele>481.66666666666663</ele><time>2026-04-23T10:30:48.115Z</time></trkpt><trkpt lat="44.1652979" lon="10.3441821"><ele>481.0</ele><time>2026-04-23T10:30:49.117Z</time></trkpt><trkpt lat="44.1652599" lon="10.344076"><ele>480.3333333333333</ele><time>2026-04-23T10:30:50.109Z</time></trkpt><trkpt lat="44.1652081" lon="10.3439728"><ele>479.66666666666663</ele><time>2026-04-23T10:30:51.117Z</time></trkpt><trkpt lat="44.1651473" lon="10.3438856"><ele>479.0</ele><time>2026-04-23T10:30:52.112Z</time></trkpt><trkpt lat="44.1650766" lon="10.3438005"><ele>478.6</ele><time>2026-04-23T10:30:53.106Z</time></trkpt><trkpt lat="44.1649947" lon="10.3437204"><ele>478.2</ele><time>2026-04-23T10:30:54.112Z</time></trkpt><trkpt lat="44.1649198" lon="10.343642"><ele>477.80000000000007</ele><time>2026-04-23T10:30:55.111Z</time></trkpt><trkpt lat="44.1648529" lon="10.3435621"><ele>477.40000000000003</ele><time>2026-04-23T10:30:56.117Z</time></trkpt><trkpt lat="44.1648077" lon="10.3434649"><ele>477.0</ele><time>2026-04-23T10:30:57.106Z</time></trkpt><trkpt lat="44.164782" lon="10.3433482"><ele>475.6</ele><time>2026-04-23T10:30:58.106Z</time></trkpt><trkpt lat="44.1647772" lon="10.3432199"><ele>474.20000000000005</ele><time>2026-04-23T10:30:59.124Z</time></trkpt><trkpt lat="44.1648005" lon="10.3430988"><ele>472.8</ele><time>2026-04-23T10:31:00.105Z</time></trkpt><trkpt lat="44.1648485" lon="10.3429906"><ele>471.4</ele><time>2026-04-23T10:31:01.133Z</time></trkpt><trkpt lat="44.1649213" lon="10.3429089"><ele>470.0</ele><time>2026-04-23T10:31:02.109Z</time></trkpt><trkpt lat="44.1650109" lon="10.3428508"><ele>469.0</ele><time>2026-04-23T10:31:03.109Z</time></trkpt><trkpt lat="44.1651069" lon="10.3428195"><ele>468.0</ele><time>2026-04-23T10:31:04.116Z</time></trkpt><trkpt lat="44.1652089" lon="10.3427876"><ele>467.0</ele><time>2026-04-23T10:31:05.13Z</time></trkpt><trkpt lat="44.1653117" lon="10.3427528"><ele>466.0</ele><time>2026-04-23T10:31:06.107Z</time></trkpt><trkpt lat="44.1654263" lon="10.3427131"><ele>465.0</ele><time>2026-04-23T10:31:07.107Z</time></trkpt><trkpt lat="44.1655397" lon="10.3426783"><ele>465.0</ele><time>2026-04-23T10:31:08.125Z</time></trkpt><trkpt lat="44.1656543" lon="10.3426361"><ele>465.0</ele><time>2026-04-23T10:31:09.109Z</time></trkpt><trkpt lat="44.1657712" lon="10.3425866"><ele>465.0</ele><time>2026-04-23T10:31:10.114Z</time></trkpt><trkpt lat="44.1658875" lon="10.3425195"><ele>465.0</ele><time>2026-04-23T10:31:11.103Z</time></trkpt><trkpt lat="44.1660016" lon="10.3424321"><ele>464.75</ele><time>2026-04-23T10:31:12.119Z</time></trkpt><trkpt lat="44.1661117" lon="10.3423314"><ele>464.5</ele><time>2026-04-23T10:31:13.115Z</time></trkpt><trkpt lat="44.166214" lon="10.3422347"><ele>464.25</ele><time>2026-04-23T10:31:14.113Z</time></trkpt><trkpt lat="44.1663019" lon="10.3421304"><ele>464.0</ele><time>2026-04-23T10:31:15.11Z</time></trkpt><trkpt lat="44.166381" lon="10.3420044"><ele>462.5</ele><time>2026-04-23T10:31:16.109Z</time></trkpt><trkpt lat="44.166445" lon="10.3418596"><ele>461.0</ele><time>2026-04-23T10:31:17.129Z</time></trkpt><trkpt lat="44.1664962" lon="10.3416988"><ele>459.5</ele><time>2026-04-23T10:31:18.102Z</time></trkpt><trkpt lat="44.1665394" lon="10.341529"><ele>458.0</ele><time>2026-04-23T10:31:19.12Z</time></trkpt><trkpt lat="44.1665809" lon="10.341355"><ele>455.75</ele><time>2026-04-23T10:31:20.129Z</time></trkpt><trkpt lat="44.1666091" lon="10.3411674"><ele>453.5</ele><time>2026-04-23T10:31:21.111Z</time></trkpt><trkpt lat="44.1666204" lon="10.3409777"><ele>451.25</ele><time>2026-04-23T10:31:22.106Z</time></trkpt><trkpt lat="44.1666143" lon="10.3408032"><ele>449.0</ele><time>2026-04-23T10:31:23.126Z</time></trkpt><trkpt lat="44.166592" lon="10.3406425"><ele>446.0</ele><time>2026-04-23T10:31:24.111Z</time></trkpt><trkpt lat="44.1665572" lon="10.340483"><ele>443.0</ele><time>2026-04-23T10:31:25.122Z</time></trkpt><trkpt lat="44.1665022" lon="10.3403379"><ele>440.0</ele><time>2026-04-23T10:31:26.117Z</time></trkpt><trkpt lat="44.1664317" lon="10.3402053"><ele>437.0</ele><time>2026-04-23T10:31:27.114Z</time></trkpt><trkpt lat="44.166356" lon="10.3400762"><ele>435.5</ele><time>2026-04-23T10:31:28.103Z</time></trkpt><trkpt lat="44.1662743" lon="10.339953"><ele>434.0</ele><time>2026-04-23T10:31:29.115Z</time></trkpt><trkpt lat="44.1661901" lon="10.3398326"><ele>432.5</ele><time>2026-04-23T10:31:30.118Z</time></trkpt><trkpt lat="44.1661139" lon="10.3397141"><ele>431.0</ele><time>2026-04-23T10:31:31.117Z</time></trkpt><trkpt lat="44.1660496" lon="10.3396006"><ele>429.8333333333333</ele><time>2026-04-23T10:31:32.122Z</time></trkpt><trkpt lat="44.1660011" lon="10.3394901"><ele>428.66666666666663</ele><time>2026-04-23T10:31:33.125Z</time></trkpt><trkpt lat="44.1659729" lon="10.3393793"><ele>427.5</ele><time>2026-04-23T10:31:34.139Z</time></trkpt><trkpt lat="44.1659733" lon="10.3392592"><ele>426.33333333333337</ele><time>2026-04-23T10:31:35.108Z</time></trkpt><trkpt lat="44.1659875" lon="10.3391356"><ele>425.1666666666667</ele><time>2026-04-23T10:31:36.117Z</time></trkpt><trkpt lat="44.1660075" lon="10.3390296"><ele>424.0</ele><time>2026-04-23T10:31:37.125Z</time></trkpt><trkpt lat="44.1660403" lon="10.3389458"><ele>424.00000000000006</ele><time>2026-04-23T10:31:38.117Z</time></trkpt><trkpt lat="44.1661489" lon="10.3389007"><ele>424.0</ele><time>2026-04-23T10:31:40.109Z</time></trkpt><trkpt lat="44.1662141" lon="10.3389378"><ele>424.0</ele><time>2026-04-23T10:31:41.129Z</time></trkpt><trkpt lat="44.1662647" lon="10.3390084"><ele>424.0</ele><time>2026-04-23T10:31:42.103Z</time></trkpt><trkpt lat="44.166305" lon="10.3390947"><ele>424.00000000000006</ele><time>2026-04-23T10:31:43.133Z</time></trkpt><trkpt lat="44.1663504" lon="10.3391873"><ele>424.0</ele><time>2026-04-23T10:31:44.133Z</time></trkpt><trkpt lat="44.1664027" lon="10.3392805"><ele>424.00000000000006</ele><time>2026-04-23T10:31:45.105Z</time></trkpt><trkpt lat="44.1664491" lon="10.3393857"><ele>424.0</ele><time>2026-04-23T10:31:46.115Z</time></trkpt><trkpt lat="44.1665001" lon="10.3394738"><ele>424.0</ele><time>2026-04-23T10:31:47.119Z</time></trkpt><trkpt lat="44.1665624" lon="10.339525"><ele>424.0</ele><time>2026-04-23T10:31:48.108Z</time></trkpt><trkpt lat="44.1666356" lon="10.3395312"><ele>424.00000000000006</ele><time>2026-04-23T10:31:49.128Z</time></trkpt><trkpt lat="44.1667079" lon="10.3394967"><ele>424.0</ele><time>2026-04-23T10:31:50.108Z</time></trkpt><trkpt lat="44.1667638" lon="10.3394188"><ele>424.33333333333337</ele><time>2026-04-23T10:31:51.113Z</time></trkpt><trkpt lat="44.1667903" lon="10.339317"><ele>424.6666666666667</ele><time>2026-04-23T10:31:52.114Z</time></trkpt><trkpt lat="44.1667827" lon="10.3392083"><ele>425.0</ele><time>2026-04-23T10:31:53.115Z</time></trkpt><trkpt lat="44.1667428" lon="10.3391027"><ele>425.33333333333337</ele><time>2026-04-23T10:31:54.114Z</time></trkpt><trkpt lat="44.1666905" lon="10.3390115"><ele>425.6666666666667</ele><time>2026-04-23T10:31:55.117Z</time></trkpt><trkpt lat="44.1666359" lon="10.3389104"><ele>426.0</ele><time>2026-04-23T10:31:56.107Z</time></trkpt><trkpt lat="44.1665776" lon="10.3388134"><ele>424.0</ele><time>2026-04-23T10:31:57.107Z</time></trkpt><trkpt lat="44.1665177" lon="10.338707"><ele>422.0</ele><time>2026-04-23T10:31:58.127Z</time></trkpt><trkpt lat="44.1664547" lon="10.3385983"><ele>420.0</ele><time>2026-04-23T10:31:59.125Z</time></trkpt><trkpt lat="44.1663926" lon="10.3384904"><ele>418.0</ele><time>2026-04-23T10:32:00.112Z</time></trkpt><trkpt lat="44.166325" lon="10.3383784"><ele>416.0</ele><time>2026-04-23T10:32:01.127Z</time></trkpt><trkpt lat="44.1662582" lon="10.3382641"><ele>416.0</ele><time>2026-04-23T10:32:02.105Z</time></trkpt><trkpt lat="44.1661925" lon="10.3381409"><ele>416.0</ele><time>2026-04-23T10:32:03.117Z</time></trkpt><trkpt lat="44.166127" lon="10.3380206"><ele>416.0</ele><time>2026-04-23T10:32:04.11Z</time></trkpt><trkpt lat="44.1660542" lon="10.3379272"><ele>416.0</ele><time>2026-04-23T10:32:05.108Z</time></trkpt><trkpt lat="44.1659732" lon="10.3378645"><ele>416.0</ele><time>2026-04-23T10:32:06.114Z</time></trkpt><trkpt lat="44.1658823" lon="10.3378466"><ele>413.0</ele><time>2026-04-23T10:32:07.109Z</time></trkpt><trkpt lat="44.1657884" lon="10.3378741"><ele>410.0</ele><time>2026-04-23T10:32:08.123Z</time></trkpt><trkpt lat="44.1656928" lon="10.3379373"><ele>407.0</ele><time>2026-04-23T10:32:09.113Z</time></trkpt><trkpt lat="44.165606" lon="10.3380208"><ele>404.0</ele><time>2026-04-23T10:32:10.124Z</time></trkpt><trkpt lat="44.1655303" lon="10.3381272"><ele>401.0</ele><time>2026-04-23T10:32:11.112Z</time></trkpt><trkpt lat="44.1654649" lon="10.3382468"><ele>400.8</ele><time>2026-04-23T10:32:12.122Z</time></trkpt><trkpt lat="44.1654057" lon="10.3383784"><ele>400.6</ele><time>2026-04-23T10:32:13.109Z</time></trkpt><trkpt lat="44.1653525" lon="10.3385146"><ele>400.4</ele><time>2026-04-23T10:32:14.109Z</time></trkpt><trkpt lat="44.1652961" lon="10.3386506"><ele>400.2</ele><time>2026-04-23T10:32:15.114Z</time></trkpt><trkpt lat="44.1652305" lon="10.3387647"><ele>400.0</ele><time>2026-04-23T10:32:16.115Z</time></trkpt><trkpt lat="44.1651508" lon="10.3388506"><ele>400.0</ele><time>2026-04-23T10:32:17.108Z</time></trkpt><trkpt lat="44.1650613" lon="10.3388878"><ele>400.0</ele><time>2026-04-23T10:32:18.108Z</time></trkpt><trkpt lat="44.1649653" lon="10.3388853"><ele>400.0</ele><time>2026-04-23T10:32:19.104Z</time></trkpt><trkpt lat="44.1648746" lon="10.3388457"><ele>400.0</ele><time>2026-04-23T10:32:20.114Z</time></trkpt><trkpt lat="44.1647857" lon="10.3388003"><ele>400.0</ele><time>2026-04-23T10:32:21.105Z</time></trkpt><trkpt lat="44.1646919" lon="10.3387544"><ele>397.0</ele><time>2026-04-23T10:32:22.12Z</time></trkpt><trkpt lat="44.1645825" lon="10.3387176"><ele>394.0</ele><time>2026-04-23T10:32:23.108Z</time></trkpt><trkpt lat="44.164469" lon="10.33869"><ele>391.0</ele><time>2026-04-23T10:32:24.104Z</time></trkpt><trkpt lat="44.164349" lon="10.3386822"><ele>388.0</ele><time>2026-04-23T10:32:25.118Z</time></trkpt><trkpt lat="44.1642274" lon="10.3386998"><ele>388.0</ele><time>2026-04-23T10:32:26.117Z</time></trkpt><trkpt lat="44.1641099" lon="10.3387322"><ele>388.0</ele><time>2026-04-23T10:32:27.124Z</time></trkpt><trkpt lat="44.1639963" lon="10.3387862"><ele>388.0</ele><time>2026-04-23T10:32:28.119Z</time></trkpt><trkpt lat="44.1638824" lon="10.3388495"><ele>388.0</ele><time>2026-04-23T10:32:29.118Z</time></trkpt><trkpt lat="44.1637707" lon="10.3389117"><ele>387.75</ele><time>2026-04-23T10:32:30.111Z</time></trkpt><trkpt lat="44.1636438" lon="10.3389534"><ele>387.5</ele><time>2026-04-23T10:32:31.117Z</time></trkpt><trkpt lat="44.1635135" lon="10.3389696"><ele>387.25</ele><time>2026-04-23T10:32:32.123Z</time></trkpt><trkpt lat="44.1633806" lon="10.3389498"><ele>387.0</ele><time>2026-04-23T10:32:33.107Z</time></trkpt><trkpt lat="44.1632528" lon="10.3388946"><ele>389.25</ele><time>2026-04-23T10:32:34.119Z</time></trkpt><trkpt lat="44.1631407" lon="10.3388106"><ele>391.5</ele><time>2026-04-23T10:32:35.124Z</time></trkpt><trkpt lat="44.163039" lon="10.3387067"><ele>393.75</ele><time>2026-04-23T10:32:36.113Z</time></trkpt><trkpt lat="44.162944" lon="10.3386049"><ele>396.0</ele><time>2026-04-23T10:32:37.127Z</time></trkpt><trkpt lat="44.1628567" lon="10.3384945"><ele>396.0</ele><time>2026-04-23T10:32:38.116Z</time></trkpt><trkpt lat="44.1627942" lon="10.3383649"><ele>396.0</ele><time>2026-04-23T10:32:39.113Z</time></trkpt><trkpt lat="44.1627584" lon="10.3382161"><ele>396.0</ele><time>2026-04-23T10:32:40.141Z</time></trkpt><trkpt lat="44.1627526" lon="10.3380707"><ele>396.0</ele><time>2026-04-23T10:32:41.11Z</time></trkpt><trkpt lat="44.1627693" lon="10.337951"><ele>396.0</ele><time>2026-04-23T10:32:42.114Z</time></trkpt><trkpt lat="44.1628048" lon="10.3378524"><ele>397.5</ele><time>2026-04-23T10:32:43.129Z</time></trkpt><trkpt lat="44.1628468" lon="10.3377677"><ele>399.0</ele><time>2026-04-23T10:32:44.116Z</time></trkpt><trkpt lat="44.162915" lon="10.3376328"><ele>400.5</ele><time>2026-04-23T10:32:46.109Z</time></trkpt><trkpt lat="44.1629642" lon="10.3375308"><ele>402.0</ele><time>2026-04-23T10:32:48.108Z</time></trkpt><trkpt lat="44.1630081" lon="10.3374333"><ele>403.5</ele><time>2026-04-23T10:32:51.115Z</time></trkpt><trkpt lat="44.1630392" lon="10.3373443"><ele>405.0</ele><time>2026-04-23T10:32:54.117Z</time></trkpt><trkpt lat="44.1630789" lon="10.3372523"><ele>405.71428571428567</ele><time>2026-04-23T10:32:57.107Z</time></trkpt><trkpt lat="44.1631132" lon="10.3371531"><ele>406.42857142857144</ele><time>2026-04-23T10:33:00.108Z</time></trkpt><trkpt lat="44.1631411" lon="10.3370513"><ele>407.1428571428571</ele><time>2026-04-23T10:33:03.121Z</time></trkpt><trkpt lat="44.1631637" lon="10.3369526"><ele>407.85714285714283</ele><time>2026-04-23T10:33:06.126Z</time></trkpt><trkpt lat="44.1631729" lon="10.3368503"><ele>408.57142857142856</ele><time>2026-04-23T10:33:09.114Z</time></trkpt><trkpt lat="44.1631399" lon="10.3367662"><ele>409.2857142857143</ele><time>2026-04-23T10:33:12.11Z</time></trkpt><trkpt lat="44.1630911" lon="10.3367024"><ele>410.0</ele><time>2026-04-23T10:33:15.105Z</time></trkpt><trkpt lat="44.1630255" lon="10.3366627"><ele>410.0</ele><time>2026-04-23T10:33:18.115Z</time></trkpt><trkpt lat="44.1629556" lon="10.3366563"><ele>410.0</ele><time>2026-04-23T10:33:21.113Z</time></trkpt><trkpt lat="44.1628726" lon="10.3366782"><ele>410.0</ele><time>2026-04-23T10:33:25.109Z</time></trkpt><trkpt lat="44.1628046" lon="10.3366998"><ele>410.0</ele><time>2026-04-23T10:33:28.12Z</time></trkpt><trkpt lat="44.1627426" lon="10.33674"><ele>410.0</ele><time>2026-04-23T10:33:31.112Z</time></trkpt><trkpt lat="44.1626868" lon="10.3367957"><ele>410.0</ele><time>2026-04-23T10:33:34.113Z</time></trkpt><trkpt lat="44.1626316" lon="10.3368596"><ele>410.0</ele><time>2026-04-23T10:33:37.114Z</time></trkpt><trkpt lat="44.1625795" lon="10.3369261"><ele>410.0</ele><time>2026-04-23T10:33:40.111Z</time></trkpt><trkpt lat="44.162536" lon="10.3369982"><ele>410.0</ele><time>2026-04-23T10:33:43.109Z</time></trkpt><trkpt lat="44.1624987" lon="10.3370781"><ele>410.0</ele><time>2026-04-23T10:33:46.109Z</time></trkpt><trkpt lat="44.1624637" lon="10.3371531"><ele>410.0</ele><time>2026-04-23T10:33:49.117Z</time></trkpt><trkpt lat="44.1624275" lon="10.3372323"><ele>410.0</ele><time>2026-04-23T10:33:52.128Z</time></trkpt><trkpt lat="44.162391" lon="10.3373079"><ele>410.0</ele><time>2026-04-23T10:33:55.101Z</time></trkpt><trkpt lat="44.162348" lon="10.3373796"><ele>410.0</ele><time>2026-04-23T10:33:58.123Z</time></trkpt><trkpt lat="44.1623028" lon="10.3374454"><ele>411.0</ele><time>2026-04-23T10:34:01.125Z</time></trkpt><trkpt lat="44.162253" lon="10.3375051"><ele>412.0</ele><time>2026-04-23T10:34:04.111Z</time></trkpt><trkpt lat="44.1621989" lon="10.3375582"><ele>413.0</ele><time>2026-04-23T10:34:07.107Z</time></trkpt><trkpt lat="44.1621427" lon="10.3376027"><ele>414.0</ele><time>2026-04-23T10:34:10.136Z</time></trkpt><trkpt lat="44.1620872" lon="10.3376563"><ele>415.0</ele><time>2026-04-23T10:34:13.119Z</time></trkpt><trkpt lat="44.1620312" lon="10.3377027"><ele>416.0</ele><time>2026-04-23T10:34:16.127Z</time></trkpt><trkpt lat="44.1619721" lon="10.3377422"><ele>417.0</ele><time>2026-04-23T10:34:19.1Z</time></trkpt><trkpt lat="44.1619136" lon="10.3377808"><ele>417.0</ele><time>2026-04-23T10:34:22.107Z</time></trkpt><trkpt lat="44.1618532" lon="10.3378161"><ele>417.0</ele><time>2026-04-23T10:34:25.122Z</time></trkpt><trkpt lat="44.1617916" lon="10.337841"><ele>417.0</ele><time>2026-04-23T10:34:28.103Z</time></trkpt><trkpt lat="44.1617102" lon="10.3378519"><ele>417.0</ele><time>2026-04-23T10:34:32.125Z</time></trkpt><trkpt lat="44.1616438" lon="10.3378373"><ele>417.0</ele><time>2026-04-23T10:34:35.103Z</time></trkpt><trkpt lat="44.1615751" lon="10.3378175"><ele>417.0</ele><time>2026-04-23T10:34:38.108Z</time></trkpt><trkpt lat="44.1615099" lon="10.3377936"><ele>417.0</ele><time>2026-04-23T10:34:41.133Z</time></trkpt><trkpt lat="44.1614283" lon="10.3377669"><ele>417.2857142857143</ele><time>2026-04-23T10:34:45.107Z</time></trkpt><trkpt lat="44.161367" lon="10.3377427"><ele>417.57142857142856</ele><time>2026-04-23T10:34:48.131Z</time></trkpt><trkpt lat="44.1612981" lon="10.3377185"><ele>417.85714285714283</ele><time>2026-04-23T10:34:51.114Z</time></trkpt><trkpt lat="44.1612257" lon="10.3376785"><ele>418.1428571428571</ele><time>2026-04-23T10:34:54.106Z</time></trkpt><trkpt lat="44.1611552" lon="10.3376343"><ele>418.42857142857144</ele><time>2026-04-23T10:34:57.102Z</time></trkpt><trkpt lat="44.1610865" lon="10.3375829"><ele>418.71428571428567</ele><time>2026-04-23T10:35:00.105Z</time></trkpt><trkpt lat="44.1610198" lon="10.3375322"><ele>419.0</ele><time>2026-04-23T10:35:03.119Z</time></trkpt><trkpt lat="44.1609524" lon="10.3374875"><ele>418.99999999999994</ele><time>2026-04-23T10:35:06.108Z</time></trkpt><trkpt lat="44.1608868" lon="10.3374392"><ele>419.0</ele><time>2026-04-23T10:35:09.11Z</time></trkpt><trkpt lat="44.1608243" lon="10.3373854"><ele>419.0</ele><time>2026-04-23T10:35:12.106Z</time></trkpt><trkpt lat="44.1607612" lon="10.3373364"><ele>419.0</ele><time>2026-04-23T10:35:15.108Z</time></trkpt><trkpt lat="44.1606951" lon="10.3372929"><ele>419.0</ele><time>2026-04-23T10:35:18.11Z</time></trkpt><trkpt lat="44.1606315" lon="10.3372486"><ele>418.99999999999994</ele><time>2026-04-23T10:35:21.111Z</time></trkpt><trkpt lat="44.1605646" lon="10.3372056"><ele>419.0</ele><time>2026-04-23T10:35:24.107Z</time></trkpt><trkpt lat="44.160493" lon="10.337167"><ele>420.49999999999994</ele><time>2026-04-23T10:35:27.106Z</time></trkpt><trkpt lat="44.1604182" lon="10.3371349"><ele>422.0</ele><time>2026-04-23T10:35:30.101Z</time></trkpt><trkpt lat="44.1603416" lon="10.33712"><ele>423.5</ele><time>2026-04-23T10:35:33.102Z</time></trkpt><trkpt lat="44.1602629" lon="10.3371244"><ele>425.0</ele><time>2026-04-23T10:35:36.101Z</time></trkpt><trkpt lat="44.160184" lon="10.3371481"><ele>426.49999999999994</ele><time>2026-04-23T10:35:39.105Z</time></trkpt><trkpt lat="44.1601141" lon="10.33718"><ele>428.0</ele><time>2026-04-23T10:35:42.102Z</time></trkpt><trkpt lat="44.1600459" lon="10.3372196"><ele>427.99999999999994</ele><time>2026-04-23T10:35:45.103Z</time></trkpt><trkpt lat="44.1599779" lon="10.3372617"><ele>428.0</ele><time>2026-04-23T10:35:48.116Z</time></trkpt><trkpt lat="44.1599122" lon="10.3373232"><ele>428.0</ele><time>2026-04-23T10:35:51.112Z</time></trkpt><trkpt lat="44.1598454" lon="10.3373716"><ele>428.0</ele><time>2026-04-23T10:35:54.118Z</time></trkpt><trkpt lat="44.1597811" lon="10.3374289"><ele>427.99999999999994</ele><time>2026-04-23T10:35:57.123Z</time></trkpt><trkpt lat="44.1597164" lon="10.3374921"><ele>428.0</ele><time>2026-04-23T10:36:00.104Z</time></trkpt><trkpt lat="44.1596582" lon="10.3375532"><ele>430.28571428571433</ele><time>2026-04-23T10:36:03.125Z</time></trkpt><trkpt lat="44.1595991" lon="10.3376143"><ele>432.57142857142856</ele><time>2026-04-23T10:36:06.109Z</time></trkpt><trkpt lat="44.1595362" lon="10.3376701"><ele>434.8571428571429</ele><time>2026-04-23T10:36:09.103Z</time></trkpt><trkpt lat="44.1594696" lon="10.3377122"><ele>437.14285714285717</ele><time>2026-04-23T10:36:12.115Z</time></trkpt><trkpt lat="44.1593987" lon="10.3377021"><ele>439.42857142857144</ele><time>2026-04-23T10:36:15.111Z</time></trkpt><trkpt lat="44.1593452" lon="10.3376424"><ele>441.7142857142857</ele><time>2026-04-23T10:36:18.113Z</time></trkpt><trkpt lat="44.1593322" lon="10.3375457"><ele>444.0</ele><time>2026-04-23T10:36:21.105Z</time></trkpt><trkpt lat="44.1593641" lon="10.3374604"><ele>444.0</ele><time>2026-04-23T10:36:24.111Z</time></trkpt><trkpt lat="44.1594189" lon="10.3373799"><ele>444.0</ele><time>2026-04-23T10:36:28.125Z</time></trkpt><trkpt lat="44.1594681" lon="10.3372915"><ele>444.0</ele><time>2026-04-23T10:36:32.115Z</time></trkpt><trkpt lat="44.159518" lon="10.3372024"><ele>444.0</ele><time>2026-04-23T10:36:36.117Z</time></trkpt><trkpt lat="44.1595716" lon="10.3371172"><ele>444.0</ele><time>2026-04-23T10:36:40.11Z</time></trkpt><trkpt lat="44.1596324" lon="10.3370375"><ele>444.0</ele><time>2026-04-23T10:36:44.118Z</time></trkpt><trkpt lat="44.1596994" lon="10.3369706"><ele>444.0</ele><time>2026-04-23T10:36:48.118Z</time></trkpt><trkpt lat="44.1597626" lon="10.3368974"><ele>444.0</ele><time>2026-04-23T10:36:52.106Z</time></trkpt><trkpt lat="44.1598151" lon="10.3368423"><ele>444.0</ele><time>2026-04-23T10:36:55.106Z</time></trkpt><trkpt lat="44.159869" lon="10.3367664"><ele>444.0</ele><time>2026-04-23T10:36:59.116Z</time></trkpt><trkpt lat="44.1599147" lon="10.3366963"><ele>444.0</ele><time>2026-04-23T10:37:02.104Z</time></trkpt><trkpt lat="44.159966" lon="10.3366095"><ele>444.0</ele><time>2026-04-23T10:37:06.109Z</time></trkpt><trkpt lat="44.159999" lon="10.3365178"><ele>444.0</ele><time>2026-04-23T10:37:10.13Z</time></trkpt><trkpt lat="44.1600295" lon="10.3364181"><ele>445.42857142857144</ele><time>2026-04-23T10:37:14.133Z</time></trkpt><trkpt lat="44.1600593" lon="10.3363089"><ele>446.8571428571429</ele><time>2026-04-23T10:37:18.101Z</time></trkpt><trkpt lat="44.1600783" lon="10.3362234"><ele>448.28571428571433</ele><time>2026-04-23T10:37:21.119Z</time></trkpt><trkpt lat="44.160088" lon="10.3361121"><ele>449.7142857142857</ele><time>2026-04-23T10:37:25.107Z</time></trkpt><trkpt lat="44.1600845" lon="10.3360237"><ele>451.1428571428572</ele><time>2026-04-23T10:37:28.105Z</time></trkpt><trkpt lat="44.1600722" lon="10.3359284"><ele>452.5714285714286</ele><time>2026-04-23T10:37:32.102Z</time></trkpt><trkpt lat="44.1600504" lon="10.3358194"><ele>454.0</ele><time>2026-04-23T10:37:36.111Z</time></trkpt><trkpt lat="44.1600345" lon="10.3357299"><ele>454.0</ele><time>2026-04-23T10:37:39.106Z</time></trkpt><trkpt lat="44.1600026" lon="10.3356507"><ele>454.00000000000006</ele><time>2026-04-23T10:37:42.107Z</time></trkpt><trkpt lat="44.1599708" lon="10.3355468"><ele>454.0</ele><time>2026-04-23T10:37:46.115Z</time></trkpt><trkpt lat="44.1599254" lon="10.335455"><ele>454.0</ele><time>2026-04-23T10:37:50.111Z</time></trkpt><trkpt lat="44.159863" lon="10.3354733"><ele>454.00000000000006</ele><time>2026-04-23T10:37:53.115Z</time></trkpt><trkpt lat="44.1598377" lon="10.33558"><ele>454.0</ele><time>2026-04-23T10:37:57.109Z</time></trkpt><trkpt lat="44.1598521" lon="10.3356707"><ele>454.0</ele><time>2026-04-23T10:38:00.102Z</time></trkpt><trkpt lat="44.1598684" lon="10.335765"><ele>454.0</ele><time>2026-04-23T10:38:03.105Z</time></trkpt><trkpt lat="44.1598769" lon="10.3358556"><ele>454.00000000000006</ele><time>2026-04-23T10:38:06.113Z</time></trkpt><trkpt lat="44.1598664" lon="10.3359428"><ele>454.0</ele><time>2026-04-23T10:38:09.103Z</time></trkpt><trkpt lat="44.1598246" lon="10.336042"><ele>454.0</ele><time>2026-04-23T10:38:13.102Z</time></trkpt><trkpt lat="44.1597782" lon="10.3361158"><ele>454.00000000000006</ele><time>2026-04-23T10:38:16.105Z</time></trkpt><trkpt lat="44.159732" lon="10.3361794"><ele>454.0</ele><time>2026-04-23T10:38:19.111Z</time></trkpt><trkpt lat="44.1596577" lon="10.3361689"><ele>454.0</ele><time>2026-04-23T10:38:23.11Z</time></trkpt><trkpt lat="44.1596481" lon="10.3360536"><ele>456.8571428571429</ele><time>2026-04-23T10:38:27.102Z</time></trkpt><trkpt lat="44.1596933" lon="10.3359658"><ele>459.7142857142858</ele><time>2026-04-23T10:38:30.122Z</time></trkpt><trkpt lat="44.1597409" lon="10.3358846"><ele>462.57142857142856</ele><time>2026-04-23T10:38:33.104Z</time></trkpt><trkpt lat="44.1597811" lon="10.3358019"><ele>465.42857142857144</ele><time>2026-04-23T10:38:36.103Z</time></trkpt><trkpt lat="44.1597946" lon="10.3357105"><ele>468.2857142857143</ele><time>2026-04-23T10:38:39.11Z</time></trkpt><trkpt lat="44.1597833" lon="10.3356006"><ele>471.1428571428571</ele><time>2026-04-23T10:38:43.106Z</time></trkpt><trkpt lat="44.1597573" lon="10.3355182"><ele>473.99999999999994</ele><time>2026-04-23T10:38:46.108Z</time></trkpt><trkpt lat="44.1597158" lon="10.3354463"><ele>474.2857142857142</ele><time>2026-04-23T10:38:49.105Z</time></trkpt><trkpt lat="44.1596736" lon="10.335375"><ele>474.57142857142856</ele><time>2026-04-23T10:38:52.105Z</time></trkpt><trkpt lat="44.1596294" lon="10.33531"><ele>474.85714285714283</ele><time>2026-04-23T10:38:55.121Z</time></trkpt><trkpt lat="44.1595832" lon="10.3352455"><ele>475.1428571428571</ele><time>2026-04-23T10:38:58.103Z</time></trkpt><trkpt lat="44.159541" lon="10.3351724"><ele>475.42857142857144</ele><time>2026-04-23T10:39:01.118Z</time></trkpt><trkpt lat="44.1595002" lon="10.3351034"><ele>475.7142857142857</ele><time>2026-04-23T10:39:04.109Z</time></trkpt><trkpt lat="44.159459" lon="10.3350327"><ele>476.0</ele><time>2026-04-23T10:39:07.112Z</time></trkpt><trkpt lat="44.1594234" lon="10.3349372"><ele>476.0</ele><time>2026-04-23T10:39:11.118Z</time></trkpt><trkpt lat="44.1593907" lon="10.3348534"><ele>476.0</ele><time>2026-04-23T10:39:14.105Z</time></trkpt><trkpt lat="44.1593642" lon="10.3347585"><ele>476.0</ele><time>2026-04-23T10:39:17.119Z</time></trkpt><trkpt lat="44.1593611" lon="10.3346657"><ele>476.0</ele><time>2026-04-23T10:39:20.101Z</time></trkpt><trkpt lat="44.159369" lon="10.3345765"><ele>476.0</ele><time>2026-04-23T10:39:23.107Z</time></trkpt><trkpt lat="44.1593748" lon="10.3344632"><ele>476.0</ele><time>2026-04-23T10:39:27.109Z</time></trkpt><trkpt lat="44.1593832" lon="10.3343432"><ele>476.0</ele><time>2026-04-23T10:39:31.105Z</time></trkpt><trkpt lat="44.1593906" lon="10.3342522"><ele>476.16666666666663</ele><time>2026-04-23T10:39:34.105Z</time></trkpt><trkpt lat="44.1594018" lon="10.3341373"><ele>476.3333333333333</ele><time>2026-04-23T10:39:38.1Z</time></trkpt><trkpt lat="44.1594067" lon="10.3340193"><ele>476.5</ele><time>2026-04-23T10:39:42.113Z</time></trkpt><trkpt lat="44.1594123" lon="10.3339252"><ele>476.66666666666663</ele><time>2026-04-23T10:39:45.105Z</time></trkpt><trkpt lat="44.1594123" lon="10.3338117"><ele>476.8333333333333</ele><time>2026-04-23T10:39:49.103Z</time></trkpt><trkpt lat="44.1593958" lon="10.3336957"><ele>477.0</ele><time>2026-04-23T10:39:53.112Z</time></trkpt><trkpt lat="44.1593717" lon="10.3336124"><ele>477.5</ele><time>2026-04-23T10:39:56.109Z</time></trkpt><trkpt lat="44.1593381" lon="10.3335194"><ele>478.0</ele><time>2026-04-23T10:40:00.109Z</time></trkpt><trkpt lat="44.159299" lon="10.3334315"><ele>478.5</ele><time>2026-04-23T10:40:04.113Z</time></trkpt><trkpt lat="44.1592353" lon="10.3333525"><ele>479.0</ele><time>2026-04-23T10:40:08.105Z</time></trkpt><trkpt lat="44.1591575" lon="10.3333182"><ele>479.5</ele><time>2026-04-23T10:40:12.108Z</time></trkpt><trkpt lat="44.1590834" lon="10.3332812"><ele>480.0</ele><time>2026-04-23T10:40:16.106Z</time></trkpt><trkpt lat="44.1590127" lon="10.333224"><ele>481.28571428571433</ele><time>2026-04-23T10:40:20.116Z</time></trkpt><trkpt lat="44.1589651" lon="10.3331284"><ele>482.57142857142856</ele><time>2026-04-23T10:40:24.112Z</time></trkpt><trkpt lat="44.1589336" lon="10.3330181"><ele>483.8571428571429</ele><time>2026-04-23T10:40:28.101Z</time></trkpt><trkpt lat="44.1589154" lon="10.332923"><ele>485.14285714285717</ele><time>2026-04-23T10:40:31.131Z</time></trkpt><trkpt lat="44.1588989" lon="10.3328332"><ele>486.42857142857144</ele><time>2026-04-23T10:40:34.105Z</time></trkpt><trkpt lat="44.1588878" lon="10.3327433"><ele>487.7142857142857</ele><time>2026-04-23T10:40:37.112Z</time></trkpt><trkpt lat="44.1588782" lon="10.3326513"><ele>489.0</ele><time>2026-04-23T10:40:40.131Z</time></trkpt><trkpt lat="44.1588643" lon="10.3325398"><ele>489.5714285714286</ele><time>2026-04-23T10:40:44.103Z</time></trkpt><trkpt lat="44.1588522" lon="10.3324515"><ele>490.1428571428572</ele><time>2026-04-23T10:40:47.111Z</time></trkpt><trkpt lat="44.1588587" lon="10.3323408"><ele>490.7142857142857</ele><time>2026-04-23T10:40:51.103Z</time></trkpt><trkpt lat="44.1588561" lon="10.3322471"><ele>491.28571428571433</ele><time>2026-04-23T10:40:54.106Z</time></trkpt><trkpt lat="44.1588626" lon="10.3321568"><ele>491.8571428571429</ele><time>2026-04-23T10:40:57.102Z</time></trkpt><trkpt lat="44.158858" lon="10.3320662"><ele>492.42857142857144</ele><time>2026-04-23T10:41:00.101Z</time></trkpt><trkpt lat="44.1588617" lon="10.3319494"><ele>493.0</ele><time>2026-04-23T10:41:04.1Z</time></trkpt><trkpt lat="44.1588731" lon="10.3318318"><ele>494.1428571428571</ele><time>2026-04-23T10:41:08.103Z</time></trkpt><trkpt lat="44.1588869" lon="10.3317414"><ele>495.28571428571433</ele><time>2026-04-23T10:41:11.106Z</time></trkpt><trkpt lat="44.158905" lon="10.3316523"><ele>496.42857142857144</ele><time>2026-04-23T10:41:14.102Z</time></trkpt><trkpt lat="44.1589221" lon="10.3315663"><ele>497.57142857142856</ele><time>2026-04-23T10:41:17.11Z</time></trkpt><trkpt lat="44.1589388" lon="10.3314804"><ele>498.71428571428567</ele><time>2026-04-23T10:41:20.112Z</time></trkpt><trkpt lat="44.1589609" lon="10.3313668"><ele>499.8571428571429</ele><time>2026-04-23T10:41:24.1Z</time></trkpt><trkpt lat="44.1589756" lon="10.3312781"><ele>501.0</ele><time>2026-04-23T10:41:27.111Z</time></trkpt><trkpt lat="44.1589911" lon="10.3311745"><ele>500.42857142857144</ele><time>2026-04-23T10:41:31.103Z</time></trkpt><trkpt lat="44.1590078" lon="10.3310774"><ele>499.85714285714283</ele><time>2026-04-23T10:41:35.103Z</time></trkpt><trkpt lat="44.1590263" lon="10.3309905"><ele>499.2857142857143</ele><time>2026-04-23T10:41:38.108Z</time></trkpt><trkpt lat="44.1590492" lon="10.3309025"><ele>498.7142857142857</ele><time>2026-04-23T10:41:41.11Z</time></trkpt><trkpt lat="44.1590791" lon="10.3307962"><ele>498.1428571428571</ele><time>2026-04-23T10:41:45.121Z</time></trkpt><trkpt lat="44.1591083" lon="10.3307121"><ele>497.57142857142856</ele><time>2026-04-23T10:41:48.103Z</time></trkpt><trkpt lat="44.1591364" lon="10.3306273"><ele>497.0</ele><time>2026-04-23T10:41:51.107Z</time></trkpt><trkpt lat="44.1591747" lon="10.3305236"><ele>498.3333333333333</ele><time>2026-04-23T10:41:55.114Z</time></trkpt><trkpt lat="44.1592105" lon="10.3304223"><ele>499.66666666666663</ele><time>2026-04-23T10:41:59.111Z</time></trkpt><trkpt lat="44.1592383" lon="10.3303193"><ele>501.0</ele><time>2026-04-23T10:42:03.114Z</time></trkpt><trkpt lat="44.1592336" lon="10.3302001"><ele>502.33333333333337</ele><time>2026-04-23T10:42:07Z</time></trkpt><trkpt lat="44.1592066" lon="10.3301181"><ele>503.6666666666667</ele><time>2026-04-23T10:42:10.144Z</time></trkpt><trkpt lat="44.1591689" lon="10.3300446"><ele>505.0</ele><time>2026-04-23T10:42:13.121Z</time></trkpt><trkpt lat="44.1591107" lon="10.3299692"><ele>505.0</ele><time>2026-04-23T10:42:17.103Z</time></trkpt><trkpt lat="44.1590379" lon="10.3299368"><ele>504.99999999999994</ele><time>2026-04-23T10:42:21.101Z</time></trkpt><trkpt lat="44.1589711" lon="10.3299348"><ele>505.0</ele><time>2026-04-23T10:42:24.103Z</time></trkpt><trkpt lat="44.1589052" lon="10.3299317"><ele>505.0</ele><time>2026-04-23T10:42:27.105Z</time></trkpt><trkpt lat="44.1588404" lon="10.329937"><ele>504.99999999999994</ele><time>2026-04-23T10:42:30.106Z</time></trkpt><trkpt lat="44.1587755" lon="10.3299531"><ele>505.0</ele><time>2026-04-23T10:42:33.103Z</time></trkpt><trkpt lat="44.158709" lon="10.3299595"><ele>505.0</ele><time>2026-04-23T10:42:36.102Z</time></trkpt><trkpt lat="44.158645" lon="10.3299672"><ele>506.33333333333337</ele><time>2026-04-23T10:42:39.104Z</time></trkpt><trkpt lat="44.1585681" lon="10.3300028"><ele>507.6666666666667</ele><time>2026-04-23T10:42:43.101Z</time></trkpt><trkpt lat="44.1584897" lon="10.3300265"><ele>509.0</ele><time>2026-04-23T10:42:47.102Z</time></trkpt><trkpt lat="44.1583922" lon="10.3300906"><ele>510.33333333333337</ele><time>2026-04-23T10:42:52.109Z</time></trkpt><trkpt lat="44.1583339" lon="10.330135"><ele>511.6666666666667</ele><time>2026-04-23T10:42:55.108Z</time></trkpt><trkpt lat="44.1582796" lon="10.3301819"><ele>513.0</ele><time>2026-04-23T10:42:58.103Z</time></trkpt><trkpt lat="44.1582258" lon="10.3302407"><ele>513.2857142857143</ele><time>2026-04-23T10:43:01.106Z</time></trkpt><trkpt lat="44.1581717" lon="10.3302957"><ele>513.5714285714286</ele><time>2026-04-23T10:43:04.108Z</time></trkpt><trkpt lat="44.1581194" lon="10.3303483"><ele>513.8571428571429</ele><time>2026-04-23T10:43:07.099Z</time></trkpt><trkpt lat="44.1580692" lon="10.3304072"><ele>514.1428571428571</ele><time>2026-04-23T10:43:10.104Z</time></trkpt><trkpt lat="44.1580023" lon="10.3304699"><ele>514.4285714285714</ele><time>2026-04-23T10:43:14.11Z</time></trkpt><trkpt lat="44.1579362" lon="10.3305403"><ele>514.7142857142858</ele><time>2026-04-23T10:43:18.102Z</time></trkpt><trkpt lat="44.1578686" lon="10.3306016"><ele>515.0</ele><time>2026-04-23T10:43:22.106Z</time></trkpt><trkpt lat="44.157806" lon="10.3306734"><ele>515.0</ele><time>2026-04-23T10:43:26.117Z</time></trkpt><trkpt lat="44.1577498" lon="10.3307325"><ele>515.0</ele><time>2026-04-23T10:43:29.106Z</time></trkpt><trkpt lat="44.1576868" lon="10.3307923"><ele>515.0</ele><time>2026-04-23T10:43:32.108Z</time></trkpt><trkpt lat="44.1576275" lon="10.3308557"><ele>515.0</ele><time>2026-04-23T10:43:35.111Z</time></trkpt><trkpt lat="44.1575665" lon="10.3309169"><ele>515.0</ele><time>2026-04-23T10:43:38.106Z</time></trkpt><trkpt lat="44.1575074" lon="10.330985"><ele>515.0</ele><time>2026-04-23T10:43:41.115Z</time></trkpt><trkpt lat="44.1574397" lon="10.3310478"><ele>516.4285714285714</ele><time>2026-04-23T10:43:44.119Z</time></trkpt><trkpt lat="44.1573668" lon="10.3310911"><ele>517.8571428571429</ele><time>2026-04-23T10:43:47.127Z</time></trkpt><trkpt lat="44.1572947" lon="10.3311201"><ele>519.2857142857142</ele><time>2026-04-23T10:43:50.115Z</time></trkpt><trkpt lat="44.1572211" lon="10.3311137"><ele>520.7142857142858</ele><time>2026-04-23T10:43:53.109Z</time></trkpt><trkpt lat="44.157149" lon="10.3310853"><ele>522.1428571428571</ele><time>2026-04-23T10:43:56.106Z</time></trkpt><trkpt lat="44.1570899" lon="10.3310315"><ele>523.5714285714286</ele><time>2026-04-23T10:43:59.105Z</time></trkpt><trkpt lat="44.1570419" lon="10.3309582"><ele>525.0</ele><time>2026-04-23T10:44:02.112Z</time></trkpt><trkpt lat="44.1570159" lon="10.3308639"><ele>525.0</ele><time>2026-04-23T10:44:05.112Z</time></trkpt><trkpt lat="44.1570083" lon="10.3307591"><ele>525.0</ele><time>2026-04-23T10:44:08.11Z</time></trkpt><trkpt lat="44.1570015" lon="10.3306553"><ele>525.0</ele><time>2026-04-23T10:44:11.115Z</time></trkpt><trkpt lat="44.1569746" lon="10.3305541"><ele>525.0</ele><time>2026-04-23T10:44:14.109Z</time></trkpt><trkpt lat="44.1568965" lon="10.3305672"><ele>525.0</ele><time>2026-04-23T10:44:17.107Z</time></trkpt><trkpt lat="44.1568304" lon="10.3306094"><ele>525.0</ele><time>2026-04-23T10:44:20.128Z</time></trkpt><trkpt lat="44.1567653" lon="10.3306553"><ele>525.0</ele><time>2026-04-23T10:44:23.106Z</time></trkpt><trkpt lat="44.1567021" lon="10.3307168"><ele>525.0</ele><time>2026-04-23T10:44:26.106Z</time></trkpt><trkpt lat="44.1566416" lon="10.3308031"><ele>525.0</ele><time>2026-04-23T10:44:29.11Z</time></trkpt><trkpt lat="44.1566045" lon="10.3308952"><ele>525.0</ele><time>2026-04-23T10:44:32.105Z</time></trkpt><trkpt lat="44.1565626" lon="10.3309866"><ele>525.0</ele><time>2026-04-23T10:44:35.109Z</time></trkpt><trkpt lat="44.1565151" lon="10.3310809"><ele>525.0</ele><time>2026-04-23T10:44:38.119Z</time></trkpt><trkpt lat="44.1564618" lon="10.3311658"><ele>526.1666666666666</ele><time>2026-04-23T10:44:41.106Z</time></trkpt><trkpt lat="44.1564081" lon="10.3312491"><ele>527.3333333333334</ele><time>2026-04-23T10:44:44.104Z</time></trkpt><trkpt lat="44.1563547" lon="10.331326"><ele>528.5</ele><time>2026-04-23T10:44:47.124Z</time></trkpt><trkpt lat="44.1563116" lon="10.3314085"><ele>529.6666666666667</ele><time>2026-04-23T10:44:50.11Z</time></trkpt><trkpt lat="44.1562615" lon="10.3314946"><ele>530.8333333333334</ele><time>2026-04-23T10:44:53.112Z</time></trkpt><trkpt lat="44.1561928" lon="10.3316143"><ele>532.0</ele><time>2026-04-23T10:44:57.107Z</time></trkpt><trkpt lat="44.1561422" lon="10.3316977"><ele>532.0</ele><time>2026-04-23T10:45:00.105Z</time></trkpt><trkpt lat="44.1560878" lon="10.3317846"><ele>532.0</ele><time>2026-04-23T10:45:03.102Z</time></trkpt><trkpt lat="44.1560323" lon="10.3318708"><ele>532.0</ele><time>2026-04-23T10:45:06.115Z</time></trkpt><trkpt lat="44.1559833" lon="10.3319768"><ele>532.0</ele><time>2026-04-23T10:45:09.115Z</time></trkpt><trkpt lat="44.1559337" lon="10.3320439"><ele>532.0</ele><time>2026-04-23T10:45:11.113Z</time></trkpt><trkpt lat="44.1558738" lon="10.332121"><ele>532.0</ele><time>2026-04-23T10:45:13.107Z</time></trkpt><trkpt lat="44.1557946" lon="10.3322101"><ele>530.5</ele><time>2026-04-23T10:45:15.114Z</time></trkpt><trkpt lat="44.1556937" lon="10.3323054"><ele>529.0</ele><time>2026-04-23T10:45:17.104Z</time></trkpt><trkpt lat="44.1556326" lon="10.3323622"><ele>527.5</ele><time>2026-04-23T10:45:18.11Z</time></trkpt><trkpt lat="44.1555662" lon="10.3324195"><ele>526.0</ele><time>2026-04-23T10:45:19.115Z</time></trkpt><trkpt lat="44.1554963" lon="10.3324694"><ele>524.5</ele><time>2026-04-23T10:45:20.114Z</time></trkpt><trkpt lat="44.1554258" lon="10.3325023"><ele>523.0</ele><time>2026-04-23T10:45:21.121Z</time></trkpt><trkpt lat="44.1553547" lon="10.3325082"><ele>523.0</ele><time>2026-04-23T10:45:22.115Z</time></trkpt><trkpt lat="44.1552865" lon="10.3324972"><ele>523.0</ele><time>2026-04-23T10:45:23.106Z</time></trkpt><trkpt lat="44.155221" lon="10.3324857"><ele>523.0</ele><time>2026-04-23T10:45:24.12Z</time></trkpt><trkpt lat="44.1551587" lon="10.3324696"><ele>523.0</ele><time>2026-04-23T10:45:25.116Z</time></trkpt><trkpt lat="44.1550528" lon="10.3324452"><ele>523.0</ele><time>2026-04-23T10:45:27.115Z</time></trkpt><trkpt lat="44.1549708" lon="10.332422"><ele>523.0</ele><time>2026-04-23T10:45:29.111Z</time></trkpt><trkpt lat="44.1548889" lon="10.3323976"><ele>524.9999999999999</ele><time>2026-04-23T10:45:32.106Z</time></trkpt><trkpt lat="44.1548211" lon="10.332377"><ele>527.0</ele><time>2026-04-23T10:45:35.108Z</time></trkpt><trkpt lat="44.1547496" lon="10.3323589"><ele>529.0</ele><time>2026-04-23T10:45:38.109Z</time></trkpt><trkpt lat="44.1546799" lon="10.3323412"><ele>531.0</ele><time>2026-04-23T10:45:41.118Z</time></trkpt><trkpt lat="44.1546078" lon="10.3323191"><ele>533.0</ele><time>2026-04-23T10:45:44.116Z</time></trkpt><trkpt lat="44.1545385" lon="10.3322912"><ele>534.9999999999999</ele><time>2026-04-23T10:45:47.114Z</time></trkpt><trkpt lat="44.1544709" lon="10.332266"><ele>537.0</ele><time>2026-04-23T10:45:50.118Z</time></trkpt><trkpt lat="44.1544064" lon="10.3322499"><ele>537.0</ele><time>2026-04-23T10:45:53.105Z</time></trkpt><trkpt lat="44.1543367" lon="10.3322844"><ele>537.0</ele><time>2026-04-23T10:45:56.107Z</time></trkpt><trkpt lat="44.1542856" lon="10.3323604"><ele>537.0</ele><time>2026-04-23T10:45:59.114Z</time></trkpt><trkpt lat="44.1542621" lon="10.3324624"><ele>537.0</ele><time>2026-04-23T10:46:02.117Z</time></trkpt><trkpt lat="44.1542728" lon="10.3325542"><ele>537.0</ele><time>2026-04-23T10:46:05.103Z</time></trkpt><trkpt lat="44.1542866" lon="10.3326715"><ele>537.0</ele><time>2026-04-23T10:46:09.102Z</time></trkpt><trkpt lat="44.1543013" lon="10.3327726"><ele>536.9999999999999</ele><time>2026-04-23T10:46:13.115Z</time></trkpt><trkpt lat="44.1542726" lon="10.3328606"><ele>537.0</ele><time>2026-04-23T10:46:17.102Z</time></trkpt><trkpt lat="44.1542049" lon="10.3329192"><ele>537.0</ele><time>2026-04-23T10:46:21.109Z</time></trkpt><trkpt lat="44.1541488" lon="10.3329606"><ele>537.0</ele><time>2026-04-23T10:46:24.118Z</time></trkpt><trkpt lat="44.1540958" lon="10.3330102"><ele>537.0</ele><time>2026-04-23T10:46:27.117Z</time></trkpt><trkpt lat="44.1540489" lon="10.3330695"><ele>536.9999999999999</ele><time>2026-04-23T10:46:30.108Z</time></trkpt><trkpt lat="44.1539988" lon="10.3331288"><ele>537.0</ele><time>2026-04-23T10:46:33.117Z</time></trkpt><trkpt lat="44.1539435" lon="10.33318"><ele>538.1428571428571</ele><time>2026-04-23T10:46:36.103Z</time></trkpt><trkpt lat="44.1538886" lon="10.3332385"><ele>539.2857142857142</ele><time>2026-04-23T10:46:39.117Z</time></trkpt><trkpt lat="44.1538364" lon="10.3332935"><ele>540.4285714285714</ele><time>2026-04-23T10:46:42.106Z</time></trkpt><trkpt lat="44.1537696" lon="10.3333608"><ele>541.5714285714286</ele><time>2026-04-23T10:46:46.127Z</time></trkpt><trkpt lat="44.1537157" lon="10.333425"><ele>542.7142857142858</ele><time>2026-04-23T10:46:49.102Z</time></trkpt><trkpt lat="44.153665" lon="10.3334815"><ele>543.8571428571429</ele><time>2026-04-23T10:46:52.108Z</time></trkpt><trkpt lat="44.1536157" lon="10.3335368"><ele>545.0</ele><time>2026-04-23T10:46:55.108Z</time></trkpt><trkpt lat="44.1535605" lon="10.3335882"><ele>545.0</ele><time>2026-04-23T10:46:58.114Z</time></trkpt><trkpt lat="44.1535118" lon="10.333651"><ele>545.0</ele><time>2026-04-23T10:47:01.11Z</time></trkpt><trkpt lat="44.1534603" lon="10.3337053"><ele>545.0</ele><time>2026-04-23T10:47:04.107Z</time></trkpt><trkpt lat="44.153401" lon="10.3337788"><ele>545.0</ele><time>2026-04-23T10:47:08.109Z</time></trkpt><trkpt lat="44.1533505" lon="10.3338324"><ele>545.0</ele><time>2026-04-23T10:47:11.113Z</time></trkpt><trkpt lat="44.1532965" lon="10.3339107"><ele>545.0</ele><time>2026-04-23T10:47:14.949Z</time></trkpt><trkpt lat="44.1532605" lon="10.3340055"><ele>545.0</ele><time>2026-04-23T10:47:19.114Z</time></trkpt><trkpt lat="44.1532463" lon="10.3340933"><ele>544.3333333333333</ele><time>2026-04-23T10:47:23.11Z</time></trkpt><trkpt lat="44.1532265" lon="10.3341955"><ele>543.6666666666666</ele><time>2026-04-23T10:47:27.114Z</time></trkpt><trkpt lat="44.1532202" lon="10.3343108"><ele>543.0</ele><time>2026-04-23T10:47:31.115Z</time></trkpt><trkpt lat="44.1532107" lon="10.3343978"><ele>542.3333333333334</ele><time>2026-04-23T10:47:34.109Z</time></trkpt><trkpt lat="44.1532029" lon="10.3344857"><ele>541.6666666666667</ele><time>2026-04-23T10:47:37.111Z</time></trkpt><trkpt lat="44.1531851" lon="10.3345925"><ele>541.0</ele><time>2026-04-23T10:47:41.113Z</time></trkpt><trkpt lat="44.1531585" lon="10.3347071"><ele>542.8571428571429</ele><time>2026-04-23T10:47:45.103Z</time></trkpt><trkpt lat="44.1531353" lon="10.3347967"><ele>544.7142857142858</ele><time>2026-04-23T10:47:48.103Z</time></trkpt><trkpt lat="44.1531095" lon="10.3348838"><ele>546.5714285714286</ele><time>2026-04-23T10:47:51.115Z</time></trkpt><trkpt lat="44.1530661" lon="10.3349581"><ele>548.4285714285714</ele><time>2026-04-23T10:47:54.112Z</time></trkpt><trkpt lat="44.1530032" lon="10.3350089"><ele>550.2857142857142</ele><time>2026-04-23T10:47:57.125Z</time></trkpt><trkpt lat="44.1529414" lon="10.3350574"><ele>552.1428571428571</ele><time>2026-04-23T10:48:00.106Z</time></trkpt><trkpt lat="44.1528753" lon="10.3350909"><ele>554.0</ele><time>2026-04-23T10:48:03.108Z</time></trkpt><trkpt lat="44.1528113" lon="10.3351131"><ele>554.0</ele><time>2026-04-23T10:48:06.109Z</time></trkpt><trkpt lat="44.1527354" lon="10.3351461"><ele>554.0</ele><time>2026-04-23T10:48:10.106Z</time></trkpt><trkpt lat="44.1526367" lon="10.3351882"><ele>554.0</ele><time>2026-04-23T10:48:15.109Z</time></trkpt><trkpt lat="44.1525757" lon="10.3352121"><ele>554.0</ele><time>2026-04-23T10:48:18.115Z</time></trkpt><trkpt lat="44.1524965" lon="10.3352424"><ele>554.0</ele><time>2026-04-23T10:48:22.107Z</time></trkpt><trkpt lat="44.1524233" lon="10.3352712"><ele>554.0</ele><time>2026-04-23T10:48:26.113Z</time></trkpt><trkpt lat="44.1523451" lon="10.3352869"><ele>555.2857142857142</ele><time>2026-04-23T10:48:31.111Z</time></trkpt><trkpt lat="44.152282" lon="10.3352746"><ele>556.5714285714286</ele><time>2026-04-23T10:48:35.11Z</time></trkpt><trkpt lat="44.1522199" lon="10.3352567"><ele>557.8571428571429</ele><time>2026-04-23T10:48:39.107Z</time></trkpt><trkpt lat="44.1521476" lon="10.3352276"><ele>559.1428571428571</ele><time>2026-04-23T10:48:44.111Z</time></trkpt><trkpt lat="44.1520794" lon="10.3351981"><ele>560.4285714285714</ele><time>2026-04-23T10:48:48.102Z</time></trkpt><trkpt lat="44.1520132" lon="10.335157"><ele>561.7142857142857</ele><time>2026-04-23T10:48:52.108Z</time></trkpt><trkpt lat="44.1519557" lon="10.3350876"><ele>563.0</ele><time>2026-04-23T10:48:56.109Z</time></trkpt><trkpt lat="44.1519101" lon="10.3350073"><ele>563.0</ele><time>2026-04-23T10:49:00.115Z</time></trkpt><trkpt lat="44.1518637" lon="10.3349224"><ele>563.0</ele><time>2026-04-23T10:49:04.119Z</time></trkpt><trkpt lat="44.1518258" lon="10.3348291"><ele>563.0</ele><time>2026-04-23T10:49:08.105Z</time></trkpt><trkpt lat="44.1517903" lon="10.3347422"><ele>563.0</ele><time>2026-04-23T10:49:12.103Z</time></trkpt><trkpt lat="44.1517494" lon="10.3346655"><ele>563.0</ele><time>2026-04-23T10:49:16.11Z</time></trkpt><trkpt lat="44.1517043" lon="10.334593"><ele>563.0</ele><time>2026-04-23T10:49:20.115Z</time></trkpt><trkpt lat="44.151659" lon="10.3345002"><ele>563.0</ele><time>2026-04-23T10:49:25.114Z</time></trkpt><trkpt lat="44.1516228" lon="10.3344196"><ele>563.0</ele><time>2026-04-23T10:49:29.119Z</time></trkpt><trkpt lat="44.1515758" lon="10.3343382"><ele>563.0</ele><time>2026-04-23T10:49:33.101Z</time></trkpt><trkpt lat="44.1515158" lon="10.334285"><ele>563.0</ele><time>2026-04-23T10:49:37.109Z</time></trkpt><trkpt lat="44.151461" lon="10.3342253"><ele>563.0</ele><time>2026-04-23T10:49:41.117Z</time></trkpt><trkpt lat="44.1514139" lon="10.3341608"><ele>563.0</ele><time>2026-04-23T10:49:45.114Z</time></trkpt><trkpt lat="44.1513879" lon="10.3340662"><ele>563.0</ele><time>2026-04-23T10:49:49.11Z</time></trkpt><trkpt lat="44.1513689" lon="10.3339708"><ele>563.0</ele><time>2026-04-23T10:49:53.11Z</time></trkpt><trkpt lat="44.1513531" lon="10.3338782"><ele>565.1428571428571</ele><time>2026-04-23T10:49:57.118Z</time></trkpt><trkpt lat="44.1513419" lon="10.3337842"><ele>567.2857142857143</ele><time>2026-04-23T10:50:01.118Z</time></trkpt><trkpt lat="44.15133" lon="10.3336873"><ele>569.4285714285714</ele><time>2026-04-23T10:50:05.111Z</time></trkpt><trkpt lat="44.1513295" lon="10.3335879"><ele>571.5714285714286</ele><time>2026-04-23T10:50:09.106Z</time></trkpt><trkpt lat="44.1513311" lon="10.3334954"><ele>573.7142857142857</ele><time>2026-04-23T10:50:13.109Z</time></trkpt><trkpt lat="44.1513333" lon="10.333396"><ele>575.8571428571429</ele><time>2026-04-23T10:50:17.11Z</time></trkpt><trkpt lat="44.1513173" lon="10.3332995"><ele>578.0</ele><time>2026-04-23T10:50:21.112Z</time></trkpt><trkpt lat="44.1512973" lon="10.3332046"><ele>578.0</ele><time>2026-04-23T10:50:25.111Z</time></trkpt><trkpt lat="44.1512764" lon="10.3331103"><ele>578.0</ele><time>2026-04-23T10:50:29.102Z</time></trkpt><trkpt lat="44.1512622" lon="10.3330159"><ele>578.0</ele><time>2026-04-23T10:50:34.112Z</time></trkpt><trkpt lat="44.1511793" lon="10.3329951"><ele>578.0</ele><time>2026-04-23T10:50:40.111Z</time></trkpt><trkpt lat="44.1510896" lon="10.3330026"><ele>578.0</ele><time>2026-04-23T10:50:42.109Z</time></trkpt><trkpt lat="44.1509782" lon="10.3330203"><ele>578.0</ele><time>2026-04-23T10:50:44.13Z</time></trkpt><trkpt lat="44.1508781" lon="10.332968"><ele>578.3333333333333</ele><time>2026-04-23T10:50:46.119Z</time></trkpt><trkpt lat="44.1508077" lon="10.3328687"><ele>578.6666666666666</ele><time>2026-04-23T10:50:48.117Z</time></trkpt><trkpt lat="44.1507516" lon="10.3327604"><ele>579.0</ele><time>2026-04-23T10:50:50.114Z</time></trkpt><trkpt lat="44.1506803" lon="10.3326957"><ele>579.3333333333334</ele><time>2026-04-23T10:50:52.113Z</time></trkpt><trkpt lat="44.1506115" lon="10.332652"><ele>579.6666666666667</ele><time>2026-04-23T10:50:54.111Z</time></trkpt><trkpt lat="44.1505348" lon="10.3325926"><ele>580.0</ele><time>2026-04-23T10:50:57.1Z</time></trkpt><trkpt lat="44.1504799" lon="10.3325306"><ele>580.0</ele><time>2026-04-23T10:51:01.101Z</time></trkpt><trkpt lat="44.1504521" lon="10.3324296"><ele>580.0</ele><time>2026-04-23T10:51:05.105Z</time></trkpt><trkpt lat="44.1504473" lon="10.3323192"><ele>580.0</ele><time>2026-04-23T10:51:09.105Z</time></trkpt><trkpt lat="44.1504284" lon="10.3322109"><ele>580.0</ele><time>2026-04-23T10:51:13.112Z</time></trkpt><trkpt lat="44.1504096" lon="10.3321262"><ele>580.0</ele><time>2026-04-23T10:51:16.118Z</time></trkpt><trkpt lat="44.150384" lon="10.3320381"><ele>580.0</ele><time>2026-04-23T10:51:19.113Z</time></trkpt><trkpt lat="44.1503575" lon="10.3319544"><ele>580.0</ele><time>2026-04-23T10:51:22.109Z</time></trkpt><trkpt lat="44.1503226" lon="10.3318526"><ele>580.6666666666667</ele><time>2026-04-23T10:51:26.11Z</time></trkpt><trkpt lat="44.1502795" lon="10.3317546"><ele>581.3333333333334</ele><time>2026-04-23T10:51:30.111Z</time></trkpt><trkpt lat="44.1502275" lon="10.3317003"><ele>582.0</ele><time>2026-04-23T10:51:33.102Z</time></trkpt><trkpt lat="44.1501837" lon="10.3316315"><ele>582.6666666666666</ele><time>2026-04-23T10:51:36.111Z</time></trkpt><trkpt lat="44.1501313" lon="10.331528"><ele>583.3333333333333</ele><time>2026-04-23T10:51:40.113Z</time></trkpt><trkpt lat="44.1500958" lon="10.3314368"><ele>584.0</ele><time>2026-04-23T10:51:44.106Z</time></trkpt><trkpt lat="44.1500469" lon="10.3313611"><ele>584.8333333333333</ele><time>2026-04-23T10:51:48.109Z</time></trkpt><trkpt lat="44.1499977" lon="10.3312915"><ele>585.6666666666666</ele><time>2026-04-23T10:51:52.02Z</time></trkpt><trkpt lat="44.149943" lon="10.3312233"><ele>586.5</ele><time>2026-04-23T10:51:56.116Z</time></trkpt><trkpt lat="44.1498782" lon="10.3311523"><ele>587.3333333333334</ele><time>2026-04-23T10:51:59.108Z</time></trkpt><trkpt lat="44.149846" lon="10.3310608"><ele>588.1666666666667</ele><time>2026-04-23T10:52:01.046Z</time></trkpt><trkpt lat="44.1498385" lon="10.3309378"><ele>589.0</ele><time>2026-04-23T10:52:04.102Z</time></trkpt><trkpt lat="44.1498182" lon="10.3308288"><ele>588.0</ele><time>2026-04-23T10:52:08.101Z</time></trkpt><trkpt lat="44.1497927" lon="10.3307297"><ele>587.0</ele><time>2026-04-23T10:52:12.11Z</time></trkpt><trkpt lat="44.1497805" lon="10.3306153"><ele>586.0</ele><time>2026-04-23T10:52:17.105Z</time></trkpt><trkpt lat="44.1497699" lon="10.3305136"><ele>585.0</ele><time>2026-04-23T10:52:20.121Z</time></trkpt><trkpt lat="44.1497652" lon="10.3304238"><ele>584.0</ele><time>2026-04-23T10:52:23.108Z</time></trkpt><trkpt lat="44.1497701" lon="10.3303337"><ele>583.0</ele><time>2026-04-23T10:52:26.11Z</time></trkpt><trkpt lat="44.1497753" lon="10.330223"><ele>582.0</ele><time>2026-04-23T10:52:30.112Z</time></trkpt><trkpt lat="44.1497678" lon="10.3301039"><ele>582.0</ele><time>2026-04-23T10:52:34.107Z</time></trkpt><trkpt lat="44.1497626" lon="10.3300115"><ele>582.0</ele><time>2026-04-23T10:52:37.11Z</time></trkpt><trkpt lat="44.1497629" lon="10.3299189"><ele>582.0</ele><time>2026-04-23T10:52:40.116Z</time></trkpt><trkpt lat="44.1497575" lon="10.3298238"><ele>582.0</ele><time>2026-04-23T10:52:43.101Z</time></trkpt><trkpt lat="44.1497438" lon="10.3297183"><ele>582.0</ele><time>2026-04-23T10:52:47.112Z</time></trkpt><trkpt lat="44.149733" lon="10.3296091"><ele>582.0</ele><time>2026-04-23T10:52:51.117Z</time></trkpt><trkpt lat="44.1497134" lon="10.3295176"><ele>582.0</ele><time>2026-04-23T10:52:54.114Z</time></trkpt><trkpt lat="44.1497017" lon="10.3294281"><ele>584.0</ele><time>2026-04-23T10:52:57.102Z</time></trkpt><trkpt lat="44.1496955" lon="10.3293378"><ele>586.0</ele><time>2026-04-23T10:53:00.1Z</time></trkpt><trkpt lat="44.1496977" lon="10.3292462"><ele>588.0</ele><time>2026-04-23T10:53:03.11Z</time></trkpt><trkpt lat="44.1496973" lon="10.3291446"><ele>590.0</ele><time>2026-04-23T10:53:06.114Z</time></trkpt><trkpt lat="44.1497039" lon="10.3290527"><ele>592.0</ele><time>2026-04-23T10:53:09.106Z</time></trkpt><trkpt lat="44.149717" lon="10.3289638"><ele>594.0</ele><time>2026-04-23T10:53:12.109Z</time></trkpt><trkpt lat="44.1497358" lon="10.3288765"><ele>596.0</ele><time>2026-04-23T10:53:15.108Z</time></trkpt><trkpt lat="44.1497591" lon="10.3287933"><ele>597.5714285714286</ele><time>2026-04-23T10:53:18.115Z</time></trkpt><trkpt lat="44.1497767" lon="10.328708"><ele>599.1428571428571</ele><time>2026-04-23T10:53:21.113Z</time></trkpt><trkpt lat="44.1497936" lon="10.3286062"><ele>600.7142857142857</ele><time>2026-04-23T10:53:25.116Z</time></trkpt><trkpt lat="44.1498146" lon="10.3285225"><ele>602.2857142857142</ele><time>2026-04-23T10:53:29.105Z</time></trkpt><trkpt lat="44.1498339" lon="10.3284347"><ele>603.8571428571429</ele><time>2026-04-23T10:53:32.102Z</time></trkpt><trkpt lat="44.1498175" lon="10.3283409"><ele>605.4285714285713</ele><time>2026-04-23T10:53:36.109Z</time></trkpt><trkpt lat="44.1497318" lon="10.3283835"><ele>607.0</ele><time>2026-04-23T10:53:40.102Z</time></trkpt><trkpt lat="44.1496655" lon="10.3284446"><ele>607.0</ele><time>2026-04-23T10:53:41.108Z</time></trkpt><trkpt lat="44.1495801" lon="10.3285179"><ele>607.0</ele><time>2026-04-23T10:53:43.107Z</time></trkpt><trkpt lat="44.1494922" lon="10.3285953"><ele>607.0</ele><time>2026-04-23T10:53:45.104Z</time></trkpt><trkpt lat="44.1494139" lon="10.3287018"><ele>607.0</ele><time>2026-04-23T10:53:47.104Z</time></trkpt><trkpt lat="44.1493729" lon="10.3287987"><ele>607.0</ele><time>2026-04-23T10:53:48.112Z</time></trkpt><trkpt lat="44.1493086" lon="10.3289571"><ele>605.1666666666667</ele><time>2026-04-23T10:53:50.12Z</time></trkpt><trkpt lat="44.1492743" lon="10.3290536"><ele>603.3333333333334</ele><time>2026-04-23T10:53:51.107Z</time></trkpt><trkpt lat="44.1492261" lon="10.329148"><ele>601.5</ele><time>2026-04-23T10:53:52.139Z</time></trkpt><trkpt lat="44.149191" lon="10.329239"><ele>599.6666666666666</ele><time>2026-04-23T10:53:53.115Z</time></trkpt><trkpt lat="44.1491469" lon="10.3294171"><ele>597.8333333333333</ele><time>2026-04-23T10:53:55.109Z</time></trkpt><trkpt lat="44.1491069" lon="10.3294941"><ele>596.0</ele><time>2026-04-23T10:53:56.114Z</time></trkpt><trkpt lat="44.1490702" lon="10.3295715"><ele>595.8</ele><time>2026-04-23T10:53:57.112Z</time></trkpt><trkpt lat="44.1490153" lon="10.3296845"><ele>595.6</ele><time>2026-04-23T10:53:59.122Z</time></trkpt><trkpt lat="44.1489643" lon="10.3297527"><ele>595.4</ele><time>2026-04-23T10:54:00.115Z</time></trkpt><trkpt lat="44.1488521" lon="10.3298606"><ele>595.2</ele><time>2026-04-23T10:54:02.11Z</time></trkpt><trkpt lat="44.1487928" lon="10.3299625"><ele>595.0</ele><time>2026-04-23T10:54:04.103Z</time></trkpt><trkpt lat="44.1487644" lon="10.330104"><ele>592.6</ele><time>2026-04-23T10:54:06.113Z</time></trkpt><trkpt lat="44.1487191" lon="10.3302725"><ele>590.2</ele><time>2026-04-23T10:54:08.113Z</time></trkpt><trkpt lat="44.1486692" lon="10.3304304"><ele>587.8</ele><time>2026-04-23T10:54:10.109Z</time></trkpt><trkpt lat="44.1486405" lon="10.3305252"><ele>585.4</ele><time>2026-04-23T10:54:11.107Z</time></trkpt><trkpt lat="44.1486166" lon="10.3306526"><ele>583.0</ele><time>2026-04-23T10:54:13.103Z</time></trkpt><trkpt lat="44.148613" lon="10.3308109"><ele>580.8</ele><time>2026-04-23T10:54:15.103Z</time></trkpt><trkpt lat="44.14862" lon="10.3309524"><ele>578.5999999999999</ele><time>2026-04-23T10:54:17.105Z</time></trkpt><trkpt lat="44.1486109" lon="10.3310733"><ele>576.4000000000001</ele><time>2026-04-23T10:54:19.106Z</time></trkpt><trkpt lat="44.148522" lon="10.3311295"><ele>574.2</ele><time>2026-04-23T10:54:22.115Z</time></trkpt><trkpt lat="44.1484171" lon="10.3311369"><ele>572.0</ele><time>2026-04-23T10:54:24.122Z</time></trkpt><trkpt lat="44.148307" lon="10.3311842"><ele>571.3333333333333</ele><time>2026-04-23T10:54:26.105Z</time></trkpt><trkpt lat="44.148186" lon="10.3312499"><ele>570.6666666666666</ele><time>2026-04-23T10:54:28.113Z</time></trkpt><trkpt lat="44.148114" lon="10.3313"><ele>570.0</ele><time>2026-04-23T10:54:29.113Z</time></trkpt><trkpt lat="44.1480415" lon="10.3313391"><ele>569.3333333333334</ele><time>2026-04-23T10:54:30.11Z</time></trkpt><trkpt lat="44.1479812" lon="10.3313916"><ele>568.6666666666667</ele><time>2026-04-23T10:54:31.105Z</time></trkpt><trkpt lat="44.1479255" lon="10.3314329"><ele>568.0</ele><time>2026-04-23T10:54:32.119Z</time></trkpt><trkpt lat="44.1478696" lon="10.3314838"><ele>566.6</ele><time>2026-04-23T10:54:33.106Z</time></trkpt><trkpt lat="44.1478148" lon="10.3315396"><ele>565.1999999999999</ele><time>2026-04-23T10:54:34.115Z</time></trkpt><trkpt lat="44.1477591" lon="10.3315917"><ele>563.8</ele><time>2026-04-23T10:54:35.112Z</time></trkpt><trkpt lat="44.1476475" lon="10.3316784"><ele>562.4</ele><time>2026-04-23T10:54:37.106Z</time></trkpt><trkpt lat="44.1475948" lon="10.3317331"><ele>561.0</ele><time>2026-04-23T10:54:38.113Z</time></trkpt><trkpt lat="44.1475033" lon="10.331844"><ele>561.0</ele><time>2026-04-23T10:54:40.113Z</time></trkpt><trkpt lat="44.1474189" lon="10.3319469"><ele>561.0</ele><time>2026-04-23T10:54:42.112Z</time></trkpt><trkpt lat="44.1473389" lon="10.3320492"><ele>561.0</ele><time>2026-04-23T10:54:44.117Z</time></trkpt><trkpt lat="44.1472599" lon="10.3321398"><ele>561.0</ele><time>2026-04-23T10:54:46.102Z</time></trkpt><trkpt lat="44.1471772" lon="10.33222"><ele>561.0</ele><time>2026-04-23T10:54:48.106Z</time></trkpt><trkpt lat="44.1470902" lon="10.3323012"><ele>559.3333333333334</ele><time>2026-04-23T10:54:50.105Z</time></trkpt><trkpt lat="44.1470185" lon="10.3324308"><ele>557.6666666666666</ele><time>2026-04-23T10:54:52.103Z</time></trkpt><trkpt lat="44.1469826" lon="10.3325034"><ele>556.0</ele><time>2026-04-23T10:54:53.114Z</time></trkpt><trkpt lat="44.1469157" lon="10.3326504"><ele>554.3333333333333</ele><time>2026-04-23T10:54:55.115Z</time></trkpt><trkpt lat="44.1468787" lon="10.3327234"><ele>552.6666666666666</ele><time>2026-04-23T10:54:56.102Z</time></trkpt><trkpt lat="44.1468408" lon="10.3327949"><ele>551.0</ele><time>2026-04-23T10:54:57.114Z</time></trkpt><trkpt lat="44.1467697" lon="10.3329314"><ele>551.0</ele><time>2026-04-23T10:54:59.126Z</time></trkpt><trkpt lat="44.1467398" lon="10.3330091"><ele>551.0</ele><time>2026-04-23T10:55:00.117Z</time></trkpt><trkpt lat="44.1466525" lon="10.3332216"><ele>551.0</ele><time>2026-04-23T10:55:03.118Z</time></trkpt><trkpt lat="44.1465942" lon="10.3333514"><ele>551.0</ele><time>2026-04-23T10:55:05.107Z</time></trkpt><trkpt lat="44.1465299" lon="10.3334898"><ele>548.6666666666666</ele><time>2026-04-23T10:55:07.107Z</time></trkpt><trkpt lat="44.1464616" lon="10.3336171"><ele>546.3333333333333</ele><time>2026-04-23T10:55:09.109Z</time></trkpt><trkpt lat="44.1463984" lon="10.3337164"><ele>544.0</ele><time>2026-04-23T10:55:11.101Z</time></trkpt><trkpt lat="44.1463408" lon="10.3337684"><ele>541.6666666666666</ele><time>2026-04-23T10:55:13.116Z</time></trkpt><trkpt lat="44.1462909" lon="10.3337101"><ele>539.3333333333334</ele><time>2026-04-23T10:55:16.106Z</time></trkpt><trkpt lat="44.1462722" lon="10.3336139"><ele>537.0</ele><time>2026-04-23T10:55:18.109Z</time></trkpt><trkpt lat="44.1462464" lon="10.3335231"><ele>537.0</ele><time>2026-04-23T10:55:20.101Z</time></trkpt><trkpt lat="44.1461899" lon="10.3334779"><ele>537.0</ele><time>2026-04-23T10:55:22.112Z</time></trkpt><trkpt lat="44.1461249" lon="10.3336094"><ele>537.0</ele><time>2026-04-23T10:55:25.125Z</time></trkpt><trkpt lat="44.1460953" lon="10.3337307"><ele>537.0</ele><time>2026-04-23T10:55:27.108Z</time></trkpt><trkpt lat="44.1460585" lon="10.3338488"><ele>537.0</ele><time>2026-04-23T10:55:29.106Z</time></trkpt><trkpt lat="44.1460255" lon="10.3339765"><ele>536.2857142857142</ele><time>2026-04-23T10:55:31.112Z</time></trkpt><trkpt lat="44.1459595" lon="10.3340631"><ele>535.5714285714286</ele><time>2026-04-23T10:55:33.115Z</time></trkpt><trkpt lat="44.1459314" lon="10.3341454"><ele>534.8571428571429</ele><time>2026-04-23T10:55:35.108Z</time></trkpt><trkpt lat="44.1459327" lon="10.3342469"><ele>534.1428571428571</ele><time>2026-04-23T10:55:37.113Z</time></trkpt><trkpt lat="44.1459732" lon="10.3343221"><ele>533.4285714285714</ele><time>2026-04-23T10:55:39.107Z</time></trkpt><trkpt lat="44.1460168" lon="10.3343947"><ele>532.7142857142857</ele><time>2026-04-23T10:55:42.115Z</time></trkpt><trkpt lat="44.146068" lon="10.3344755"><ele>532.0</ele><time>2026-04-23T10:55:46.103Z</time></trkpt><trkpt lat="44.1461161" lon="10.3345361"><ele>532.0</ele><time>2026-04-23T10:55:49.111Z</time></trkpt><trkpt lat="44.1461728" lon="10.3345951"><ele>532.0</ele><time>2026-04-23T10:55:52.119Z</time></trkpt><trkpt lat="44.1462321" lon="10.3346708"><ele>532.0</ele><time>2026-04-23T10:55:56.11Z</time></trkpt><trkpt lat="44.1462725" lon="10.3347421"><ele>532.0</ele><time>2026-04-23T10:55:58.106Z</time></trkpt><trkpt lat="44.1463562" lon="10.334826"><ele>532.0</ele><time>2026-04-23T10:56:00.102Z</time></trkpt><trkpt lat="44.1464339" lon="10.33491"><ele>532.0</ele><time>2026-04-23T10:56:02.108Z</time></trkpt><trkpt lat="44.1465072" lon="10.3349875"><ele>530.6666666666667</ele><time>2026-04-23T10:56:04.121Z</time></trkpt><trkpt lat="44.1465923" lon="10.3350519"><ele>529.3333333333334</ele><time>2026-04-23T10:56:06.11Z</time></trkpt><trkpt lat="44.1466619" lon="10.3351029"><ele>528.0</ele><time>2026-04-23T10:56:08.1Z</time></trkpt><trkpt lat="44.1467253" lon="10.3351502"><ele>526.6666666666666</ele><time>2026-04-23T10:56:10.103Z</time></trkpt><trkpt lat="44.1467555" lon="10.3352572"><ele>525.3333333333333</ele><time>2026-04-23T10:56:13.114Z</time></trkpt><trkpt lat="44.1467198" lon="10.3353419"><ele>524.0</ele><time>2026-04-23T10:56:15.11Z</time></trkpt><trkpt lat="44.1466842" lon="10.3354452"><ele>522.6</ele><time>2026-04-23T10:56:17.116Z</time></trkpt><trkpt lat="44.1466537" lon="10.3355808"><ele>521.2</ele><time>2026-04-23T10:56:19.106Z</time></trkpt><trkpt lat="44.1466115" lon="10.3357221"><ele>519.8000000000001</ele><time>2026-04-23T10:56:21.112Z</time></trkpt><trkpt lat="44.1465542" lon="10.3358453"><ele>518.4</ele><time>2026-04-23T10:56:23.117Z</time></trkpt><trkpt lat="44.1464658" lon="10.3359611"><ele>517.0</ele><time>2026-04-23T10:56:25.109Z</time></trkpt><trkpt lat="44.1463517" lon="10.3360427"><ele>516.7142857142858</ele><time>2026-04-23T10:56:27.123Z</time></trkpt><trkpt lat="44.1462931" lon="10.3360762"><ele>516.4285714285714</ele><time>2026-04-23T10:56:28.11Z</time></trkpt><trkpt lat="44.1462322" lon="10.3361161"><ele>516.1428571428571</ele><time>2026-04-23T10:56:29.107Z</time></trkpt><trkpt lat="44.1461662" lon="10.3361609"><ele>515.8571428571429</ele><time>2026-04-23T10:56:30.113Z</time></trkpt><trkpt lat="44.1461021" lon="10.3362093"><ele>515.5714285714286</ele><time>2026-04-23T10:56:31.12Z</time></trkpt><trkpt lat="44.1460305" lon="10.3362497"><ele>515.2857142857143</ele><time>2026-04-23T10:56:32.115Z</time></trkpt><trkpt lat="44.1459661" lon="10.3362894"><ele>515.0</ele><time>2026-04-23T10:56:33.124Z</time></trkpt><trkpt lat="44.1458965" lon="10.3363293"><ele>515.0</ele><time>2026-04-23T10:56:34.119Z</time></trkpt><trkpt lat="44.1458238" lon="10.336375"><ele>515.0</ele><time>2026-04-23T10:56:35.112Z</time></trkpt><trkpt lat="44.1457548" lon="10.3364109"><ele>515.0</ele><time>2026-04-23T10:56:36.114Z</time></trkpt><trkpt lat="44.1456843" lon="10.3364521"><ele>515.0</ele><time>2026-04-23T10:56:37.11Z</time></trkpt><trkpt lat="44.1456128" lon="10.336484"><ele>515.0</ele><time>2026-04-23T10:56:38.122Z</time></trkpt><trkpt lat="44.1455446" lon="10.3365197"><ele>515.0</ele><time>2026-04-23T10:56:39.122Z</time></trkpt><trkpt lat="44.1454754" lon="10.3365525"><ele>514.4285714285714</ele><time>2026-04-23T10:56:40.115Z</time></trkpt><trkpt lat="44.1454132" lon="10.3365832"><ele>513.8571428571429</ele><time>2026-04-23T10:56:41.131Z</time></trkpt><trkpt lat="44.1453459" lon="10.336617"><ele>513.2857142857142</ele><time>2026-04-23T10:56:42.111Z</time></trkpt><trkpt lat="44.1452841" lon="10.3366536"><ele>512.7142857142858</ele><time>2026-04-23T10:56:43.11Z</time></trkpt><trkpt lat="44.14521" lon="10.33669"><ele>512.1428571428571</ele><time>2026-04-23T10:56:44.115Z</time></trkpt><trkpt lat="44.1451377" lon="10.3367276"><ele>511.57142857142856</ele><time>2026-04-23T10:56:45.125Z</time></trkpt><trkpt lat="44.1450784" lon="10.3367675"><ele>511.0</ele><time>2026-04-23T10:56:46.102Z</time></trkpt><trkpt lat="44.1450172" lon="10.3368136"><ele>511.00000000000006</ele><time>2026-04-23T10:56:47.101Z</time></trkpt><trkpt lat="44.1449289" lon="10.3368922"><ele>511.0</ele><time>2026-04-23T10:56:49.112Z</time></trkpt><trkpt lat="44.1448501" lon="10.3369484"><ele>511.0</ele><time>2026-04-23T10:56:51.114Z</time></trkpt><trkpt lat="44.1447862" lon="10.3369986"><ele>511.0</ele><time>2026-04-23T10:56:53.105Z</time></trkpt><trkpt lat="44.144719" lon="10.3370627"><ele>511.00000000000006</ele><time>2026-04-23T10:56:56.108Z</time></trkpt><trkpt lat="44.1446541" lon="10.3371018"><ele>511.0</ele><time>2026-04-23T10:57:00.111Z</time></trkpt><trkpt lat="44.144599" lon="10.3371482"><ele>509.42857142857144</ele><time>2026-04-23T10:57:04.107Z</time></trkpt><trkpt lat="44.1445512" lon="10.337215"><ele>507.8571428571429</ele><time>2026-04-23T10:57:08.111Z</time></trkpt><trkpt lat="44.1444943" lon="10.3372727"><ele>506.2857142857143</ele><time>2026-04-23T10:57:12.109Z</time></trkpt><trkpt lat="44.1444311" lon="10.3373113"><ele>504.7142857142857</ele><time>2026-04-23T10:57:16.1Z</time></trkpt><trkpt lat="44.1443698" lon="10.3373462"><ele>503.14285714285717</ele><time>2026-04-23T10:57:20.102Z</time></trkpt><trkpt lat="44.1443255" lon="10.3374154"><ele>501.57142857142856</ele><time>2026-04-23T10:57:24.107Z</time></trkpt><trkpt lat="44.1443193" lon="10.337518"><ele>500.0</ele><time>2026-04-23T10:57:29.116Z</time></trkpt><trkpt lat="44.1443167" lon="10.3376076"><ele>503.1428571428571</ele><time>2026-04-23T10:57:33.115Z</time></trkpt><trkpt lat="44.1443072" lon="10.3376962"><ele>506.28571428571433</ele><time>2026-04-23T10:57:37.114Z</time></trkpt><trkpt lat="44.1442822" lon="10.3377862"><ele>509.42857142857144</ele><time>2026-04-23T10:57:42.109Z</time></trkpt><trkpt lat="44.1442483" lon="10.3378757"><ele>512.5714285714286</ele><time>2026-04-23T10:58:02.104Z</time></trkpt><trkpt lat="44.1442084" lon="10.3379533"><ele>515.7142857142857</ele><time>2026-04-23T10:58:06.111Z</time></trkpt><trkpt lat="44.1441633" lon="10.3380166"><ele>518.8571428571429</ele><time>2026-04-23T10:58:08.111Z</time></trkpt><trkpt lat="44.1441145" lon="10.3380884"><ele>522.0</ele><time>2026-04-23T10:58:10.117Z</time></trkpt><trkpt lat="44.1440853" lon="10.3381893"><ele>522.6666666666666</ele><time>2026-04-23T10:58:12.118Z</time></trkpt><trkpt lat="44.1440576" lon="10.3382861"><ele>523.3333333333334</ele><time>2026-04-23T10:58:14.146Z</time></trkpt><trkpt lat="44.1440256" lon="10.3383736"><ele>524.0</ele><time>2026-04-23T10:58:16.115Z</time></trkpt><trkpt lat="44.1439623" lon="10.3383824"><ele>524.6666666666667</ele><time>2026-04-23T10:58:18.117Z</time></trkpt><trkpt lat="44.1438992" lon="10.338282"><ele>525.3333333333334</ele><time>2026-04-23T10:58:20.107Z</time></trkpt><trkpt lat="44.1438601" lon="10.3381957"><ele>526.0</ele><time>2026-04-23T10:58:21.105Z</time></trkpt><trkpt lat="44.143816" lon="10.3381138"><ele>523.1666666666667</ele><time>2026-04-23T10:58:22.119Z</time></trkpt><trkpt lat="44.1437727" lon="10.3380479"><ele>520.3333333333334</ele><time>2026-04-23T10:58:23.114Z</time></trkpt><trkpt lat="44.143708" lon="10.3379636"><ele>517.5</ele><time>2026-04-23T10:58:25.121Z</time></trkpt><trkpt lat="44.1436564" lon="10.3380215"><ele>514.6666666666666</ele><time>2026-04-23T10:58:29.114Z</time></trkpt><trkpt lat="44.1436976" lon="10.3381184"><ele>511.8333333333333</ele><time>2026-04-23T10:58:31.123Z</time></trkpt><trkpt lat="44.1437297" lon="10.3382829"><ele>509.0</ele><time>2026-04-23T10:58:33.114Z</time></trkpt><trkpt lat="44.1437323" lon="10.3383919"><ele>508.2</ele><time>2026-04-23T10:58:34.116Z</time></trkpt><trkpt lat="44.1437339" lon="10.338509"><ele>507.4</ele><time>2026-04-23T10:58:35.111Z</time></trkpt><trkpt lat="44.1437396" lon="10.3386425"><ele>506.6</ele><time>2026-04-23T10:58:36.113Z</time></trkpt><trkpt lat="44.1437499" lon="10.338778"><ele>505.8</ele><time>2026-04-23T10:58:37.101Z</time></trkpt><trkpt lat="44.143764" lon="10.338918"><ele>505.0</ele><time>2026-04-23T10:58:38.103Z</time></trkpt><trkpt lat="44.1437886" lon="10.3390607"><ele>501.4</ele><time>2026-04-23T10:58:39.114Z</time></trkpt><trkpt lat="44.1438129" lon="10.3391918"><ele>497.8</ele><time>2026-04-23T10:58:40.112Z</time></trkpt><trkpt lat="44.1438387" lon="10.3393107"><ele>494.20000000000005</ele><time>2026-04-23T10:58:41.113Z</time></trkpt><trkpt lat="44.1438673" lon="10.3394304"><ele>490.6</ele><time>2026-04-23T10:58:42.113Z</time></trkpt><trkpt lat="44.1438987" lon="10.3395626"><ele>487.0</ele><time>2026-04-23T10:58:43.106Z</time></trkpt><trkpt lat="44.1439225" lon="10.3396697"><ele>485.33333333333337</ele><time>2026-04-23T10:58:44.118Z</time></trkpt><trkpt lat="44.1439368" lon="10.3397765"><ele>483.6666666666667</ele><time>2026-04-23T10:58:45.119Z</time></trkpt><trkpt lat="44.1439473" lon="10.3398908"><ele>482.0</ele><time>2026-04-23T10:58:46.11Z</time></trkpt><trkpt lat="44.1439511" lon="10.3400199"><ele>480.33333333333337</ele><time>2026-04-23T10:58:47.118Z</time></trkpt><trkpt lat="44.1439483" lon="10.3401534"><ele>478.6666666666667</ele><time>2026-04-23T10:58:48.109Z</time></trkpt><trkpt lat="44.1439463" lon="10.3402757"><ele>477.0</ele><time>2026-04-23T10:58:49.112Z</time></trkpt><trkpt lat="44.1439534" lon="10.3403937"><ele>477.0</ele><time>2026-04-23T10:58:50.128Z</time></trkpt><trkpt lat="44.1439802" lon="10.3405226"><ele>477.00000000000006</ele><time>2026-04-23T10:58:51.109Z</time></trkpt><trkpt lat="44.144006" lon="10.3406381"><ele>477.00000000000006</ele><time>2026-04-23T10:58:52.11Z</time></trkpt><trkpt lat="44.1440309" lon="10.3407361"><ele>477.0</ele><time>2026-04-23T10:58:53.121Z</time></trkpt><trkpt lat="44.144067" lon="10.3408803"><ele>477.0</ele><time>2026-04-23T10:58:55.105Z</time></trkpt><trkpt lat="44.1440522" lon="10.3409968"><ele>475.5</ele><time>2026-04-23T10:58:57.105Z</time></trkpt><trkpt lat="44.1439758" lon="10.3410632"><ele>474.0</ele><time>2026-04-23T10:58:59.114Z</time></trkpt><trkpt lat="44.1438814" lon="10.3410581"><ele>472.5</ele><time>2026-04-23T10:59:01.122Z</time></trkpt><trkpt lat="44.1437895" lon="10.3410686"><ele>471.0</ele><time>2026-04-23T10:59:03.11Z</time></trkpt><trkpt lat="44.1436989" lon="10.3410379"><ele>469.5</ele><time>2026-04-23T10:59:06.115Z</time></trkpt><trkpt lat="44.1436401" lon="10.3409969"><ele>468.0</ele><time>2026-04-23T10:59:08.108Z</time></trkpt><trkpt lat="44.1435791" lon="10.340972"><ele>468.0</ele><time>2026-04-23T10:59:12.107Z</time></trkpt><trkpt lat="44.1435125" lon="10.3409367"><ele>468.00000000000006</ele><time>2026-04-23T10:59:15.1Z</time></trkpt><trkpt lat="44.143477" lon="10.3408464"><ele>468.0</ele><time>2026-04-23T10:59:18.112Z</time></trkpt><trkpt lat="44.1434586" lon="10.3407541"><ele>468.0</ele><time>2026-04-23T10:59:22.114Z</time></trkpt><trkpt lat="44.1433839" lon="10.340783"><ele>468.00000000000006</ele><time>2026-04-23T10:59:25.114Z</time></trkpt><trkpt lat="44.1433262" lon="10.3408472"><ele>468.0</ele><time>2026-04-23T10:59:27.112Z</time></trkpt><trkpt lat="44.1432967" lon="10.3409494"><ele>468.0</ele><time>2026-04-23T10:59:30.123Z</time></trkpt><trkpt lat="44.1432427" lon="10.3408838"><ele>468.0</ele><time>2026-04-23T10:59:34.128Z</time></trkpt><trkpt lat="44.1432489" lon="10.3407468"><ele>467.99999999999994</ele><time>2026-04-23T10:59:36.109Z</time></trkpt><trkpt lat="44.143238" lon="10.340645"><ele>467.99999999999994</ele><time>2026-04-23T10:59:37.112Z</time></trkpt><trkpt lat="44.1432179" lon="10.3404656"><ele>468.0</ele><time>2026-04-23T10:59:39.124Z</time></trkpt><trkpt lat="44.1431744" lon="10.3402983"><ele>468.0</ele><time>2026-04-23T10:59:41.133Z</time></trkpt><trkpt lat="44.1431434" lon="10.3402164"><ele>466.1666666666667</ele><time>2026-04-23T10:59:42.11Z</time></trkpt><trkpt lat="44.1431132" lon="10.3401112"><ele>464.33333333333337</ele><time>2026-04-23T10:59:43.119Z</time></trkpt><trkpt lat="44.1430867" lon="10.3400238"><ele>462.5</ele><time>2026-04-23T10:59:44.117Z</time></trkpt><trkpt lat="44.143059" lon="10.3399427"><ele>460.6666666666667</ele><time>2026-04-23T10:59:45.104Z</time></trkpt><trkpt lat="44.1430074" lon="10.3398177"><ele>458.83333333333337</ele><time>2026-04-23T10:59:47.117Z</time></trkpt><trkpt lat="44.1429303" lon="10.3396933"><ele>457.0</ele><time>2026-04-23T10:59:49.107Z</time></trkpt><trkpt lat="44.1428848" lon="10.3396164"><ele>457.00000000000006</ele><time>2026-04-23T10:59:50.119Z</time></trkpt><trkpt lat="44.1428383" lon="10.3395483"><ele>457.0</ele><time>2026-04-23T10:59:51.122Z</time></trkpt><trkpt lat="44.1427815" lon="10.3394551"><ele>457.0</ele><time>2026-04-23T10:59:53.132Z</time></trkpt><trkpt lat="44.1427164" lon="10.3394098"><ele>457.0</ele><time>2026-04-23T10:59:55.101Z</time></trkpt><trkpt lat="44.1426503" lon="10.3393753"><ele>457.00000000000006</ele><time>2026-04-23T10:59:57.12Z</time></trkpt><trkpt lat="44.1425838" lon="10.3393289"><ele>457.0</ele><time>2026-04-23T10:59:59.117Z</time></trkpt><trkpt lat="44.1424896" lon="10.3392743"><ele>453.6</ele><time>2026-04-23T11:00:01.114Z</time></trkpt><trkpt lat="44.1423679" lon="10.3392148"><ele>450.20000000000005</ele><time>2026-04-23T11:00:03.121Z</time></trkpt><trkpt lat="44.1423029" lon="10.3391912"><ele>446.8</ele><time>2026-04-23T11:00:04.116Z</time></trkpt><trkpt lat="44.1422326" lon="10.3391606"><ele>443.4</ele><time>2026-04-23T11:00:05.12Z</time></trkpt><trkpt lat="44.1421234" lon="10.3391136"><ele>440.0</ele><time>2026-04-23T11:00:07.108Z</time></trkpt><trkpt lat="44.1420636" lon="10.3390754"><ele>440.0</ele><time>2026-04-23T11:00:08.123Z</time></trkpt><trkpt lat="44.1420049" lon="10.3390265"><ele>440.0</ele><time>2026-04-23T11:00:09.111Z</time></trkpt><trkpt lat="44.1419252" lon="10.3389469"><ele>440.0</ele><time>2026-04-23T11:00:11.124Z</time></trkpt><trkpt lat="44.1418609" lon="10.3388307"><ele>440.0</ele><time>2026-04-23T11:00:13.109Z</time></trkpt><trkpt lat="44.1417959" lon="10.3386985"><ele>440.0</ele><time>2026-04-23T11:00:15.132Z</time></trkpt><trkpt lat="44.1417635" lon="10.338615"><ele>440.4</ele><time>2026-04-23T11:00:16.111Z</time></trkpt><trkpt lat="44.1417109" lon="10.3384695"><ele>440.8</ele><time>2026-04-23T11:00:18.12Z</time></trkpt><trkpt lat="44.1416713" lon="10.3383196"><ele>441.20000000000005</ele><time>2026-04-23T11:00:20.111Z</time></trkpt><trkpt lat="44.1416447" lon="10.3381797"><ele>441.6</ele><time>2026-04-23T11:00:22.116Z</time></trkpt><trkpt lat="44.1416112" lon="10.3380478"><ele>442.0</ele><time>2026-04-23T11:00:24.117Z</time></trkpt><trkpt lat="44.1415846" lon="10.3379611"><ele>441.0</ele><time>2026-04-23T11:00:25.121Z</time></trkpt><trkpt lat="44.1415458" lon="10.3378026"><ele>440.00000000000006</ele><time>2026-04-23T11:00:27.118Z</time></trkpt><trkpt lat="44.1415827" lon="10.3376448"><ele>439.00000000000006</ele><time>2026-04-23T11:00:29.126Z</time></trkpt><trkpt lat="44.1416292" lon="10.3375263"><ele>438.0</ele><time>2026-04-23T11:00:31.111Z</time></trkpt><trkpt lat="44.1416494" lon="10.3374062"><ele>437.0</ele><time>2026-04-23T11:00:33.108Z</time></trkpt><trkpt lat="44.141605" lon="10.337291"><ele>434.6</ele><time>2026-04-23T11:00:35.13Z</time></trkpt><trkpt lat="44.1414968" lon="10.3372269"><ele>432.20000000000005</ele><time>2026-04-23T11:00:37.113Z</time></trkpt><trkpt lat="44.1414087" lon="10.3371657"><ele>429.8</ele><time>2026-04-23T11:00:39.11Z</time></trkpt><trkpt lat="44.1413203" lon="10.3371283"><ele>427.4</ele><time>2026-04-23T11:00:42.106Z</time></trkpt><trkpt lat="44.1412473" lon="10.3371219"><ele>425.0</ele><time>2026-04-23T11:00:47.106Z</time></trkpt><trkpt lat="44.141173" lon="10.3371022"><ele>425.0</ele><time>2026-04-23T11:00:52.102Z</time></trkpt><trkpt lat="44.141111" lon="10.3370544"><ele>425.0</ele><time>2026-04-23T11:00:57.109Z</time></trkpt><trkpt lat="44.1410801" lon="10.3369635"><ele>425.0</ele><time>2026-04-23T11:01:02.114Z</time></trkpt><trkpt lat="44.1410735" lon="10.3368723"><ele>425.0</ele><time>2026-04-23T11:01:06.119Z</time></trkpt><trkpt lat="44.1410675" lon="10.3367613"><ele>425.0</ele><time>2026-04-23T11:01:10.142Z</time></trkpt><trkpt lat="44.1410603" lon="10.3366721"><ele>425.0</ele><time>2026-04-23T11:01:13.135Z</time></trkpt><trkpt lat="44.1410569" lon="10.336584"><ele>425.0</ele><time>2026-04-23T11:01:16.118Z</time></trkpt><trkpt lat="44.1410517" lon="10.3364847"><ele>425.66666666666663</ele><time>2026-04-23T11:01:19.117Z</time></trkpt><trkpt lat="44.1410462" lon="10.3363779"><ele>426.3333333333333</ele><time>2026-04-23T11:01:22.118Z</time></trkpt><trkpt lat="44.1410419" lon="10.3362543"><ele>427.0</ele><time>2026-04-23T11:01:25.126Z</time></trkpt><trkpt lat="44.1410354" lon="10.3361645"><ele>427.66666666666663</ele><time>2026-04-23T11:01:27.116Z</time></trkpt><trkpt lat="44.1410207" lon="10.3360728"><ele>428.3333333333333</ele><time>2026-04-23T11:01:29.125Z</time></trkpt><trkpt lat="44.1409933" lon="10.3359885"><ele>429.0</ele><time>2026-04-23T11:01:31.112Z</time></trkpt><trkpt lat="44.1409405" lon="10.3358816"><ele>429.0</ele><time>2026-04-23T11:01:34.112Z</time></trkpt><trkpt lat="44.1408986" lon="10.3357831"><ele>429.0</ele><time>2026-04-23T11:01:37.11Z</time></trkpt><trkpt lat="44.1408435" lon="10.3356982"><ele>429.0</ele><time>2026-04-23T11:01:40.128Z</time></trkpt><trkpt lat="44.1407976" lon="10.33561"><ele>429.0</ele><time>2026-04-23T11:01:43.111Z</time></trkpt><trkpt lat="44.1407574" lon="10.3355265"><ele>429.0</ele><time>2026-04-23T11:01:46.086Z</time></trkpt><trkpt lat="44.1407128" lon="10.3354541"><ele>429.0</ele><time>2026-04-23T11:01:49.116Z</time></trkpt><trkpt lat="44.1406774" lon="10.3353777"><ele>429.0</ele><time>2026-04-23T11:01:52.114Z</time></trkpt><trkpt lat="44.1406451" lon="10.3352715"><ele>428.57142857142856</ele><time>2026-04-23T11:01:54.145Z</time></trkpt><trkpt lat="44.1406296" lon="10.3351727"><ele>428.14285714285717</ele><time>2026-04-23T11:01:56.127Z</time></trkpt><trkpt lat="44.1406128" lon="10.3350662"><ele>427.71428571428567</ele><time>2026-04-23T11:01:59.109Z</time></trkpt><trkpt lat="44.1406044" lon="10.3349653"><ele>427.2857142857143</ele><time>2026-04-23T11:02:02.122Z</time></trkpt><trkpt lat="44.1406075" lon="10.3348657"><ele>426.85714285714283</ele><time>2026-04-23T11:02:05.118Z</time></trkpt><trkpt lat="44.1406189" lon="10.3347627"><ele>426.4285714285714</ele><time>2026-04-23T11:02:08.124Z</time></trkpt><trkpt lat="44.1406205" lon="10.3346621"><ele>426.0</ele><time>2026-04-23T11:02:11.109Z</time></trkpt><trkpt lat="44.1406112" lon="10.3345687"><ele>426.0</ele><time>2026-04-23T11:02:14.133Z</time></trkpt><trkpt lat="44.1405855" lon="10.3344536"><ele>426.0</ele><time>2026-04-23T11:02:17.127Z</time></trkpt><trkpt lat="44.1405733" lon="10.3343469"><ele>426.0</ele><time>2026-04-23T11:02:20.12Z</time></trkpt><trkpt lat="44.1405615" lon="10.3342307"><ele>426.0</ele><time>2026-04-23T11:02:23.103Z</time></trkpt><trkpt lat="44.140539" lon="10.3341084"><ele>426.0</ele><time>2026-04-23T11:02:26.125Z</time></trkpt><trkpt lat="44.1405305" lon="10.3340182"><ele>426.0</ele><time>2026-04-23T11:02:28.144Z</time></trkpt><trkpt lat="44.1405252" lon="10.3339179"><ele>426.5</ele><time>2026-04-23T11:02:30.116Z</time></trkpt><trkpt lat="44.1405048" lon="10.3338113"><ele>427.0</ele><time>2026-04-23T11:02:32.107Z</time></trkpt><trkpt lat="44.1404748" lon="10.3337077"><ele>427.5</ele><time>2026-04-23T11:02:34.123Z</time></trkpt><trkpt lat="44.1404426" lon="10.3336039"><ele>428.0</ele><time>2026-04-23T11:02:36.125Z</time></trkpt><trkpt lat="44.1404078" lon="10.3335031"><ele>428.5</ele><time>2026-04-23T11:02:38.113Z</time></trkpt><trkpt lat="44.1403757" lon="10.3334101"><ele>429.0</ele><time>2026-04-23T11:02:40.122Z</time></trkpt><trkpt lat="44.1403464" lon="10.3333205"><ele>429.0</ele><time>2026-04-23T11:02:42.129Z</time></trkpt><trkpt lat="44.1403177" lon="10.3332371"><ele>429.0</ele><time>2026-04-23T11:02:44.116Z</time></trkpt><trkpt lat="44.1402922" lon="10.3331531"><ele>429.0</ele><time>2026-04-23T11:02:46.115Z</time></trkpt><trkpt lat="44.1402507" lon="10.333039"><ele>429.0</ele><time>2026-04-23T11:02:49.125Z</time></trkpt><trkpt lat="44.1402141" lon="10.3329173"><ele>429.0</ele><time>2026-04-23T11:02:52.117Z</time></trkpt><trkpt lat="44.1401873" lon="10.3328307"><ele>429.0</ele><time>2026-04-23T11:02:54.122Z</time></trkpt><trkpt lat="44.1401573" lon="10.332746"><ele>430.57142857142856</ele><time>2026-04-23T11:02:56.106Z</time></trkpt><trkpt lat="44.1401261" lon="10.3326625"><ele>432.14285714285717</ele><time>2026-04-23T11:02:58.1Z</time></trkpt><trkpt lat="44.1400992" lon="10.3325748"><ele>433.71428571428567</ele><time>2026-04-23T11:03:00.113Z</time></trkpt><trkpt lat="44.1400655" lon="10.3324972"><ele>435.2857142857143</ele><time>2026-04-23T11:03:02.107Z</time></trkpt><trkpt lat="44.1400291" lon="10.3324173"><ele>436.85714285714283</ele><time>2026-04-23T11:03:04.11Z</time></trkpt><trkpt lat="44.1400036" lon="10.3323309"><ele>438.4285714285714</ele><time>2026-04-23T11:03:06.13Z</time></trkpt><trkpt lat="44.1399758" lon="10.332241"><ele>440.0</ele><time>2026-04-23T11:03:08.127Z</time></trkpt><trkpt lat="44.1399467" lon="10.3321579"><ele>438.71428571428567</ele><time>2026-04-23T11:03:10.127Z</time></trkpt><trkpt lat="44.1399053" lon="10.3320355"><ele>437.42857142857144</ele><time>2026-04-23T11:03:13.116Z</time></trkpt><trkpt lat="44.1398699" lon="10.3319461"><ele>436.1428571428571</ele><time>2026-04-23T11:03:15.125Z</time></trkpt><trkpt lat="44.1398356" lon="10.3318706"><ele>434.85714285714283</ele><time>2026-04-23T11:03:17.116Z</time></trkpt><trkpt lat="44.139811" lon="10.3317839"><ele>433.57142857142856</ele><time>2026-04-23T11:03:19.121Z</time></trkpt><trkpt lat="44.1397858" lon="10.3317014"><ele>432.2857142857143</ele><time>2026-04-23T11:03:21.122Z</time></trkpt><trkpt lat="44.1397601" lon="10.33162"><ele>431.0</ele><time>2026-04-23T11:03:23.124Z</time></trkpt><trkpt lat="44.1397071" lon="10.3315143"><ele>431.0</ele><time>2026-04-23T11:03:26.119Z</time></trkpt><trkpt lat="44.1396619" lon="10.331403"><ele>431.0</ele><time>2026-04-23T11:03:29.134Z</time></trkpt><trkpt lat="44.1396226" lon="10.3313283"><ele>431.0</ele><time>2026-04-23T11:03:31.118Z</time></trkpt><trkpt lat="44.1395765" lon="10.3312525"><ele>431.0</ele><time>2026-04-23T11:03:33.126Z</time></trkpt><trkpt lat="44.1395278" lon="10.3311797"><ele>431.0</ele><time>2026-04-23T11:03:35.115Z</time></trkpt><trkpt lat="44.1394757" lon="10.3311184"><ele>431.0</ele><time>2026-04-23T11:03:37.113Z</time></trkpt><trkpt lat="44.1394266" lon="10.331057"><ele>431.0</ele><time>2026-04-23T11:03:39.037Z</time></trkpt><trkpt lat="44.1393682" lon="10.3309955"><ele>431.0</ele><time>2026-04-23T11:03:41.123Z</time></trkpt><trkpt lat="44.1393086" lon="10.3309421"><ele>431.0</ele><time>2026-04-23T11:03:43.123Z</time></trkpt><trkpt lat="44.1392477" lon="10.3308927"><ele>431.0</ele><time>2026-04-23T11:03:45.128Z</time></trkpt><trkpt lat="44.1391878" lon="10.330845"><ele>431.0</ele><time>2026-04-23T11:03:47.119Z</time></trkpt><trkpt lat="44.1391225" lon="10.3308241"><ele>431.0</ele><time>2026-04-23T11:03:49.111Z</time></trkpt><trkpt lat="44.1390566" lon="10.330816"><ele>431.0</ele><time>2026-04-23T11:03:51.129Z</time></trkpt><trkpt lat="44.1389923" lon="10.3308032"><ele>431.0</ele><time>2026-04-23T11:03:53.113Z</time></trkpt><trkpt lat="44.1389222" lon="10.3308267"><ele>430.99999999999994</ele><time>2026-04-23T11:03:55.108Z</time></trkpt><trkpt lat="44.1388478" lon="10.3308838"><ele>431.0</ele><time>2026-04-23T11:03:57.112Z</time></trkpt><trkpt lat="44.1387677" lon="10.3309346"><ele>431.0</ele><time>2026-04-23T11:03:59.109Z</time></trkpt><trkpt lat="44.1386856" lon="10.330983"><ele>431.0</ele><time>2026-04-23T11:04:01.112Z</time></trkpt><trkpt lat="44.1386149" lon="10.3310418"><ele>430.99999999999994</ele><time>2026-04-23T11:04:03.135Z</time></trkpt><trkpt lat="44.1385398" lon="10.3311023"><ele>431.0</ele><time>2026-04-23T11:04:05.135Z</time></trkpt><trkpt lat="44.1384645" lon="10.3311453"><ele>430.99999999999994</ele><time>2026-04-23T11:04:07.118Z</time></trkpt><trkpt lat="44.1383893" lon="10.3311581"><ele>431.0</ele><time>2026-04-23T11:04:09.112Z</time></trkpt><trkpt lat="44.1383175" lon="10.3311884"><ele>431.0</ele><time>2026-04-23T11:04:11.113Z</time></trkpt><trkpt lat="44.1382524" lon="10.3312313"><ele>431.0</ele><time>2026-04-23T11:04:13.114Z</time></trkpt><trkpt lat="44.1381919" lon="10.3312704"><ele>430.99999999999994</ele><time>2026-04-23T11:04:15.133Z</time></trkpt><trkpt lat="44.1381049" lon="10.331319"><ele>431.0</ele><time>2026-04-23T11:04:18.117Z</time></trkpt><trkpt lat="44.1380237" lon="10.3313588"><ele>435.16666666666663</ele><time>2026-04-23T11:04:21.116Z</time></trkpt><trkpt lat="44.137943" lon="10.3314188"><ele>439.3333333333333</ele><time>2026-04-23T11:04:24.146Z</time></trkpt><trkpt lat="44.1378621" lon="10.3314653"><ele>443.5</ele><time>2026-04-23T11:04:27.113Z</time></trkpt><trkpt lat="44.1377954" lon="10.3315057"><ele>447.66666666666663</ele><time>2026-04-23T11:04:30.112Z</time></trkpt><trkpt lat="44.1377165" lon="10.3315174"><ele>451.8333333333333</ele><time>2026-04-23T11:04:34.109Z</time></trkpt><trkpt lat="44.1376417" lon="10.3314941"><ele>456.0</ele><time>2026-04-23T11:04:38.125Z</time></trkpt><trkpt lat="44.1375901" lon="10.3314182"><ele>455.3333333333333</ele><time>2026-04-23T11:04:42.116Z</time></trkpt><trkpt lat="44.1375785" lon="10.3313133"><ele>454.66666666666663</ele><time>2026-04-23T11:04:46.114Z</time></trkpt><trkpt lat="44.1375795" lon="10.3312013"><ele>454.0</ele><time>2026-04-23T11:04:50.103Z</time></trkpt><trkpt lat="44.1375901" lon="10.3311147"><ele>453.3333333333333</ele><time>2026-04-23T11:04:53.111Z</time></trkpt><trkpt lat="44.1376055" lon="10.3310113"><ele>452.66666666666663</ele><time>2026-04-23T11:04:57.12Z</time></trkpt><trkpt lat="44.1376097" lon="10.3309086"><ele>452.0</ele><time>2026-04-23T11:05:01.114Z</time></trkpt><trkpt lat="44.1376089" lon="10.3307966"><ele>452.0</ele><time>2026-04-23T11:05:05.128Z</time></trkpt><trkpt lat="44.1376082" lon="10.3306983"><ele>452.0</ele><time>2026-04-23T11:05:08.125Z</time></trkpt><trkpt lat="44.1375983" lon="10.3305906"><ele>452.0</ele><time>2026-04-23T11:05:12.133Z</time></trkpt><trkpt lat="44.1376034" lon="10.3304756"><ele>452.0</ele><time>2026-04-23T11:05:16.106Z</time></trkpt><trkpt lat="44.1376065" lon="10.3303732"><ele>452.0</ele><time>2026-04-23T11:05:20.121Z</time></trkpt><trkpt lat="44.1375874" lon="10.3302866"><ele>452.0</ele><time>2026-04-23T11:05:23.118Z</time></trkpt><trkpt lat="44.137567" lon="10.3302036"><ele>452.0</ele><time>2026-04-23T11:05:26.123Z</time></trkpt><trkpt lat="44.1375227" lon="10.3301081"><ele>451.2857142857143</ele><time>2026-04-23T11:05:30.121Z</time></trkpt><trkpt lat="44.1374695" lon="10.330031"><ele>450.57142857142856</ele><time>2026-04-23T11:05:34.132Z</time></trkpt><trkpt lat="44.1374228" lon="10.3299713"><ele>449.85714285714283</ele><time>2026-04-23T11:05:37.115Z</time></trkpt><trkpt lat="44.1373869" lon="10.3298942"><ele>449.1428571428571</ele><time>2026-04-23T11:05:41.124Z</time></trkpt><trkpt lat="44.137366" lon="10.3297899"><ele>448.42857142857144</ele><time>2026-04-23T11:05:45.11Z</time></trkpt><trkpt lat="44.1373599" lon="10.3296945"><ele>447.71428571428567</ele><time>2026-04-23T11:05:48.1Z</time></trkpt><trkpt lat="44.1373588" lon="10.3295813"><ele>447.0</ele><time>2026-04-23T11:05:52.114Z</time></trkpt><trkpt lat="44.1373624" lon="10.3294903"><ele>449.71428571428567</ele><time>2026-04-23T11:05:55.118Z</time></trkpt><trkpt lat="44.1373709" lon="10.3293951"><ele>452.42857142857144</ele><time>2026-04-23T11:05:58.103Z</time></trkpt><trkpt lat="44.13737" lon="10.3293044"><ele>455.1428571428571</ele><time>2026-04-23T11:06:01.12Z</time></trkpt><trkpt lat="44.1373513" lon="10.3291924"><ele>457.85714285714283</ele><time>2026-04-23T11:06:05.114Z</time></trkpt><trkpt lat="44.1373098" lon="10.3290927"><ele>460.57142857142856</ele><time>2026-04-23T11:06:09.122Z</time></trkpt><trkpt lat="44.1372491" lon="10.3290398"><ele>463.2857142857143</ele><time>2026-04-23T11:06:12.122Z</time></trkpt><trkpt lat="44.1371814" lon="10.3290393"><ele>466.0</ele><time>2026-04-23T11:06:15.111Z</time></trkpt><trkpt lat="44.1371256" lon="10.329111"><ele>466.0</ele><time>2026-04-23T11:06:19.121Z</time></trkpt><trkpt lat="44.1371371" lon="10.3292235"><ele>466.0</ele><time>2026-04-23T11:06:23.112Z</time></trkpt><trkpt lat="44.137139" lon="10.329314"><ele>466.0</ele><time>2026-04-23T11:06:26.117Z</time></trkpt><trkpt lat="44.1371384" lon="10.3294164"><ele>466.0</ele><time>2026-04-23T11:06:30.107Z</time></trkpt><trkpt lat="44.1371136" lon="10.3295034"><ele>466.0</ele><time>2026-04-23T11:06:33.118Z</time></trkpt><trkpt lat="44.1370624" lon="10.3295679"><ele>466.0</ele><time>2026-04-23T11:06:36.12Z</time></trkpt><trkpt lat="44.1369912" lon="10.3295867"><ele>466.0</ele><time>2026-04-23T11:06:39.12Z</time></trkpt><trkpt lat="44.1369302" lon="10.3295569"><ele>466.0</ele><time>2026-04-23T11:06:42.105Z</time></trkpt><trkpt lat="44.1368777" lon="10.3294799"><ele>466.0</ele><time>2026-04-23T11:06:46.103Z</time></trkpt><trkpt lat="44.1368238" lon="10.3293965"><ele>466.0</ele><time>2026-04-23T11:06:50.131Z</time></trkpt><trkpt lat="44.1367715" lon="10.3293338"><ele>466.0</ele><time>2026-04-23T11:06:53.129Z</time></trkpt><trkpt lat="44.136727" lon="10.3292673"><ele>466.0</ele><time>2026-04-23T11:06:56.126Z</time></trkpt><trkpt lat="44.1366656" lon="10.3292349"><ele>466.0</ele><time>2026-04-23T11:06:59.112Z</time></trkpt><trkpt lat="44.136602" lon="10.3292344"><ele>466.0</ele><time>2026-04-23T11:07:02.101Z</time></trkpt><trkpt lat="44.1365772" lon="10.3293232"><ele>466.00000000000006</ele><time>2026-04-23T11:07:06.113Z</time></trkpt><trkpt lat="44.1366214" lon="10.329401"><ele>466.0</ele><time>2026-04-23T11:07:09.103Z</time></trkpt><trkpt lat="44.136703" lon="10.3295146"><ele>466.0</ele><time>2026-04-23T11:07:13.102Z</time></trkpt><trkpt lat="44.1367631" lon="10.3296188"><ele>466.0</ele><time>2026-04-23T11:07:16Z</time></trkpt><trkpt lat="44.1368085" lon="10.3297307"><ele>466.00000000000006</ele><time>2026-04-23T11:07:19.11Z</time></trkpt><trkpt lat="44.1368458" lon="10.3298061"><ele>466.0</ele><time>2026-04-23T11:07:21.122Z</time></trkpt><trkpt lat="44.1368782" lon="10.3298854"><ele>467.50000000000006</ele><time>2026-04-23T11:07:23.103Z</time></trkpt><trkpt lat="44.1369364" lon="10.3300345"><ele>469.0</ele><time>2026-04-23T11:07:27Z</time></trkpt><trkpt lat="44.1369592" lon="10.3301201"><ele>470.5</ele><time>2026-04-23T11:07:29.118Z</time></trkpt><trkpt lat="44.1369805" lon="10.330209"><ele>472.0</ele><time>2026-04-23T11:07:31.114Z</time></trkpt><trkpt lat="44.1370024" lon="10.3303074"><ele>473.50000000000006</ele><time>2026-04-23T11:07:33.113Z</time></trkpt><trkpt lat="44.1370214" lon="10.3304043"><ele>475.0</ele><time>2026-04-23T11:07:35.107Z</time></trkpt><trkpt lat="44.1370322" lon="10.3305062"><ele>477.1666666666667</ele><time>2026-04-23T11:07:37.114Z</time></trkpt><trkpt lat="44.1370389" lon="10.3306139"><ele>479.33333333333337</ele><time>2026-04-23T11:07:39.109Z</time></trkpt><trkpt lat="44.1370415" lon="10.3307233"><ele>481.5</ele><time>2026-04-23T11:07:41.111Z</time></trkpt><trkpt lat="44.1370503" lon="10.3308322"><ele>483.66666666666663</ele><time>2026-04-23T11:07:43.114Z</time></trkpt><trkpt lat="44.1370468" lon="10.3309424"><ele>485.8333333333333</ele><time>2026-04-23T11:07:45.12Z</time></trkpt><trkpt lat="44.1370431" lon="10.3310567"><ele>488.0</ele><time>2026-04-23T11:07:47.101Z</time></trkpt><trkpt lat="44.1370398" lon="10.3311668"><ele>487.99999999999994</ele><time>2026-04-23T11:07:49.126Z</time></trkpt><trkpt lat="44.1370424" lon="10.3312838"><ele>488.0</ele><time>2026-04-23T11:07:51.106Z</time></trkpt><trkpt lat="44.1370473" lon="10.3314103"><ele>488.0</ele><time>2026-04-23T11:07:53.128Z</time></trkpt><trkpt lat="44.1370622" lon="10.3315371"><ele>488.0</ele><time>2026-04-23T11:07:55.114Z</time></trkpt><trkpt lat="44.1370889" lon="10.331659"><ele>487.99999999999994</ele><time>2026-04-23T11:07:57.128Z</time></trkpt><trkpt lat="44.1371197" lon="10.3317666"><ele>488.0</ele><time>2026-04-23T11:07:59.102Z</time></trkpt><trkpt lat="44.1371572" lon="10.3318758"><ele>490.66666666666663</ele><time>2026-04-23T11:08:01.119Z</time></trkpt><trkpt lat="44.1371962" lon="10.3319765"><ele>493.3333333333333</ele><time>2026-04-23T11:08:03.104Z</time></trkpt><trkpt lat="44.1372403" lon="10.3320819"><ele>496.0</ele><time>2026-04-23T11:08:05.103Z</time></trkpt><trkpt lat="44.1372955" lon="10.3321929"><ele>498.66666666666663</ele><time>2026-04-23T11:08:07.107Z</time></trkpt><trkpt lat="44.137342" lon="10.3323042"><ele>501.3333333333333</ele><time>2026-04-23T11:08:09.107Z</time></trkpt><trkpt lat="44.1373893" lon="10.332411"><ele>504.0</ele><time>2026-04-23T11:08:11.128Z</time></trkpt><trkpt lat="44.1374396" lon="10.3325158"><ele>502.0</ele><time>2026-04-23T11:08:13.109Z</time></trkpt><trkpt lat="44.1374871" lon="10.3326219"><ele>500.0</ele><time>2026-04-23T11:08:15.103Z</time></trkpt><trkpt lat="44.1375336" lon="10.3327238"><ele>498.0</ele><time>2026-04-23T11:08:17.104Z</time></trkpt><trkpt lat="44.1376074" lon="10.3328827"><ele>496.0</ele><time>2026-04-23T11:08:20.125Z</time></trkpt><trkpt lat="44.1376521" lon="10.3329831"><ele>494.0</ele><time>2026-04-23T11:08:22.108Z</time></trkpt><trkpt lat="44.1376991" lon="10.3330859"><ele>494.0</ele><time>2026-04-23T11:08:24.111Z</time></trkpt><trkpt lat="44.137746" lon="10.3331967"><ele>494.0</ele><time>2026-04-23T11:08:26.112Z</time></trkpt><trkpt lat="44.1377937" lon="10.3333085"><ele>494.0</ele><time>2026-04-23T11:08:28.111Z</time></trkpt><trkpt lat="44.1378461" lon="10.3334133"><ele>494.0</ele><time>2026-04-23T11:08:30.11Z</time></trkpt><trkpt lat="44.1378933" lon="10.3335187"><ele>494.0</ele><time>2026-04-23T11:08:32.101Z</time></trkpt><trkpt lat="44.137939" lon="10.3336183"><ele>493.99999999999994</ele><time>2026-04-23T11:08:34.116Z</time></trkpt><trkpt lat="44.1379849" lon="10.3337166"><ele>494.0</ele><time>2026-04-23T11:08:36.11Z</time></trkpt><trkpt lat="44.1380191" lon="10.3338288"><ele>494.0</ele><time>2026-04-23T11:08:38.104Z</time></trkpt><trkpt lat="44.1380458" lon="10.3339456"><ele>494.0</ele><time>2026-04-23T11:08:40.106Z</time></trkpt><trkpt lat="44.1380623" lon="10.3340631"><ele>493.99999999999994</ele><time>2026-04-23T11:08:42.113Z</time></trkpt><trkpt lat="44.1380755" lon="10.3341827"><ele>494.0</ele><time>2026-04-23T11:08:44.112Z</time></trkpt><trkpt lat="44.1380886" lon="10.3343024"><ele>496.66666666666663</ele><time>2026-04-23T11:08:46.108Z</time></trkpt><trkpt lat="44.1381057" lon="10.3344178"><ele>499.3333333333333</ele><time>2026-04-23T11:08:48.126Z</time></trkpt><trkpt lat="44.1381324" lon="10.334533"><ele>502.0</ele><time>2026-04-23T11:08:50.109Z</time></trkpt><trkpt lat="44.1381774" lon="10.3346379"><ele>504.66666666666663</ele><time>2026-04-23T11:08:52.106Z</time></trkpt><trkpt lat="44.1382257" lon="10.334733"><ele>507.3333333333333</ele><time>2026-04-23T11:08:54.126Z</time></trkpt><trkpt lat="44.1382848" lon="10.3348258"><ele>510.0</ele><time>2026-04-23T11:08:56.125Z</time></trkpt><trkpt lat="44.1383503" lon="10.3349104"><ele>504.3333333333333</ele><time>2026-04-23T11:08:58.108Z</time></trkpt><trkpt lat="44.1384103" lon="10.3349978"><ele>498.66666666666663</ele><time>2026-04-23T11:09:00.104Z</time></trkpt><trkpt lat="44.1384596" lon="10.3350915"><ele>493.0</ele><time>2026-04-23T11:09:02.108Z</time></trkpt><trkpt lat="44.1385101" lon="10.3351925"><ele>487.3333333333333</ele><time>2026-04-23T11:09:04.11Z</time></trkpt><trkpt lat="44.1385586" lon="10.3352973"><ele>481.66666666666663</ele><time>2026-04-23T11:09:06.11Z</time></trkpt><trkpt lat="44.1385994" lon="10.3354039"><ele>476.0</ele><time>2026-04-23T11:09:08.116Z</time></trkpt><trkpt lat="44.1386398" lon="10.3355115"><ele>480.6</ele><time>2026-04-23T11:09:10.112Z</time></trkpt><trkpt lat="44.1386777" lon="10.3356206"><ele>485.20000000000005</ele><time>2026-04-23T11:09:12.113Z</time></trkpt><trkpt lat="44.1387095" lon="10.3357362"><ele>489.79999999999995</ele><time>2026-04-23T11:09:14.103Z</time></trkpt><trkpt lat="44.1387359" lon="10.3358563"><ele>494.4</ele><time>2026-04-23T11:09:16.111Z</time></trkpt><trkpt lat="44.1387629" lon="10.3359915"><ele>499.0</ele><time>2026-04-23T11:09:18.109Z</time></trkpt><trkpt lat="44.1387814" lon="10.3361232"><ele>499.0</ele><time>2026-04-23T11:09:20.108Z</time></trkpt><trkpt lat="44.138797" lon="10.3362554"><ele>499.0</ele><time>2026-04-23T11:09:22.125Z</time></trkpt><trkpt lat="44.138799" lon="10.3363878"><ele>499.0</ele><time>2026-04-23T11:09:24.112Z</time></trkpt><trkpt lat="44.1387887" lon="10.3365093"><ele>499.0</ele><time>2026-04-23T11:09:26.101Z</time></trkpt><trkpt lat="44.1387913" lon="10.3366389"><ele>499.0</ele><time>2026-04-23T11:09:28.105Z</time></trkpt><trkpt lat="44.1387906" lon="10.3367757"><ele>500.4</ele><time>2026-04-23T11:09:30.1Z</time></trkpt><trkpt lat="44.1387759" lon="10.3369096"><ele>501.79999999999995</ele><time>2026-04-23T11:09:32.106Z</time></trkpt><trkpt lat="44.1387721" lon="10.3370468"><ele>503.20000000000005</ele><time>2026-04-23T11:09:34.113Z</time></trkpt><trkpt lat="44.1387641" lon="10.3371753"><ele>504.6</ele><time>2026-04-23T11:09:36.109Z</time></trkpt><trkpt lat="44.1387519" lon="10.3373045"><ele>506.0</ele><time>2026-04-23T11:09:38Z</time></trkpt><trkpt lat="44.138753" lon="10.3374339"><ele>506.0</ele><time>2026-04-23T11:09:40.128Z</time></trkpt><trkpt lat="44.1387524" lon="10.3375557"><ele>506.0</ele><time>2026-04-23T11:09:42.111Z</time></trkpt><trkpt lat="44.1387452" lon="10.3376798"><ele>506.0</ele><time>2026-04-23T11:09:44.1Z</time></trkpt><trkpt lat="44.1387309" lon="10.3378035"><ele>506.0</ele><time>2026-04-23T11:09:46.103Z</time></trkpt><trkpt lat="44.1387068" lon="10.3379277"><ele>506.0</ele><time>2026-04-23T11:09:48.107Z</time></trkpt><trkpt lat="44.1386642" lon="10.3381108"><ele>504.6</ele><time>2026-04-23T11:09:51Z</time></trkpt><trkpt lat="44.1386507" lon="10.3382482"><ele>503.20000000000005</ele><time>2026-04-23T11:09:53.109Z</time></trkpt><trkpt lat="44.1386673" lon="10.338374"><ele>501.79999999999995</ele><time>2026-04-23T11:09:55.106Z</time></trkpt><trkpt lat="44.1386918" lon="10.3384971"><ele>500.4</ele><time>2026-04-23T11:09:57.103Z</time></trkpt><trkpt lat="44.1387381" lon="10.3386028"><ele>499.0</ele><time>2026-04-23T11:09:59.1Z</time></trkpt><trkpt lat="44.1387789" lon="10.3387148"><ele>499.0</ele><time>2026-04-23T11:10:01Z</time></trkpt><trkpt lat="44.1388467" lon="10.3388689"><ele>499.0</ele><time>2026-04-23T11:10:04.101Z</time></trkpt><trkpt lat="44.1388801" lon="10.3389942"><ele>499.0</ele><time>2026-04-23T11:10:06Z</time></trkpt><trkpt lat="44.1389107" lon="10.3391191"><ele>499.0</ele><time>2026-04-23T11:10:08Z</time></trkpt><trkpt lat="44.1389382" lon="10.3392408"><ele>499.0</ele><time>2026-04-23T11:10:10.101Z</time></trkpt><trkpt lat="44.138969" lon="10.3393672"><ele>501.79999999999995</ele><time>2026-04-23T11:10:12Z</time></trkpt><trkpt lat="44.138996" lon="10.3394869"><ele>504.59999999999997</ele><time>2026-04-23T11:10:14Z</time></trkpt><trkpt lat="44.1390045" lon="10.3396152"><ele>507.4</ele><time>2026-04-23T11:10:16.105Z</time></trkpt><trkpt lat="44.1390019" lon="10.3397401"><ele>510.2</ele><time>2026-04-23T11:10:18.104Z</time></trkpt><trkpt lat="44.1389952" lon="10.3398636"><ele>513.0</ele><time>2026-04-23T11:10:20.106Z</time></trkpt><trkpt lat="44.1389609" lon="10.3399923"><ele>513.0</ele><time>2026-04-23T11:10:22.105Z</time></trkpt><trkpt lat="44.1389346" lon="10.340103"><ele>513.0</ele><time>2026-04-23T11:10:24.108Z</time></trkpt><trkpt lat="44.1388845" lon="10.3402097"><ele>513.0</ele><time>2026-04-23T11:10:26.103Z</time></trkpt><trkpt lat="44.1388261" lon="10.3403029"><ele>513.0</ele><time>2026-04-23T11:10:28.101Z</time></trkpt><trkpt lat="44.1387696" lon="10.3403808"><ele>513.0</ele><time>2026-04-23T11:10:30.108Z</time></trkpt><trkpt lat="44.1387168" lon="10.3404511"><ele>513.0</ele><time>2026-04-23T11:10:32.103Z</time></trkpt><trkpt lat="44.1386599" lon="10.3405274"><ele>509.0</ele><time>2026-04-23T11:10:34.111Z</time></trkpt><trkpt lat="44.1386213" lon="10.3405995"><ele>504.99999999999994</ele><time>2026-04-23T11:10:35.1Z</time></trkpt><trkpt lat="44.1385721" lon="10.3407151"><ele>500.99999999999994</ele><time>2026-04-23T11:10:37.102Z</time></trkpt><trkpt lat="44.1385594" lon="10.3409023"><ele>497.0</ele><time>2026-04-23T11:10:40Z</time></trkpt><trkpt lat="44.1385765" lon="10.3410207"><ele>493.0</ele><time>2026-04-23T11:10:42.11Z</time></trkpt><trkpt lat="44.1386084" lon="10.3411284"><ele>493.0</ele><time>2026-04-23T11:10:44.105Z</time></trkpt><trkpt lat="44.1386584" lon="10.341228"><ele>492.99999999999994</ele><time>2026-04-23T11:10:46.105Z</time></trkpt><trkpt lat="44.1387171" lon="10.3413281"><ele>492.99999999999994</ele><time>2026-04-23T11:10:48Z</time></trkpt><trkpt lat="44.1387739" lon="10.3414421"><ele>493.0</ele><time>2026-04-23T11:10:50.103Z</time></trkpt><trkpt lat="44.1388397" lon="10.3415473"><ele>493.0</ele><time>2026-04-23T11:10:52.105Z</time></trkpt><trkpt lat="44.1389068" lon="10.3416569"><ele>491.79999999999995</ele><time>2026-04-23T11:10:54.134Z</time></trkpt><trkpt lat="44.1389709" lon="10.3417698"><ele>490.59999999999997</ele><time>2026-04-23T11:10:56.102Z</time></trkpt><trkpt lat="44.1390413" lon="10.3418783"><ele>489.40000000000003</ele><time>2026-04-23T11:10:58.104Z</time></trkpt><trkpt lat="44.1391034" lon="10.3419878"><ele>488.20000000000005</ele><time>2026-04-23T11:11:00.131Z</time></trkpt><trkpt lat="44.1391571" lon="10.3420953"><ele>487.0</ele><time>2026-04-23T11:11:02.103Z</time></trkpt><trkpt lat="44.1392073" lon="10.3422904"><ele>484.20000000000005</ele><time>2026-04-23T11:11:05.103Z</time></trkpt><trkpt lat="44.1392443" lon="10.3424165"><ele>481.40000000000003</ele><time>2026-04-23T11:11:07.108Z</time></trkpt><trkpt lat="44.1392657" lon="10.3425587"><ele>478.59999999999997</ele><time>2026-04-23T11:11:09.107Z</time></trkpt><trkpt lat="44.1392736" lon="10.3426988"><ele>475.79999999999995</ele><time>2026-04-23T11:11:11.101Z</time></trkpt><trkpt lat="44.139266" lon="10.3428402"><ele>473.0</ele><time>2026-04-23T11:11:13.11Z</time></trkpt><trkpt lat="44.1392365" lon="10.3429837"><ele>473.0</ele><time>2026-04-23T11:11:15.107Z</time></trkpt><trkpt lat="44.1391912" lon="10.3431572"><ele>472.99999999999994</ele><time>2026-04-23T11:11:18Z</time></trkpt><trkpt lat="44.1391445" lon="10.3432766"><ele>472.99999999999994</ele><time>2026-04-23T11:11:20Z</time></trkpt><trkpt lat="44.1391106" lon="10.3433966"><ele>473.0</ele><time>2026-04-23T11:11:22.11Z</time></trkpt><trkpt lat="44.1390819" lon="10.3435223"><ele>473.0</ele><time>2026-04-23T11:11:24.103Z</time></trkpt><trkpt lat="44.1390551" lon="10.3436492"><ele>478.0</ele><time>2026-04-23T11:11:26.102Z</time></trkpt><trkpt lat="44.13902" lon="10.3437775"><ele>482.99999999999994</ele><time>2026-04-23T11:11:28.103Z</time></trkpt><trkpt lat="44.1389955" lon="10.3438937"><ele>487.99999999999994</ele><time>2026-04-23T11:11:30.105Z</time></trkpt><trkpt lat="44.1389641" lon="10.3440359"><ele>493.0</ele><time>2026-04-23T11:11:32.101Z</time></trkpt><trkpt lat="44.1389469" lon="10.3441779"><ele>498.0</ele><time>2026-04-23T11:11:34.101Z</time></trkpt><trkpt lat="44.1389638" lon="10.3443263"><ele>498.79999999999995</ele><time>2026-04-23T11:11:36.122Z</time></trkpt><trkpt lat="44.1390088" lon="10.3444557"><ele>499.59999999999997</ele><time>2026-04-23T11:11:38.108Z</time></trkpt><trkpt lat="44.1390719" lon="10.3445637"><ele>500.40000000000003</ele><time>2026-04-23T11:11:40.115Z</time></trkpt><trkpt lat="44.1391357" lon="10.3446704"><ele>501.20000000000005</ele><time>2026-04-23T11:11:42.108Z</time></trkpt><trkpt lat="44.1391995" lon="10.3447896"><ele>502.0</ele><time>2026-04-23T11:11:44.103Z</time></trkpt><trkpt lat="44.1392561" lon="10.3449082"><ele>497.0</ele><time>2026-04-23T11:11:46.103Z</time></trkpt><trkpt lat="44.1393147" lon="10.3450199"><ele>492.00000000000006</ele><time>2026-04-23T11:11:48.102Z</time></trkpt><trkpt lat="44.1393763" lon="10.3451277"><ele>487.00000000000006</ele><time>2026-04-23T11:11:50.101Z</time></trkpt><trkpt lat="44.13944" lon="10.3452361"><ele>482.0</ele><time>2026-04-23T11:11:52.114Z</time></trkpt><trkpt lat="44.1395034" lon="10.3453516"><ele>477.0</ele><time>2026-04-23T11:11:54.111Z</time></trkpt><trkpt lat="44.1395707" lon="10.3454626"><ele>478.0</ele><time>2026-04-23T11:11:56.104Z</time></trkpt><trkpt lat="44.1396495" lon="10.3455678"><ele>479.0</ele><time>2026-04-23T11:11:58.129Z</time></trkpt><trkpt lat="44.1397388" lon="10.3456528"><ele>480.0</ele><time>2026-04-23T11:12:00.122Z</time></trkpt><trkpt lat="44.1398398" lon="10.3457261"><ele>481.0</ele><time>2026-04-23T11:12:02.103Z</time></trkpt><trkpt lat="44.1399502" lon="10.3457897"><ele>481.0</ele><time>2026-04-23T11:12:04.102Z</time></trkpt><trkpt lat="44.1400539" lon="10.3458546"><ele>481.0</ele><time>2026-04-23T11:12:06.111Z</time></trkpt><trkpt lat="44.1401622" lon="10.3459086"><ele>481.0</ele><time>2026-04-23T11:12:08.102Z</time></trkpt><trkpt lat="44.1402733" lon="10.3459676"><ele>481.0</ele><time>2026-04-23T11:12:10.108Z</time></trkpt><trkpt lat="44.1403754" lon="10.3460185"><ele>481.0</ele><time>2026-04-23T11:12:12.109Z</time></trkpt><trkpt lat="44.1404716" lon="10.3460697"><ele>481.0</ele><time>2026-04-23T11:12:14.105Z</time></trkpt><trkpt lat="44.1405648" lon="10.3461545"><ele>481.0</ele><time>2026-04-23T11:12:16.12Z</time></trkpt><trkpt lat="44.1406429" lon="10.3462679"><ele>481.0</ele><time>2026-04-23T11:12:18.114Z</time></trkpt><trkpt lat="44.1407174" lon="10.3463943"><ele>481.0</ele><time>2026-04-23T11:12:20.104Z</time></trkpt><trkpt lat="44.1407747" lon="10.3465256"><ele>479.4</ele><time>2026-04-23T11:12:22.105Z</time></trkpt><trkpt lat="44.1408286" lon="10.3466556"><ele>477.8</ele><time>2026-04-23T11:12:24.102Z</time></trkpt><trkpt lat="44.1408772" lon="10.3467892"><ele>476.19999999999993</ele><time>2026-04-23T11:12:26.101Z</time></trkpt><trkpt lat="44.1409283" lon="10.3469081"><ele>474.59999999999997</ele><time>2026-04-23T11:12:28.112Z</time></trkpt><trkpt lat="44.1409754" lon="10.3470389"><ele>473.0</ele><time>2026-04-23T11:12:30.107Z</time></trkpt><trkpt lat="44.1410243" lon="10.3471748"><ele>477.0</ele><time>2026-04-23T11:12:32.109Z</time></trkpt><trkpt lat="44.1410678" lon="10.347298"><ele>480.99999999999994</ele><time>2026-04-23T11:12:34.112Z</time></trkpt><trkpt lat="44.1411386" lon="10.3474757"><ele>484.99999999999994</ele><time>2026-04-23T11:12:37.13Z</time></trkpt><trkpt lat="44.1411903" lon="10.3475961"><ele>489.0</ele><time>2026-04-23T11:12:39.101Z</time></trkpt><trkpt lat="44.1412333" lon="10.3477153"><ele>493.0</ele><time>2026-04-23T11:12:41.102Z</time></trkpt><trkpt lat="44.1412843" lon="10.3478291"><ele>493.0</ele><time>2026-04-23T11:12:43.106Z</time></trkpt><trkpt lat="44.1413509" lon="10.3479359"><ele>492.99999999999994</ele><time>2026-04-23T11:12:45.102Z</time></trkpt><trkpt lat="44.1414184" lon="10.3480339"><ele>492.99999999999994</ele><time>2026-04-23T11:12:47.11Z</time></trkpt><trkpt lat="44.1414864" lon="10.348129"><ele>493.0</ele><time>2026-04-23T11:12:49.11Z</time></trkpt><trkpt lat="44.1415932" lon="10.3482749"><ele>493.0</ele><time>2026-04-23T11:12:52.118Z</time></trkpt><trkpt lat="44.141662" lon="10.348382"><ele>490.59999999999997</ele><time>2026-04-23T11:12:54.12Z</time></trkpt><trkpt lat="44.1417387" lon="10.3484897"><ele>488.19999999999993</ele><time>2026-04-23T11:12:56.114Z</time></trkpt><trkpt lat="44.1418129" lon="10.3485971"><ele>485.8</ele><time>2026-04-23T11:12:58.112Z</time></trkpt><trkpt lat="44.1418885" lon="10.3486995"><ele>483.4</ele><time>2026-04-23T11:13:00.111Z</time></trkpt><trkpt lat="44.1419614" lon="10.348809"><ele>481.0</ele><time>2026-04-23T11:13:02.116Z</time></trkpt><trkpt lat="44.1420334" lon="10.3489187"><ele>478.75</ele><time>2026-04-23T11:13:04.117Z</time></trkpt><trkpt lat="44.1421097" lon="10.3490277"><ele>476.5</ele><time>2026-04-23T11:13:06.1Z</time></trkpt><trkpt lat="44.142179" lon="10.3491354"><ele>474.25</ele><time>2026-04-23T11:13:08.108Z</time></trkpt><trkpt lat="44.1423105" lon="10.349263"><ele>472.0</ele><time>2026-04-23T11:13:11.106Z</time></trkpt><trkpt lat="44.142403" lon="10.3493353"><ele>472.0</ele><time>2026-04-23T11:13:13.115Z</time></trkpt><trkpt lat="44.1424994" lon="10.3493894"><ele>472.00000000000006</ele><time>2026-04-23T11:13:15.105Z</time></trkpt><trkpt lat="44.1425988" lon="10.3494293"><ele>472.00000000000006</ele><time>2026-04-23T11:13:17.105Z</time></trkpt><trkpt lat="44.1426981" lon="10.3494753"><ele>472.0</ele><time>2026-04-23T11:13:19.128Z</time></trkpt><trkpt lat="44.142803" lon="10.3495296"><ele>472.0</ele><time>2026-04-23T11:13:21.121Z</time></trkpt><trkpt lat="44.1429045" lon="10.3495915"><ele>472.0</ele><time>2026-04-23T11:13:23.124Z</time></trkpt><trkpt lat="44.143006" lon="10.3496598"><ele>472.0</ele><time>2026-04-23T11:13:25.107Z</time></trkpt><trkpt lat="44.1431003" lon="10.3497467"><ele>472.0</ele><time>2026-04-23T11:13:27.134Z</time></trkpt><trkpt lat="44.1431939" lon="10.3498342"><ele>472.0</ele><time>2026-04-23T11:13:29.124Z</time></trkpt><trkpt lat="44.1432883" lon="10.3499177"><ele>471.8</ele><time>2026-04-23T11:13:31.105Z</time></trkpt><trkpt lat="44.143385" lon="10.3499977"><ele>471.6</ele><time>2026-04-23T11:13:33.103Z</time></trkpt><trkpt lat="44.1434757" lon="10.3500814"><ele>471.40000000000003</ele><time>2026-04-23T11:13:35.102Z</time></trkpt><trkpt lat="44.1435671" lon="10.350166"><ele>471.20000000000005</ele><time>2026-04-23T11:13:37.105Z</time></trkpt><trkpt lat="44.1436579" lon="10.3502637"><ele>471.0</ele><time>2026-04-23T11:13:39.123Z</time></trkpt><trkpt lat="44.1437734" lon="10.3504322"><ele>468.4</ele><time>2026-04-23T11:13:42.11Z</time></trkpt><trkpt lat="44.1438396" lon="10.3505585"><ele>465.8</ele><time>2026-04-23T11:13:44.114Z</time></trkpt><trkpt lat="44.1438797" lon="10.3506772"><ele>463.19999999999993</ele><time>2026-04-23T11:13:46.112Z</time></trkpt><trkpt lat="44.1439406" lon="10.3508081"><ele>460.59999999999997</ele><time>2026-04-23T11:13:48.117Z</time></trkpt><trkpt lat="44.1440021" lon="10.3509392"><ele>458.0</ele><time>2026-04-23T11:13:50.105Z</time></trkpt><trkpt lat="44.1440607" lon="10.3510785"><ele>458.0</ele><time>2026-04-23T11:13:52.106Z</time></trkpt><trkpt lat="44.1441305" lon="10.3512128"><ele>457.99999999999994</ele><time>2026-04-23T11:13:54.119Z</time></trkpt><trkpt lat="44.1441932" lon="10.3513202"><ele>457.99999999999994</ele><time>2026-04-23T11:13:56.125Z</time></trkpt><trkpt lat="44.1442783" lon="10.3514139"><ele>458.0</ele><time>2026-04-23T11:13:58.126Z</time></trkpt><trkpt lat="44.1443577" lon="10.351511"><ele>458.0</ele><time>2026-04-23T11:14:00.11Z</time></trkpt><trkpt lat="44.1444464" lon="10.3516055"><ele>464.0</ele><time>2026-04-23T11:14:02.109Z</time></trkpt><trkpt lat="44.1445308" lon="10.3517176"><ele>470.0</ele><time>2026-04-23T11:14:04.104Z</time></trkpt><trkpt lat="44.1446149" lon="10.3518304"><ele>476.0</ele><time>2026-04-23T11:14:06.129Z</time></trkpt><trkpt lat="44.1447188" lon="10.3520348"><ele>482.0</ele><time>2026-04-23T11:14:09.106Z</time></trkpt><trkpt lat="44.1447825" lon="10.3521754"><ele>485.75</ele><time>2026-04-23T11:14:11.102Z</time></trkpt><trkpt lat="44.1448705" lon="10.3523777"><ele>489.5</ele><time>2026-04-23T11:14:14.106Z</time></trkpt><trkpt lat="44.1449457" lon="10.3524837"><ele>493.25</ele><time>2026-04-23T11:14:16.107Z</time></trkpt><trkpt lat="44.1450419" lon="10.3525588"><ele>497.0</ele><time>2026-04-23T11:14:18.128Z</time></trkpt><trkpt lat="44.1451378" lon="10.3526251"><ele>489.8</ele><time>2026-04-23T11:14:20.118Z</time></trkpt><trkpt lat="44.1452284" lon="10.3526868"><ele>482.6</ele><time>2026-04-23T11:14:22.111Z</time></trkpt><trkpt lat="44.1453562" lon="10.3527782"><ele>475.40000000000003</ele><time>2026-04-23T11:14:25.112Z</time></trkpt><trkpt lat="44.1454402" lon="10.3528298"><ele>468.20000000000005</ele><time>2026-04-23T11:14:27.115Z</time></trkpt><trkpt lat="44.1455111" lon="10.3528899"><ele>461.0</ele><time>2026-04-23T11:14:29.104Z</time></trkpt><trkpt lat="44.145599" lon="10.3529432"><ele>461.0</ele><time>2026-04-23T11:14:31.132Z</time></trkpt><trkpt lat="44.1456786" lon="10.352997"><ele>461.0</ele><time>2026-04-23T11:14:33.121Z</time></trkpt><trkpt lat="44.1457663" lon="10.3530358"><ele>461.0</ele><time>2026-04-23T11:14:35.109Z</time></trkpt><trkpt lat="44.1458564" lon="10.3530753"><ele>461.0</ele><time>2026-04-23T11:14:37.111Z</time></trkpt><trkpt lat="44.1459469" lon="10.3531121"><ele>461.0</ele><time>2026-04-23T11:14:39.105Z</time></trkpt><trkpt lat="44.1460296" lon="10.3531576"><ele>461.3333333333333</ele><time>2026-04-23T11:14:41.115Z</time></trkpt><trkpt lat="44.1461091" lon="10.3531815"><ele>461.66666666666663</ele><time>2026-04-23T11:14:43.123Z</time></trkpt><trkpt lat="44.1461909" lon="10.3531937"><ele>462.0</ele><time>2026-04-23T11:14:45.101Z</time></trkpt><trkpt lat="44.1462738" lon="10.3532016"><ele>462.33333333333337</ele><time>2026-04-23T11:14:47.111Z</time></trkpt><trkpt lat="44.1463601" lon="10.3532119"><ele>462.6666666666667</ele><time>2026-04-23T11:14:49.126Z</time></trkpt><trkpt lat="44.1464572" lon="10.3532162"><ele>463.0</ele><time>2026-04-23T11:14:51.107Z</time></trkpt><trkpt lat="44.1465596" lon="10.3532248"><ele>461.4</ele><time>2026-04-23T11:14:53.12Z</time></trkpt><trkpt lat="44.1466573" lon="10.3532873"><ele>459.79999999999995</ele><time>2026-04-23T11:14:55.107Z</time></trkpt><trkpt lat="44.1467567" lon="10.3533892"><ele>458.2</ele><time>2026-04-23T11:14:57.122Z</time></trkpt><trkpt lat="44.1468099" lon="10.3534923"><ele>456.6</ele><time>2026-04-23T11:14:59.122Z</time></trkpt><trkpt lat="44.1468802" lon="10.3535499"><ele>455.0</ele><time>2026-04-23T11:15:01.102Z</time></trkpt><trkpt lat="44.1469543" lon="10.3535702"><ele>454.99999999999994</ele><time>2026-04-23T11:15:03.112Z</time></trkpt><trkpt lat="44.1470295" lon="10.3535813"><ele>455.0</ele><time>2026-04-23T11:15:05.103Z</time></trkpt><trkpt lat="44.1471027" lon="10.3535542"><ele>455.0</ele><time>2026-04-23T11:15:07.111Z</time></trkpt><trkpt lat="44.1471712" lon="10.3535158"><ele>455.0</ele><time>2026-04-23T11:15:09.107Z</time></trkpt><trkpt lat="44.1472456" lon="10.3534873"><ele>454.99999999999994</ele><time>2026-04-23T11:15:11.102Z</time></trkpt><trkpt lat="44.147327" lon="10.3534664"><ele>455.0</ele><time>2026-04-23T11:15:13.107Z</time></trkpt><trkpt lat="44.1474015" lon="10.3534474"><ele>454.99999999999994</ele><time>2026-04-23T11:15:15.101Z</time></trkpt><trkpt lat="44.1474694" lon="10.3534378"><ele>455.0</ele><time>2026-04-23T11:15:17.101Z</time></trkpt><trkpt lat="44.1475396" lon="10.3534293"><ele>455.0</ele><time>2026-04-23T11:15:19.101Z</time></trkpt><trkpt lat="44.1476134" lon="10.353434"><ele>455.0</ele><time>2026-04-23T11:15:21.105Z</time></trkpt><trkpt lat="44.1477054" lon="10.3534706"><ele>454.99999999999994</ele><time>2026-04-23T11:15:24.107Z</time></trkpt><trkpt lat="44.1478013" lon="10.353505"><ele>455.0</ele><time>2026-04-23T11:15:26.111Z</time></trkpt><trkpt lat="44.1478827" lon="10.3535597"><ele>455.0</ele><time>2026-04-23T11:15:28.106Z</time></trkpt><trkpt lat="44.1479876" lon="10.3536351"><ele>455.0</ele><time>2026-04-23T11:15:30.102Z</time></trkpt><trkpt lat="44.1480514" lon="10.3537479"><ele>455.0</ele><time>2026-04-23T11:15:32.108Z</time></trkpt><trkpt lat="44.1479994" lon="10.3538878"><ele>455.0</ele><time>2026-04-23T11:15:34.122Z</time></trkpt><trkpt lat="44.147945" lon="10.3539332"><ele>455.0</ele><time>2026-04-23T11:15:35.103Z</time></trkpt><trkpt lat="44.147808" lon="10.353946"><ele>454.3333333333333</ele><time>2026-04-23T11:15:37.103Z</time></trkpt><trkpt lat="44.1477298" lon="10.3539332"><ele>453.66666666666663</ele><time>2026-04-23T11:15:38.118Z</time></trkpt><trkpt lat="44.1476483" lon="10.3539239"><ele>453.0</ele><time>2026-04-23T11:15:39.102Z</time></trkpt><trkpt lat="44.1475648" lon="10.3539227"><ele>452.33333333333337</ele><time>2026-04-23T11:15:40.107Z</time></trkpt><trkpt lat="44.1474783" lon="10.3539309"><ele>451.6666666666667</ele><time>2026-04-23T11:15:41.131Z</time></trkpt><trkpt lat="44.1473959" lon="10.3539579"><ele>451.0</ele><time>2026-04-23T11:15:42.113Z</time></trkpt><trkpt lat="44.1473154" lon="10.353996"><ele>451.0</ele><time>2026-04-23T11:15:43.101Z</time></trkpt><trkpt lat="44.1472291" lon="10.3540467"><ele>451.0</ele><time>2026-04-23T11:15:44.118Z</time></trkpt><trkpt lat="44.1471403" lon="10.3541088"><ele>451.0</ele><time>2026-04-23T11:15:45.112Z</time></trkpt><trkpt lat="44.1470573" lon="10.3541687"><ele>451.0</ele><time>2026-04-23T11:15:46.11Z</time></trkpt><trkpt lat="44.1469766" lon="10.3542348"><ele>451.0</ele><time>2026-04-23T11:15:47.104Z</time></trkpt><trkpt lat="44.146895" lon="10.3543058"><ele>451.0</ele><time>2026-04-23T11:15:48.117Z</time></trkpt><trkpt lat="44.146808" lon="10.354372"><ele>451.0</ele><time>2026-04-23T11:15:49.112Z</time></trkpt><trkpt lat="44.1467265" lon="10.3544426"><ele>451.0</ele><time>2026-04-23T11:15:50.105Z</time></trkpt><trkpt lat="44.1466428" lon="10.3545184"><ele>451.0</ele><time>2026-04-23T11:15:51.111Z</time></trkpt><trkpt lat="44.1465692" lon="10.3546119"><ele>451.0</ele><time>2026-04-23T11:15:52.114Z</time></trkpt><trkpt lat="44.1465085" lon="10.3547296"><ele>451.4</ele><time>2026-04-23T11:15:53.104Z</time></trkpt><trkpt lat="44.1464669" lon="10.3548542"><ele>451.8</ele><time>2026-04-23T11:15:54.106Z</time></trkpt><trkpt lat="44.1464228" lon="10.3549835"><ele>452.19999999999993</ele><time>2026-04-23T11:15:55.106Z</time></trkpt><trkpt lat="44.1463768" lon="10.355111"><ele>452.59999999999997</ele><time>2026-04-23T11:15:56.119Z</time></trkpt><trkpt lat="44.146327" lon="10.3552382"><ele>453.0</ele><time>2026-04-23T11:15:57.131Z</time></trkpt><trkpt lat="44.1462714" lon="10.3553616"><ele>453.0</ele><time>2026-04-23T11:15:58.111Z</time></trkpt><trkpt lat="44.1462157" lon="10.3554853"><ele>452.99999999999994</ele><time>2026-04-23T11:15:59.109Z</time></trkpt><trkpt lat="44.1461508" lon="10.3556059"><ele>452.99999999999994</ele><time>2026-04-23T11:16:00.116Z</time></trkpt><trkpt lat="44.1460878" lon="10.3557274"><ele>453.0</ele><time>2026-04-23T11:16:01.103Z</time></trkpt><trkpt lat="44.1460235" lon="10.3558507"><ele>453.0</ele><time>2026-04-23T11:16:02.11Z</time></trkpt><trkpt lat="44.1459573" lon="10.3559752"><ele>451.4</ele><time>2026-04-23T11:16:03.119Z</time></trkpt><trkpt lat="44.1458917" lon="10.3560989"><ele>449.79999999999995</ele><time>2026-04-23T11:16:04.101Z</time></trkpt><trkpt lat="44.1458244" lon="10.3562275"><ele>448.2</ele><time>2026-04-23T11:16:05.106Z</time></trkpt><trkpt lat="44.1457601" lon="10.3563511"><ele>446.6</ele><time>2026-04-23T11:16:06.107Z</time></trkpt><trkpt lat="44.1456973" lon="10.3564608"><ele>445.0</ele><time>2026-04-23T11:16:07.106Z</time></trkpt><trkpt lat="44.1456291" lon="10.3565551"><ele>445.0</ele><time>2026-04-23T11:16:08.105Z</time></trkpt><trkpt lat="44.1455457" lon="10.3566108"><ele>445.0</ele><time>2026-04-23T11:16:09.104Z</time></trkpt><trkpt lat="44.1454543" lon="10.3566464"><ele>445.0</ele><time>2026-04-23T11:16:10.109Z</time></trkpt><trkpt lat="44.1453601" lon="10.356656"><ele>445.0</ele><time>2026-04-23T11:16:11.116Z</time></trkpt><trkpt lat="44.1452638" lon="10.3566607"><ele>445.0</ele><time>2026-04-23T11:16:12.1Z</time></trkpt><trkpt lat="44.1451731" lon="10.3566918"><ele>445.0</ele><time>2026-04-23T11:16:13.109Z</time></trkpt><trkpt lat="44.1450841" lon="10.3567691"><ele>445.0</ele><time>2026-04-23T11:16:14.109Z</time></trkpt><trkpt lat="44.1449794" lon="10.3569841"><ele>445.0</ele><time>2026-04-23T11:16:16.115Z</time></trkpt><trkpt lat="44.1449251" lon="10.3571155"><ele>445.0</ele><time>2026-04-23T11:16:17.114Z</time></trkpt><trkpt lat="44.144867" lon="10.3572429"><ele>444.8</ele><time>2026-04-23T11:16:18.103Z</time></trkpt><trkpt lat="44.1448111" lon="10.3573773"><ele>444.6</ele><time>2026-04-23T11:16:19.103Z</time></trkpt><trkpt lat="44.1447563" lon="10.3575055"><ele>444.4</ele><time>2026-04-23T11:16:20.114Z</time></trkpt><trkpt lat="44.1446975" lon="10.3576422"><ele>444.2</ele><time>2026-04-23T11:16:21.12Z</time></trkpt><trkpt lat="44.1446349" lon="10.3577789"><ele>444.0</ele><time>2026-04-23T11:16:22.113Z</time></trkpt><trkpt lat="44.144558" lon="10.3579063"><ele>444.0</ele><time>2026-04-23T11:16:23.102Z</time></trkpt><trkpt lat="44.1444738" lon="10.3580256"><ele>444.0</ele><time>2026-04-23T11:16:24.116Z</time></trkpt><trkpt lat="44.1443804" lon="10.3581292"><ele>444.0</ele><time>2026-04-23T11:16:25.118Z</time></trkpt><trkpt lat="44.144279" lon="10.3582165"><ele>444.0</ele><time>2026-04-23T11:16:26.112Z</time></trkpt><trkpt lat="44.1441691" lon="10.3583043"><ele>442.75</ele><time>2026-04-23T11:16:27.115Z</time></trkpt><trkpt lat="44.1440698" lon="10.3584025"><ele>441.5</ele><time>2026-04-23T11:16:28.105Z</time></trkpt><trkpt lat="44.1439909" lon="10.3585249"><ele>440.25</ele><time>2026-04-23T11:16:29.102Z</time></trkpt><trkpt lat="44.143923" lon="10.3586647"><ele>439.0</ele><time>2026-04-23T11:16:30.107Z</time></trkpt><trkpt lat="44.1438739" lon="10.3588199"><ele>434.33333333333337</ele><time>2026-04-23T11:16:31.114Z</time></trkpt><trkpt lat="44.1438285" lon="10.3589897"><ele>429.66666666666663</ele><time>2026-04-23T11:16:32.107Z</time></trkpt><trkpt lat="44.1437396" lon="10.3593293"><ele>425.0</ele><time>2026-04-23T11:16:34.105Z</time></trkpt><trkpt lat="44.1436951" lon="10.359498"><ele>425.0</ele><time>2026-04-23T11:16:35.105Z</time></trkpt><trkpt lat="44.1436533" lon="10.3596649"><ele>425.0</ele><time>2026-04-23T11:16:36.106Z</time></trkpt><trkpt lat="44.1436064" lon="10.359819"><ele>425.0</ele><time>2026-04-23T11:16:37.11Z</time></trkpt><trkpt lat="44.143549" lon="10.3599499"><ele>425.0</ele><time>2026-04-23T11:16:38.105Z</time></trkpt><trkpt lat="44.1434755" lon="10.3600488"><ele>426.6</ele><time>2026-04-23T11:16:39.109Z</time></trkpt><trkpt lat="44.1433998" lon="10.3601079"><ele>428.2</ele><time>2026-04-23T11:16:40.106Z</time></trkpt><trkpt lat="44.143225" lon="10.3601229"><ele>429.79999999999995</ele><time>2026-04-23T11:16:42.107Z</time></trkpt><trkpt lat="44.1431486" lon="10.3601116"><ele>431.4</ele><time>2026-04-23T11:16:43.116Z</time></trkpt><trkpt lat="44.1430843" lon="10.3601418"><ele>433.0</ele><time>2026-04-23T11:16:44.11Z</time></trkpt><trkpt lat="44.1430275" lon="10.3601923"><ele>433.00000000000006</ele><time>2026-04-23T11:16:45.106Z</time></trkpt><trkpt lat="44.1430231" lon="10.3602995"><ele>433.0</ele><time>2026-04-23T11:16:46.105Z</time></trkpt><trkpt lat="44.1430314" lon="10.3603976"><ele>433.0</ele><time>2026-04-23T11:16:47.107Z</time></trkpt><trkpt lat="44.1430801" lon="10.3604866"><ele>433.0</ele><time>2026-04-23T11:16:48.119Z</time></trkpt><trkpt lat="44.1431059" lon="10.3605917"><ele>433.00000000000006</ele><time>2026-04-23T11:16:49.122Z</time></trkpt><trkpt lat="44.1430897" lon="10.3607187"><ele>433.0</ele><time>2026-04-23T11:16:50.103Z</time></trkpt><trkpt lat="44.1430814" lon="10.3608355"><ele>430.79999999999995</ele><time>2026-04-23T11:16:51.121Z</time></trkpt><trkpt lat="44.142999" lon="10.3609496"><ele>428.59999999999997</ele><time>2026-04-23T11:16:52.116Z</time></trkpt><trkpt lat="44.1429387" lon="10.3610619"><ele>426.4</ele><time>2026-04-23T11:16:53.105Z</time></trkpt><trkpt lat="44.142872" lon="10.3611765"><ele>424.20000000000005</ele><time>2026-04-23T11:16:54.114Z</time></trkpt><trkpt lat="44.1428097" lon="10.361296"><ele>422.0</ele><time>2026-04-23T11:16:55.106Z</time></trkpt><trkpt lat="44.1427326" lon="10.3614263"><ele>421.0</ele><time>2026-04-23T11:16:56.108Z</time></trkpt><trkpt lat="44.1426587" lon="10.3615445"><ele>420.0</ele><time>2026-04-23T11:16:57.116Z</time></trkpt><trkpt lat="44.1425901" lon="10.3616698"><ele>419.0</ele><time>2026-04-23T11:16:58.101Z</time></trkpt><trkpt lat="44.1425154" lon="10.3617713"><ele>418.0</ele><time>2026-04-23T11:16:59.119Z</time></trkpt><trkpt lat="44.1424265" lon="10.3618083"><ele>417.0</ele><time>2026-04-23T11:17:00.117Z</time></trkpt><trkpt lat="44.1423328" lon="10.361864"><ele>417.0</ele><time>2026-04-23T11:17:01.117Z</time></trkpt><trkpt lat="44.1422363" lon="10.361865"><ele>417.0</ele><time>2026-04-23T11:17:02.109Z</time></trkpt><trkpt lat="44.142139" lon="10.3618675"><ele>417.0</ele><time>2026-04-23T11:17:03.104Z</time></trkpt><trkpt lat="44.1420436" lon="10.3618966"><ele>417.0</ele><time>2026-04-23T11:17:04.1Z</time></trkpt><trkpt lat="44.1419467" lon="10.3619887"><ele>417.0</ele><time>2026-04-23T11:17:05.111Z</time></trkpt><trkpt lat="44.1418775" lon="10.3620852"><ele>417.0</ele><time>2026-04-23T11:17:06.119Z</time></trkpt><trkpt lat="44.1417999" lon="10.3621953"><ele>417.0</ele><time>2026-04-23T11:17:07.107Z</time></trkpt><trkpt lat="44.1417595" lon="10.3623343"><ele>417.0</ele><time>2026-04-23T11:17:08.101Z</time></trkpt><trkpt lat="44.1417328" lon="10.3624792"><ele>417.0</ele><time>2026-04-23T11:17:09.106Z</time></trkpt><trkpt lat="44.1417155" lon="10.3626325"><ele>417.0</ele><time>2026-04-23T11:17:10.101Z</time></trkpt><trkpt lat="44.1417287" lon="10.3627928"><ele>414.75</ele><time>2026-04-23T11:17:11.11Z</time></trkpt><trkpt lat="44.1417253" lon="10.3629385"><ele>412.5</ele><time>2026-04-23T11:17:12.103Z</time></trkpt><trkpt lat="44.1417069" lon="10.3630875"><ele>410.25</ele><time>2026-04-23T11:17:13.105Z</time></trkpt><trkpt lat="44.1416116" lon="10.3633512"><ele>408.0</ele><time>2026-04-23T11:17:15.11Z</time></trkpt><trkpt lat="44.1415376" lon="10.3634572"><ele>408.0</ele><time>2026-04-23T11:17:16.108Z</time></trkpt><trkpt lat="44.1414566" lon="10.3635514"><ele>408.0</ele><time>2026-04-23T11:17:17.116Z</time></trkpt><trkpt lat="44.14137" lon="10.3636407"><ele>408.0</ele><time>2026-04-23T11:17:18.117Z</time></trkpt><trkpt lat="44.1412862" lon="10.3637243"><ele>408.0</ele><time>2026-04-23T11:17:19.105Z</time></trkpt><trkpt lat="44.1412026" lon="10.3638067"><ele>408.0</ele><time>2026-04-23T11:17:20.118Z</time></trkpt><trkpt lat="44.1411215" lon="10.3638963"><ele>402.0</ele><time>2026-04-23T11:17:21.104Z</time></trkpt><trkpt lat="44.1410452" lon="10.3639866"><ele>396.0</ele><time>2026-04-23T11:17:22.103Z</time></trkpt><trkpt lat="44.1409709" lon="10.3640775"><ele>390.0</ele><time>2026-04-23T11:17:23.121Z</time></trkpt><trkpt lat="44.1408984" lon="10.364166"><ele>384.0</ele><time>2026-04-23T11:17:24.103Z</time></trkpt><trkpt lat="44.1408238" lon="10.364249"><ele>378.0</ele><time>2026-04-23T11:17:25.105Z</time></trkpt><trkpt lat="44.1407492" lon="10.3643338"><ele>377.2</ele><time>2026-04-23T11:17:26.114Z</time></trkpt><trkpt lat="44.1406771" lon="10.3644217"><ele>376.4</ele><time>2026-04-23T11:17:27.11Z</time></trkpt><trkpt lat="44.1406074" lon="10.3644999"><ele>375.59999999999997</ele><time>2026-04-23T11:17:28.11Z</time></trkpt><trkpt lat="44.1405316" lon="10.3645904"><ele>374.79999999999995</ele><time>2026-04-23T11:17:29.106Z</time></trkpt><trkpt lat="44.140462" lon="10.3646779"><ele>374.0</ele><time>2026-04-23T11:17:30.11Z</time></trkpt><trkpt lat="44.1403918" lon="10.3647722"><ele>374.0</ele><time>2026-04-23T11:17:31.105Z</time></trkpt><trkpt lat="44.1403288" lon="10.364841"><ele>374.0</ele><time>2026-04-23T11:17:32.104Z</time></trkpt><trkpt lat="44.1402608" lon="10.3649276"><ele>374.0</ele><time>2026-04-23T11:17:33.116Z</time></trkpt><trkpt lat="44.1401934" lon="10.3650153"><ele>374.0</ele><time>2026-04-23T11:17:34.107Z</time></trkpt><trkpt lat="44.1401274" lon="10.365097"><ele>374.0</ele><time>2026-04-23T11:17:35.11Z</time></trkpt><trkpt lat="44.1400652" lon="10.365179"><ele>374.0</ele><time>2026-04-23T11:17:36.103Z</time></trkpt><trkpt lat="44.1399951" lon="10.3652648"><ele>374.0</ele><time>2026-04-23T11:17:37.104Z</time></trkpt><trkpt lat="44.1399356" lon="10.365342"><ele>374.0</ele><time>2026-04-23T11:17:38.105Z</time></trkpt><trkpt lat="44.1398672" lon="10.3654101"><ele>374.0</ele><time>2026-04-23T11:17:39.11Z</time></trkpt><trkpt lat="44.1397899" lon="10.3654737"><ele>374.0</ele><time>2026-04-23T11:17:40.103Z</time></trkpt><trkpt lat="44.1397275" lon="10.3655182"><ele>374.0</ele><time>2026-04-23T11:17:41.108Z</time></trkpt><trkpt lat="44.1396638" lon="10.3655609"><ele>374.0</ele><time>2026-04-23T11:17:42.104Z</time></trkpt><trkpt lat="44.1395545" lon="10.3656118"><ele>373.6666666666667</ele><time>2026-04-23T11:17:44.104Z</time></trkpt><trkpt lat="44.1394586" lon="10.3656311"><ele>373.33333333333337</ele><time>2026-04-23T11:17:46.109Z</time></trkpt><trkpt lat="44.1393778" lon="10.3656516"><ele>373.0</ele><time>2026-04-23T11:17:48.103Z</time></trkpt><trkpt lat="44.1393109" lon="10.3656928"><ele>372.6666666666667</ele><time>2026-04-23T11:17:50.103Z</time></trkpt><trkpt lat="44.1392517" lon="10.3657365"><ele>372.3333333333333</ele><time>2026-04-23T11:17:52.104Z</time></trkpt><trkpt lat="44.1391971" lon="10.3657872"><ele>372.0</ele><time>2026-04-23T11:17:54.107Z</time></trkpt><trkpt lat="44.1391439" lon="10.3658612"><ele>372.0</ele><time>2026-04-23T11:17:56Z</time></trkpt><trkpt lat="44.1390992" lon="10.3659395"><ele>372.0</ele><time>2026-04-23T11:17:58.103Z</time></trkpt><trkpt lat="44.1390543" lon="10.3660224"><ele>372.0</ele><time>2026-04-23T11:18:00.119Z</time></trkpt><trkpt lat="44.1390096" lon="10.3661025"><ele>372.0</ele><time>2026-04-23T11:18:02.111Z</time></trkpt><trkpt lat="44.1389685" lon="10.3661768"><ele>372.0</ele><time>2026-04-23T11:18:04.105Z</time></trkpt><trkpt lat="44.1389036" lon="10.3662783"><ele>372.0</ele><time>2026-04-23T11:18:07.118Z</time></trkpt><trkpt lat="44.1388138" lon="10.3663947"><ele>372.0</ele><time>2026-04-23T11:18:10.114Z</time></trkpt><trkpt lat="44.138753" lon="10.3664729"><ele>372.0</ele><time>2026-04-23T11:18:12.104Z</time></trkpt><trkpt lat="44.1386934" lon="10.3665476"><ele>372.0</ele><time>2026-04-23T11:18:14.102Z</time></trkpt><trkpt lat="44.1386328" lon="10.3666216"><ele>372.0</ele><time>2026-04-23T11:18:16.105Z</time></trkpt><trkpt lat="44.1385739" lon="10.3666905"><ele>372.0</ele><time>2026-04-23T11:18:18.108Z</time></trkpt><trkpt lat="44.1385159" lon="10.3667588"><ele>372.0</ele><time>2026-04-23T11:18:20.103Z</time></trkpt><trkpt lat="44.1384611" lon="10.3668258"><ele>372.0</ele><time>2026-04-23T11:18:22.116Z</time></trkpt><trkpt lat="44.1383967" lon="10.3668775"><ele>372.0</ele><time>2026-04-23T11:18:24.102Z</time></trkpt><trkpt lat="44.13832" lon="10.3669191"><ele>372.0</ele><time>2026-04-23T11:18:26.108Z</time></trkpt><trkpt lat="44.1382357" lon="10.3669426"><ele>372.0</ele><time>2026-04-23T11:18:28.112Z</time></trkpt><trkpt lat="44.1381415" lon="10.366939"><ele>372.0</ele><time>2026-04-23T11:18:30.108Z</time></trkpt><trkpt lat="44.1380416" lon="10.3669371"><ele>372.0</ele><time>2026-04-23T11:18:32.126Z</time></trkpt><trkpt lat="44.137922" lon="10.3669699"><ele>371.00000000000006</ele><time>2026-04-23T11:18:34.113Z</time></trkpt><trkpt lat="44.1378604" lon="10.3669994"><ele>370.0</ele><time>2026-04-23T11:18:35.108Z</time></trkpt><trkpt lat="44.1377999" lon="10.3670458"><ele>369.0</ele><time>2026-04-23T11:18:36.119Z</time></trkpt><trkpt lat="44.1377429" lon="10.3671026"><ele>368.0</ele><time>2026-04-23T11:18:37.103Z</time></trkpt><trkpt lat="44.1376862" lon="10.3671724"><ele>367.0</ele><time>2026-04-23T11:18:38.123Z</time></trkpt><trkpt lat="44.1376315" lon="10.3672408"><ele>366.00000000000006</ele><time>2026-04-23T11:18:39.11Z</time></trkpt><trkpt lat="44.1375735" lon="10.3673158"><ele>365.0</ele><time>2026-04-23T11:18:40.106Z</time></trkpt><trkpt lat="44.1375165" lon="10.3673913"><ele>365.0</ele><time>2026-04-23T11:18:41.109Z</time></trkpt><trkpt lat="44.1374562" lon="10.3674693"><ele>365.0</ele><time>2026-04-23T11:18:42.105Z</time></trkpt><trkpt lat="44.1373903" lon="10.3675459"><ele>365.0</ele><time>2026-04-23T11:18:43.114Z</time></trkpt><trkpt lat="44.1373171" lon="10.3676277"><ele>365.0</ele><time>2026-04-23T11:18:44.117Z</time></trkpt><trkpt lat="44.1371737" lon="10.3677895"><ele>365.0</ele><time>2026-04-23T11:18:46.1Z</time></trkpt><trkpt lat="44.1370973" lon="10.3678757"><ele>364.6</ele><time>2026-04-23T11:18:47Z</time></trkpt><trkpt lat="44.1370225" lon="10.3679526"><ele>364.2</ele><time>2026-04-23T11:18:48Z</time></trkpt><trkpt lat="44.1369466" lon="10.3680333"><ele>363.79999999999995</ele><time>2026-04-23T11:18:49.101Z</time></trkpt><trkpt lat="44.1368712" lon="10.368115"><ele>363.4</ele><time>2026-04-23T11:18:50Z</time></trkpt><trkpt lat="44.1368033" lon="10.3682025"><ele>363.0</ele><time>2026-04-23T11:18:51.101Z</time></trkpt><trkpt lat="44.1367421" lon="10.3683084"><ele>363.0</ele><time>2026-04-23T11:18:52.104Z</time></trkpt><trkpt lat="44.1366928" lon="10.3684358"><ele>363.0</ele><time>2026-04-23T11:18:53.108Z</time></trkpt><trkpt lat="44.1366479" lon="10.3685603"><ele>363.0</ele><time>2026-04-23T11:18:54.103Z</time></trkpt><trkpt lat="44.1366147" lon="10.3686811"><ele>363.0</ele><time>2026-04-23T11:18:55.101Z</time></trkpt><trkpt lat="44.1365813" lon="10.3688009"><ele>363.0</ele><time>2026-04-23T11:18:56.106Z</time></trkpt><trkpt lat="44.1365387" lon="10.3689137"><ele>362.5</ele><time>2026-04-23T11:18:57.103Z</time></trkpt><trkpt lat="44.1365" lon="10.3690244"><ele>362.0</ele><time>2026-04-23T11:18:58.108Z</time></trkpt><trkpt lat="44.1364565" lon="10.3691278"><ele>361.5</ele><time>2026-04-23T11:18:59.102Z</time></trkpt><trkpt lat="44.1363965" lon="10.3692111"><ele>361.0</ele><time>2026-04-23T11:19:00.103Z</time></trkpt><trkpt lat="44.136312" lon="10.3692614"><ele>360.5</ele><time>2026-04-23T11:19:01.105Z</time></trkpt><trkpt lat="44.1362227" lon="10.3692832"><ele>360.0</ele><time>2026-04-23T11:19:02.102Z</time></trkpt><trkpt lat="44.1361346" lon="10.3692781"><ele>360.0</ele><time>2026-04-23T11:19:03.102Z</time></trkpt><trkpt lat="44.1360568" lon="10.3692785"><ele>360.0</ele><time>2026-04-23T11:19:04.106Z</time></trkpt><trkpt lat="44.1359917" lon="10.3692865"><ele>360.0</ele><time>2026-04-23T11:19:05.111Z</time></trkpt><trkpt lat="44.1358849" lon="10.369317"><ele>360.0</ele><time>2026-04-23T11:19:07.105Z</time></trkpt><trkpt lat="44.1357717" lon="10.3694316"><ele>360.0</ele><time>2026-04-23T11:19:10Z</time></trkpt><trkpt lat="44.1357114" lon="10.3695106"><ele>360.0</ele><time>2026-04-23T11:19:12.104Z</time></trkpt><trkpt lat="44.135656" lon="10.3695703"><ele>360.0</ele><time>2026-04-23T11:19:14.105Z</time></trkpt><trkpt lat="44.1355862" lon="10.369636"><ele>360.0</ele><time>2026-04-23T11:19:16.118Z</time></trkpt><trkpt lat="44.1354864" lon="10.3697241"><ele>360.0</ele><time>2026-04-23T11:19:19.113Z</time></trkpt><trkpt lat="44.1354226" lon="10.3697934"><ele>360.0</ele><time>2026-04-23T11:19:21.112Z</time></trkpt><trkpt lat="44.135353" lon="10.3698539"><ele>360.0</ele><time>2026-04-23T11:19:23.102Z</time></trkpt><trkpt lat="44.1352802" lon="10.3699224"><ele>360.0</ele><time>2026-04-23T11:19:25.103Z</time></trkpt><trkpt lat="44.1352075" lon="10.3699995"><ele>360.0</ele><time>2026-04-23T11:19:27.123Z</time></trkpt><trkpt lat="44.1351428" lon="10.370077"><ele>360.0</ele><time>2026-04-23T11:19:29.106Z</time></trkpt><trkpt lat="44.1350776" lon="10.3701368"><ele>360.0</ele><time>2026-04-23T11:19:31.111Z</time></trkpt><trkpt lat="44.13501" lon="10.3701983"><ele>360.0</ele><time>2026-04-23T11:19:33.106Z</time></trkpt><trkpt lat="44.1349375" lon="10.3702597"><ele>360.0</ele><time>2026-04-23T11:19:35.119Z</time></trkpt><trkpt lat="44.1348686" lon="10.3703242"><ele>360.2</ele><time>2026-04-23T11:19:37.113Z</time></trkpt><trkpt lat="44.1347978" lon="10.3703932"><ele>360.4</ele><time>2026-04-23T11:19:39.111Z</time></trkpt><trkpt lat="44.1347255" lon="10.3704599"><ele>360.6</ele><time>2026-04-23T11:19:41.101Z</time></trkpt><trkpt lat="44.1346559" lon="10.3705249"><ele>360.8</ele><time>2026-04-23T11:19:43.118Z</time></trkpt><trkpt lat="44.1345858" lon="10.3705865"><ele>361.0</ele><time>2026-04-23T11:19:45.109Z</time></trkpt><trkpt lat="44.134492" lon="10.3706689"><ele>361.0</ele><time>2026-04-23T11:19:48.122Z</time></trkpt><trkpt lat="44.1344347" lon="10.3707483"><ele>361.0</ele><time>2026-04-23T11:19:50.102Z</time></trkpt><trkpt lat="44.1343797" lon="10.3708296"><ele>361.0</ele><time>2026-04-23T11:19:52.12Z</time></trkpt><trkpt lat="44.134332" lon="10.370913"><ele>361.0</ele><time>2026-04-23T11:19:54.112Z</time></trkpt><trkpt lat="44.1342893" lon="10.3710034"><ele>361.0</ele><time>2026-04-23T11:19:56.123Z</time></trkpt><trkpt lat="44.1342436" lon="10.3710876"><ele>361.0</ele><time>2026-04-23T11:19:58.111Z</time></trkpt><trkpt lat="44.1341991" lon="10.3711739"><ele>361.0</ele><time>2026-04-23T11:20:00.11Z</time></trkpt><trkpt lat="44.1341638" lon="10.3712514"><ele>361.0</ele><time>2026-04-23T11:20:02.113Z</time></trkpt><trkpt lat="44.1341267" lon="10.3713273"><ele>361.0</ele><time>2026-04-23T11:20:04.104Z</time></trkpt><trkpt lat="44.1340912" lon="10.3714084"><ele>361.0</ele><time>2026-04-23T11:20:06.11Z</time></trkpt><trkpt lat="44.1340533" lon="10.3714893"><ele>361.0</ele><time>2026-04-23T11:20:08.114Z</time></trkpt><trkpt lat="44.1340155" lon="10.3715679"><ele>361.0</ele><time>2026-04-23T11:20:10.111Z</time></trkpt><trkpt lat="44.13398" lon="10.371644"><ele>361.0</ele><time>2026-04-23T11:20:12.112Z</time></trkpt><trkpt lat="44.1339429" lon="10.3717214"><ele>361.66666666666663</ele><time>2026-04-23T11:20:14Z</time></trkpt><trkpt lat="44.1338736" lon="10.3718647"><ele>362.3333333333333</ele><time>2026-04-23T11:20:18.117Z</time></trkpt><trkpt lat="44.1338364" lon="10.3719414"><ele>363.0</ele><time>2026-04-23T11:20:20.104Z</time></trkpt><trkpt lat="44.1338023" lon="10.3720231"><ele>363.6666666666667</ele><time>2026-04-23T11:20:22.116Z</time></trkpt><trkpt lat="44.1337653" lon="10.3721076"><ele>364.33333333333337</ele><time>2026-04-23T11:20:24.11Z</time></trkpt><trkpt lat="44.1337264" lon="10.3721907"><ele>365.0</ele><time>2026-04-23T11:20:26.104Z</time></trkpt><trkpt lat="44.1336895" lon="10.3722732"><ele>365.00000000000006</ele><time>2026-04-23T11:20:28.107Z</time></trkpt><trkpt lat="44.1336468" lon="10.3723495"><ele>365.0</ele><time>2026-04-23T11:20:30.103Z</time></trkpt><trkpt lat="44.1335965" lon="10.3724164"><ele>365.0</ele><time>2026-04-23T11:20:32.105Z</time></trkpt><trkpt lat="44.1335401" lon="10.3724784"><ele>365.0</ele><time>2026-04-23T11:20:34.107Z</time></trkpt><trkpt lat="44.1334845" lon="10.3725416"><ele>365.0</ele><time>2026-04-23T11:20:36.105Z</time></trkpt><trkpt lat="44.1334289" lon="10.372606"><ele>365.00000000000006</ele><time>2026-04-23T11:20:38.103Z</time></trkpt><trkpt lat="44.133374" lon="10.372675"><ele>365.0</ele><time>2026-04-23T11:20:40.122Z</time></trkpt><trkpt lat="44.1333225" lon="10.3727437"><ele>365.0</ele><time>2026-04-23T11:20:42.105Z</time></trkpt><trkpt lat="44.1332737" lon="10.3728119"><ele>365.0</ele><time>2026-04-23T11:20:44.106Z</time></trkpt><trkpt lat="44.1332299" lon="10.3728882"><ele>365.0</ele><time>2026-04-23T11:20:46.128Z</time></trkpt><trkpt lat="44.1331919" lon="10.3729771"><ele>365.0</ele><time>2026-04-23T11:20:48.1Z</time></trkpt><trkpt lat="44.1331441" lon="10.3731085"><ele>365.0</ele><time>2026-04-23T11:20:51.126Z</time></trkpt><trkpt lat="44.1331182" lon="10.3731962"><ele>365.0</ele><time>2026-04-23T11:20:53.101Z</time></trkpt><trkpt lat="44.1330916" lon="10.3732851"><ele>364.8571428571429</ele><time>2026-04-23T11:20:55.1Z</time></trkpt><trkpt lat="44.1330686" lon="10.3733741"><ele>364.7142857142857</ele><time>2026-04-23T11:20:57.1Z</time></trkpt><trkpt lat="44.1330418" lon="10.3734674"><ele>364.57142857142856</ele><time>2026-04-23T11:20:59.11Z</time></trkpt><trkpt lat="44.1330157" lon="10.3735669"><ele>364.42857142857144</ele><time>2026-04-23T11:21:01.11Z</time></trkpt><trkpt lat="44.1329827" lon="10.3736638"><ele>364.2857142857143</ele><time>2026-04-23T11:21:03.115Z</time></trkpt><trkpt lat="44.132942" lon="10.3737536"><ele>364.14285714285717</ele><time>2026-04-23T11:21:05.114Z</time></trkpt><trkpt lat="44.1328915" lon="10.3738274"><ele>364.0</ele><time>2026-04-23T11:21:07.105Z</time></trkpt><trkpt lat="44.1328323" lon="10.373899"><ele>364.0</ele><time>2026-04-23T11:21:09.114Z</time></trkpt><trkpt lat="44.1327663" lon="10.3739503"><ele>364.0</ele><time>2026-04-23T11:21:11.113Z</time></trkpt><trkpt lat="44.1326963" lon="10.3739898"><ele>364.0</ele><time>2026-04-23T11:21:13.105Z</time></trkpt><trkpt lat="44.1326295" lon="10.3740254"><ele>364.0</ele><time>2026-04-23T11:21:15.105Z</time></trkpt><trkpt lat="44.1325641" lon="10.3740647"><ele>364.0</ele><time>2026-04-23T11:21:17.11Z</time></trkpt><trkpt lat="44.1325011" lon="10.3740865"><ele>364.0</ele><time>2026-04-23T11:21:19.11Z</time></trkpt><trkpt lat="44.1324351" lon="10.374105"><ele>364.0</ele><time>2026-04-23T11:21:21.104Z</time></trkpt><trkpt lat="44.1323658" lon="10.3741296"><ele>366.3333333333333</ele><time>2026-04-23T11:21:23.103Z</time></trkpt><trkpt lat="44.132294" lon="10.3741518"><ele>368.66666666666663</ele><time>2026-04-23T11:21:25.117Z</time></trkpt><trkpt lat="44.1321861" lon="10.3741798"><ele>371.0</ele><time>2026-04-23T11:21:28.133Z</time></trkpt><trkpt lat="44.1321134" lon="10.3742023"><ele>373.3333333333333</ele><time>2026-04-23T11:21:30.11Z</time></trkpt><trkpt lat="44.1320405" lon="10.3742345"><ele>375.6666666666667</ele><time>2026-04-23T11:21:32.109Z</time></trkpt><trkpt lat="44.1319783" lon="10.3742739"><ele>378.0</ele><time>2026-04-23T11:21:34.104Z</time></trkpt><trkpt lat="44.1319204" lon="10.3743164"><ele>378.0</ele><time>2026-04-23T11:21:36.117Z</time></trkpt><trkpt lat="44.1318625" lon="10.3743826"><ele>378.0</ele><time>2026-04-23T11:21:38.102Z</time></trkpt><trkpt lat="44.1318048" lon="10.3744513"><ele>378.0</ele><time>2026-04-23T11:21:40.108Z</time></trkpt><trkpt lat="44.1317478" lon="10.3745198"><ele>378.0</ele><time>2026-04-23T11:21:42.101Z</time></trkpt><trkpt lat="44.1316916" lon="10.3745907"><ele>378.0</ele><time>2026-04-23T11:21:44.111Z</time></trkpt><trkpt lat="44.1316377" lon="10.3746591"><ele>378.0</ele><time>2026-04-23T11:21:46.114Z</time></trkpt><trkpt lat="44.1315883" lon="10.3747277"><ele>378.0</ele><time>2026-04-23T11:21:48.105Z</time></trkpt><trkpt lat="44.1315404" lon="10.3748022"><ele>378.2857142857143</ele><time>2026-04-23T11:21:50.11Z</time></trkpt><trkpt lat="44.131491" lon="10.3748763"><ele>378.57142857142856</ele><time>2026-04-23T11:21:52.115Z</time></trkpt><trkpt lat="44.1314399" lon="10.3749497"><ele>378.8571428571429</ele><time>2026-04-23T11:21:54.106Z</time></trkpt><trkpt lat="44.1313949" lon="10.3750159"><ele>379.1428571428571</ele><time>2026-04-23T11:21:56.109Z</time></trkpt><trkpt lat="44.1313484" lon="10.3750872"><ele>379.42857142857144</ele><time>2026-04-23T11:21:58.113Z</time></trkpt><trkpt lat="44.1312995" lon="10.3751603"><ele>379.7142857142857</ele><time>2026-04-23T11:22:00.112Z</time></trkpt><trkpt lat="44.1312479" lon="10.3752235"><ele>380.0</ele><time>2026-04-23T11:22:02.119Z</time></trkpt><trkpt lat="44.1311976" lon="10.3752929"><ele>380.0</ele><time>2026-04-23T11:22:04.112Z</time></trkpt><trkpt lat="44.1311493" lon="10.3753635"><ele>380.0</ele><time>2026-04-23T11:22:06.101Z</time></trkpt><trkpt lat="44.1311009" lon="10.3754367"><ele>380.0</ele><time>2026-04-23T11:22:08.106Z</time></trkpt><trkpt lat="44.1310549" lon="10.3755121"><ele>380.0</ele><time>2026-04-23T11:22:10.132Z</time></trkpt><trkpt lat="44.1310112" lon="10.3755853"><ele>380.0</ele><time>2026-04-23T11:22:12.109Z</time></trkpt><trkpt lat="44.1309599" lon="10.3756597"><ele>380.0</ele><time>2026-04-23T11:22:14.109Z</time></trkpt><trkpt lat="44.1309088" lon="10.3757307"><ele>380.0</ele><time>2026-04-23T11:22:16.107Z</time></trkpt><trkpt lat="44.1308569" lon="10.3757969"><ele>381.1666666666667</ele><time>2026-04-23T11:22:18.102Z</time></trkpt><trkpt lat="44.1307994" lon="10.3758643"><ele>382.33333333333337</ele><time>2026-04-23T11:22:20.111Z</time></trkpt><trkpt lat="44.130743" lon="10.3759348"><ele>383.5</ele><time>2026-04-23T11:22:22.101Z</time></trkpt><trkpt lat="44.1306766" lon="10.3760068"><ele>384.6666666666667</ele><time>2026-04-23T11:22:24.102Z</time></trkpt><trkpt lat="44.1306097" lon="10.376076"><ele>385.8333333333333</ele><time>2026-04-23T11:22:26.102Z</time></trkpt><trkpt lat="44.1305046" lon="10.376173"><ele>387.0</ele><time>2026-04-23T11:22:29Z</time></trkpt><trkpt lat="44.1304234" lon="10.3762484"><ele>387.0</ele><time>2026-04-23T11:22:31Z</time></trkpt><trkpt lat="44.1303427" lon="10.376309"><ele>387.0</ele><time>2026-04-23T11:22:33Z</time></trkpt><trkpt lat="44.1302704" lon="10.3763631"><ele>387.0</ele><time>2026-04-23T11:22:35Z</time></trkpt><trkpt lat="44.1302083" lon="10.3764229"><ele>387.0</ele><time>2026-04-23T11:22:37.102Z</time></trkpt><trkpt lat="44.1301573" lon="10.3765018"><ele>387.0</ele><time>2026-04-23T11:22:39.105Z</time></trkpt><trkpt lat="44.1300972" lon="10.3766184"><ele>387.0</ele><time>2026-04-23T11:22:42Z</time></trkpt><trkpt lat="44.130063" lon="10.3766957"><ele>387.1666666666667</ele><time>2026-04-23T11:22:44Z</time></trkpt><trkpt lat="44.1300284" lon="10.3767766"><ele>387.33333333333337</ele><time>2026-04-23T11:22:46.104Z</time></trkpt><trkpt lat="44.1299893" lon="10.3768686"><ele>387.5</ele><time>2026-04-23T11:22:48.102Z</time></trkpt><trkpt lat="44.1299411" lon="10.3769673"><ele>387.6666666666667</ele><time>2026-04-23T11:22:50.109Z</time></trkpt><trkpt lat="44.1298806" lon="10.3770782"><ele>387.83333333333337</ele><time>2026-04-23T11:22:52.11Z</time></trkpt><trkpt lat="44.1298131" lon="10.3771951"><ele>388.0</ele><time>2026-04-23T11:22:54.11Z</time></trkpt><trkpt lat="44.1297285" lon="10.3773034"><ele>385.1666666666667</ele><time>2026-04-23T11:22:56.101Z</time></trkpt><trkpt lat="44.1296151" lon="10.3773673"><ele>382.33333333333337</ele><time>2026-04-23T11:22:58.102Z</time></trkpt><trkpt lat="44.1295501" lon="10.3773841"><ele>379.5</ele><time>2026-04-23T11:22:59.118Z</time></trkpt><trkpt lat="44.1294799" lon="10.3774003"><ele>376.6666666666667</ele><time>2026-04-23T11:23:00.102Z</time></trkpt><trkpt lat="44.1294086" lon="10.3774039"><ele>373.83333333333337</ele><time>2026-04-23T11:23:01.112Z</time></trkpt><trkpt lat="44.1293406" lon="10.3774162"><ele>371.0</ele><time>2026-04-23T11:23:02.105Z</time></trkpt><trkpt lat="44.1292772" lon="10.3774216"><ele>371.0</ele><time>2026-04-23T11:23:03.109Z</time></trkpt><trkpt lat="44.1292124" lon="10.37743"><ele>371.0</ele><time>2026-04-23T11:23:04.103Z</time></trkpt><trkpt lat="44.1291473" lon="10.3774385"><ele>371.0</ele><time>2026-04-23T11:23:05.106Z</time></trkpt><trkpt lat="44.1290441" lon="10.377503"><ele>371.0</ele><time>2026-04-23T11:23:07.105Z</time></trkpt><trkpt lat="44.1289808" lon="10.3776285"><ele>371.0</ele><time>2026-04-23T11:23:09.113Z</time></trkpt><trkpt lat="44.1289625" lon="10.3777817"><ele>370.6</ele><time>2026-04-23T11:23:11.105Z</time></trkpt><trkpt lat="44.1289916" lon="10.3779333"><ele>370.20000000000005</ele><time>2026-04-23T11:23:13.109Z</time></trkpt><trkpt lat="44.1290484" lon="10.3780715"><ele>369.79999999999995</ele><time>2026-04-23T11:23:15.105Z</time></trkpt><trkpt lat="44.1291265" lon="10.3781982"><ele>369.4</ele><time>2026-04-23T11:23:17.127Z</time></trkpt><trkpt lat="44.129164" lon="10.3782765"><ele>369.0</ele><time>2026-04-23T11:23:18.107Z</time></trkpt><trkpt lat="44.129201" lon="10.3783604"><ele>369.0</ele><time>2026-04-23T11:23:19.107Z</time></trkpt><trkpt lat="44.1292316" lon="10.3784468"><ele>369.0</ele><time>2026-04-23T11:23:20.1Z</time></trkpt><trkpt lat="44.1292567" lon="10.3785412"><ele>369.0</ele><time>2026-04-23T11:23:21.127Z</time></trkpt><trkpt lat="44.1292748" lon="10.3786329"><ele>369.0</ele><time>2026-04-23T11:23:22.105Z</time></trkpt><trkpt lat="44.1292805" lon="10.3787295"><ele>369.0</ele><time>2026-04-23T11:23:23.103Z</time></trkpt><trkpt lat="44.129282" lon="10.3788262"><ele>369.0</ele><time>2026-04-23T11:23:24.103Z</time></trkpt><trkpt lat="44.129281" lon="10.3790152"><ele>370.0</ele><time>2026-04-23T11:23:26.11Z</time></trkpt><trkpt lat="44.1292829" lon="10.379103"><ele>371.0</ele><time>2026-04-23T11:23:27.103Z</time></trkpt><trkpt lat="44.1292923" lon="10.3792606"><ele>372.0</ele><time>2026-04-23T11:23:29.111Z</time></trkpt><trkpt lat="44.1293244" lon="10.3794111"><ele>373.0</ele><time>2026-04-23T11:23:31.109Z</time></trkpt><trkpt lat="44.1293515" lon="10.379564"><ele>374.0</ele><time>2026-04-23T11:23:33.105Z</time></trkpt><trkpt lat="44.1293833" lon="10.3797189"><ele>374.6</ele><time>2026-04-23T11:23:35.109Z</time></trkpt><trkpt lat="44.1294181" lon="10.3798747"><ele>375.2</ele><time>2026-04-23T11:23:37.104Z</time></trkpt><trkpt lat="44.1294542" lon="10.3800378"><ele>375.8</ele><time>2026-04-23T11:23:39.108Z</time></trkpt><trkpt lat="44.129516" lon="10.3801885"><ele>376.40000000000003</ele><time>2026-04-23T11:23:41.109Z</time></trkpt><trkpt lat="44.1295607" lon="10.3802563"><ele>377.0</ele><time>2026-04-23T11:23:42.102Z</time></trkpt><trkpt lat="44.1296064" lon="10.3803273"><ele>377.0</ele><time>2026-04-23T11:23:43.106Z</time></trkpt><trkpt lat="44.129653" lon="10.3803972"><ele>377.0</ele><time>2026-04-23T11:23:44.106Z</time></trkpt><trkpt lat="44.1297" lon="10.3804676"><ele>377.0</ele><time>2026-04-23T11:23:45.111Z</time></trkpt><trkpt lat="44.1297355" lon="10.3805443"><ele>377.0</ele><time>2026-04-23T11:23:46.102Z</time></trkpt><trkpt lat="44.1297671" lon="10.3806262"><ele>377.0</ele><time>2026-04-23T11:23:47.108Z</time></trkpt><trkpt lat="44.1297854" lon="10.3807215"><ele>377.0</ele><time>2026-04-23T11:23:48.106Z</time></trkpt><trkpt lat="44.1297866" lon="10.3809111"><ele>376.1666666666667</ele><time>2026-04-23T11:23:50.107Z</time></trkpt><trkpt lat="44.1297767" lon="10.3810008"><ele>375.33333333333337</ele><time>2026-04-23T11:23:51.111Z</time></trkpt><trkpt lat="44.1297344" lon="10.3811751"><ele>374.5</ele><time>2026-04-23T11:23:53.108Z</time></trkpt><trkpt lat="44.1297149" lon="10.3812636"><ele>373.6666666666667</ele><time>2026-04-23T11:23:54.103Z</time></trkpt><trkpt lat="44.1296968" lon="10.3813582"><ele>372.8333333333333</ele><time>2026-04-23T11:23:55.107Z</time></trkpt><trkpt lat="44.1296728" lon="10.3814541"><ele>372.0</ele><time>2026-04-23T11:23:56.103Z</time></trkpt><trkpt lat="44.1296575" lon="10.3815511"><ele>371.00000000000006</ele><time>2026-04-23T11:23:57.108Z</time></trkpt><trkpt lat="44.129635" lon="10.3816449"><ele>370.0</ele><time>2026-04-23T11:23:58.106Z</time></trkpt><trkpt lat="44.1296151" lon="10.3817345"><ele>369.0</ele><time>2026-04-23T11:23:59.11Z</time></trkpt><trkpt lat="44.1295922" lon="10.3818318"><ele>368.0</ele><time>2026-04-23T11:24:00.102Z</time></trkpt><trkpt lat="44.1295713" lon="10.3819292"><ele>367.0</ele><time>2026-04-23T11:24:01.109Z</time></trkpt><trkpt lat="44.1295439" lon="10.382024"><ele>366.00000000000006</ele><time>2026-04-23T11:24:02.113Z</time></trkpt><trkpt lat="44.1295135" lon="10.3821204"><ele>365.0</ele><time>2026-04-23T11:24:03.106Z</time></trkpt><trkpt lat="44.1294723" lon="10.3822098"><ele>364.00000000000006</ele><time>2026-04-23T11:24:04.102Z</time></trkpt><trkpt lat="44.129429" lon="10.3822897"><ele>363.0</ele><time>2026-04-23T11:24:05.109Z</time></trkpt><trkpt lat="44.1293828" lon="10.3823645"><ele>362.0</ele><time>2026-04-23T11:24:06.102Z</time></trkpt><trkpt lat="44.1293283" lon="10.3824304"><ele>361.0</ele><time>2026-04-23T11:24:07.119Z</time></trkpt><trkpt lat="44.1292724" lon="10.3824978"><ele>360.0</ele><time>2026-04-23T11:24:08.114Z</time></trkpt><trkpt lat="44.1292178" lon="10.3825586"><ele>359.00000000000006</ele><time>2026-04-23T11:24:09.102Z</time></trkpt><trkpt lat="44.1291665" lon="10.3826203"><ele>358.0</ele><time>2026-04-23T11:24:10.114Z</time></trkpt><trkpt lat="44.1290684" lon="10.3827381"><ele>358.4</ele><time>2026-04-23T11:24:12.101Z</time></trkpt><trkpt lat="44.1290181" lon="10.3827929"><ele>358.79999999999995</ele><time>2026-04-23T11:24:13.114Z</time></trkpt><trkpt lat="44.1289237" lon="10.3828945"><ele>359.2</ele><time>2026-04-23T11:24:15.105Z</time></trkpt><trkpt lat="44.128831" lon="10.3829952"><ele>359.6</ele><time>2026-04-23T11:24:17.106Z</time></trkpt><trkpt lat="44.1287514" lon="10.3830806"><ele>360.0</ele><time>2026-04-23T11:24:19.107Z</time></trkpt><trkpt lat="44.1286819" lon="10.3831626"><ele>360.0</ele><time>2026-04-23T11:24:21.102Z</time></trkpt><trkpt lat="44.1286318" lon="10.3832364"><ele>360.0</ele><time>2026-04-23T11:24:23.114Z</time></trkpt><trkpt lat="44.12858" lon="10.3833113"><ele>360.0</ele><time>2026-04-23T11:24:26.1Z</time></trkpt><trkpt lat="44.1285199" lon="10.3833976"><ele>360.0</ele><time>2026-04-23T11:24:29Z</time></trkpt><trkpt lat="44.1284599" lon="10.3834926"><ele>360.0</ele><time>2026-04-23T11:24:32.113Z</time></trkpt><trkpt lat="44.1284131" lon="10.3835631"><ele>360.0</ele><time>2026-04-23T11:24:34.102Z</time></trkpt><trkpt lat="44.1283639" lon="10.3836421"><ele>360.0</ele><time>2026-04-23T11:24:36.105Z</time></trkpt><trkpt lat="44.128315" lon="10.3837295"><ele>360.0</ele><time>2026-04-23T11:24:38.102Z</time></trkpt><trkpt lat="44.1282626" lon="10.3838164"><ele>360.0</ele><time>2026-04-23T11:24:40.114Z</time></trkpt><trkpt lat="44.1282136" lon="10.3839165"><ele>360.0</ele><time>2026-04-23T11:24:42.104Z</time></trkpt><trkpt lat="44.128167" lon="10.3840173"><ele>360.0</ele><time>2026-04-23T11:24:44.106Z</time></trkpt><trkpt lat="44.1281072" lon="10.3841043"><ele>360.0</ele><time>2026-04-23T11:24:46.101Z</time></trkpt><trkpt lat="44.1280042" lon="10.3842387"><ele>359.6</ele><time>2026-04-23T11:24:49Z</time></trkpt><trkpt lat="44.1279105" lon="10.3843057"><ele>359.2</ele><time>2026-04-23T11:24:51.102Z</time></trkpt><trkpt lat="44.127797" lon="10.3843595"><ele>358.79999999999995</ele><time>2026-04-23T11:24:53.111Z</time></trkpt><trkpt lat="44.1277333" lon="10.3843828"><ele>358.4</ele><time>2026-04-23T11:24:54.102Z</time></trkpt><trkpt lat="44.1275977" lon="10.3844217"><ele>358.0</ele><time>2026-04-23T11:24:56.109Z</time></trkpt><trkpt lat="44.1275219" lon="10.3844661"><ele>358.0</ele><time>2026-04-23T11:24:57.102Z</time></trkpt><trkpt lat="44.1274491" lon="10.3845215"><ele>358.0</ele><time>2026-04-23T11:24:58.102Z</time></trkpt><trkpt lat="44.1273813" lon="10.384593"><ele>358.0</ele><time>2026-04-23T11:24:59.1Z</time></trkpt><trkpt lat="44.1273175" lon="10.3846634"><ele>358.0</ele><time>2026-04-23T11:25:00.102Z</time></trkpt><trkpt lat="44.1272579" lon="10.3847415"><ele>358.0</ele><time>2026-04-23T11:25:01.102Z</time></trkpt><trkpt lat="44.1272033" lon="10.3848126"><ele>358.0</ele><time>2026-04-23T11:25:02.103Z</time></trkpt><trkpt lat="44.1271548" lon="10.3848762"><ele>358.59999999999997</ele><time>2026-04-23T11:25:03.106Z</time></trkpt><trkpt lat="44.1271098" lon="10.3849398"><ele>359.2</ele><time>2026-04-23T11:25:04.107Z</time></trkpt><trkpt lat="44.1270669" lon="10.3850043"><ele>359.8</ele><time>2026-04-23T11:25:05.109Z</time></trkpt><trkpt lat="44.1269954" lon="10.385115"><ele>360.4</ele><time>2026-04-23T11:25:07.103Z</time></trkpt><trkpt lat="44.1269315" lon="10.3852396"><ele>361.0</ele><time>2026-04-23T11:25:09.111Z</time></trkpt><trkpt lat="44.1268477" lon="10.3854754"><ele>358.8333333333333</ele><time>2026-04-23T11:25:12.113Z</time></trkpt><trkpt lat="44.1268128" lon="10.3855598"><ele>356.66666666666663</ele><time>2026-04-23T11:25:13.111Z</time></trkpt><trkpt lat="44.1267746" lon="10.3856496"><ele>354.5</ele><time>2026-04-23T11:25:14.113Z</time></trkpt><trkpt lat="44.1267329" lon="10.3857497"><ele>352.3333333333333</ele><time>2026-04-23T11:25:15.11Z</time></trkpt><trkpt lat="44.1266897" lon="10.3858571"><ele>350.1666666666667</ele><time>2026-04-23T11:25:16.11Z</time></trkpt><trkpt lat="44.1266437" lon="10.3859714"><ele>348.0</ele><time>2026-04-23T11:25:17.111Z</time></trkpt><trkpt lat="44.1265912" lon="10.3860877"><ele>347.75</ele><time>2026-04-23T11:25:18.108Z</time></trkpt><trkpt lat="44.1265299" lon="10.3862016"><ele>347.5</ele><time>2026-04-23T11:25:19.102Z</time></trkpt><trkpt lat="44.126379" lon="10.3864014"><ele>347.25</ele><time>2026-04-23T11:25:21.11Z</time></trkpt><trkpt lat="44.1262947" lon="10.3864888"><ele>347.0</ele><time>2026-04-23T11:25:22.118Z</time></trkpt><trkpt lat="44.1262059" lon="10.3865719"><ele>347.0</ele><time>2026-04-23T11:25:23.121Z</time></trkpt><trkpt lat="44.1261136" lon="10.386646"><ele>347.0</ele><time>2026-04-23T11:25:24.102Z</time></trkpt><trkpt lat="44.1260149" lon="10.386719"><ele>347.0</ele><time>2026-04-23T11:25:25Z</time></trkpt><trkpt lat="44.1259178" lon="10.3867875"><ele>347.0</ele><time>2026-04-23T11:25:26.112Z</time></trkpt><trkpt lat="44.1258174" lon="10.3868536"><ele>347.0</ele><time>2026-04-23T11:25:27.132Z</time></trkpt><trkpt lat="44.1257199" lon="10.3869284"><ele>348.25</ele><time>2026-04-23T11:25:28.109Z</time></trkpt><trkpt lat="44.1256163" lon="10.3870055"><ele>349.5</ele><time>2026-04-23T11:25:29.12Z</time></trkpt><trkpt lat="44.1255136" lon="10.3870637"><ele>350.75</ele><time>2026-04-23T11:25:30.111Z</time></trkpt><trkpt lat="44.1254058" lon="10.3871143"><ele>352.0</ele><time>2026-04-23T11:25:31.109Z</time></trkpt><trkpt lat="44.1252969" lon="10.3871601"><ele>349.75</ele><time>2026-04-23T11:25:32.11Z</time></trkpt><trkpt lat="44.1250885" lon="10.387293"><ele>347.5</ele><time>2026-04-23T11:25:34.119Z</time></trkpt><trkpt lat="44.1249986" lon="10.3873712"><ele>345.25</ele><time>2026-04-23T11:25:35.113Z</time></trkpt><trkpt lat="44.1249105" lon="10.3874603"><ele>343.0</ele><time>2026-04-23T11:25:36.104Z</time></trkpt><trkpt lat="44.1248248" lon="10.3875467"><ele>346.4</ele><time>2026-04-23T11:25:37.117Z</time></trkpt><trkpt lat="44.1247435" lon="10.3876357"><ele>349.79999999999995</ele><time>2026-04-23T11:25:38.12Z</time></trkpt><trkpt lat="44.1246908" lon="10.3877351"><ele>353.2</ele><time>2026-04-23T11:25:39.101Z</time></trkpt><trkpt lat="44.1246479" lon="10.3878466"><ele>356.6</ele><time>2026-04-23T11:25:40.114Z</time></trkpt><trkpt lat="44.1246234" lon="10.3879558"><ele>360.0</ele><time>2026-04-23T11:25:41.112Z</time></trkpt><trkpt lat="44.1245761" lon="10.3881616"><ele>360.0</ele><time>2026-04-23T11:25:43.104Z</time></trkpt><trkpt lat="44.1245546" lon="10.3882502"><ele>360.0</ele><time>2026-04-23T11:25:44.108Z</time></trkpt><trkpt lat="44.1245358" lon="10.3883343"><ele>360.0</ele><time>2026-04-23T11:25:45.111Z</time></trkpt><trkpt lat="44.1245053" lon="10.3884799"><ele>360.0</ele><time>2026-04-23T11:25:47.103Z</time></trkpt><trkpt lat="44.1244764" lon="10.3886049"><ele>360.0</ele><time>2026-04-23T11:25:49.128Z</time></trkpt><trkpt lat="44.1244508" lon="10.3887109"><ele>360.0</ele><time>2026-04-23T11:25:51.103Z</time></trkpt><trkpt lat="44.1244315" lon="10.3888116"><ele>359.2</ele><time>2026-04-23T11:25:53.102Z</time></trkpt><trkpt lat="44.1244027" lon="10.3889309"><ele>358.4</ele><time>2026-04-23T11:25:56.102Z</time></trkpt><trkpt lat="44.1243888" lon="10.3890558"><ele>357.6</ele><time>2026-04-23T11:25:59.106Z</time></trkpt><trkpt lat="44.1243804" lon="10.3891448"><ele>356.8</ele><time>2026-04-23T11:26:01.107Z</time></trkpt><trkpt lat="44.1243624" lon="10.38931"><ele>356.0</ele><time>2026-04-23T11:26:05.105Z</time></trkpt><trkpt lat="44.1243488" lon="10.3894361"><ele>355.99999999999994</ele><time>2026-04-23T11:26:08.106Z</time></trkpt><trkpt lat="44.1243337" lon="10.3895214"><ele>356.0</ele><time>2026-04-23T11:26:10.114Z</time></trkpt><trkpt lat="44.1243012" lon="10.3896344"><ele>356.0</ele><time>2026-04-23T11:26:13.103Z</time></trkpt><trkpt lat="44.1242646" lon="10.3897081"><ele>356.0</ele><time>2026-04-23T11:26:15.103Z</time></trkpt><trkpt lat="44.1242146" lon="10.389775"><ele>356.0</ele><time>2026-04-23T11:26:17.106Z</time></trkpt><trkpt lat="44.1241443" lon="10.3898673"><ele>355.99999999999994</ele><time>2026-04-23T11:26:20.125Z</time></trkpt><trkpt lat="44.1240979" lon="10.3899319"><ele>356.0</ele><time>2026-04-23T11:26:22.107Z</time></trkpt><trkpt lat="44.1240491" lon="10.3899998"><ele>356.33333333333337</ele><time>2026-04-23T11:26:24.114Z</time></trkpt><trkpt lat="44.1239966" lon="10.3900587"><ele>356.6666666666667</ele><time>2026-04-23T11:26:26.101Z</time></trkpt><trkpt lat="44.12395" lon="10.39012"><ele>357.0</ele><time>2026-04-23T11:26:28.108Z</time></trkpt><trkpt lat="44.1239097" lon="10.3901875"><ele>357.3333333333333</ele><time>2026-04-23T11:26:30.117Z</time></trkpt><trkpt lat="44.123862" lon="10.3902951"><ele>357.66666666666663</ele><time>2026-04-23T11:26:33.104Z</time></trkpt><trkpt lat="44.1238352" lon="10.3904583"><ele>358.0</ele><time>2026-04-23T11:26:37.1Z</time></trkpt><trkpt lat="44.1238367" lon="10.3905499"><ele>358.00000000000006</ele><time>2026-04-23T11:26:39.1Z</time></trkpt><trkpt lat="44.1238511" lon="10.3906375"><ele>358.0</ele><time>2026-04-23T11:26:41.113Z</time></trkpt><trkpt lat="44.1238694" lon="10.3907247"><ele>358.0</ele><time>2026-04-23T11:26:43.112Z</time></trkpt><trkpt lat="44.1239078" lon="10.3908417"><ele>358.0</ele><time>2026-04-23T11:26:46.124Z</time></trkpt><trkpt lat="44.1239437" lon="10.3909588"><ele>358.0</ele><time>2026-04-23T11:26:49.106Z</time></trkpt><trkpt lat="44.1239688" lon="10.3910405"><ele>358.00000000000006</ele><time>2026-04-23T11:26:51.108Z</time></trkpt><trkpt lat="44.1239959" lon="10.3911211"><ele>358.0</ele><time>2026-04-23T11:26:53.111Z</time></trkpt><trkpt lat="44.1240444" lon="10.3912338"><ele>357.7142857142857</ele><time>2026-04-23T11:26:56.106Z</time></trkpt><trkpt lat="44.1240786" lon="10.3913084"><ele>357.42857142857144</ele><time>2026-04-23T11:26:58.107Z</time></trkpt><trkpt lat="44.1241135" lon="10.3913864"><ele>357.1428571428571</ele><time>2026-04-23T11:27:00.104Z</time></trkpt><trkpt lat="44.1241595" lon="10.3914535"><ele>356.8571428571429</ele><time>2026-04-23T11:27:02.108Z</time></trkpt><trkpt lat="44.1242021" lon="10.3915188"><ele>356.57142857142856</ele><time>2026-04-23T11:27:04.105Z</time></trkpt><trkpt lat="44.1242481" lon="10.3915804"><ele>356.2857142857143</ele><time>2026-04-23T11:27:06.115Z</time></trkpt><trkpt lat="44.124316" lon="10.3916735"><ele>356.0</ele><time>2026-04-23T11:27:09.11Z</time></trkpt><trkpt lat="44.124381" lon="10.3917568"><ele>356.0</ele><time>2026-04-23T11:27:12.106Z</time></trkpt><trkpt lat="44.1244374" lon="10.3918409"><ele>356.0</ele><time>2026-04-23T11:27:15.108Z</time></trkpt><trkpt lat="44.1244757" lon="10.3919215"><ele>356.0</ele><time>2026-04-23T11:27:17.11Z</time></trkpt><trkpt lat="44.1244977" lon="10.3920445"><ele>356.0</ele><time>2026-04-23T11:27:19.11Z</time></trkpt><trkpt lat="44.1244606" lon="10.3921783"><ele>356.0</ele><time>2026-04-23T11:27:21.115Z</time></trkpt><trkpt lat="44.1243555" lon="10.3922636"><ele>354.0</ele><time>2026-04-23T11:27:23.107Z</time></trkpt><trkpt lat="44.12429" lon="10.3922799"><ele>352.0</ele><time>2026-04-23T11:27:24.107Z</time></trkpt><trkpt lat="44.1242213" lon="10.3922681"><ele>350.0</ele><time>2026-04-23T11:27:25.101Z</time></trkpt><trkpt lat="44.1241455" lon="10.3922563"><ele>348.0</ele><time>2026-04-23T11:27:26.104Z</time></trkpt><trkpt lat="44.1240705" lon="10.3922451"><ele>346.0</ele><time>2026-04-23T11:27:27.114Z</time></trkpt><trkpt lat="44.1239926" lon="10.3922402"><ele>344.0</ele><time>2026-04-23T11:27:28.111Z</time></trkpt><trkpt lat="44.1238299" lon="10.392227"><ele>343.1666666666667</ele><time>2026-04-23T11:27:30.103Z</time></trkpt><trkpt lat="44.1237463" lon="10.3922171"><ele>342.33333333333337</ele><time>2026-04-23T11:27:31.108Z</time></trkpt><trkpt lat="44.1236593" lon="10.3922029"><ele>341.5</ele><time>2026-04-23T11:27:32.101Z</time></trkpt><trkpt lat="44.1235759" lon="10.3921866"><ele>340.6666666666667</ele><time>2026-04-23T11:27:33.113Z</time></trkpt><trkpt lat="44.1234864" lon="10.3921793"><ele>339.8333333333333</ele><time>2026-04-23T11:27:34.107Z</time></trkpt><trkpt lat="44.1233988" lon="10.392168"><ele>339.0</ele><time>2026-04-23T11:27:35.103Z</time></trkpt><trkpt lat="44.1233132" lon="10.3921169"><ele>341.0</ele><time>2026-04-23T11:27:36.102Z</time></trkpt><trkpt lat="44.1232411" lon="10.3920496"><ele>343.0</ele><time>2026-04-23T11:27:37.112Z</time></trkpt><trkpt lat="44.1231668" lon="10.3919804"><ele>345.0</ele><time>2026-04-23T11:27:38.114Z</time></trkpt><trkpt lat="44.1230896" lon="10.3919289"><ele>347.0</ele><time>2026-04-23T11:27:39.111Z</time></trkpt><trkpt lat="44.1230076" lon="10.3919046"><ele>349.0</ele><time>2026-04-23T11:27:40.113Z</time></trkpt><trkpt lat="44.1229276" lon="10.3919019"><ele>351.0</ele><time>2026-04-23T11:27:41.108Z</time></trkpt><trkpt lat="44.1228487" lon="10.3919136"><ele>351.0</ele><time>2026-04-23T11:27:42.106Z</time></trkpt><trkpt lat="44.1227721" lon="10.3919339"><ele>351.0</ele><time>2026-04-23T11:27:43.111Z</time></trkpt><trkpt lat="44.1226974" lon="10.3919668"><ele>351.0</ele><time>2026-04-23T11:27:44.106Z</time></trkpt><trkpt lat="44.1226254" lon="10.3920088"><ele>351.0</ele><time>2026-04-23T11:27:45.107Z</time></trkpt><trkpt lat="44.1225632" lon="10.3920724"><ele>351.0</ele><time>2026-04-23T11:27:46.109Z</time></trkpt><trkpt lat="44.1224905" lon="10.3921576"><ele>351.0</ele><time>2026-04-23T11:27:47.113Z</time></trkpt><trkpt lat="44.1224237" lon="10.3922503"><ele>350.4</ele><time>2026-04-23T11:27:48.104Z</time></trkpt><trkpt lat="44.1223561" lon="10.3923551"><ele>349.8</ele><time>2026-04-23T11:27:49.112Z</time></trkpt><trkpt lat="44.1222945" lon="10.3924561"><ele>349.2</ele><time>2026-04-23T11:27:50.114Z</time></trkpt><trkpt lat="44.122234" lon="10.3925599"><ele>348.59999999999997</ele><time>2026-04-23T11:27:51.114Z</time></trkpt><trkpt lat="44.1221713" lon="10.3926629"><ele>348.0</ele><time>2026-04-23T11:27:52.108Z</time></trkpt><trkpt lat="44.1221114" lon="10.3927606"><ele>348.0</ele><time>2026-04-23T11:27:53.11Z</time></trkpt><trkpt lat="44.1220563" lon="10.3928599"><ele>348.0</ele><time>2026-04-23T11:27:54.104Z</time></trkpt><trkpt lat="44.1219976" lon="10.3929495"><ele>348.0</ele><time>2026-04-23T11:27:55.109Z</time></trkpt><trkpt lat="44.1219382" lon="10.393046"><ele>348.0</ele><time>2026-04-23T11:27:56.118Z</time></trkpt><trkpt lat="44.1218751" lon="10.3931357"><ele>348.0</ele><time>2026-04-23T11:27:57.119Z</time></trkpt><trkpt lat="44.1218046" lon="10.3932165"><ele>346.75</ele><time>2026-04-23T11:27:58.102Z</time></trkpt><trkpt lat="44.1216272" lon="10.3933709"><ele>345.5</ele><time>2026-04-23T11:28:00.104Z</time></trkpt><trkpt lat="44.1215402" lon="10.3934467"><ele>344.25</ele><time>2026-04-23T11:28:01.109Z</time></trkpt><trkpt lat="44.12143" lon="10.3935483"><ele>343.0</ele><time>2026-04-23T11:28:02.124Z</time></trkpt><trkpt lat="44.1213257" lon="10.3936429"><ele>343.0</ele><time>2026-04-23T11:28:03.118Z</time></trkpt><trkpt lat="44.1212089" lon="10.3937246"><ele>343.0</ele><time>2026-04-23T11:28:04.102Z</time></trkpt><trkpt lat="44.1210908" lon="10.3937846"><ele>343.0</ele><time>2026-04-23T11:28:05.112Z</time></trkpt><trkpt lat="44.1209741" lon="10.3938277"><ele>343.0</ele><time>2026-04-23T11:28:06.1Z</time></trkpt><trkpt lat="44.1208539" lon="10.3938483"><ele>341.75</ele><time>2026-04-23T11:28:07.119Z</time></trkpt><trkpt lat="44.1207231" lon="10.3938485"><ele>340.5</ele><time>2026-04-23T11:28:08.12Z</time></trkpt><trkpt lat="44.1206065" lon="10.3938248"><ele>339.25</ele><time>2026-04-23T11:28:09.112Z</time></trkpt><trkpt lat="44.1204905" lon="10.3937868"><ele>338.0</ele><time>2026-04-23T11:28:10.114Z</time></trkpt><trkpt lat="44.1203751" lon="10.3937454"><ele>338.0</ele><time>2026-04-23T11:28:11.113Z</time></trkpt><trkpt lat="44.120262" lon="10.3937"><ele>338.0</ele><time>2026-04-23T11:28:12.105Z</time></trkpt><trkpt lat="44.1201494" lon="10.3936525"><ele>338.0</ele><time>2026-04-23T11:28:13.103Z</time></trkpt><trkpt lat="44.1200367" lon="10.3936045"><ele>338.0</ele><time>2026-04-23T11:28:14.112Z</time></trkpt><trkpt lat="44.1199316" lon="10.3935532"><ele>337.4</ele><time>2026-04-23T11:28:15.112Z</time></trkpt><trkpt lat="44.1198326" lon="10.3935107"><ele>336.79999999999995</ele><time>2026-04-23T11:28:16.11Z</time></trkpt><trkpt lat="44.1197356" lon="10.3934952"><ele>336.2</ele><time>2026-04-23T11:28:17.112Z</time></trkpt><trkpt lat="44.1196455" lon="10.393503"><ele>335.6</ele><time>2026-04-23T11:28:18.113Z</time></trkpt><trkpt lat="44.1195611" lon="10.3935513"><ele>335.0</ele><time>2026-04-23T11:28:19.111Z</time></trkpt><trkpt lat="44.1194797" lon="10.3936062"><ele>335.0</ele><time>2026-04-23T11:28:20.107Z</time></trkpt><trkpt lat="44.1193974" lon="10.393664"><ele>335.0</ele><time>2026-04-23T11:28:21.104Z</time></trkpt><trkpt lat="44.1193123" lon="10.393722"><ele>335.0</ele><time>2026-04-23T11:28:22.111Z</time></trkpt><trkpt lat="44.1192309" lon="10.3937687"><ele>335.0</ele><time>2026-04-23T11:28:23.108Z</time></trkpt><trkpt lat="44.1191501" lon="10.3938253"><ele>335.0</ele><time>2026-04-23T11:28:24.107Z</time></trkpt><trkpt lat="44.1190763" lon="10.3938961"><ele>332.1666666666667</ele><time>2026-04-23T11:28:25.108Z</time></trkpt><trkpt lat="44.1190077" lon="10.3939762"><ele>329.33333333333337</ele><time>2026-04-23T11:28:26.114Z</time></trkpt><trkpt lat="44.1189464" lon="10.3940688"><ele>326.5</ele><time>2026-04-23T11:28:27.112Z</time></trkpt><trkpt lat="44.1188912" lon="10.3941673"><ele>323.6666666666667</ele><time>2026-04-23T11:28:28.107Z</time></trkpt><trkpt lat="44.1188367" lon="10.3942694"><ele>320.8333333333333</ele><time>2026-04-23T11:28:29.113Z</time></trkpt><trkpt lat="44.1187923" lon="10.394367"><ele>318.0</ele><time>2026-04-23T11:28:30.114Z</time></trkpt><trkpt lat="44.1187505" lon="10.3944738"><ele>318.0</ele><time>2026-04-23T11:28:31.106Z</time></trkpt><trkpt lat="44.1187107" lon="10.3945717"><ele>318.0</ele><time>2026-04-23T11:28:32.109Z</time></trkpt><trkpt lat="44.1186661" lon="10.3946838"><ele>318.0</ele><time>2026-04-23T11:28:33.109Z</time></trkpt><trkpt lat="44.1186048" lon="10.3947738"><ele>318.0</ele><time>2026-04-23T11:28:34.106Z</time></trkpt><trkpt lat="44.1185295" lon="10.3948444"><ele>318.0</ele><time>2026-04-23T11:28:35.112Z</time></trkpt><trkpt lat="44.1184377" lon="10.39489"><ele>317.4</ele><time>2026-04-23T11:28:36.107Z</time></trkpt><trkpt lat="44.1183369" lon="10.3948993"><ele>316.8</ele><time>2026-04-23T11:28:37.104Z</time></trkpt><trkpt lat="44.118235" lon="10.3948701"><ele>316.2</ele><time>2026-04-23T11:28:38.118Z</time></trkpt><trkpt lat="44.1181405" lon="10.3947967"><ele>315.6</ele><time>2026-04-23T11:28:39.109Z</time></trkpt><trkpt lat="44.1180519" lon="10.3947084"><ele>315.0</ele><time>2026-04-23T11:28:40.105Z</time></trkpt><trkpt lat="44.1179545" lon="10.3946411"><ele>316.4</ele><time>2026-04-23T11:28:41.103Z</time></trkpt><trkpt lat="44.1178554" lon="10.3945802"><ele>317.8</ele><time>2026-04-23T11:28:42.104Z</time></trkpt><trkpt lat="44.1177539" lon="10.3945736"><ele>319.20000000000005</ele><time>2026-04-23T11:28:43.103Z</time></trkpt><trkpt lat="44.1176548" lon="10.3946117"><ele>320.6</ele><time>2026-04-23T11:28:44.114Z</time></trkpt><trkpt lat="44.1175796" lon="10.3946872"><ele>322.0</ele><time>2026-04-23T11:28:45.103Z</time></trkpt><trkpt lat="44.1175308" lon="10.3947972"><ele>322.0</ele><time>2026-04-23T11:28:46.123Z</time></trkpt><trkpt lat="44.117507" lon="10.394918"><ele>322.0</ele><time>2026-04-23T11:28:47.111Z</time></trkpt><trkpt lat="44.1174959" lon="10.3950323"><ele>322.0</ele><time>2026-04-23T11:28:48.111Z</time></trkpt><trkpt lat="44.1174857" lon="10.3951454"><ele>322.0</ele><time>2026-04-23T11:28:49.132Z</time></trkpt><trkpt lat="44.1174796" lon="10.3952542"><ele>322.0</ele><time>2026-04-23T11:28:50.105Z</time></trkpt><trkpt lat="44.1174726" lon="10.3953482"><ele>322.0</ele><time>2026-04-23T11:28:51.11Z</time></trkpt><trkpt lat="44.1174628" lon="10.3954412"><ele>321.20000000000005</ele><time>2026-04-23T11:28:52.102Z</time></trkpt><trkpt lat="44.1174411" lon="10.3955933"><ele>320.40000000000003</ele><time>2026-04-23T11:28:54.111Z</time></trkpt><trkpt lat="44.1174232" lon="10.3957219"><ele>319.6</ele><time>2026-04-23T11:28:56.106Z</time></trkpt><trkpt lat="44.1174105" lon="10.3958331"><ele>318.8</ele><time>2026-04-23T11:28:58.104Z</time></trkpt><trkpt lat="44.117408" lon="10.3959238"><ele>318.0</ele><time>2026-04-23T11:29:00Z</time></trkpt><trkpt lat="44.1173862" lon="10.3960742"><ele>319.1428571428571</ele><time>2026-04-23T11:29:04Z</time></trkpt><trkpt lat="44.1173676" lon="10.3961891"><ele>320.28571428571433</ele><time>2026-04-23T11:29:07.1Z</time></trkpt><trkpt lat="44.1173404" lon="10.3962715"><ele>321.42857142857144</ele><time>2026-04-23T11:29:09.104Z</time></trkpt><trkpt lat="44.1173092" lon="10.3963582"><ele>322.57142857142856</ele><time>2026-04-23T11:29:11.121Z</time></trkpt><trkpt lat="44.1172687" lon="10.3964349"><ele>323.71428571428567</ele><time>2026-04-23T11:29:13.104Z</time></trkpt><trkpt lat="44.1172213" lon="10.396495"><ele>324.8571428571429</ele><time>2026-04-23T11:29:15.114Z</time></trkpt><trkpt lat="44.1171594" lon="10.3965321"><ele>326.0</ele><time>2026-04-23T11:29:17.105Z</time></trkpt><trkpt lat="44.117066" lon="10.3965801"><ele>326.0</ele><time>2026-04-23T11:29:20.112Z</time></trkpt><trkpt lat="44.117006" lon="10.396623"><ele>326.0</ele><time>2026-04-23T11:29:22.111Z</time></trkpt><trkpt lat="44.1169461" lon="10.3966623"><ele>326.0</ele><time>2026-04-23T11:29:24.105Z</time></trkpt><trkpt lat="44.1168852" lon="10.3967016"><ele>326.0</ele><time>2026-04-23T11:29:26.102Z</time></trkpt><trkpt lat="44.1168254" lon="10.3967402"><ele>326.0</ele><time>2026-04-23T11:29:28.122Z</time></trkpt><trkpt lat="44.1167454" lon="10.3968005"><ele>326.0</ele><time>2026-04-23T11:29:31.103Z</time></trkpt><trkpt lat="44.1166683" lon="10.3968683"><ele>326.0</ele><time>2026-04-23T11:29:34.114Z</time></trkpt><trkpt lat="44.116615" lon="10.396925"><ele>325.0</ele><time>2026-04-23T11:29:36.113Z</time></trkpt><trkpt lat="44.1165609" lon="10.3969783"><ele>324.0</ele><time>2026-04-23T11:29:38.121Z</time></trkpt><trkpt lat="44.1165094" lon="10.3970347"><ele>323.0</ele><time>2026-04-23T11:29:40.114Z</time></trkpt><trkpt lat="44.1164543" lon="10.3970988"><ele>322.0</ele><time>2026-04-23T11:29:42.113Z</time></trkpt><trkpt lat="44.1163922" lon="10.3971669"><ele>321.0</ele><time>2026-04-23T11:29:44.106Z</time></trkpt><trkpt lat="44.1163193" lon="10.3972264"><ele>320.0</ele><time>2026-04-23T11:29:46.108Z</time></trkpt><trkpt lat="44.1162289" lon="10.3972475"><ele>320.0</ele><time>2026-04-23T11:29:48.11Z</time></trkpt><trkpt lat="44.1161417" lon="10.3972252"><ele>320.0</ele><time>2026-04-23T11:29:50.115Z</time></trkpt><trkpt lat="44.1160526" lon="10.3971918"><ele>320.0</ele><time>2026-04-23T11:29:52.129Z</time></trkpt><trkpt lat="44.1159574" lon="10.3971697"><ele>320.0</ele><time>2026-04-23T11:29:54.113Z</time></trkpt><trkpt lat="44.1158676" lon="10.3971663"><ele>320.0</ele><time>2026-04-23T11:29:56.106Z</time></trkpt><trkpt lat="44.115778" lon="10.3972007"><ele>324.6</ele><time>2026-04-23T11:29:58.11Z</time></trkpt><trkpt lat="44.1156999" lon="10.3972654"><ele>329.2</ele><time>2026-04-23T11:30:00.108Z</time></trkpt><trkpt lat="44.1156247" lon="10.3973646"><ele>333.79999999999995</ele><time>2026-04-23T11:30:02.101Z</time></trkpt><trkpt lat="44.1155424" lon="10.3974821"><ele>338.4</ele><time>2026-04-23T11:30:04.107Z</time></trkpt><trkpt lat="44.1154587" lon="10.3975997"><ele>343.0</ele><time>2026-04-23T11:30:06.115Z</time></trkpt><trkpt lat="44.1153713" lon="10.3977202"><ele>343.0</ele><time>2026-04-23T11:30:08.108Z</time></trkpt><trkpt lat="44.1152855" lon="10.3978412"><ele>343.0</ele><time>2026-04-23T11:30:10.115Z</time></trkpt><trkpt lat="44.1152357" lon="10.3979086"><ele>343.0</ele><time>2026-04-23T11:30:11.11Z</time></trkpt><trkpt lat="44.1151883" lon="10.397975"><ele>343.0</ele><time>2026-04-23T11:30:12.114Z</time></trkpt><trkpt lat="44.1150957" lon="10.3981058"><ele>343.0</ele><time>2026-04-23T11:30:14.115Z</time></trkpt><trkpt lat="44.1150477" lon="10.3981695"><ele>341.85714285714283</ele><time>2026-04-23T11:30:15.111Z</time></trkpt><trkpt lat="44.1149991" lon="10.39823"><ele>340.7142857142857</ele><time>2026-04-23T11:30:16.111Z</time></trkpt><trkpt lat="44.1149455" lon="10.3983028"><ele>339.57142857142856</ele><time>2026-04-23T11:30:17.111Z</time></trkpt><trkpt lat="44.1148961" lon="10.3983739"><ele>338.42857142857144</ele><time>2026-04-23T11:30:18.112Z</time></trkpt><trkpt lat="44.1148451" lon="10.3984466"><ele>337.2857142857143</ele><time>2026-04-23T11:30:19.116Z</time></trkpt><trkpt lat="44.1147964" lon="10.3985161"><ele>336.1428571428571</ele><time>2026-04-23T11:30:20.105Z</time></trkpt><trkpt lat="44.1147502" lon="10.3985909"><ele>335.0</ele><time>2026-04-23T11:30:21.109Z</time></trkpt><trkpt lat="44.114708" lon="10.3986717"><ele>335.0</ele><time>2026-04-23T11:30:22.117Z</time></trkpt><trkpt lat="44.1146668" lon="10.3987592"><ele>335.0</ele><time>2026-04-23T11:30:23.108Z</time></trkpt><trkpt lat="44.1146241" lon="10.3988511"><ele>335.0</ele><time>2026-04-23T11:30:24.105Z</time></trkpt><trkpt lat="44.1145827" lon="10.3989403"><ele>335.0</ele><time>2026-04-23T11:30:25.125Z</time></trkpt><trkpt lat="44.114539" lon="10.3990284"><ele>335.0</ele><time>2026-04-23T11:30:26.102Z</time></trkpt><trkpt lat="44.1144375" lon="10.399199"><ele>336.33333333333337</ele><time>2026-04-23T11:30:28.111Z</time></trkpt><trkpt lat="44.1143756" lon="10.399274"><ele>337.6666666666667</ele><time>2026-04-23T11:30:29.1Z</time></trkpt><trkpt lat="44.1143016" lon="10.3993385"><ele>339.0</ele><time>2026-04-23T11:30:30.105Z</time></trkpt><trkpt lat="44.1142264" lon="10.3993939"><ele>340.3333333333333</ele><time>2026-04-23T11:30:31.108Z</time></trkpt><trkpt lat="44.1141495" lon="10.3994359"><ele>341.66666666666663</ele><time>2026-04-23T11:30:32.101Z</time></trkpt><trkpt lat="44.1140697" lon="10.399466"><ele>343.0</ele><time>2026-04-23T11:30:33.113Z</time></trkpt><trkpt lat="44.113995" lon="10.3994997"><ele>343.0</ele><time>2026-04-23T11:30:34.118Z</time></trkpt><trkpt lat="44.1139194" lon="10.3995377"><ele>343.0</ele><time>2026-04-23T11:30:35.117Z</time></trkpt><trkpt lat="44.1138467" lon="10.3995888"><ele>343.0</ele><time>2026-04-23T11:30:36.114Z</time></trkpt><trkpt lat="44.113783" lon="10.3996558"><ele>343.0</ele><time>2026-04-23T11:30:37.113Z</time></trkpt><trkpt lat="44.113732" lon="10.3997362"><ele>343.0</ele><time>2026-04-23T11:30:38.11Z</time></trkpt><trkpt lat="44.1136858" lon="10.3998307"><ele>343.0</ele><time>2026-04-23T11:30:39.118Z</time></trkpt><trkpt lat="44.1136471" lon="10.3999236"><ele>339.16666666666663</ele><time>2026-04-23T11:30:40.103Z</time></trkpt><trkpt lat="44.1136103" lon="10.4000194"><ele>335.3333333333333</ele><time>2026-04-23T11:30:41.108Z</time></trkpt><trkpt lat="44.1135745" lon="10.4001125"><ele>331.5</ele><time>2026-04-23T11:30:42.105Z</time></trkpt><trkpt lat="44.1135308" lon="10.400206"><ele>327.6666666666667</ele><time>2026-04-23T11:30:43.101Z</time></trkpt><trkpt lat="44.1134906" lon="10.4003047"><ele>323.83333333333337</ele><time>2026-04-23T11:30:44.111Z</time></trkpt><trkpt lat="44.1134512" lon="10.400405"><ele>320.0</ele><time>2026-04-23T11:30:45.111Z</time></trkpt><trkpt lat="44.1134092" lon="10.4005001"><ele>321.0</ele><time>2026-04-23T11:30:46.115Z</time></trkpt><trkpt lat="44.1133649" lon="10.4006019"><ele>322.0</ele><time>2026-04-23T11:30:47.117Z</time></trkpt><trkpt lat="44.1133205" lon="10.4007007"><ele>323.0</ele><time>2026-04-23T11:30:48.114Z</time></trkpt><trkpt lat="44.1132746" lon="10.400793"><ele>324.0</ele><time>2026-04-23T11:30:49.105Z</time></trkpt><trkpt lat="44.1132296" lon="10.4008849"><ele>325.0</ele><time>2026-04-23T11:30:50.106Z</time></trkpt><trkpt lat="44.1131898" lon="10.4009825"><ele>326.0</ele><time>2026-04-23T11:30:51.115Z</time></trkpt><trkpt lat="44.1131482" lon="10.4010758"><ele>326.0</ele><time>2026-04-23T11:30:52.105Z</time></trkpt><trkpt lat="44.1131023" lon="10.401173"><ele>326.0</ele><time>2026-04-23T11:30:53.108Z</time></trkpt><trkpt lat="44.11306" lon="10.4012736"><ele>326.0</ele><time>2026-04-23T11:30:54.114Z</time></trkpt><trkpt lat="44.1130132" lon="10.4013696"><ele>326.0</ele><time>2026-04-23T11:30:55.121Z</time></trkpt><trkpt lat="44.1129673" lon="10.4014672"><ele>326.0</ele><time>2026-04-23T11:30:56.108Z</time></trkpt><trkpt lat="44.112925" lon="10.4015621"><ele>326.0</ele><time>2026-04-23T11:30:57.109Z</time></trkpt><trkpt lat="44.1128451" lon="10.4017436"><ele>323.6666666666667</ele><time>2026-04-23T11:30:59.107Z</time></trkpt><trkpt lat="44.1128066" lon="10.4018363"><ele>321.33333333333337</ele><time>2026-04-23T11:31:00.109Z</time></trkpt><trkpt lat="44.1127621" lon="10.4019287"><ele>319.0</ele><time>2026-04-23T11:31:01.108Z</time></trkpt><trkpt lat="44.1127221" lon="10.4020251"><ele>316.6666666666667</ele><time>2026-04-23T11:31:02.11Z</time></trkpt><trkpt lat="44.1126793" lon="10.4021147"><ele>314.3333333333333</ele><time>2026-04-23T11:31:03.11Z</time></trkpt><trkpt lat="44.1126352" lon="10.4022029"><ele>312.0</ele><time>2026-04-23T11:31:04.112Z</time></trkpt><trkpt lat="44.1125857" lon="10.4022871"><ele>310.8333333333333</ele><time>2026-04-23T11:31:05.112Z</time></trkpt><trkpt lat="44.1125295" lon="10.4023611"><ele>309.6666666666667</ele><time>2026-04-23T11:31:06.107Z</time></trkpt><trkpt lat="44.1124738" lon="10.4024248"><ele>308.5</ele><time>2026-04-23T11:31:07.104Z</time></trkpt><trkpt lat="44.1124141" lon="10.4024885"><ele>307.33333333333337</ele><time>2026-04-23T11:31:08.113Z</time></trkpt><trkpt lat="44.1123569" lon="10.4025577"><ele>306.1666666666667</ele><time>2026-04-23T11:31:09.119Z</time></trkpt><trkpt lat="44.1122914" lon="10.4026192"><ele>305.0</ele><time>2026-04-23T11:31:10.113Z</time></trkpt><trkpt lat="44.1122254" lon="10.4026795"><ele>305.1666666666667</ele><time>2026-04-23T11:31:11.106Z</time></trkpt><trkpt lat="44.1121578" lon="10.4027375"><ele>305.33333333333337</ele><time>2026-04-23T11:31:12.118Z</time></trkpt><trkpt lat="44.1120942" lon="10.4028051"><ele>305.5</ele><time>2026-04-23T11:31:13.113Z</time></trkpt><trkpt lat="44.112035" lon="10.4028713"><ele>305.6666666666667</ele><time>2026-04-23T11:31:14.132Z</time></trkpt><trkpt lat="44.1119729" lon="10.4029305"><ele>305.8333333333333</ele><time>2026-04-23T11:31:15.111Z</time></trkpt><trkpt lat="44.1119134" lon="10.402993"><ele>306.0</ele><time>2026-04-23T11:31:16.107Z</time></trkpt><trkpt lat="44.1118558" lon="10.4030671"><ele>306.0</ele><time>2026-04-23T11:31:17.104Z</time></trkpt><trkpt lat="44.1118024" lon="10.4031608"><ele>306.0</ele><time>2026-04-23T11:31:18.113Z</time></trkpt><trkpt lat="44.111781" lon="10.4032492"><ele>306.0</ele><time>2026-04-23T11:31:19.117Z</time></trkpt><trkpt lat="44.1117572" lon="10.4033453"><ele>306.0</ele><time>2026-04-23T11:31:20.107Z</time></trkpt><trkpt lat="44.1117289" lon="10.4034374"><ele>306.0</ele><time>2026-04-23T11:31:21.123Z</time></trkpt><trkpt lat="44.1117014" lon="10.40353"><ele>306.0</ele><time>2026-04-23T11:31:22.109Z</time></trkpt><trkpt lat="44.1116741" lon="10.4036283"><ele>306.0</ele><time>2026-04-23T11:31:23.117Z</time></trkpt><trkpt lat="44.1116456" lon="10.4037265"><ele>306.0</ele><time>2026-04-23T11:31:24.118Z</time></trkpt><trkpt lat="44.1116117" lon="10.4038171"><ele>306.0</ele><time>2026-04-23T11:31:25.115Z</time></trkpt><trkpt lat="44.1115798" lon="10.4039123"><ele>306.0</ele><time>2026-04-23T11:31:26.111Z</time></trkpt><trkpt lat="44.1115506" lon="10.4040142"><ele>306.0</ele><time>2026-04-23T11:31:27.114Z</time></trkpt><trkpt lat="44.1115175" lon="10.4041076"><ele>306.0</ele><time>2026-04-23T11:31:28.111Z</time></trkpt><trkpt lat="44.1114876" lon="10.4042008"><ele>306.0</ele><time>2026-04-23T11:31:29.115Z</time></trkpt><trkpt lat="44.1114593" lon="10.404296"><ele>305.8333333333333</ele><time>2026-04-23T11:31:30.114Z</time></trkpt><trkpt lat="44.1114256" lon="10.4043853"><ele>305.6666666666667</ele><time>2026-04-23T11:31:31.102Z</time></trkpt><trkpt lat="44.1113847" lon="10.4044643"><ele>305.5</ele><time>2026-04-23T11:31:32.113Z</time></trkpt><trkpt lat="44.1113432" lon="10.4045365"><ele>305.33333333333337</ele><time>2026-04-23T11:31:33.105Z</time></trkpt><trkpt lat="44.1112673" lon="10.4046647"><ele>305.1666666666667</ele><time>2026-04-23T11:31:35.111Z</time></trkpt><trkpt lat="44.1112136" lon="10.4047808"><ele>305.0</ele><time>2026-04-23T11:31:37.114Z</time></trkpt><trkpt lat="44.1112301" lon="10.4048664"><ele>305.0</ele><time>2026-04-23T11:31:38.123Z</time></trkpt><trkpt lat="44.1113068" lon="10.4049878"><ele>305.0</ele><time>2026-04-23T11:31:40.114Z</time></trkpt><trkpt lat="44.1114323" lon="10.4049947"><ele>305.0</ele><time>2026-04-23T11:31:42.118Z</time></trkpt><trkpt lat="44.111493" lon="10.4049519"><ele>305.0</ele><time>2026-04-23T11:31:43.114Z</time></trkpt><trkpt lat="44.1115488" lon="10.4048816"><ele>305.0</ele><time>2026-04-23T11:31:44.105Z</time></trkpt><trkpt lat="44.1115974" lon="10.4048007"><ele>303.6666666666667</ele><time>2026-04-23T11:31:45.109Z</time></trkpt><trkpt lat="44.1116453" lon="10.4047198"><ele>302.33333333333337</ele><time>2026-04-23T11:31:46.114Z</time></trkpt><trkpt lat="44.1117014" lon="10.4046417"><ele>301.0</ele><time>2026-04-23T11:31:47.108Z</time></trkpt><trkpt lat="44.1117546" lon="10.404569"><ele>299.6666666666667</ele><time>2026-04-23T11:31:48.111Z</time></trkpt><trkpt lat="44.1118096" lon="10.404496"><ele>298.3333333333333</ele><time>2026-04-23T11:31:49.113Z</time></trkpt><trkpt lat="44.1118632" lon="10.4044319"><ele>297.0</ele><time>2026-04-23T11:31:50.112Z</time></trkpt><trkpt lat="44.1119218" lon="10.4043631"><ele>297.0</ele><time>2026-04-23T11:31:51.115Z</time></trkpt><trkpt lat="44.1119862" lon="10.4042959"><ele>297.0</ele><time>2026-04-23T11:31:52.108Z</time></trkpt><trkpt lat="44.1120437" lon="10.4042303"><ele>297.0</ele><time>2026-04-23T11:31:53.116Z</time></trkpt><trkpt lat="44.1121078" lon="10.4041669"><ele>297.0</ele><time>2026-04-23T11:31:54.106Z</time></trkpt><trkpt lat="44.1121748" lon="10.4041054"><ele>297.0</ele><time>2026-04-23T11:31:55.113Z</time></trkpt><trkpt lat="44.1122386" lon="10.404031"><ele>297.0</ele><time>2026-04-23T11:31:56.116Z</time></trkpt><trkpt lat="44.1123014" lon="10.4039471"><ele>297.0</ele><time>2026-04-23T11:31:57.117Z</time></trkpt><trkpt lat="44.1123605" lon="10.4038543"><ele>297.0</ele><time>2026-04-23T11:31:58.108Z</time></trkpt><trkpt lat="44.1124238" lon="10.4037611"><ele>297.0</ele><time>2026-04-23T11:31:59.112Z</time></trkpt><trkpt lat="44.1124859" lon="10.4036609"><ele>297.0</ele><time>2026-04-23T11:32:00.109Z</time></trkpt><trkpt lat="44.112542" lon="10.4035656"><ele>297.0</ele><time>2026-04-23T11:32:01.108Z</time></trkpt><trkpt lat="44.1126061" lon="10.4034667"><ele>296.6</ele><time>2026-04-23T11:32:02.113Z</time></trkpt><trkpt lat="44.1126771" lon="10.4033648"><ele>296.2</ele><time>2026-04-23T11:32:03.109Z</time></trkpt><trkpt lat="44.1127511" lon="10.403265"><ele>295.8</ele><time>2026-04-23T11:32:04.11Z</time></trkpt><trkpt lat="44.1128343" lon="10.4031763"><ele>295.4</ele><time>2026-04-23T11:32:05.113Z</time></trkpt><trkpt lat="44.1129344" lon="10.4030905"><ele>295.0</ele><time>2026-04-23T11:32:06.113Z</time></trkpt><trkpt lat="44.1130372" lon="10.4030218"><ele>298.3333333333333</ele><time>2026-04-23T11:32:07.11Z</time></trkpt><trkpt lat="44.1131435" lon="10.402962"><ele>301.6666666666667</ele><time>2026-04-23T11:32:08.113Z</time></trkpt><trkpt lat="44.113366" lon="10.4028217"><ele>305.0</ele><time>2026-04-23T11:32:10.107Z</time></trkpt><trkpt lat="44.1134822" lon="10.4027527"><ele>301.0</ele><time>2026-04-23T11:32:11.119Z</time></trkpt><trkpt lat="44.1135914" lon="10.4026765"><ele>297.0</ele><time>2026-04-23T11:32:12.115Z</time></trkpt><trkpt lat="44.1136876" lon="10.4025988"><ele>293.0</ele><time>2026-04-23T11:32:13.109Z</time></trkpt><trkpt lat="44.1137702" lon="10.4025371"><ele>289.0</ele><time>2026-04-23T11:32:14.1Z</time></trkpt><trkpt lat="44.1138451" lon="10.4024897"><ele>285.0</ele><time>2026-04-23T11:32:15.101Z</time></trkpt><trkpt lat="44.1139188" lon="10.4024609"><ele>285.0</ele><time>2026-04-23T11:32:16.109Z</time></trkpt><trkpt lat="44.1139908" lon="10.402468"><ele>285.0</ele><time>2026-04-23T11:32:17.113Z</time></trkpt><trkpt lat="44.1140587" lon="10.4024954"><ele>285.0</ele><time>2026-04-23T11:32:18.121Z</time></trkpt><trkpt lat="44.1141244" lon="10.4025445"><ele>285.0</ele><time>2026-04-23T11:32:19.119Z</time></trkpt><trkpt lat="44.1141659" lon="10.40262"><ele>285.0</ele><time>2026-04-23T11:32:20.109Z</time></trkpt><trkpt lat="44.1141978" lon="10.4027013"><ele>285.0</ele><time>2026-04-23T11:32:21.105Z</time></trkpt><trkpt lat="44.1142368" lon="10.4027744"><ele>285.0</ele><time>2026-04-23T11:32:22.118Z</time></trkpt><trkpt lat="44.1143285" lon="10.4028489"><ele>283.3333333333333</ele><time>2026-04-23T11:32:24.103Z</time></trkpt><trkpt lat="44.1144137" lon="10.4028285"><ele>281.6666666666667</ele><time>2026-04-23T11:32:26.109Z</time></trkpt><trkpt lat="44.1144789" lon="10.4027622"><ele>280.0</ele><time>2026-04-23T11:32:28.111Z</time></trkpt><trkpt lat="44.1145525" lon="10.4026783"><ele>278.33333333333337</ele><time>2026-04-23T11:32:31.106Z</time></trkpt><trkpt lat="44.1146109" lon="10.402618"><ele>276.6666666666667</ele><time>2026-04-23T11:32:34.11Z</time></trkpt><trkpt lat="44.1146683" lon="10.4025588"><ele>275.0</ele><time>2026-04-23T11:32:37.103Z</time></trkpt><trkpt lat="44.1147328" lon="10.4025053"><ele>275.0</ele><time>2026-04-23T11:32:40.102Z</time></trkpt><trkpt lat="44.1147969" lon="10.4024339"><ele>275.0</ele><time>2026-04-23T11:32:43.102Z</time></trkpt><trkpt lat="44.1148604" lon="10.4023643"><ele>275.0</ele><time>2026-04-23T11:32:46.106Z</time></trkpt><trkpt lat="44.1149288" lon="10.4022984"><ele>275.0</ele><time>2026-04-23T11:32:49.11Z</time></trkpt><trkpt lat="44.1149958" lon="10.4022265"><ele>275.0</ele><time>2026-04-23T11:32:52.11Z</time></trkpt><trkpt lat="44.1150592" lon="10.4021612"><ele>275.0</ele><time>2026-04-23T11:32:55.11Z</time></trkpt><trkpt lat="44.1151316" lon="10.4020984"><ele>275.5</ele><time>2026-04-23T11:32:58.103Z</time></trkpt><trkpt lat="44.1152081" lon="10.4020228"><ele>276.0</ele><time>2026-04-23T11:33:01.121Z</time></trkpt><trkpt lat="44.1152598" lon="10.4019672"><ele>276.5</ele><time>2026-04-23T11:33:03.108Z</time></trkpt><trkpt lat="44.1153139" lon="10.401908"><ele>277.0</ele><time>2026-04-23T11:33:05.11Z</time></trkpt><trkpt lat="44.1153776" lon="10.4018416"><ele>277.5</ele><time>2026-04-23T11:33:07.113Z</time></trkpt><trkpt lat="44.1154442" lon="10.4017763"><ele>278.0</ele><time>2026-04-23T11:33:09.115Z</time></trkpt><trkpt lat="44.1155064" lon="10.4017118"><ele>278.0</ele><time>2026-04-23T11:33:11.11Z</time></trkpt><trkpt lat="44.1155682" lon="10.401648"><ele>278.0</ele><time>2026-04-23T11:33:13.11Z</time></trkpt><trkpt lat="44.1156236" lon="10.4015888"><ele>278.0</ele><time>2026-04-23T11:33:15.103Z</time></trkpt><trkpt lat="44.1156992" lon="10.4015135"><ele>278.0</ele><time>2026-04-23T11:33:18.113Z</time></trkpt><trkpt lat="44.1157726" lon="10.4014459"><ele>278.0</ele><time>2026-04-23T11:33:21.112Z</time></trkpt><trkpt lat="44.1158583" lon="10.4014088"><ele>278.0</ele><time>2026-04-23T11:33:24.109Z</time></trkpt><trkpt lat="44.1159514" lon="10.401415"><ele>277.83333333333337</ele><time>2026-04-23T11:33:27.113Z</time></trkpt><trkpt lat="44.1160364" lon="10.401469"><ele>277.6666666666667</ele><time>2026-04-23T11:33:30.103Z</time></trkpt><trkpt lat="44.1160879" lon="10.4015306"><ele>277.5</ele><time>2026-04-23T11:33:32.108Z</time></trkpt><trkpt lat="44.1161328" lon="10.4016018"><ele>277.3333333333333</ele><time>2026-04-23T11:33:34.101Z</time></trkpt><trkpt lat="44.1161692" lon="10.4016778"><ele>277.16666666666663</ele><time>2026-04-23T11:33:36.11Z</time></trkpt><trkpt lat="44.1162243" lon="10.4017871"><ele>277.0</ele><time>2026-04-23T11:33:39.112Z</time></trkpt><trkpt lat="44.1162645" lon="10.4018573"><ele>277.0</ele><time>2026-04-23T11:33:41.115Z</time></trkpt><trkpt lat="44.1163039" lon="10.4019285"><ele>277.0</ele><time>2026-04-23T11:33:43.111Z</time></trkpt><trkpt lat="44.1163573" lon="10.4020285"><ele>277.0</ele><time>2026-04-23T11:33:46.107Z</time></trkpt><trkpt lat="44.1164051" lon="10.4021305"><ele>277.0</ele><time>2026-04-23T11:33:49.105Z</time></trkpt><trkpt lat="44.1164424" lon="10.4022035"><ele>277.0</ele><time>2026-04-23T11:33:51.101Z</time></trkpt><trkpt lat="44.1164883" lon="10.4022732"><ele>277.0</ele><time>2026-04-23T11:33:53.117Z</time></trkpt><trkpt lat="44.1165378" lon="10.4023403"><ele>277.0</ele><time>2026-04-23T11:33:55.114Z</time></trkpt><trkpt lat="44.1165857" lon="10.4024062"><ele>277.0</ele><time>2026-04-23T11:33:57.102Z</time></trkpt><trkpt lat="44.1166268" lon="10.402479"><ele>277.0</ele><time>2026-04-23T11:33:59.108Z</time></trkpt><trkpt lat="44.1166704" lon="10.4025437"><ele>277.0</ele><time>2026-04-23T11:34:01.108Z</time></trkpt><trkpt lat="44.1167319" lon="10.4026427"><ele>277.0</ele><time>2026-04-23T11:34:04.104Z</time></trkpt><trkpt lat="44.116774" lon="10.4027094"><ele>277.0</ele><time>2026-04-23T11:34:06.112Z</time></trkpt><trkpt lat="44.1168185" lon="10.4027762"><ele>277.0</ele><time>2026-04-23T11:34:08.105Z</time></trkpt><trkpt lat="44.116867" lon="10.4028441"><ele>277.0</ele><time>2026-04-23T11:34:10.116Z</time></trkpt><trkpt lat="44.116912" lon="10.4029107"><ele>277.0</ele><time>2026-04-23T11:34:12.105Z</time></trkpt><trkpt lat="44.1169585" lon="10.4029764"><ele>277.0</ele><time>2026-04-23T11:34:14.113Z</time></trkpt><trkpt lat="44.1170031" lon="10.4030443"><ele>277.0</ele><time>2026-04-23T11:34:16.103Z</time></trkpt><trkpt lat="44.1170468" lon="10.4031126"><ele>277.0</ele><time>2026-04-23T11:34:18.119Z</time></trkpt><trkpt lat="44.1170912" lon="10.4031769"><ele>277.0</ele><time>2026-04-23T11:34:20.114Z</time></trkpt><trkpt lat="44.1171338" lon="10.4032446"><ele>277.0</ele><time>2026-04-23T11:34:22.107Z</time></trkpt><trkpt lat="44.1171751" lon="10.403315"><ele>277.0</ele><time>2026-04-23T11:34:24.109Z</time></trkpt><trkpt lat="44.1172171" lon="10.4033811"><ele>276.85714285714283</ele><time>2026-04-23T11:34:26.111Z</time></trkpt><trkpt lat="44.1172809" lon="10.4034759"><ele>276.71428571428567</ele><time>2026-04-23T11:34:29Z</time></trkpt><trkpt lat="44.1173243" lon="10.4035438"><ele>276.57142857142856</ele><time>2026-04-23T11:34:31.109Z</time></trkpt><trkpt lat="44.1173683" lon="10.4036076"><ele>276.42857142857144</ele><time>2026-04-23T11:34:33.107Z</time></trkpt><trkpt lat="44.1174114" lon="10.4036762"><ele>276.28571428571433</ele><time>2026-04-23T11:34:35.108Z</time></trkpt><trkpt lat="44.1174554" lon="10.4037473"><ele>276.14285714285717</ele><time>2026-04-23T11:34:37.116Z</time></trkpt><trkpt lat="44.1174987" lon="10.4038228"><ele>276.0</ele><time>2026-04-23T11:34:39.106Z</time></trkpt><trkpt lat="44.1175493" lon="10.4038987"><ele>276.40000000000003</ele><time>2026-04-23T11:34:41.115Z</time></trkpt><trkpt lat="44.1176272" lon="10.4039925"><ele>276.8</ele><time>2026-04-23T11:34:43.117Z</time></trkpt><trkpt lat="44.1176965" lon="10.404095"><ele>277.20000000000005</ele><time>2026-04-23T11:34:45.114Z</time></trkpt><trkpt lat="44.1177727" lon="10.4042095"><ele>277.6</ele><time>2026-04-23T11:34:47.113Z</time></trkpt><trkpt lat="44.1178442" lon="10.4043265"><ele>278.0</ele><time>2026-04-23T11:34:49.137Z</time></trkpt><trkpt lat="44.1179119" lon="10.4044384"><ele>278.0</ele><time>2026-04-23T11:34:51.108Z</time></trkpt><trkpt lat="44.117978" lon="10.4045357"><ele>278.0</ele><time>2026-04-23T11:34:53.109Z</time></trkpt><trkpt lat="44.1180404" lon="10.4046347"><ele>278.0</ele><time>2026-04-23T11:34:55.117Z</time></trkpt><trkpt lat="44.1181011" lon="10.4047225"><ele>278.0</ele><time>2026-04-23T11:34:57.113Z</time></trkpt><trkpt lat="44.1181564" lon="10.4048045"><ele>278.0</ele><time>2026-04-23T11:34:59.104Z</time></trkpt><trkpt lat="44.1182119" lon="10.4048856"><ele>278.0</ele><time>2026-04-23T11:35:01.104Z</time></trkpt><trkpt lat="44.1182865" lon="10.4050043"><ele>278.33333333333337</ele><time>2026-04-23T11:35:04.105Z</time></trkpt><trkpt lat="44.1183301" lon="10.4050796"><ele>278.6666666666667</ele><time>2026-04-23T11:35:06.105Z</time></trkpt><trkpt lat="44.1183733" lon="10.4051538"><ele>279.0</ele><time>2026-04-23T11:35:08.111Z</time></trkpt><trkpt lat="44.1184207" lon="10.405231"><ele>279.3333333333333</ele><time>2026-04-23T11:35:10.106Z</time></trkpt><trkpt lat="44.1184709" lon="10.4053097"><ele>279.66666666666663</ele><time>2026-04-23T11:35:12.113Z</time></trkpt><trkpt lat="44.1185256" lon="10.4053902"><ele>280.0</ele><time>2026-04-23T11:35:14.106Z</time></trkpt><trkpt lat="44.1185773" lon="10.4054828"><ele>279.5</ele><time>2026-04-23T11:35:16.112Z</time></trkpt><trkpt lat="44.1186296" lon="10.4055755"><ele>279.0</ele><time>2026-04-23T11:35:18.11Z</time></trkpt><trkpt lat="44.1186751" lon="10.4056721"><ele>278.5</ele><time>2026-04-23T11:35:20.107Z</time></trkpt><trkpt lat="44.1187512" lon="10.4058079"><ele>278.0</ele><time>2026-04-23T11:35:23.109Z</time></trkpt><trkpt lat="44.1187886" lon="10.4059019"><ele>277.5</ele><time>2026-04-23T11:35:25.101Z</time></trkpt><trkpt lat="44.1188344" lon="10.4059893"><ele>277.0</ele><time>2026-04-23T11:35:27.101Z</time></trkpt><trkpt lat="44.1188865" lon="10.4060724"><ele>277.0</ele><time>2026-04-23T11:35:29.106Z</time></trkpt><trkpt lat="44.1189388" lon="10.4061551"><ele>277.0</ele><time>2026-04-23T11:35:31.109Z</time></trkpt><trkpt lat="44.1190011" lon="10.4062823"><ele>277.0</ele><time>2026-04-23T11:35:34.108Z</time></trkpt><trkpt lat="44.1189803" lon="10.4063992"><ele>277.0</ele><time>2026-04-23T11:35:37.106Z</time></trkpt><trkpt lat="44.1189234" lon="10.4064709"><ele>277.0</ele><time>2026-04-23T11:35:39.109Z</time></trkpt><trkpt lat="44.1188623" lon="10.4065393"><ele>277.0</ele><time>2026-04-23T11:35:41.108Z</time></trkpt><trkpt lat="44.1187659" lon="10.4066318"><ele>276.66666666666663</ele><time>2026-04-23T11:35:44.11Z</time></trkpt><trkpt lat="44.1186946" lon="10.4066815"><ele>276.3333333333333</ele><time>2026-04-23T11:35:46.107Z</time></trkpt><trkpt lat="44.1186237" lon="10.4067354"><ele>276.0</ele><time>2026-04-23T11:35:48.11Z</time></trkpt><trkpt lat="44.1185551" lon="10.4067845"><ele>275.6666666666667</ele><time>2026-04-23T11:35:50.105Z</time></trkpt><trkpt lat="44.1184915" lon="10.4068422"><ele>275.33333333333337</ele><time>2026-04-23T11:35:52.1Z</time></trkpt><trkpt lat="44.1183901" lon="10.4069141"><ele>275.0</ele><time>2026-04-23T11:35:55Z</time></trkpt><trkpt lat="44.1183139" lon="10.4069739"><ele>275.0</ele><time>2026-04-23T11:35:57.109Z</time></trkpt><trkpt lat="44.1182119" lon="10.407082"><ele>275.0</ele><time>2026-04-23T11:36:00.101Z</time></trkpt><trkpt lat="44.1181122" lon="10.4071842"><ele>275.0</ele><time>2026-04-23T11:36:03.103Z</time></trkpt><trkpt lat="44.1180041" lon="10.4072848"><ele>275.0</ele><time>2026-04-23T11:36:06Z</time></trkpt><trkpt lat="44.1179272" lon="10.4073585"><ele>274.75</ele><time>2026-04-23T11:36:08.101Z</time></trkpt><trkpt lat="44.1178417" lon="10.4074538"><ele>274.5</ele><time>2026-04-23T11:36:10.101Z</time></trkpt><trkpt lat="44.1177511" lon="10.4075359"><ele>274.25</ele><time>2026-04-23T11:36:12.105Z</time></trkpt><trkpt lat="44.1176584" lon="10.4076269"><ele>274.0</ele><time>2026-04-23T11:36:14.111Z</time></trkpt><trkpt lat="44.1175196" lon="10.4077788"><ele>274.0</ele><time>2026-04-23T11:36:17.104Z</time></trkpt><trkpt lat="44.1174331" lon="10.4078828"><ele>274.0</ele><time>2026-04-23T11:36:19.108Z</time></trkpt><trkpt lat="44.1173432" lon="10.4079762"><ele>274.0</ele><time>2026-04-23T11:36:21.119Z</time></trkpt><trkpt lat="44.1172549" lon="10.4080673"><ele>274.0</ele><time>2026-04-23T11:36:23.109Z</time></trkpt><trkpt lat="44.1171608" lon="10.408144"><ele>274.0</ele><time>2026-04-23T11:36:25.109Z</time></trkpt><trkpt lat="44.1170639" lon="10.4081716"><ele>274.0</ele><time>2026-04-23T11:36:27.115Z</time></trkpt><trkpt lat="44.1169674" lon="10.4081766"><ele>274.0</ele><time>2026-04-23T11:36:29.126Z</time></trkpt><trkpt lat="44.1168741" lon="10.4082149"><ele>274.0</ele><time>2026-04-23T11:36:31.115Z</time></trkpt><trkpt lat="44.1167956" lon="10.4083008"><ele>274.0</ele><time>2026-04-23T11:36:33.125Z</time></trkpt><trkpt lat="44.1167423" lon="10.4083665"><ele>274.0</ele><time>2026-04-23T11:36:35.106Z</time></trkpt><trkpt lat="44.1166846" lon="10.4084139"><ele>274.0</ele><time>2026-04-23T11:36:37.115Z</time></trkpt><trkpt lat="44.1166226" lon="10.4084821"><ele>274.16666666666663</ele><time>2026-04-23T11:36:40.11Z</time></trkpt><trkpt lat="44.116558" lon="10.4085443"><ele>274.3333333333333</ele><time>2026-04-23T11:36:43.113Z</time></trkpt><trkpt lat="44.1164735" lon="10.4086033"><ele>274.5</ele><time>2026-04-23T11:36:46.105Z</time></trkpt><trkpt lat="44.1164113" lon="10.4086388"><ele>274.6666666666667</ele><time>2026-04-23T11:36:48.112Z</time></trkpt><trkpt lat="44.1163461" lon="10.4086789"><ele>274.83333333333337</ele><time>2026-04-23T11:36:50.11Z</time></trkpt><trkpt lat="44.1162808" lon="10.408719"><ele>275.0</ele><time>2026-04-23T11:36:52.103Z</time></trkpt><trkpt lat="44.1162132" lon="10.4087582"><ele>275.0</ele><time>2026-04-23T11:36:54.112Z</time></trkpt><trkpt lat="44.1161433" lon="10.4088011"><ele>275.0</ele><time>2026-04-23T11:36:56.131Z</time></trkpt><trkpt lat="44.1160712" lon="10.4088404"><ele>275.0</ele><time>2026-04-23T11:36:58.106Z</time></trkpt><trkpt lat="44.1159983" lon="10.4088712"><ele>275.0</ele><time>2026-04-23T11:37:00.113Z</time></trkpt><trkpt lat="44.1159231" lon="10.4088946"><ele>275.0</ele><time>2026-04-23T11:37:02.109Z</time></trkpt><trkpt lat="44.1157995" lon="10.4089346"><ele>275.0</ele><time>2026-04-23T11:37:05.123Z</time></trkpt><trkpt lat="44.1157166" lon="10.4089693"><ele>275.33333333333337</ele><time>2026-04-23T11:37:07.115Z</time></trkpt><trkpt lat="44.1156529" lon="10.4090216"><ele>275.6666666666667</ele><time>2026-04-23T11:37:09.106Z</time></trkpt><trkpt lat="44.1155971" lon="10.4090918"><ele>276.0</ele><time>2026-04-23T11:37:12.106Z</time></trkpt><trkpt lat="44.1155693" lon="10.4092009"><ele>276.3333333333333</ele><time>2026-04-23T11:37:16.111Z</time></trkpt><trkpt lat="44.1155575" lon="10.4093101"><ele>276.66666666666663</ele><time>2026-04-23T11:37:19.117Z</time></trkpt><trkpt lat="44.1155668" lon="10.4094233"><ele>277.0</ele><time>2026-04-23T11:37:22.1Z</time></trkpt><trkpt lat="44.1156016" lon="10.4095225"><ele>277.0</ele><time>2026-04-23T11:37:25.109Z</time></trkpt><trkpt lat="44.1156496" lon="10.4096268"><ele>277.0</ele><time>2026-04-23T11:37:28.121Z</time></trkpt><trkpt lat="44.1156951" lon="10.4097329"><ele>277.0</ele><time>2026-04-23T11:37:31.11Z</time></trkpt><trkpt lat="44.1157361" lon="10.4098391"><ele>277.0</ele><time>2026-04-23T11:37:34.101Z</time></trkpt><trkpt lat="44.1157923" lon="10.4099188"><ele>277.0</ele><time>2026-04-23T11:37:37.114Z</time></trkpt><trkpt lat="44.1158578" lon="10.4099563"><ele>277.0</ele><time>2026-04-23T11:37:40Z</time></trkpt><trkpt lat="44.1159684" lon="10.4099784"><ele>278.66666666666663</ele><time>2026-04-23T11:37:44Z</time></trkpt><trkpt lat="44.1160762" lon="10.4099356"><ele>280.3333333333333</ele><time>2026-04-23T11:37:48Z</time></trkpt><trkpt lat="44.1161611" lon="10.4098795"><ele>282.0</ele><time>2026-04-23T11:37:51.101Z</time></trkpt><trkpt lat="44.1162209" lon="10.4098354"><ele>283.6666666666667</ele><time>2026-04-23T11:37:53.1Z</time></trkpt><trkpt lat="44.1162845" lon="10.4098011"><ele>285.33333333333337</ele><time>2026-04-23T11:37:55.109Z</time></trkpt><trkpt lat="44.116356" lon="10.4098088"><ele>287.0</ele><time>2026-04-23T11:37:57Z</time></trkpt><trkpt lat="44.1164309" lon="10.4099256"><ele>287.0</ele><time>2026-04-23T11:38:00.104Z</time></trkpt><trkpt lat="44.1164786" lon="10.4099837"><ele>287.0</ele><time>2026-04-23T11:38:02.104Z</time></trkpt><trkpt lat="44.1165658" lon="10.4099902"><ele>287.0</ele><time>2026-04-23T11:38:05.105Z</time></trkpt><trkpt lat="44.1166503" lon="10.409951"><ele>287.0</ele><time>2026-04-23T11:38:08.109Z</time></trkpt><trkpt lat="44.1167348" lon="10.4099322"><ele>287.0</ele><time>2026-04-23T11:38:11Z</time></trkpt><trkpt lat="44.1168567" lon="10.4099058"><ele>287.0</ele><time>2026-04-23T11:38:15.108Z</time></trkpt><trkpt lat="44.1169781" lon="10.409866"><ele>287.1666666666667</ele><time>2026-04-23T11:38:19.104Z</time></trkpt><trkpt lat="44.117068" lon="10.4098274"><ele>287.33333333333337</ele><time>2026-04-23T11:38:22.11Z</time></trkpt><trkpt lat="44.117129" lon="10.4098055"><ele>287.5</ele><time>2026-04-23T11:38:24.105Z</time></trkpt><trkpt lat="44.1172169" lon="10.4097746"><ele>287.6666666666667</ele><time>2026-04-23T11:38:27.11Z</time></trkpt><trkpt lat="44.1173074" lon="10.4097441"><ele>287.8333333333333</ele><time>2026-04-23T11:38:30.116Z</time></trkpt><trkpt lat="44.1173997" lon="10.409723"><ele>288.0</ele><time>2026-04-23T11:38:33.105Z</time></trkpt><trkpt lat="44.117495" lon="10.4096931"><ele>288.00000000000006</ele><time>2026-04-23T11:38:36Z</time></trkpt><trkpt lat="44.1175727" lon="10.4096747"><ele>288.0</ele><time>2026-04-23T11:38:39.109Z</time></trkpt><trkpt lat="44.1176497" lon="10.4096428"><ele>288.0</ele><time>2026-04-23T11:38:42.102Z</time></trkpt><trkpt lat="44.1177245" lon="10.4096416"><ele>288.0</ele><time>2026-04-23T11:38:45.101Z</time></trkpt><trkpt lat="44.1177934" lon="10.4096483"><ele>288.0</ele><time>2026-04-23T11:38:48.101Z</time></trkpt><trkpt lat="44.1178538" lon="10.4096734"><ele>288.00000000000006</ele><time>2026-04-23T11:38:51.106Z</time></trkpt><trkpt lat="44.1179127" lon="10.4097049"><ele>288.0</ele><time>2026-04-23T11:38:54.129Z</time></trkpt><trkpt lat="44.1179712" lon="10.4097395"><ele>288.0</ele><time>2026-04-23T11:38:57.113Z</time></trkpt><trkpt lat="44.1180298" lon="10.4097793"><ele>288.0</ele><time>2026-04-23T11:39:00.116Z</time></trkpt><trkpt lat="44.1180998" lon="10.409845"><ele>288.0</ele><time>2026-04-23T11:39:04.11Z</time></trkpt><trkpt lat="44.1181734" lon="10.4099049"><ele>288.0</ele><time>2026-04-23T11:39:08.105Z</time></trkpt><trkpt lat="44.1182247" lon="10.4099582"><ele>288.0</ele><time>2026-04-23T11:39:11.106Z</time></trkpt><trkpt lat="44.1182728" lon="10.4100455"><ele>288.0</ele><time>2026-04-23T11:39:15.102Z</time></trkpt><trkpt lat="44.1183001" lon="10.4101513"><ele>289.14285714285717</ele><time>2026-04-23T11:39:19.11Z</time></trkpt><trkpt lat="44.1183142" lon="10.4102584"><ele>290.2857142857143</ele><time>2026-04-23T11:39:23.114Z</time></trkpt><trkpt lat="44.1183311" lon="10.4103704"><ele>291.42857142857144</ele><time>2026-04-23T11:39:27.11Z</time></trkpt><trkpt lat="44.1183498" lon="10.4104552"><ele>292.57142857142856</ele><time>2026-04-23T11:39:30.103Z</time></trkpt><trkpt lat="44.1183704" lon="10.4105608"><ele>293.7142857142857</ele><time>2026-04-23T11:39:34.103Z</time></trkpt><trkpt lat="44.118394" lon="10.4106489"><ele>294.8571428571429</ele><time>2026-04-23T11:39:37.115Z</time></trkpt><trkpt lat="44.1184308" lon="10.4107323"><ele>296.0</ele><time>2026-04-23T11:39:40.103Z</time></trkpt><trkpt lat="44.1184924" lon="10.4108301"><ele>297.2857142857143</ele><time>2026-04-23T11:39:44.107Z</time></trkpt><trkpt lat="44.1185397" lon="10.4108907"><ele>298.57142857142856</ele><time>2026-04-23T11:39:47.11Z</time></trkpt><trkpt lat="44.1185913" lon="10.4109684"><ele>299.8571428571429</ele><time>2026-04-23T11:39:51.117Z</time></trkpt><trkpt lat="44.1186479" lon="10.4110309"><ele>301.1428571428571</ele><time>2026-04-23T11:39:54.114Z</time></trkpt><trkpt lat="44.1187054" lon="10.411075"><ele>302.4285714285714</ele><time>2026-04-23T11:39:57.108Z</time></trkpt><trkpt lat="44.1187728" lon="10.411101"><ele>303.7142857142857</ele><time>2026-04-23T11:40:00.111Z</time></trkpt><trkpt lat="44.1188411" lon="10.4111042"><ele>305.0</ele><time>2026-04-23T11:40:03.101Z</time></trkpt><trkpt lat="44.1189086" lon="10.4111094"><ele>305.0</ele><time>2026-04-23T11:40:06.105Z</time></trkpt><trkpt lat="44.1189873" lon="10.4111171"><ele>305.0</ele><time>2026-04-23T11:40:10.108Z</time></trkpt><trkpt lat="44.1190626" lon="10.4111096"><ele>305.0</ele><time>2026-04-23T11:40:14.102Z</time></trkpt><trkpt lat="44.1191455" lon="10.4111117"><ele>305.0</ele><time>2026-04-23T11:40:18.111Z</time></trkpt><trkpt lat="44.1192094" lon="10.4111079"><ele>305.0</ele><time>2026-04-23T11:40:21.107Z</time></trkpt><trkpt lat="44.1192955" lon="10.4111055"><ele>305.0</ele><time>2026-04-23T11:40:25.105Z</time></trkpt><trkpt lat="44.1193599" lon="10.4111024"><ele>305.7142857142857</ele><time>2026-04-23T11:40:28.124Z</time></trkpt><trkpt lat="44.1194278" lon="10.4111118"><ele>306.4285714285714</ele><time>2026-04-23T11:40:31.113Z</time></trkpt><trkpt lat="44.1195045" lon="10.4111154"><ele>307.1428571428571</ele><time>2026-04-23T11:40:34.114Z</time></trkpt><trkpt lat="44.1195686" lon="10.4111218"><ele>307.8571428571429</ele><time>2026-04-23T11:40:37.108Z</time></trkpt><trkpt lat="44.1196313" lon="10.4111602"><ele>308.57142857142856</ele><time>2026-04-23T11:40:40.106Z</time></trkpt><trkpt lat="44.1196915" lon="10.4111967"><ele>309.2857142857143</ele><time>2026-04-23T11:40:43.106Z</time></trkpt><trkpt lat="44.1197424" lon="10.4112571"><ele>310.0</ele><time>2026-04-23T11:40:46.108Z</time></trkpt><trkpt lat="44.1197801" lon="10.4113333"><ele>310.0</ele><time>2026-04-23T11:40:49.126Z</time></trkpt><trkpt lat="44.1198046" lon="10.411418"><ele>310.0</ele><time>2026-04-23T11:40:52.107Z</time></trkpt><trkpt lat="44.119818" lon="10.4115092"><ele>310.0</ele><time>2026-04-23T11:40:55.109Z</time></trkpt><trkpt lat="44.1198213" lon="10.4116246"><ele>310.0</ele><time>2026-04-23T11:40:59.114Z</time></trkpt><trkpt lat="44.1198608" lon="10.4117013"><ele>310.0</ele><time>2026-04-23T11:41:03.112Z</time></trkpt><trkpt lat="44.1199283" lon="10.4117095"><ele>310.0</ele><time>2026-04-23T11:41:06.111Z</time></trkpt><trkpt lat="44.1199913" lon="10.4116191"><ele>310.0</ele><time>2026-04-23T11:41:11.103Z</time></trkpt><trkpt lat="44.1200074" lon="10.4114938"><ele>310.0</ele><time>2026-04-23T11:41:15.11Z</time></trkpt><trkpt lat="44.1200043" lon="10.4114053"><ele>310.0</ele><time>2026-04-23T11:41:18.109Z</time></trkpt><trkpt lat="44.1199906" lon="10.411296"><ele>310.0</ele><time>2026-04-23T11:41:21.113Z</time></trkpt><trkpt lat="44.1199664" lon="10.4111966"><ele>310.0</ele><time>2026-04-23T11:41:24.104Z</time></trkpt><trkpt lat="44.1199329" lon="10.4110973"><ele>310.0</ele><time>2026-04-23T11:41:27.111Z</time></trkpt><trkpt lat="44.1198917" lon="10.4110106"><ele>310.0</ele><time>2026-04-23T11:41:30.108Z</time></trkpt><trkpt lat="44.1198383" lon="10.410935"><ele>310.0</ele><time>2026-04-23T11:41:33.109Z</time></trkpt><trkpt lat="44.11977" lon="10.4108638"><ele>310.0</ele><time>2026-04-23T11:41:36.112Z</time></trkpt><trkpt lat="44.1196917" lon="10.4108266"><ele>310.0</ele><time>2026-04-23T11:41:39.11Z</time></trkpt><trkpt lat="44.1196136" lon="10.410816"><ele>310.0</ele><time>2026-04-23T11:41:42.1Z</time></trkpt><trkpt lat="44.1195325" lon="10.4108143"><ele>310.0</ele><time>2026-04-23T11:41:45.124Z</time></trkpt><trkpt lat="44.1194548" lon="10.4108099"><ele>310.0</ele><time>2026-04-23T11:41:48.12Z</time></trkpt><trkpt lat="44.1193802" lon="10.4107872"><ele>310.0</ele><time>2026-04-23T11:41:51.11Z</time></trkpt><trkpt lat="44.1193068" lon="10.4107622"><ele>310.0</ele><time>2026-04-23T11:41:54.121Z</time></trkpt><trkpt lat="44.1192306" lon="10.4107111"><ele>310.0</ele><time>2026-04-23T11:41:57.124Z</time></trkpt><trkpt lat="44.1191651" lon="10.4106341"><ele>310.0</ele><time>2026-04-23T11:42:00.115Z</time></trkpt><trkpt lat="44.1191112" lon="10.410499"><ele>310.0</ele><time>2026-04-23T11:42:04.124Z</time></trkpt><trkpt lat="44.1190951" lon="10.4103785"><ele>310.0</ele><time>2026-04-23T11:42:07.108Z</time></trkpt><trkpt lat="44.1191146" lon="10.41025"><ele>310.8333333333333</ele><time>2026-04-23T11:42:10.127Z</time></trkpt><trkpt lat="44.119178" lon="10.4101023"><ele>311.66666666666663</ele><time>2026-04-23T11:42:14.113Z</time></trkpt><trkpt lat="44.1192467" lon="10.410016"><ele>312.5</ele><time>2026-04-23T11:42:17.108Z</time></trkpt><trkpt lat="44.1192981" lon="10.4099646"><ele>313.3333333333333</ele><time>2026-04-23T11:42:19.105Z</time></trkpt><trkpt lat="44.1193522" lon="10.4099175"><ele>314.1666666666667</ele><time>2026-04-23T11:42:21.108Z</time></trkpt><trkpt lat="44.1194331" lon="10.4098513"><ele>315.0</ele><time>2026-04-23T11:42:24.102Z</time></trkpt><trkpt lat="44.1195127" lon="10.409783"><ele>315.0</ele><time>2026-04-23T11:42:27.105Z</time></trkpt><trkpt lat="44.1196015" lon="10.4097011"><ele>315.0</ele><time>2026-04-23T11:42:30.111Z</time></trkpt><trkpt lat="44.1196858" lon="10.4096394"><ele>315.0</ele><time>2026-04-23T11:42:33.102Z</time></trkpt><trkpt lat="44.1197437" lon="10.409603"><ele>315.0</ele><time>2026-04-23T11:42:35.101Z</time></trkpt><trkpt lat="44.1197998" lon="10.4095599"><ele>315.0</ele><time>2026-04-23T11:42:37.118Z</time></trkpt><trkpt lat="44.1198795" lon="10.4094916"><ele>315.0</ele><time>2026-04-23T11:42:40.118Z</time></trkpt><trkpt lat="44.1199343" lon="10.4094477"><ele>315.42857142857144</ele><time>2026-04-23T11:42:42.106Z</time></trkpt><trkpt lat="44.1199939" lon="10.4094109"><ele>315.8571428571429</ele><time>2026-04-23T11:42:44.067Z</time></trkpt><trkpt lat="44.1200758" lon="10.4093697"><ele>316.2857142857143</ele><time>2026-04-23T11:42:47.124Z</time></trkpt><trkpt lat="44.120129" lon="10.409322"><ele>316.7142857142857</ele><time>2026-04-23T11:42:49.112Z</time></trkpt><trkpt lat="44.1202111" lon="10.4092628"><ele>317.14285714285717</ele><time>2026-04-23T11:42:52.112Z</time></trkpt><trkpt lat="44.1202686" lon="10.4092246"><ele>317.57142857142856</ele><time>2026-04-23T11:42:54.117Z</time></trkpt><trkpt lat="44.1203253" lon="10.4091814"><ele>318.0</ele><time>2026-04-23T11:42:56.114Z</time></trkpt><trkpt lat="44.1204103" lon="10.4091355"><ele>318.0</ele><time>2026-04-23T11:42:59.101Z</time></trkpt><trkpt lat="44.1205105" lon="10.4090923"><ele>318.0</ele><time>2026-04-23T11:43:02.106Z</time></trkpt><trkpt lat="44.1205822" lon="10.4090726"><ele>318.0</ele><time>2026-04-23T11:43:04.113Z</time></trkpt><trkpt lat="44.1206501" lon="10.4090602"><ele>318.0</ele><time>2026-04-23T11:43:06.111Z</time></trkpt><trkpt lat="44.1207174" lon="10.4090584"><ele>318.0</ele><time>2026-04-23T11:43:08.109Z</time></trkpt><trkpt lat="44.1207903" lon="10.4090588"><ele>318.0</ele><time>2026-04-23T11:43:10.118Z</time></trkpt><trkpt lat="44.1208578" lon="10.4090662"><ele>319.2857142857143</ele><time>2026-04-23T11:43:12.106Z</time></trkpt><trkpt lat="44.1209266" lon="10.4090811"><ele>320.5714285714286</ele><time>2026-04-23T11:43:14.11Z</time></trkpt><trkpt lat="44.1209963" lon="10.4090935"><ele>321.8571428571429</ele><time>2026-04-23T11:43:16.109Z</time></trkpt><trkpt lat="44.1210652" lon="10.4091023"><ele>323.1428571428571</ele><time>2026-04-23T11:43:18.111Z</time></trkpt><trkpt lat="44.1211365" lon="10.4091128"><ele>324.42857142857144</ele><time>2026-04-23T11:43:20.108Z</time></trkpt><trkpt lat="44.1212083" lon="10.4091271"><ele>325.7142857142857</ele><time>2026-04-23T11:43:22.107Z</time></trkpt><trkpt lat="44.1212772" lon="10.4091362"><ele>327.0</ele><time>2026-04-23T11:43:24.116Z</time></trkpt><trkpt lat="44.1213484" lon="10.4091497"><ele>327.0</ele><time>2026-04-23T11:43:26.113Z</time></trkpt><trkpt lat="44.1214208" lon="10.4091592"><ele>327.0</ele><time>2026-04-23T11:43:28.113Z</time></trkpt><trkpt lat="44.1214952" lon="10.4091602"><ele>327.0</ele><time>2026-04-23T11:43:30.108Z</time></trkpt><trkpt lat="44.1215688" lon="10.4091599"><ele>327.0</ele><time>2026-04-23T11:43:32.114Z</time></trkpt><trkpt lat="44.1216415" lon="10.4091654"><ele>327.0</ele><time>2026-04-23T11:43:34.111Z</time></trkpt><trkpt lat="44.1217152" lon="10.4091726"><ele>327.0</ele><time>2026-04-23T11:43:36.111Z</time></trkpt><trkpt lat="44.1217866" lon="10.4091858"><ele>327.0</ele><time>2026-04-23T11:43:38.125Z</time></trkpt><trkpt lat="44.1218584" lon="10.4091988"><ele>327.42857142857144</ele><time>2026-04-23T11:43:40.107Z</time></trkpt><trkpt lat="44.1219279" lon="10.4092133"><ele>327.8571428571429</ele><time>2026-04-23T11:43:42.101Z</time></trkpt><trkpt lat="44.1219996" lon="10.4092261"><ele>328.28571428571433</ele><time>2026-04-23T11:43:44.117Z</time></trkpt><trkpt lat="44.1220728" lon="10.4092339"><ele>328.7142857142857</ele><time>2026-04-23T11:43:46.105Z</time></trkpt><trkpt lat="44.1221447" lon="10.4092484"><ele>329.14285714285717</ele><time>2026-04-23T11:43:48.114Z</time></trkpt><trkpt lat="44.1222142" lon="10.4092543"><ele>329.5714285714286</ele><time>2026-04-23T11:43:50.111Z</time></trkpt><trkpt lat="44.1222842" lon="10.4092639"><ele>330.0</ele><time>2026-04-23T11:43:52.126Z</time></trkpt><trkpt lat="44.1223554" lon="10.4092763"><ele>330.42857142857144</ele><time>2026-04-23T11:43:54.114Z</time></trkpt><trkpt lat="44.1224276" lon="10.4092867"><ele>330.8571428571429</ele><time>2026-04-23T11:43:56.11Z</time></trkpt><trkpt lat="44.1224972" lon="10.409292"><ele>331.28571428571433</ele><time>2026-04-23T11:43:58.114Z</time></trkpt><trkpt lat="44.1225693" lon="10.4093025"><ele>331.7142857142857</ele><time>2026-04-23T11:44:00.103Z</time></trkpt><trkpt lat="44.1226408" lon="10.4093166"><ele>332.1428571428571</ele><time>2026-04-23T11:44:02.12Z</time></trkpt><trkpt lat="44.1227118" lon="10.4093296"><ele>332.5714285714286</ele><time>2026-04-23T11:44:04.109Z</time></trkpt><trkpt lat="44.1227846" lon="10.4093399"><ele>333.0</ele><time>2026-04-23T11:44:06.115Z</time></trkpt><trkpt lat="44.1228552" lon="10.4093524"><ele>333.0</ele><time>2026-04-23T11:44:08.104Z</time></trkpt><trkpt lat="44.1229259" lon="10.409363"><ele>333.0</ele><time>2026-04-23T11:44:10.125Z</time></trkpt><trkpt lat="44.1229952" lon="10.4093771"><ele>333.0</ele><time>2026-04-23T11:44:12.106Z</time></trkpt><trkpt lat="44.1230623" lon="10.4094006"><ele>333.0</ele><time>2026-04-23T11:44:14.111Z</time></trkpt><trkpt lat="44.123131" lon="10.4094282"><ele>333.0</ele><time>2026-04-23T11:44:16.116Z</time></trkpt><trkpt lat="44.1232002" lon="10.4094528"><ele>333.0</ele><time>2026-04-23T11:44:18.111Z</time></trkpt><trkpt lat="44.1232696" lon="10.4094807"><ele>333.0</ele><time>2026-04-23T11:44:20.108Z</time></trkpt><trkpt lat="44.1233404" lon="10.4095078"><ele>333.3333333333333</ele><time>2026-04-23T11:44:22.113Z</time></trkpt><trkpt lat="44.1234106" lon="10.4095339"><ele>333.6666666666667</ele><time>2026-04-23T11:44:24.111Z</time></trkpt><trkpt lat="44.1234823" lon="10.4095618"><ele>334.0</ele><time>2026-04-23T11:44:26.107Z</time></trkpt><trkpt lat="44.1235501" lon="10.4095821"><ele>334.33333333333337</ele><time>2026-04-23T11:44:28.101Z</time></trkpt><trkpt lat="44.1236139" lon="10.4095998"><ele>334.6666666666667</ele><time>2026-04-23T11:44:30.113Z</time></trkpt><trkpt lat="44.123721" lon="10.409639"><ele>335.0</ele><time>2026-04-23T11:44:33.1Z</time></trkpt><trkpt lat="44.1237926" lon="10.4096601"><ele>335.1428571428571</ele><time>2026-04-23T11:44:35.104Z</time></trkpt><trkpt lat="44.1238635" lon="10.4096793"><ele>335.2857142857143</ele><time>2026-04-23T11:44:37.109Z</time></trkpt><trkpt lat="44.1239334" lon="10.4097033"><ele>335.42857142857144</ele><time>2026-04-23T11:44:39.114Z</time></trkpt><trkpt lat="44.1240013" lon="10.4097297"><ele>335.57142857142856</ele><time>2026-04-23T11:44:41.11Z</time></trkpt><trkpt lat="44.1240664" lon="10.4097597"><ele>335.7142857142857</ele><time>2026-04-23T11:44:43.107Z</time></trkpt><trkpt lat="44.1241314" lon="10.4097914"><ele>335.85714285714283</ele><time>2026-04-23T11:44:45.113Z</time></trkpt><trkpt lat="44.1241967" lon="10.4098304"><ele>336.0</ele><time>2026-04-23T11:44:47.106Z</time></trkpt><trkpt lat="44.1242653" lon="10.4098666"><ele>336.6666666666667</ele><time>2026-04-23T11:44:49.103Z</time></trkpt><trkpt lat="44.124328" lon="10.4099007"><ele>337.3333333333333</ele><time>2026-04-23T11:44:51.116Z</time></trkpt><trkpt lat="44.1244251" lon="10.4099523"><ele>338.0</ele><time>2026-04-23T11:44:54.116Z</time></trkpt><trkpt lat="44.1245027" lon="10.409996"><ele>338.66666666666663</ele><time>2026-04-23T11:44:57.1Z</time></trkpt><trkpt lat="44.1245742" lon="10.4100428"><ele>339.3333333333333</ele><time>2026-04-23T11:45:00.114Z</time></trkpt><trkpt lat="44.1246309" lon="10.4101101"><ele>340.0</ele><time>2026-04-23T11:45:03.122Z</time></trkpt><trkpt lat="44.1246721" lon="10.4102122"><ele>340.0</ele><time>2026-04-23T11:45:07.105Z</time></trkpt><trkpt lat="44.1246993" lon="10.4102972"><ele>340.0</ele><time>2026-04-23T11:45:09.102Z</time></trkpt><trkpt lat="44.1247453" lon="10.4103682"><ele>340.0</ele><time>2026-04-23T11:45:11.127Z</time></trkpt><trkpt lat="44.1248069" lon="10.4104207"><ele>340.0</ele><time>2026-04-23T11:45:13.105Z</time></trkpt><trkpt lat="44.1248749" lon="10.4104618"><ele>340.0</ele><time>2026-04-23T11:45:15.111Z</time></trkpt><trkpt lat="44.1249504" lon="10.4104699"><ele>340.0</ele><time>2026-04-23T11:45:17.106Z</time></trkpt><trkpt lat="44.1250241" lon="10.4104423"><ele>340.0</ele><time>2026-04-23T11:45:19.104Z</time></trkpt><trkpt lat="44.1250911" lon="10.410402"><ele>340.5714285714286</ele><time>2026-04-23T11:45:21.106Z</time></trkpt><trkpt lat="44.1251635" lon="10.4103723"><ele>341.1428571428571</ele><time>2026-04-23T11:45:23.104Z</time></trkpt><trkpt lat="44.1252348" lon="10.4103743"><ele>341.7142857142857</ele><time>2026-04-23T11:45:25.113Z</time></trkpt><trkpt lat="44.1253061" lon="10.410394"><ele>342.28571428571433</ele><time>2026-04-23T11:45:27.108Z</time></trkpt><trkpt lat="44.1253777" lon="10.4104232"><ele>342.8571428571429</ele><time>2026-04-23T11:45:29.115Z</time></trkpt><trkpt lat="44.1254482" lon="10.4104507"><ele>343.42857142857144</ele><time>2026-04-23T11:45:31.107Z</time></trkpt><trkpt lat="44.1255181" lon="10.4104794"><ele>344.0</ele><time>2026-04-23T11:45:33.114Z</time></trkpt><trkpt lat="44.1255874" lon="10.4105143"><ele>344.28571428571433</ele><time>2026-04-23T11:45:35.111Z</time></trkpt><trkpt lat="44.125657" lon="10.4105425"><ele>344.57142857142856</ele><time>2026-04-23T11:45:37.111Z</time></trkpt><trkpt lat="44.1257251" lon="10.4105795"><ele>344.8571428571429</ele><time>2026-04-23T11:45:39.108Z</time></trkpt><trkpt lat="44.1257936" lon="10.4106124"><ele>345.14285714285717</ele><time>2026-04-23T11:45:41.116Z</time></trkpt><trkpt lat="44.1258632" lon="10.4106398"><ele>345.42857142857144</ele><time>2026-04-23T11:45:43.113Z</time></trkpt><trkpt lat="44.1259327" lon="10.410667"><ele>345.7142857142857</ele><time>2026-04-23T11:45:45.109Z</time></trkpt><trkpt lat="44.1259993" lon="10.4106871"><ele>346.0</ele><time>2026-04-23T11:45:47.106Z</time></trkpt><trkpt lat="44.1260661" lon="10.4107128"><ele>346.3333333333333</ele><time>2026-04-23T11:45:49.108Z</time></trkpt><trkpt lat="44.1261785" lon="10.4107416"><ele>346.66666666666663</ele><time>2026-04-23T11:45:52.115Z</time></trkpt><trkpt lat="44.1262507" lon="10.410763"><ele>347.0</ele><time>2026-04-23T11:45:54.12Z</time></trkpt><trkpt lat="44.126323" lon="10.410784"><ele>347.3333333333333</ele><time>2026-04-23T11:45:56.123Z</time></trkpt><trkpt lat="44.1263938" lon="10.4108066"><ele>347.6666666666667</ele><time>2026-04-23T11:45:58.109Z</time></trkpt><trkpt lat="44.1264665" lon="10.4108251"><ele>348.0</ele><time>2026-04-23T11:46:00.12Z</time></trkpt><trkpt lat="44.1265377" lon="10.4108452"><ele>348.1428571428571</ele><time>2026-04-23T11:46:02.101Z</time></trkpt><trkpt lat="44.1266085" lon="10.4108641"><ele>348.2857142857143</ele><time>2026-04-23T11:46:04.115Z</time></trkpt><trkpt lat="44.1266785" lon="10.4108855"><ele>348.42857142857144</ele><time>2026-04-23T11:46:06.113Z</time></trkpt><trkpt lat="44.1267481" lon="10.4109039"><ele>348.57142857142856</ele><time>2026-04-23T11:46:08.113Z</time></trkpt><trkpt lat="44.126817" lon="10.4109216"><ele>348.7142857142857</ele><time>2026-04-23T11:46:10.114Z</time></trkpt><trkpt lat="44.1268864" lon="10.4109406"><ele>348.85714285714283</ele><time>2026-04-23T11:46:12.112Z</time></trkpt><trkpt lat="44.1269576" lon="10.410959"><ele>349.0</ele><time>2026-04-23T11:46:14.117Z</time></trkpt><trkpt lat="44.1270277" lon="10.4109742"><ele>349.0</ele><time>2026-04-23T11:46:16.106Z</time></trkpt><trkpt lat="44.1271349" lon="10.4110018"><ele>349.0</ele><time>2026-04-23T11:46:19.106Z</time></trkpt><trkpt lat="44.1272066" lon="10.4110228"><ele>349.0</ele><time>2026-04-23T11:46:21.107Z</time></trkpt><trkpt lat="44.1272763" lon="10.4110448"><ele>349.0</ele><time>2026-04-23T11:46:23.1Z</time></trkpt><trkpt lat="44.1273469" lon="10.4110695"><ele>349.0</ele><time>2026-04-23T11:46:25.103Z</time></trkpt><trkpt lat="44.1274187" lon="10.4111028"><ele>349.0</ele><time>2026-04-23T11:46:27.107Z</time></trkpt><trkpt lat="44.1274919" lon="10.4111321"><ele>349.16666666666663</ele><time>2026-04-23T11:46:29.133Z</time></trkpt><trkpt lat="44.1275648" lon="10.4111608"><ele>349.3333333333333</ele><time>2026-04-23T11:46:31.109Z</time></trkpt><trkpt lat="44.1276388" lon="10.4111866"><ele>349.5</ele><time>2026-04-23T11:46:33.106Z</time></trkpt><trkpt lat="44.1277158" lon="10.4112112"><ele>349.6666666666667</ele><time>2026-04-23T11:46:35.111Z</time></trkpt><trkpt lat="44.1277932" lon="10.4112395"><ele>349.83333333333337</ele><time>2026-04-23T11:46:37.107Z</time></trkpt><trkpt lat="44.1278712" lon="10.4112658"><ele>350.0</ele><time>2026-04-23T11:46:39.111Z</time></trkpt><trkpt lat="44.1279454" lon="10.411288"><ele>350.0</ele><time>2026-04-23T11:46:41.12Z</time></trkpt><trkpt lat="44.1280185" lon="10.4113135"><ele>350.0</ele><time>2026-04-23T11:46:43.106Z</time></trkpt><trkpt lat="44.1281257" lon="10.4113452"><ele>350.0</ele><time>2026-04-23T11:46:46.105Z</time></trkpt><trkpt lat="44.1281968" lon="10.4113686"><ele>350.0</ele><time>2026-04-23T11:46:48.105Z</time></trkpt><trkpt lat="44.1282691" lon="10.411391"><ele>350.0</ele><time>2026-04-23T11:46:50.109Z</time></trkpt><trkpt lat="44.1283399" lon="10.4114126"><ele>350.0</ele><time>2026-04-23T11:46:52.108Z</time></trkpt><trkpt lat="44.1284122" lon="10.4114282"><ele>350.42857142857144</ele><time>2026-04-23T11:46:54.115Z</time></trkpt><trkpt lat="44.1284869" lon="10.4114343"><ele>350.8571428571429</ele><time>2026-04-23T11:46:56.107Z</time></trkpt><trkpt lat="44.1285618" lon="10.4114297"><ele>351.2857142857143</ele><time>2026-04-23T11:46:58.121Z</time></trkpt><trkpt lat="44.1286354" lon="10.4114308"><ele>351.7142857142857</ele><time>2026-04-23T11:47:00.108Z</time></trkpt><trkpt lat="44.1287076" lon="10.411443"><ele>352.14285714285717</ele><time>2026-04-23T11:47:02.115Z</time></trkpt><trkpt lat="44.1287731" lon="10.4114649"><ele>352.57142857142856</ele><time>2026-04-23T11:47:04.118Z</time></trkpt><trkpt lat="44.1288277" lon="10.4115209"><ele>353.0</ele><time>2026-04-23T11:47:06.111Z</time></trkpt><trkpt lat="44.1288847" lon="10.4115804"><ele>353.0</ele><time>2026-04-23T11:47:08.111Z</time></trkpt><trkpt lat="44.1289524" lon="10.4116192"><ele>353.0</ele><time>2026-04-23T11:47:10.116Z</time></trkpt><trkpt lat="44.1290189" lon="10.4116505"><ele>353.0</ele><time>2026-04-23T11:47:12.107Z</time></trkpt><trkpt lat="44.1290921" lon="10.4116784"><ele>353.0</ele><time>2026-04-23T11:47:14.11Z</time></trkpt><trkpt lat="44.1291654" lon="10.4117086"><ele>353.0</ele><time>2026-04-23T11:47:16.107Z</time></trkpt><trkpt lat="44.1292373" lon="10.4117323"><ele>353.0</ele><time>2026-04-23T11:47:18.109Z</time></trkpt><trkpt lat="44.1293071" lon="10.4117513"><ele>353.0</ele><time>2026-04-23T11:47:20.11Z</time></trkpt><trkpt lat="44.1293744" lon="10.4117789"><ele>353.2857142857143</ele><time>2026-04-23T11:47:22.111Z</time></trkpt><trkpt lat="44.1294439" lon="10.4118018"><ele>353.5714285714286</ele><time>2026-04-23T11:47:24.11Z</time></trkpt><trkpt lat="44.1295113" lon="10.4118279"><ele>353.8571428571429</ele><time>2026-04-23T11:47:26.122Z</time></trkpt><trkpt lat="44.1295828" lon="10.4118468"><ele>354.1428571428571</ele><time>2026-04-23T11:47:28.116Z</time></trkpt><trkpt lat="44.1296491" lon="10.4118712"><ele>354.42857142857144</ele><time>2026-04-23T11:47:30.113Z</time></trkpt><trkpt lat="44.1297141" lon="10.4119069"><ele>354.7142857142857</ele><time>2026-04-23T11:47:32.1Z</time></trkpt><trkpt lat="44.1297798" lon="10.411947"><ele>355.0</ele><time>2026-04-23T11:47:34.109Z</time></trkpt><trkpt lat="44.1298475" lon="10.4119848"><ele>356.0</ele><time>2026-04-23T11:47:36.114Z</time></trkpt><trkpt lat="44.1299181" lon="10.412024"><ele>357.0</ele><time>2026-04-23T11:47:38.122Z</time></trkpt><trkpt lat="44.1299884" lon="10.4120648"><ele>358.0</ele><time>2026-04-23T11:47:40.109Z</time></trkpt><trkpt lat="44.1300584" lon="10.4121087"><ele>359.0</ele><time>2026-04-23T11:47:42.112Z</time></trkpt><trkpt lat="44.1301261" lon="10.4121515"><ele>360.0</ele><time>2026-04-23T11:47:44.115Z</time></trkpt><trkpt lat="44.1301893" lon="10.4121992"><ele>361.0</ele><time>2026-04-23T11:47:46.116Z</time></trkpt><trkpt lat="44.1302861" lon="10.4122741"><ele>361.2857142857143</ele><time>2026-04-23T11:47:49.11Z</time></trkpt><trkpt lat="44.130354" lon="10.4123195"><ele>361.57142857142856</ele><time>2026-04-23T11:47:51.111Z</time></trkpt><trkpt lat="44.1304218" lon="10.4123688"><ele>361.85714285714283</ele><time>2026-04-23T11:47:53.108Z</time></trkpt><trkpt lat="44.130487" lon="10.4124081"><ele>362.1428571428571</ele><time>2026-04-23T11:47:55.109Z</time></trkpt><trkpt lat="44.1305521" lon="10.4124517"><ele>362.42857142857144</ele><time>2026-04-23T11:47:57.108Z</time></trkpt><trkpt lat="44.1306153" lon="10.4124975"><ele>362.71428571428567</ele><time>2026-04-23T11:47:59.124Z</time></trkpt><trkpt lat="44.1306816" lon="10.4125429"><ele>363.0</ele><time>2026-04-23T11:48:01.102Z</time></trkpt><trkpt lat="44.1307479" lon="10.4125867"><ele>363.1666666666667</ele><time>2026-04-23T11:48:03.11Z</time></trkpt><trkpt lat="44.1308154" lon="10.4126295"><ele>363.3333333333333</ele><time>2026-04-23T11:48:05.109Z</time></trkpt><trkpt lat="44.1308782" lon="10.412674"><ele>363.5</ele><time>2026-04-23T11:48:07.107Z</time></trkpt><trkpt lat="44.1309665" lon="10.4127471"><ele>363.66666666666663</ele><time>2026-04-23T11:48:10.11Z</time></trkpt><trkpt lat="44.1310302" lon="10.4127844"><ele>363.8333333333333</ele><time>2026-04-23T11:48:12.111Z</time></trkpt><trkpt lat="44.1311122" lon="10.4128506"><ele>364.0</ele><time>2026-04-23T11:48:15.11Z</time></trkpt><trkpt lat="44.1311747" lon="10.4128999"><ele>364.0</ele><time>2026-04-23T11:48:17.121Z</time></trkpt><trkpt lat="44.1312448" lon="10.4129522"><ele>364.0</ele><time>2026-04-23T11:48:19.107Z</time></trkpt><trkpt lat="44.1313062" lon="10.4130011"><ele>364.0</ele><time>2026-04-23T11:48:21.107Z</time></trkpt><trkpt lat="44.1313757" lon="10.4130448"><ele>364.0</ele><time>2026-04-23T11:48:23.104Z</time></trkpt><trkpt lat="44.1314433" lon="10.4130933"><ele>364.0</ele><time>2026-04-23T11:48:25.119Z</time></trkpt><trkpt lat="44.1315074" lon="10.4131362"><ele>364.0</ele><time>2026-04-23T11:48:27.108Z</time></trkpt><trkpt lat="44.1315757" lon="10.4131742"><ele>364.0</ele><time>2026-04-23T11:48:29.113Z</time></trkpt><trkpt lat="44.1316479" lon="10.4132064"><ele>364.66666666666663</ele><time>2026-04-23T11:48:31.115Z</time></trkpt><trkpt lat="44.1317174" lon="10.4132399"><ele>365.3333333333333</ele><time>2026-04-23T11:48:33.111Z</time></trkpt><trkpt lat="44.1317876" lon="10.4132777"><ele>366.0</ele><time>2026-04-23T11:48:35.113Z</time></trkpt><trkpt lat="44.1318634" lon="10.4133073"><ele>366.6666666666667</ele><time>2026-04-23T11:48:37.103Z</time></trkpt><trkpt lat="44.1319394" lon="10.4133355"><ele>367.33333333333337</ele><time>2026-04-23T11:48:39.109Z</time></trkpt><trkpt lat="44.1320133" lon="10.4133627"><ele>368.0</ele><time>2026-04-23T11:48:41.109Z</time></trkpt><trkpt lat="44.1320856" lon="10.413394"><ele>368.0</ele><time>2026-04-23T11:48:43.11Z</time></trkpt><trkpt lat="44.1321588" lon="10.4134296"><ele>368.0</ele><time>2026-04-23T11:48:45.11Z</time></trkpt><trkpt lat="44.1322321" lon="10.4134625"><ele>368.0</ele><time>2026-04-23T11:48:47.11Z</time></trkpt><trkpt lat="44.1323071" lon="10.4134861"><ele>368.0</ele><time>2026-04-23T11:48:49.105Z</time></trkpt><trkpt lat="44.1323781" lon="10.4135124"><ele>368.0</ele><time>2026-04-23T11:48:51.107Z</time></trkpt><trkpt lat="44.1324483" lon="10.41354"><ele>368.0</ele><time>2026-04-23T11:48:53.118Z</time></trkpt><trkpt lat="44.1325166" lon="10.4135674"><ele>368.0</ele><time>2026-04-23T11:48:55.116Z</time></trkpt><trkpt lat="44.1325889" lon="10.4135962"><ele>368.7142857142857</ele><time>2026-04-23T11:48:57.111Z</time></trkpt><trkpt lat="44.1326602" lon="10.4136247"><ele>369.4285714285714</ele><time>2026-04-23T11:48:59.108Z</time></trkpt><trkpt lat="44.1327325" lon="10.413654"><ele>370.1428571428571</ele><time>2026-04-23T11:49:01.107Z</time></trkpt><trkpt lat="44.1328031" lon="10.4136818"><ele>370.8571428571429</ele><time>2026-04-23T11:49:03.108Z</time></trkpt><trkpt lat="44.1328734" lon="10.4137124"><ele>371.57142857142856</ele><time>2026-04-23T11:49:05.111Z</time></trkpt><trkpt lat="44.1329431" lon="10.4137401"><ele>372.2857142857143</ele><time>2026-04-23T11:49:07.109Z</time></trkpt><trkpt lat="44.1330101" lon="10.4137715"><ele>373.0</ele><time>2026-04-23T11:49:09.114Z</time></trkpt><trkpt lat="44.1330819" lon="10.413796"><ele>372.8333333333333</ele><time>2026-04-23T11:49:11.108Z</time></trkpt><trkpt lat="44.1331533" lon="10.4138242"><ele>372.66666666666663</ele><time>2026-04-23T11:49:13.108Z</time></trkpt><trkpt lat="44.1332233" lon="10.4138557"><ele>372.5</ele><time>2026-04-23T11:49:15.106Z</time></trkpt><trkpt lat="44.1332943" lon="10.4138857"><ele>372.3333333333333</ele><time>2026-04-23T11:49:17.116Z</time></trkpt><trkpt lat="44.1333565" lon="10.4139257"><ele>372.1666666666667</ele><time>2026-04-23T11:49:19.109Z</time></trkpt><trkpt lat="44.133418" lon="10.4139781"><ele>372.0</ele><time>2026-04-23T11:49:21.109Z</time></trkpt><trkpt lat="44.13351" lon="10.4140548"><ele>372.8571428571429</ele><time>2026-04-23T11:49:24.118Z</time></trkpt><trkpt lat="44.1335721" lon="10.4141047"><ele>373.7142857142857</ele><time>2026-04-23T11:49:26.122Z</time></trkpt><trkpt lat="44.1336345" lon="10.4141668"><ele>374.57142857142856</ele><time>2026-04-23T11:49:28.114Z</time></trkpt><trkpt lat="44.1336956" lon="10.4142325"><ele>375.42857142857144</ele><time>2026-04-23T11:49:30.111Z</time></trkpt><trkpt lat="44.1337559" lon="10.4142915"><ele>376.2857142857143</ele><time>2026-04-23T11:49:32.113Z</time></trkpt><trkpt lat="44.1338135" lon="10.4143555"><ele>377.14285714285717</ele><time>2026-04-23T11:49:34.104Z</time></trkpt><trkpt lat="44.1338673" lon="10.4144228"><ele>378.0</ele><time>2026-04-23T11:49:36.111Z</time></trkpt><trkpt lat="44.1339217" lon="10.4144885"><ele>378.0</ele><time>2026-04-23T11:49:38.109Z</time></trkpt><trkpt lat="44.1339776" lon="10.4145554"><ele>378.0</ele><time>2026-04-23T11:49:40.107Z</time></trkpt><trkpt lat="44.1340282" lon="10.4146194"><ele>378.0</ele><time>2026-04-23T11:49:42.111Z</time></trkpt><trkpt lat="44.1340799" lon="10.4146886"><ele>378.0</ele><time>2026-04-23T11:49:44.104Z</time></trkpt><trkpt lat="44.1341343" lon="10.4147536"><ele>378.0</ele><time>2026-04-23T11:49:46.114Z</time></trkpt><trkpt lat="44.1341907" lon="10.4148177"><ele>378.0</ele><time>2026-04-23T11:49:48.117Z</time></trkpt><trkpt lat="44.1342441" lon="10.4148827"><ele>378.0</ele><time>2026-04-23T11:49:50.109Z</time></trkpt><trkpt lat="44.1343372" lon="10.4149891"><ele>378.6666666666667</ele><time>2026-04-23T11:49:53.105Z</time></trkpt><trkpt lat="44.1343946" lon="10.415055"><ele>379.3333333333333</ele><time>2026-04-23T11:49:55.113Z</time></trkpt><trkpt lat="44.1344569" lon="10.4151173"><ele>380.0</ele><time>2026-04-23T11:49:57.124Z</time></trkpt><trkpt lat="44.1345177" lon="10.4151826"><ele>380.66666666666663</ele><time>2026-04-23T11:49:59.11Z</time></trkpt><trkpt lat="44.1345794" lon="10.4152494"><ele>381.3333333333333</ele><time>2026-04-23T11:50:01.111Z</time></trkpt><trkpt lat="44.1346406" lon="10.4153205"><ele>382.0</ele><time>2026-04-23T11:50:03.133Z</time></trkpt><trkpt lat="44.1347044" lon="10.4153897"><ele>382.0</ele><time>2026-04-23T11:50:05.118Z</time></trkpt><trkpt lat="44.1347684" lon="10.4154522"><ele>382.0</ele><time>2026-04-23T11:50:07.113Z</time></trkpt><trkpt lat="44.1348347" lon="10.4155056"><ele>382.0</ele><time>2026-04-23T11:50:09.114Z</time></trkpt><trkpt lat="44.1349072" lon="10.4155495"><ele>382.0</ele><time>2026-04-23T11:50:11.112Z</time></trkpt><trkpt lat="44.13498" lon="10.4155882"><ele>382.0</ele><time>2026-04-23T11:50:13.13Z</time></trkpt><trkpt lat="44.135051" lon="10.4156282"><ele>382.0</ele><time>2026-04-23T11:50:15.119Z</time></trkpt><trkpt lat="44.13512" lon="10.4156658"><ele>382.3333333333333</ele><time>2026-04-23T11:50:17.117Z</time></trkpt><trkpt lat="44.1351905" lon="10.415702"><ele>382.66666666666663</ele><time>2026-04-23T11:50:19.115Z</time></trkpt><trkpt lat="44.1352661" lon="10.415737"><ele>383.0</ele><time>2026-04-23T11:50:21.107Z</time></trkpt><trkpt lat="44.1353393" lon="10.4157698"><ele>383.3333333333333</ele><time>2026-04-23T11:50:23.106Z</time></trkpt><trkpt lat="44.1354512" lon="10.4158162"><ele>383.6666666666667</ele><time>2026-04-23T11:50:26.121Z</time></trkpt><trkpt lat="44.1355267" lon="10.4158485"><ele>384.0</ele><time>2026-04-23T11:50:28.108Z</time></trkpt><trkpt lat="44.1356004" lon="10.4158789"><ele>384.0</ele><time>2026-04-23T11:50:30.103Z</time></trkpt><trkpt lat="44.135678" lon="10.4159129"><ele>384.0</ele><time>2026-04-23T11:50:32.114Z</time></trkpt><trkpt lat="44.1357571" lon="10.4159475"><ele>384.0</ele><time>2026-04-23T11:50:34.11Z</time></trkpt><trkpt lat="44.1358342" lon="10.4159846"><ele>384.0</ele><time>2026-04-23T11:50:36.116Z</time></trkpt><trkpt lat="44.1359122" lon="10.4160172"><ele>384.0</ele><time>2026-04-23T11:50:38.108Z</time></trkpt><trkpt lat="44.1359914" lon="10.41605"><ele>384.0</ele><time>2026-04-23T11:50:40.1Z</time></trkpt><trkpt lat="44.1360723" lon="10.4160912"><ele>384.79999999999995</ele><time>2026-04-23T11:50:42.107Z</time></trkpt><trkpt lat="44.1361559" lon="10.4161378"><ele>385.59999999999997</ele><time>2026-04-23T11:50:44.103Z</time></trkpt><trkpt lat="44.1362371" lon="10.4161903"><ele>386.4</ele><time>2026-04-23T11:50:46.115Z</time></trkpt><trkpt lat="44.1363171" lon="10.4162514"><ele>387.2</ele><time>2026-04-23T11:50:48.11Z</time></trkpt><trkpt lat="44.1363929" lon="10.4163208"><ele>388.0</ele><time>2026-04-23T11:50:50.112Z</time></trkpt><trkpt lat="44.136469" lon="10.4163922"><ele>388.0</ele><time>2026-04-23T11:50:52.106Z</time></trkpt><trkpt lat="44.1365435" lon="10.4164635"><ele>388.0</ele><time>2026-04-23T11:50:54.103Z</time></trkpt><trkpt lat="44.1366257" lon="10.4165306"><ele>388.0</ele><time>2026-04-23T11:50:56.129Z</time></trkpt><trkpt lat="44.1366992" lon="10.4166039"><ele>388.0</ele><time>2026-04-23T11:50:58.118Z</time></trkpt><trkpt lat="44.136773" lon="10.4166888"><ele>388.0</ele><time>2026-04-23T11:51:00.117Z</time></trkpt><trkpt lat="44.1368518" lon="10.416772"><ele>389.2</ele><time>2026-04-23T11:51:02.132Z</time></trkpt><trkpt lat="44.1369291" lon="10.4168523"><ele>390.4</ele><time>2026-04-23T11:51:04.126Z</time></trkpt><trkpt lat="44.1370018" lon="10.4169359"><ele>391.59999999999997</ele><time>2026-04-23T11:51:06.118Z</time></trkpt><trkpt lat="44.1370726" lon="10.4170252"><ele>392.79999999999995</ele><time>2026-04-23T11:51:08.108Z</time></trkpt><trkpt lat="44.1371452" lon="10.4170986"><ele>394.0</ele><time>2026-04-23T11:51:10.108Z</time></trkpt><trkpt lat="44.1372151" lon="10.4171769"><ele>394.33333333333337</ele><time>2026-04-23T11:51:12.105Z</time></trkpt><trkpt lat="44.137282" lon="10.4172437"><ele>394.6666666666667</ele><time>2026-04-23T11:51:14.121Z</time></trkpt><trkpt lat="44.1373437" lon="10.4173033"><ele>395.0</ele><time>2026-04-23T11:51:16.117Z</time></trkpt><trkpt lat="44.1374028" lon="10.4173642"><ele>395.33333333333337</ele><time>2026-04-23T11:51:18.116Z</time></trkpt><trkpt lat="44.1374928" lon="10.4174643"><ele>395.6666666666667</ele><time>2026-04-23T11:51:21.113Z</time></trkpt><trkpt lat="44.1375608" lon="10.4175295"><ele>396.0</ele><time>2026-04-23T11:51:23.116Z</time></trkpt><trkpt lat="44.1376291" lon="10.417598"><ele>396.6666666666667</ele><time>2026-04-23T11:51:25.11Z</time></trkpt><trkpt lat="44.1376954" lon="10.4176654"><ele>397.33333333333337</ele><time>2026-04-23T11:51:27.108Z</time></trkpt><trkpt lat="44.1377611" lon="10.4177402"><ele>398.0</ele><time>2026-04-23T11:51:29.108Z</time></trkpt><trkpt lat="44.137821" lon="10.417814"><ele>398.6666666666667</ele><time>2026-04-23T11:51:31.109Z</time></trkpt><trkpt lat="44.1378876" lon="10.4178839"><ele>399.33333333333337</ele><time>2026-04-23T11:51:33.121Z</time></trkpt><trkpt lat="44.1379549" lon="10.4179478"><ele>400.0</ele><time>2026-04-23T11:51:35.109Z</time></trkpt><trkpt lat="44.1380208" lon="10.4180091"><ele>400.6</ele><time>2026-04-23T11:51:37.105Z</time></trkpt><trkpt lat="44.1380877" lon="10.4180719"><ele>401.2</ele><time>2026-04-23T11:51:39.106Z</time></trkpt><trkpt lat="44.1381738" lon="10.4181231"><ele>401.79999999999995</ele><time>2026-04-23T11:51:41.123Z</time></trkpt><trkpt lat="44.1382679" lon="10.4181702"><ele>402.4</ele><time>2026-04-23T11:51:43.128Z</time></trkpt><trkpt lat="44.1383677" lon="10.4182199"><ele>403.0</ele><time>2026-04-23T11:51:45.113Z</time></trkpt><trkpt lat="44.1384697" lon="10.4182515"><ele>403.0</ele><time>2026-04-23T11:51:47.112Z</time></trkpt><trkpt lat="44.1385932" lon="10.4182451"><ele>403.0</ele><time>2026-04-23T11:51:49.114Z</time></trkpt><trkpt lat="44.1387225" lon="10.4182289"><ele>403.0</ele><time>2026-04-23T11:51:51.103Z</time></trkpt><trkpt lat="44.1387903" lon="10.4182224"><ele>403.0</ele><time>2026-04-23T11:51:52.112Z</time></trkpt><trkpt lat="44.1389219" lon="10.4182101"><ele>403.0</ele><time>2026-04-23T11:51:54.117Z</time></trkpt><trkpt lat="44.1389962" lon="10.4182097"><ele>403.0</ele><time>2026-04-23T11:51:55.108Z</time></trkpt><trkpt lat="44.1390686" lon="10.4182211"><ele>403.0</ele><time>2026-04-23T11:51:56.109Z</time></trkpt><trkpt lat="44.1391384" lon="10.4182386"><ele>403.0</ele><time>2026-04-23T11:51:57.107Z</time></trkpt><trkpt lat="44.1392087" lon="10.4182559"><ele>403.0</ele><time>2026-04-23T11:51:58.108Z</time></trkpt><trkpt lat="44.1392817" lon="10.4182671"><ele>403.0</ele><time>2026-04-23T11:51:59.112Z</time></trkpt><trkpt lat="44.139356" lon="10.4182703"><ele>403.0</ele><time>2026-04-23T11:52:00Z</time></trkpt><trkpt lat="44.1394284" lon="10.4182628"><ele>402.0</ele><time>2026-04-23T11:52:01.113Z</time></trkpt><trkpt lat="44.1394981" lon="10.4182536"><ele>401.0</ele><time>2026-04-23T11:52:02.118Z</time></trkpt><trkpt lat="44.1395657" lon="10.4182461"><ele>400.0</ele><time>2026-04-23T11:52:03.108Z</time></trkpt><trkpt lat="44.1396388" lon="10.4182378"><ele>399.0</ele><time>2026-04-23T11:52:04.114Z</time></trkpt><trkpt lat="44.13971" lon="10.4182247"><ele>398.0</ele><time>2026-04-23T11:52:05.114Z</time></trkpt><trkpt lat="44.1397809" lon="10.4182131"><ele>397.0</ele><time>2026-04-23T11:52:06.114Z</time></trkpt><trkpt lat="44.1398539" lon="10.4181969"><ele>396.0</ele><time>2026-04-23T11:52:07.115Z</time></trkpt><trkpt lat="44.1399294" lon="10.4181874"><ele>396.0</ele><time>2026-04-23T11:52:08.122Z</time></trkpt><trkpt lat="44.1399993" lon="10.4181777"><ele>396.0</ele><time>2026-04-23T11:52:09.118Z</time></trkpt><trkpt lat="44.1400709" lon="10.4181699"><ele>396.0</ele><time>2026-04-23T11:52:10.104Z</time></trkpt><trkpt lat="44.1401397" lon="10.4181597"><ele>396.0</ele><time>2026-04-23T11:52:11.116Z</time></trkpt><trkpt lat="44.140205" lon="10.4181323"><ele>396.0</ele><time>2026-04-23T11:52:12.117Z</time></trkpt><trkpt lat="44.1402651" lon="10.4180785"><ele>396.0</ele><time>2026-04-23T11:52:13.107Z</time></trkpt><trkpt lat="44.1403175" lon="10.4180155"><ele>396.0</ele><time>2026-04-23T11:52:14.113Z</time></trkpt><trkpt lat="44.1403603" lon="10.4179342"><ele>394.14285714285717</ele><time>2026-04-23T11:52:15.117Z</time></trkpt><trkpt lat="44.1403923" lon="10.4178377"><ele>392.2857142857143</ele><time>2026-04-23T11:52:16.112Z</time></trkpt><trkpt lat="44.1404227" lon="10.4177376"><ele>390.42857142857144</ele><time>2026-04-23T11:52:17.11Z</time></trkpt><trkpt lat="44.1404387" lon="10.4176411"><ele>388.57142857142856</ele><time>2026-04-23T11:52:18.114Z</time></trkpt><trkpt lat="44.1404477" lon="10.4175437"><ele>386.71428571428567</ele><time>2026-04-23T11:52:19.114Z</time></trkpt><trkpt lat="44.1404594" lon="10.4174557"><ele>384.85714285714283</ele><time>2026-04-23T11:52:20.112Z</time></trkpt><trkpt lat="44.1404712" lon="10.4173572"><ele>383.0</ele><time>2026-04-23T11:52:21.105Z</time></trkpt><trkpt lat="44.1404827" lon="10.417265"><ele>381.75</ele><time>2026-04-23T11:52:22.112Z</time></trkpt><trkpt lat="44.1405057" lon="10.4170844"><ele>380.5</ele><time>2026-04-23T11:52:24.109Z</time></trkpt><trkpt lat="44.1405304" lon="10.4169217"><ele>379.25</ele><time>2026-04-23T11:52:26.115Z</time></trkpt><trkpt lat="44.1405529" lon="10.4167632"><ele>378.0</ele><time>2026-04-23T11:52:28.121Z</time></trkpt><trkpt lat="44.1405742" lon="10.416616"><ele>378.0</ele><time>2026-04-23T11:52:30.113Z</time></trkpt><trkpt lat="44.1405915" lon="10.4164711"><ele>378.0</ele><time>2026-04-23T11:52:32.109Z</time></trkpt><trkpt lat="44.1406143" lon="10.4163378"><ele>378.0</ele><time>2026-04-23T11:52:34.109Z</time></trkpt><trkpt lat="44.1406387" lon="10.4162068"><ele>378.0</ele><time>2026-04-23T11:52:36.114Z</time></trkpt><trkpt lat="44.1406532" lon="10.4160858"><ele>378.0</ele><time>2026-04-23T11:52:38.11Z</time></trkpt><trkpt lat="44.1406771" lon="10.4159807"><ele>377.8333333333333</ele><time>2026-04-23T11:52:40.104Z</time></trkpt><trkpt lat="44.1406935" lon="10.4158757"><ele>377.6666666666667</ele><time>2026-04-23T11:52:42.125Z</time></trkpt><trkpt lat="44.1407043" lon="10.4157797"><ele>377.5</ele><time>2026-04-23T11:52:44.101Z</time></trkpt><trkpt lat="44.1407202" lon="10.4156048"><ele>377.33333333333337</ele><time>2026-04-23T11:52:48.101Z</time></trkpt><trkpt lat="44.1407286" lon="10.4154881"><ele>377.1666666666667</ele><time>2026-04-23T11:52:51.129Z</time></trkpt><trkpt lat="44.1407338" lon="10.4153824"><ele>377.0</ele><time>2026-04-23T11:52:54.108Z</time></trkpt><trkpt lat="44.1407266" lon="10.4152812"><ele>377.1666666666667</ele><time>2026-04-23T11:52:57.12Z</time></trkpt><trkpt lat="44.140725" lon="10.4151719"><ele>377.33333333333337</ele><time>2026-04-23T11:53:00.112Z</time></trkpt><trkpt lat="44.1407154" lon="10.4150623"><ele>377.5</ele><time>2026-04-23T11:53:03.103Z</time></trkpt><trkpt lat="44.1407097" lon="10.4149563"><ele>377.6666666666667</ele><time>2026-04-23T11:53:06.107Z</time></trkpt><trkpt lat="44.1407015" lon="10.4148512"><ele>377.8333333333333</ele><time>2026-04-23T11:53:09.112Z</time></trkpt><trkpt lat="44.1406944" lon="10.4147493"><ele>378.0</ele><time>2026-04-23T11:53:12.108Z</time></trkpt><trkpt lat="44.1406889" lon="10.4146449"><ele>378.5</ele><time>2026-04-23T11:53:15.111Z</time></trkpt><trkpt lat="44.1406834" lon="10.414537"><ele>379.0</ele><time>2026-04-23T11:53:18.116Z</time></trkpt><trkpt lat="44.1406818" lon="10.4144319"><ele>379.5</ele><time>2026-04-23T11:53:21.102Z</time></trkpt><trkpt lat="44.1407021" lon="10.4143321"><ele>380.0</ele><time>2026-04-23T11:53:24.107Z</time></trkpt><trkpt lat="44.140747" lon="10.414248"><ele>380.5</ele><time>2026-04-23T11:53:27.104Z</time></trkpt><trkpt lat="44.1408146" lon="10.4141951"><ele>381.0</ele><time>2026-04-23T11:53:30.112Z</time></trkpt><trkpt lat="44.1408895" lon="10.4141845"><ele>382.0</ele><time>2026-04-23T11:53:33.107Z</time></trkpt><trkpt lat="44.1409567" lon="10.4142221"><ele>383.0</ele><time>2026-04-23T11:53:36.111Z</time></trkpt><trkpt lat="44.1410092" lon="10.4142981"><ele>384.0</ele><time>2026-04-23T11:53:39.107Z</time></trkpt><trkpt lat="44.1410439" lon="10.4143952"><ele>385.0</ele><time>2026-04-23T11:53:42.113Z</time></trkpt><trkpt lat="44.1410558" lon="10.4144983"><ele>386.0</ele><time>2026-04-23T11:53:45.108Z</time></trkpt><trkpt lat="44.1410648" lon="10.4146033"><ele>387.0</ele><time>2026-04-23T11:53:48.111Z</time></trkpt><trkpt lat="44.1410862" lon="10.4147088"><ele>387.0</ele><time>2026-04-23T11:53:51.102Z</time></trkpt><trkpt lat="44.1411219" lon="10.4148"><ele>387.0</ele><time>2026-04-23T11:53:54.108Z</time></trkpt><trkpt lat="44.141171" lon="10.4148799"><ele>387.0</ele><time>2026-04-23T11:53:57.102Z</time></trkpt><trkpt lat="44.1412358" lon="10.414929"><ele>387.0</ele><time>2026-04-23T11:54:00.105Z</time></trkpt><trkpt lat="44.1413102" lon="10.4149475"><ele>387.0</ele><time>2026-04-23T11:54:03.106Z</time></trkpt><trkpt lat="44.1413873" lon="10.4149481"><ele>387.0</ele><time>2026-04-23T11:54:06.106Z</time></trkpt><trkpt lat="44.1414632" lon="10.4149305"><ele>387.0</ele><time>2026-04-23T11:54:09.111Z</time></trkpt><trkpt lat="44.1415344" lon="10.4149078"><ele>387.0</ele><time>2026-04-23T11:54:12.114Z</time></trkpt><trkpt lat="44.1416298" lon="10.4148897"><ele>387.0</ele><time>2026-04-23T11:54:16Z</time></trkpt><trkpt lat="44.1417009" lon="10.4148767"><ele>387.0</ele><time>2026-04-23T11:54:19.101Z</time></trkpt><trkpt lat="44.141772" lon="10.4148651"><ele>387.0</ele><time>2026-04-23T11:54:22Z</time></trkpt><trkpt lat="44.1418465" lon="10.4148536"><ele>387.0</ele><time>2026-04-23T11:54:25.103Z</time></trkpt><trkpt lat="44.1419219" lon="10.4148442"><ele>388.42857142857144</ele><time>2026-04-23T11:54:28Z</time></trkpt><trkpt lat="44.14199" lon="10.4148503"><ele>389.8571428571429</ele><time>2026-04-23T11:54:31.105Z</time></trkpt><trkpt lat="44.1420649" lon="10.4148584"><ele>391.2857142857143</ele><time>2026-04-23T11:54:34Z</time></trkpt><trkpt lat="44.1421324" lon="10.4148772"><ele>392.7142857142857</ele><time>2026-04-23T11:54:37.108Z</time></trkpt><trkpt lat="44.1422091" lon="10.4148937"><ele>394.1428571428571</ele><time>2026-04-23T11:54:40.107Z</time></trkpt><trkpt lat="44.1422792" lon="10.4149086"><ele>395.57142857142856</ele><time>2026-04-23T11:54:43.11Z</time></trkpt><trkpt lat="44.1423543" lon="10.414921"><ele>397.0</ele><time>2026-04-23T11:54:46.102Z</time></trkpt><trkpt lat="44.1424482" lon="10.4149369"><ele>398.00000000000006</ele><time>2026-04-23T11:54:50.113Z</time></trkpt><trkpt lat="44.1425301" lon="10.4149485"><ele>399.0</ele><time>2026-04-23T11:54:53.124Z</time></trkpt><trkpt lat="44.1426115" lon="10.4149601"><ele>400.0</ele><time>2026-04-23T11:54:56.11Z</time></trkpt><trkpt lat="44.1426866" lon="10.4149626"><ele>401.0</ele><time>2026-04-23T11:54:59.115Z</time></trkpt><trkpt lat="44.1427643" lon="10.4149504"><ele>402.00000000000006</ele><time>2026-04-23T11:55:02.11Z</time></trkpt><trkpt lat="44.142842" lon="10.4149459"><ele>403.0</ele><time>2026-04-23T11:55:05.114Z</time></trkpt><trkpt lat="44.1429442" lon="10.4149242"><ele>403.00000000000006</ele><time>2026-04-23T11:55:09.115Z</time></trkpt><trkpt lat="44.1430243" lon="10.4149023"><ele>403.0</ele><time>2026-04-23T11:55:12.125Z</time></trkpt><trkpt lat="44.1430992" lon="10.4148869"><ele>403.0</ele><time>2026-04-23T11:55:15.107Z</time></trkpt><trkpt lat="44.1431739" lon="10.4148838"><ele>403.0</ele><time>2026-04-23T11:55:18.136Z</time></trkpt><trkpt lat="44.1432488" lon="10.4148933"><ele>403.00000000000006</ele><time>2026-04-23T11:55:21.119Z</time></trkpt><trkpt lat="44.1433278" lon="10.4149146"><ele>403.0</ele><time>2026-04-23T11:55:24.112Z</time></trkpt><trkpt lat="44.1434035" lon="10.4149367"><ele>405.00000000000006</ele><time>2026-04-23T11:55:27.114Z</time></trkpt><trkpt lat="44.1434776" lon="10.4149647"><ele>407.0</ele><time>2026-04-23T11:55:30.111Z</time></trkpt><trkpt lat="44.1435528" lon="10.4149859"><ele>409.0</ele><time>2026-04-23T11:55:33.104Z</time></trkpt><trkpt lat="44.1436274" lon="10.4150052"><ele>411.0</ele><time>2026-04-23T11:55:36.102Z</time></trkpt><trkpt lat="44.1437078" lon="10.4150223"><ele>413.00000000000006</ele><time>2026-04-23T11:55:39.115Z</time></trkpt><trkpt lat="44.1437829" lon="10.41505"><ele>415.0</ele><time>2026-04-23T11:55:42.112Z</time></trkpt><trkpt lat="44.1438545" lon="10.4150732"><ele>415.00000000000006</ele><time>2026-04-23T11:55:45.115Z</time></trkpt><trkpt lat="44.1439219" lon="10.415102"><ele>415.0</ele><time>2026-04-23T11:55:48.102Z</time></trkpt><trkpt lat="44.1439894" lon="10.4151249"><ele>415.0</ele><time>2026-04-23T11:55:51.113Z</time></trkpt><trkpt lat="44.1440905" lon="10.4151128"><ele>415.0</ele><time>2026-04-23T11:55:55.101Z</time></trkpt><trkpt lat="44.1441411" lon="10.4150247"><ele>415.00000000000006</ele><time>2026-04-23T11:55:58.11Z</time></trkpt><trkpt lat="44.14413" lon="10.4148769"><ele>415.0</ele><time>2026-04-23T11:56:02.11Z</time></trkpt><trkpt lat="44.1440658" lon="10.4148082"><ele>415.00000000000006</ele><time>2026-04-23T11:56:05.114Z</time></trkpt><trkpt lat="44.1439891" lon="10.41477"><ele>415.0</ele><time>2026-04-23T11:56:08.105Z</time></trkpt><trkpt lat="44.1439162" lon="10.4147326"><ele>415.0</ele><time>2026-04-23T11:56:11.114Z</time></trkpt><trkpt lat="44.1438384" lon="10.4147106"><ele>415.0</ele><time>2026-04-23T11:56:14.109Z</time></trkpt><trkpt lat="44.1437614" lon="10.4146894"><ele>415.00000000000006</ele><time>2026-04-23T11:56:17.109Z</time></trkpt><trkpt lat="44.1436873" lon="10.4146721"><ele>415.0</ele><time>2026-04-23T11:56:20.1Z</time></trkpt><trkpt lat="44.1436113" lon="10.4146625"><ele>416.6666666666667</ele><time>2026-04-23T11:56:23.108Z</time></trkpt><trkpt lat="44.1435391" lon="10.4146362"><ele>418.33333333333337</ele><time>2026-04-23T11:56:26.106Z</time></trkpt><trkpt lat="44.143471" lon="10.4145912"><ele>420.0</ele><time>2026-04-23T11:56:29.106Z</time></trkpt><trkpt lat="44.1434225" lon="10.4145086"><ele>421.66666666666663</ele><time>2026-04-23T11:56:32.103Z</time></trkpt><trkpt lat="44.1434014" lon="10.4144065"><ele>423.3333333333333</ele><time>2026-04-23T11:56:35.108Z</time></trkpt><trkpt lat="44.1433994" lon="10.414299"><ele>425.0</ele><time>2026-04-23T11:56:38.115Z</time></trkpt><trkpt lat="44.1434051" lon="10.4141857"><ele>424.99999999999994</ele><time>2026-04-23T11:56:41.106Z</time></trkpt><trkpt lat="44.1434134" lon="10.414081"><ele>425.0</ele><time>2026-04-23T11:56:44.1Z</time></trkpt><trkpt lat="44.1434156" lon="10.4139727"><ele>425.0</ele><time>2026-04-23T11:56:47.116Z</time></trkpt><trkpt lat="44.1434103" lon="10.4138607"><ele>425.0</ele><time>2026-04-23T11:56:50.102Z</time></trkpt><trkpt lat="44.143401" lon="10.4137512"><ele>424.99999999999994</ele><time>2026-04-23T11:56:53.106Z</time></trkpt><trkpt lat="44.1433922" lon="10.4136466"><ele>425.0</ele><time>2026-04-23T11:56:56.115Z</time></trkpt><trkpt lat="44.1433668" lon="10.4135458"><ele>425.66666666666663</ele><time>2026-04-23T11:56:59.114Z</time></trkpt><trkpt lat="44.1433388" lon="10.4134123"><ele>426.3333333333333</ele><time>2026-04-23T11:57:03.107Z</time></trkpt><trkpt lat="44.1433113" lon="10.4133173"><ele>427.0</ele><time>2026-04-23T11:57:06.112Z</time></trkpt><trkpt lat="44.1432903" lon="10.4132152"><ele>427.66666666666663</ele><time>2026-04-23T11:57:09.107Z</time></trkpt><trkpt lat="44.1432713" lon="10.4131127"><ele>428.3333333333333</ele><time>2026-04-23T11:57:12.112Z</time></trkpt><trkpt lat="44.1432336" lon="10.4130172"><ele>429.0</ele><time>2026-04-23T11:57:15.111Z</time></trkpt><trkpt lat="44.1431811" lon="10.4129403"><ele>429.0</ele><time>2026-04-23T11:57:18.105Z</time></trkpt><trkpt lat="44.1431124" lon="10.4128954"><ele>429.0</ele><time>2026-04-23T11:57:21.115Z</time></trkpt><trkpt lat="44.1430411" lon="10.4128676"><ele>429.0</ele><time>2026-04-23T11:57:24.103Z</time></trkpt><trkpt lat="44.142971" lon="10.4128467"><ele>429.0</ele><time>2026-04-23T11:57:27.109Z</time></trkpt><trkpt lat="44.1428988" lon="10.4128204"><ele>429.0</ele><time>2026-04-23T11:57:30.111Z</time></trkpt><trkpt lat="44.1428269" lon="10.4127991"><ele>429.0</ele><time>2026-04-23T11:57:33.111Z</time></trkpt><trkpt lat="44.1427633" lon="10.412747"><ele>429.0</ele><time>2026-04-23T11:57:36.107Z</time></trkpt><trkpt lat="44.1427244" lon="10.4126551"><ele>429.0</ele><time>2026-04-23T11:57:39.107Z</time></trkpt><trkpt lat="44.1427245" lon="10.4125434"><ele>429.0</ele><time>2026-04-23T11:57:42.107Z</time></trkpt><trkpt lat="44.142757" lon="10.4124475"><ele>429.0</ele><time>2026-04-23T11:57:45.127Z</time></trkpt><trkpt lat="44.1428132" lon="10.4123718"><ele>429.0</ele><time>2026-04-23T11:57:48.102Z</time></trkpt><trkpt lat="44.1428821" lon="10.4123326"><ele>429.0</ele><time>2026-04-23T11:57:51.115Z</time></trkpt><trkpt lat="44.1429562" lon="10.4123024"><ele>429.0</ele><time>2026-04-23T11:57:54.111Z</time></trkpt><trkpt lat="44.1430281" lon="10.4122698"><ele>429.0</ele><time>2026-04-23T11:57:57.113Z</time></trkpt><trkpt lat="44.1431026" lon="10.4122429"><ele>429.0</ele><time>2026-04-23T11:58:00.117Z</time></trkpt><trkpt lat="44.1431725" lon="10.412187"><ele>429.0</ele><time>2026-04-23T11:58:03.111Z</time></trkpt><trkpt lat="44.1432499" lon="10.4121579"><ele>429.0</ele><time>2026-04-23T11:58:06.114Z</time></trkpt><trkpt lat="44.1433264" lon="10.4121432"><ele>429.0</ele><time>2026-04-23T11:58:09.107Z</time></trkpt><trkpt lat="44.1433985" lon="10.4121148"><ele>429.0</ele><time>2026-04-23T11:58:12.125Z</time></trkpt><trkpt lat="44.143477" lon="10.4120974"><ele>430.8333333333333</ele><time>2026-04-23T11:58:15.128Z</time></trkpt><trkpt lat="44.1435539" lon="10.4120836"><ele>432.66666666666663</ele><time>2026-04-23T11:58:18.111Z</time></trkpt><trkpt lat="44.1436272" lon="10.4120724"><ele>434.5</ele><time>2026-04-23T11:58:21.116Z</time></trkpt><trkpt lat="44.1436995" lon="10.412038"><ele>436.3333333333333</ele><time>2026-04-23T11:58:24.125Z</time></trkpt><trkpt lat="44.1437637" lon="10.4119786"><ele>438.16666666666663</ele><time>2026-04-23T11:58:27.112Z</time></trkpt><trkpt lat="44.1438218" lon="10.411912"><ele>440.0</ele><time>2026-04-23T11:58:30.105Z</time></trkpt><trkpt lat="44.1438734" lon="10.4118288"><ele>439.99999999999994</ele><time>2026-04-23T11:58:33.127Z</time></trkpt><trkpt lat="44.1439293" lon="10.4117488"><ele>440.0</ele><time>2026-04-23T11:58:36.113Z</time></trkpt><trkpt lat="44.1439816" lon="10.4116704"><ele>440.0</ele><time>2026-04-23T11:58:39.11Z</time></trkpt><trkpt lat="44.1440144" lon="10.4115759"><ele>440.0</ele><time>2026-04-23T11:58:42.114Z</time></trkpt><trkpt lat="44.144028" lon="10.411475"><ele>439.99999999999994</ele><time>2026-04-23T11:58:45.113Z</time></trkpt><trkpt lat="44.1440227" lon="10.4113706"><ele>440.0</ele><time>2026-04-23T11:58:48.119Z</time></trkpt><trkpt lat="44.144" lon="10.4112669"><ele>441.16666666666663</ele><time>2026-04-23T11:58:51.107Z</time></trkpt><trkpt lat="44.1439682" lon="10.4111668"><ele>442.3333333333333</ele><time>2026-04-23T11:58:54.11Z</time></trkpt><trkpt lat="44.1439216" lon="10.4110869"><ele>443.5</ele><time>2026-04-23T11:58:57.11Z</time></trkpt><trkpt lat="44.1438638" lon="10.4110192"><ele>444.66666666666663</ele><time>2026-04-23T11:59:00.131Z</time></trkpt><trkpt lat="44.1437972" lon="10.4109563"><ele>445.8333333333333</ele><time>2026-04-23T11:59:03.106Z</time></trkpt><trkpt lat="44.1437321" lon="10.4109025"><ele>447.0</ele><time>2026-04-23T11:59:06.114Z</time></trkpt><trkpt lat="44.1436724" lon="10.4108367"><ele>447.0</ele><time>2026-04-23T11:59:09.114Z</time></trkpt><trkpt lat="44.1436087" lon="10.4107776"><ele>447.0</ele><time>2026-04-23T11:59:12.105Z</time></trkpt><trkpt lat="44.1435437" lon="10.4107195"><ele>447.0</ele><time>2026-04-23T11:59:15.117Z</time></trkpt><trkpt lat="44.1434883" lon="10.4106566"><ele>447.0</ele><time>2026-04-23T11:59:18.133Z</time></trkpt><trkpt lat="44.1434344" lon="10.4105886"><ele>447.0</ele><time>2026-04-23T11:59:21.127Z</time></trkpt><trkpt lat="44.143406" lon="10.4104931"><ele>447.0</ele><time>2026-04-23T11:59:24.128Z</time></trkpt><trkpt lat="44.1434339" lon="10.4103762"><ele>447.5</ele><time>2026-04-23T11:59:27.111Z</time></trkpt><trkpt lat="44.1434974" lon="10.4103117"><ele>448.0</ele><time>2026-04-23T11:59:30.108Z</time></trkpt><trkpt lat="44.1435671" lon="10.4102744"><ele>448.5</ele><time>2026-04-23T11:59:33.108Z</time></trkpt><trkpt lat="44.1436591" lon="10.410237"><ele>449.0</ele><time>2026-04-23T11:59:37.111Z</time></trkpt><trkpt lat="44.1437277" lon="10.4102046"><ele>449.5</ele><time>2026-04-23T11:59:40.109Z</time></trkpt><trkpt lat="44.1437974" lon="10.4101729"><ele>450.0</ele><time>2026-04-23T11:59:43.116Z</time></trkpt><trkpt lat="44.143866" lon="10.4101317"><ele>450.0</ele><time>2026-04-23T11:59:46.115Z</time></trkpt><trkpt lat="44.1439373" lon="10.4100947"><ele>450.0</ele><time>2026-04-23T11:59:49.11Z</time></trkpt><trkpt lat="44.1440151" lon="10.410084"><ele>450.0</ele><time>2026-04-23T11:59:52.111Z</time></trkpt><trkpt lat="44.1440889" lon="10.4100858"><ele>450.0</ele><time>2026-04-23T11:59:55.113Z</time></trkpt><trkpt lat="44.1441618" lon="10.4101004"><ele>450.0</ele><time>2026-04-23T11:59:58.116Z</time></trkpt><trkpt lat="44.1442318" lon="10.4101279"><ele>450.0</ele><time>2026-04-23T12:00:01.111Z</time></trkpt><trkpt lat="44.1443051" lon="10.4101526"><ele>452.3333333333333</ele><time>2026-04-23T12:00:04.113Z</time></trkpt><trkpt lat="44.1443797" lon="10.4101783"><ele>454.66666666666663</ele><time>2026-04-23T12:00:07.107Z</time></trkpt><trkpt lat="44.144456" lon="10.410199"><ele>457.0</ele><time>2026-04-23T12:00:10.105Z</time></trkpt><trkpt lat="44.1445306" lon="10.410224"><ele>459.3333333333333</ele><time>2026-04-23T12:00:13.117Z</time></trkpt><trkpt lat="44.1446068" lon="10.4102487"><ele>461.66666666666663</ele><time>2026-04-23T12:00:16.111Z</time></trkpt><trkpt lat="44.1446758" lon="10.4102733"><ele>464.0</ele><time>2026-04-23T12:00:19.113Z</time></trkpt><trkpt lat="44.1447505" lon="10.4103062"><ele>463.99999999999994</ele><time>2026-04-23T12:00:22.111Z</time></trkpt><trkpt lat="44.1448295" lon="10.4103303"><ele>464.0</ele><time>2026-04-23T12:00:25.116Z</time></trkpt><trkpt lat="44.1449083" lon="10.4103578"><ele>464.0</ele><time>2026-04-23T12:00:28.107Z</time></trkpt><trkpt lat="44.1449878" lon="10.4103829"><ele>464.0</ele><time>2026-04-23T12:00:31.102Z</time></trkpt><trkpt lat="44.145062" lon="10.4104123"><ele>463.99999999999994</ele><time>2026-04-23T12:00:34.122Z</time></trkpt><trkpt lat="44.1451368" lon="10.4104433"><ele>464.0</ele><time>2026-04-23T12:00:37.108Z</time></trkpt><trkpt lat="44.1452417" lon="10.4104774"><ele>465.49999999999994</ele><time>2026-04-23T12:00:41.11Z</time></trkpt><trkpt lat="44.1453184" lon="10.4105051"><ele>467.0</ele><time>2026-04-23T12:00:44.119Z</time></trkpt><trkpt lat="44.1453965" lon="10.4105346"><ele>468.5</ele><time>2026-04-23T12:00:47.112Z</time></trkpt><trkpt lat="44.1454714" lon="10.4105653"><ele>470.0</ele><time>2026-04-23T12:00:50.107Z</time></trkpt><trkpt lat="44.1455463" lon="10.4105897"><ele>471.49999999999994</ele><time>2026-04-23T12:00:53.121Z</time></trkpt><trkpt lat="44.1456265" lon="10.4106157"><ele>473.0</ele><time>2026-04-23T12:00:56.109Z</time></trkpt><trkpt lat="44.1457061" lon="10.4106468"><ele>473.4</ele><time>2026-04-23T12:00:59.102Z</time></trkpt><trkpt lat="44.1457859" lon="10.4106748"><ele>473.79999999999995</ele><time>2026-04-23T12:01:02.111Z</time></trkpt><trkpt lat="44.1458969" lon="10.4107152"><ele>474.2</ele><time>2026-04-23T12:01:06.109Z</time></trkpt><trkpt lat="44.1459818" lon="10.4107498"><ele>474.6</ele><time>2026-04-23T12:01:09.109Z</time></trkpt><trkpt lat="44.1460677" lon="10.4107772"><ele>475.0</ele><time>2026-04-23T12:01:12.111Z</time></trkpt><trkpt lat="44.1461602" lon="10.410803"><ele>475.0</ele><time>2026-04-23T12:01:15.122Z</time></trkpt><trkpt lat="44.1462227" lon="10.4108241"><ele>475.00000000000006</ele><time>2026-04-23T12:01:17.114Z</time></trkpt><trkpt lat="44.1462857" lon="10.4108435"><ele>475.0</ele><time>2026-04-23T12:01:19.11Z</time></trkpt><trkpt lat="44.1463507" lon="10.410865"><ele>475.0</ele><time>2026-04-23T12:01:21.104Z</time></trkpt><trkpt lat="44.1464144" lon="10.4108884"><ele>475.00000000000006</ele><time>2026-04-23T12:01:23.114Z</time></trkpt><trkpt lat="44.1464744" lon="10.4109213"><ele>475.0</ele><time>2026-04-23T12:01:25.117Z</time></trkpt><trkpt lat="44.1465333" lon="10.4109576"><ele>475.0</ele><time>2026-04-23T12:01:27.117Z</time></trkpt><trkpt lat="44.1465901" lon="10.4110022"><ele>475.83333333333337</ele><time>2026-04-23T12:01:29.107Z</time></trkpt><trkpt lat="44.1466385" lon="10.4110605"><ele>476.6666666666667</ele><time>2026-04-23T12:01:31.11Z</time></trkpt><trkpt lat="44.1467054" lon="10.4111487"><ele>477.5</ele><time>2026-04-23T12:01:34.123Z</time></trkpt><trkpt lat="44.1467492" lon="10.4112134"><ele>478.33333333333337</ele><time>2026-04-23T12:01:36.102Z</time></trkpt><trkpt lat="44.1468143" lon="10.4113052"><ele>479.1666666666667</ele><time>2026-04-23T12:01:39.109Z</time></trkpt><trkpt lat="44.1468787" lon="10.4113833"><ele>480.0</ele><time>2026-04-23T12:01:42.108Z</time></trkpt><trkpt lat="44.1469269" lon="10.4114671"><ele>481.1666666666667</ele><time>2026-04-23T12:01:45.115Z</time></trkpt><trkpt lat="44.1469837" lon="10.4115368"><ele>482.33333333333337</ele><time>2026-04-23T12:01:48.123Z</time></trkpt><trkpt lat="44.1470345" lon="10.4116193"><ele>483.5</ele><time>2026-04-23T12:01:51.116Z</time></trkpt><trkpt lat="44.1470864" lon="10.4116969"><ele>484.6666666666667</ele><time>2026-04-23T12:01:54.117Z</time></trkpt><trkpt lat="44.14714" lon="10.4117688"><ele>485.83333333333337</ele><time>2026-04-23T12:01:57.101Z</time></trkpt><trkpt lat="44.1471898" lon="10.4118501"><ele>487.0</ele><time>2026-04-23T12:02:00.118Z</time></trkpt><trkpt lat="44.1472394" lon="10.4119266"><ele>487.00000000000006</ele><time>2026-04-23T12:02:03.11Z</time></trkpt><trkpt lat="44.1472948" lon="10.4120031"><ele>487.0</ele><time>2026-04-23T12:02:06.105Z</time></trkpt><trkpt lat="44.1473418" lon="10.4120844"><ele>487.0</ele><time>2026-04-23T12:02:09.1Z</time></trkpt><trkpt lat="44.1473959" lon="10.412163"><ele>487.0</ele><time>2026-04-23T12:02:12.102Z</time></trkpt><trkpt lat="44.1474509" lon="10.4122421"><ele>487.00000000000006</ele><time>2026-04-23T12:02:15.108Z</time></trkpt><trkpt lat="44.1475044" lon="10.4123204"><ele>487.0</ele><time>2026-04-23T12:02:18.101Z</time></trkpt><trkpt lat="44.1475572" lon="10.4123943"><ele>487.6666666666667</ele><time>2026-04-23T12:02:21.111Z</time></trkpt><trkpt lat="44.147617" lon="10.4124684"><ele>488.33333333333337</ele><time>2026-04-23T12:02:24.109Z</time></trkpt><trkpt lat="44.1476729" lon="10.4125415"><ele>489.0</ele><time>2026-04-23T12:02:27.11Z</time></trkpt><trkpt lat="44.1477271" lon="10.4126172"><ele>489.66666666666663</ele><time>2026-04-23T12:02:30.106Z</time></trkpt><trkpt lat="44.1477762" lon="10.412696"><ele>490.3333333333333</ele><time>2026-04-23T12:02:33.107Z</time></trkpt><trkpt lat="44.1478302" lon="10.4127708"><ele>491.0</ele><time>2026-04-23T12:02:36.109Z</time></trkpt><trkpt lat="44.1478999" lon="10.4128717"><ele>490.99999999999994</ele><time>2026-04-23T12:02:40.103Z</time></trkpt><trkpt lat="44.147949" lon="10.4129445"><ele>491.0</ele><time>2026-04-23T12:02:43.113Z</time></trkpt><trkpt lat="44.1479951" lon="10.4130231"><ele>491.0</ele><time>2026-04-23T12:02:46.1Z</time></trkpt><trkpt lat="44.1480415" lon="10.4130945"><ele>491.0</ele><time>2026-04-23T12:02:49.111Z</time></trkpt><trkpt lat="44.1481124" lon="10.413145"><ele>490.99999999999994</ele><time>2026-04-23T12:02:52.117Z</time></trkpt><trkpt lat="44.148196" lon="10.4131277"><ele>491.0</ele><time>2026-04-23T12:02:55.111Z</time></trkpt><trkpt lat="44.1482279" lon="10.4130287"><ele>490.99999999999994</ele><time>2026-04-23T12:02:58.119Z</time></trkpt><trkpt lat="44.1482132" lon="10.4129226"><ele>491.0</ele><time>2026-04-23T12:03:01.114Z</time></trkpt><trkpt lat="44.1481964" lon="10.4128178"><ele>491.0</ele><time>2026-04-23T12:03:04.112Z</time></trkpt><trkpt lat="44.1481825" lon="10.4127089"><ele>491.0</ele><time>2026-04-23T12:03:07.11Z</time></trkpt><trkpt lat="44.1481653" lon="10.4126053"><ele>490.99999999999994</ele><time>2026-04-23T12:03:10.106Z</time></trkpt><trkpt lat="44.1481514" lon="10.4125041"><ele>491.0</ele><time>2026-04-23T12:03:13.106Z</time></trkpt><trkpt lat="44.1481331" lon="10.4124012"><ele>490.99999999999994</ele><time>2026-04-23T12:03:16.103Z</time></trkpt><trkpt lat="44.1481155" lon="10.4122992"><ele>491.0</ele><time>2026-04-23T12:03:19.113Z</time></trkpt><trkpt lat="44.1480944" lon="10.4121989"><ele>491.0</ele><time>2026-04-23T12:03:22.115Z</time></trkpt><trkpt lat="44.1480715" lon="10.4120959"><ele>491.0</ele><time>2026-04-23T12:03:25.112Z</time></trkpt><trkpt lat="44.148046" lon="10.4119643"><ele>490.99999999999994</ele><time>2026-04-23T12:03:29.111Z</time></trkpt><trkpt lat="44.1480275" lon="10.4118538"><ele>491.0</ele><time>2026-04-23T12:03:32.113Z</time></trkpt><trkpt lat="44.1480026" lon="10.4117518"><ele>490.8333333333333</ele><time>2026-04-23T12:03:35.111Z</time></trkpt><trkpt lat="44.1479811" lon="10.4116363"><ele>490.66666666666663</ele><time>2026-04-23T12:03:39.11Z</time></trkpt><trkpt lat="44.1479642" lon="10.4115473"><ele>490.5</ele><time>2026-04-23T12:03:42.108Z</time></trkpt><trkpt lat="44.147943" lon="10.411428"><ele>490.33333333333337</ele><time>2026-04-23T12:03:46.101Z</time></trkpt><trkpt lat="44.1479176" lon="10.4113319"><ele>490.1666666666667</ele><time>2026-04-23T12:03:49.102Z</time></trkpt><trkpt lat="44.1479021" lon="10.4112323"><ele>490.0</ele><time>2026-04-23T12:03:52.121Z</time></trkpt><trkpt lat="44.1478813" lon="10.4111356"><ele>490.6666666666667</ele><time>2026-04-23T12:03:55.101Z</time></trkpt><trkpt lat="44.1478649" lon="10.4110323"><ele>491.33333333333337</ele><time>2026-04-23T12:03:58.105Z</time></trkpt><trkpt lat="44.1478567" lon="10.4109227"><ele>492.0</ele><time>2026-04-23T12:04:01.1Z</time></trkpt><trkpt lat="44.1478329" lon="10.4108235"><ele>492.66666666666663</ele><time>2026-04-23T12:04:04.105Z</time></trkpt><trkpt lat="44.1478151" lon="10.410721"><ele>493.3333333333333</ele><time>2026-04-23T12:04:07.11Z</time></trkpt><trkpt lat="44.1478001" lon="10.4106154"><ele>494.0</ele><time>2026-04-23T12:04:10.112Z</time></trkpt><trkpt lat="44.1477753" lon="10.4105132"><ele>494.8333333333333</ele><time>2026-04-23T12:04:13.122Z</time></trkpt><trkpt lat="44.1477594" lon="10.4104095"><ele>495.66666666666663</ele><time>2026-04-23T12:04:16.118Z</time></trkpt><trkpt lat="44.1477436" lon="10.4103032"><ele>496.5</ele><time>2026-04-23T12:04:19.126Z</time></trkpt><trkpt lat="44.1477294" lon="10.4101938"><ele>497.33333333333337</ele><time>2026-04-23T12:04:22.118Z</time></trkpt><trkpt lat="44.1477088" lon="10.4100903"><ele>498.1666666666667</ele><time>2026-04-23T12:04:25.111Z</time></trkpt><trkpt lat="44.1476957" lon="10.4099838"><ele>499.0</ele><time>2026-04-23T12:04:28.111Z</time></trkpt><trkpt lat="44.1476799" lon="10.4098811"><ele>499.00000000000006</ele><time>2026-04-23T12:04:31.105Z</time></trkpt><trkpt lat="44.1476619" lon="10.4097784"><ele>499.0</ele><time>2026-04-23T12:04:34.106Z</time></trkpt><trkpt lat="44.1476445" lon="10.4096764"><ele>499.0</ele><time>2026-04-23T12:04:37.1Z</time></trkpt><trkpt lat="44.1476429" lon="10.4095723"><ele>499.0</ele><time>2026-04-23T12:04:40.114Z</time></trkpt><trkpt lat="44.1476235" lon="10.4094681"><ele>499.00000000000006</ele><time>2026-04-23T12:04:43.104Z</time></trkpt><trkpt lat="44.1476124" lon="10.409362"><ele>499.0</ele><time>2026-04-23T12:04:46.113Z</time></trkpt><trkpt lat="44.1475981" lon="10.4092633"><ele>500.6666666666667</ele><time>2026-04-23T12:04:49.105Z</time></trkpt><trkpt lat="44.147584" lon="10.4091618"><ele>502.33333333333337</ele><time>2026-04-23T12:04:52.112Z</time></trkpt><trkpt lat="44.147574" lon="10.4090597"><ele>504.0</ele><time>2026-04-23T12:04:55.113Z</time></trkpt><trkpt lat="44.1475578" lon="10.4089495"><ele>505.66666666666663</ele><time>2026-04-23T12:04:58.102Z</time></trkpt><trkpt lat="44.1475464" lon="10.4088433"><ele>507.3333333333333</ele><time>2026-04-23T12:05:01.106Z</time></trkpt><trkpt lat="44.1475286" lon="10.4087375"><ele>509.0</ele><time>2026-04-23T12:05:04.1Z</time></trkpt><trkpt lat="44.1475027" lon="10.4086375"><ele>510.16666666666663</ele><time>2026-04-23T12:05:07.104Z</time></trkpt><trkpt lat="44.1474752" lon="10.4084971"><ele>511.3333333333333</ele><time>2026-04-23T12:05:11.104Z</time></trkpt><trkpt lat="44.1474413" lon="10.4084001"><ele>512.5</ele><time>2026-04-23T12:05:14.112Z</time></trkpt><trkpt lat="44.1474055" lon="10.4083029"><ele>513.6666666666666</ele><time>2026-04-23T12:05:17.114Z</time></trkpt><trkpt lat="44.147358" lon="10.4082153"><ele>514.8333333333334</ele><time>2026-04-23T12:05:20.113Z</time></trkpt><trkpt lat="44.1473103" lon="10.4081274"><ele>516.0</ele><time>2026-04-23T12:05:23.111Z</time></trkpt><trkpt lat="44.1472556" lon="10.4080538"><ele>514.6666666666666</ele><time>2026-04-23T12:05:26.113Z</time></trkpt><trkpt lat="44.1472174" lon="10.4079706"><ele>513.3333333333334</ele><time>2026-04-23T12:05:29.107Z</time></trkpt><trkpt lat="44.1472402" lon="10.4078776"><ele>512.0</ele><time>2026-04-23T12:05:32.112Z</time></trkpt><trkpt lat="44.1473009" lon="10.4078082"><ele>510.6666666666667</ele><time>2026-04-23T12:05:35.105Z</time></trkpt><trkpt lat="44.1473691" lon="10.4077616"><ele>509.33333333333337</ele><time>2026-04-23T12:05:38.108Z</time></trkpt><trkpt lat="44.1474491" lon="10.4077449"><ele>508.0</ele><time>2026-04-23T12:05:41.114Z</time></trkpt><trkpt lat="44.1475286" lon="10.4077519"><ele>508.00000000000006</ele><time>2026-04-23T12:05:44.12Z</time></trkpt><trkpt lat="44.1476045" lon="10.40777"><ele>508.0</ele><time>2026-04-23T12:05:47.107Z</time></trkpt><trkpt lat="44.1476808" lon="10.4077893"><ele>508.0</ele><time>2026-04-23T12:05:50.102Z</time></trkpt><trkpt lat="44.1477571" lon="10.4078084"><ele>508.0</ele><time>2026-04-23T12:05:53.109Z</time></trkpt><trkpt lat="44.1478311" lon="10.407839"><ele>508.00000000000006</ele><time>2026-04-23T12:05:56.102Z</time></trkpt><trkpt lat="44.1479092" lon="10.4078716"><ele>508.0</ele><time>2026-04-23T12:05:59.103Z</time></trkpt><trkpt lat="44.1479631" lon="10.407945"><ele>509.33333333333337</ele><time>2026-04-23T12:06:02.103Z</time></trkpt><trkpt lat="44.1479885" lon="10.40809"><ele>510.6666666666667</ele><time>2026-04-23T12:06:06.109Z</time></trkpt><trkpt lat="44.1479905" lon="10.4082027"><ele>512.0</ele><time>2026-04-23T12:06:09.108Z</time></trkpt><trkpt lat="44.1480026" lon="10.4083077"><ele>513.3333333333334</ele><time>2026-04-23T12:06:12.105Z</time></trkpt><trkpt lat="44.1480147" lon="10.4084077"><ele>514.6666666666666</ele><time>2026-04-23T12:06:15.106Z</time></trkpt><trkpt lat="44.1480311" lon="10.4085079"><ele>516.0</ele><time>2026-04-23T12:06:18.106Z</time></trkpt><trkpt lat="44.1480445" lon="10.4086144"><ele>516.0</ele><time>2026-04-23T12:06:21.101Z</time></trkpt><trkpt lat="44.1480496" lon="10.4087276"><ele>516.0</ele><time>2026-04-23T12:06:24.111Z</time></trkpt><trkpt lat="44.1480611" lon="10.4088414"><ele>516.0</ele><time>2026-04-23T12:06:27.112Z</time></trkpt><trkpt lat="44.1480716" lon="10.4089609"><ele>516.0</ele><time>2026-04-23T12:06:30.123Z</time></trkpt><trkpt lat="44.1480871" lon="10.4090755"><ele>516.0</ele><time>2026-04-23T12:06:33.109Z</time></trkpt><trkpt lat="44.148097" lon="10.409197"><ele>516.0</ele><time>2026-04-23T12:06:36.123Z</time></trkpt><trkpt lat="44.1481113" lon="10.4093204"><ele>514.8333333333334</ele><time>2026-04-23T12:06:39.107Z</time></trkpt><trkpt lat="44.148124" lon="10.4094422"><ele>513.6666666666666</ele><time>2026-04-23T12:06:42.112Z</time></trkpt><trkpt lat="44.1481387" lon="10.4095655"><ele>512.5</ele><time>2026-04-23T12:06:45.108Z</time></trkpt><trkpt lat="44.1481612" lon="10.4096873"><ele>511.3333333333333</ele><time>2026-04-23T12:06:48.112Z</time></trkpt><trkpt lat="44.1481832" lon="10.4098076"><ele>510.16666666666663</ele><time>2026-04-23T12:06:51.101Z</time></trkpt><trkpt lat="44.1482076" lon="10.409925"><ele>509.0</ele><time>2026-04-23T12:06:54.14Z</time></trkpt><trkpt lat="44.1482271" lon="10.4100463"><ele>511.66666666666663</ele><time>2026-04-23T12:06:57.111Z</time></trkpt><trkpt lat="44.1482572" lon="10.4101661"><ele>514.3333333333333</ele><time>2026-04-23T12:07:00.116Z</time></trkpt><trkpt lat="44.148275" lon="10.4102503"><ele>517.0</ele><time>2026-04-23T12:07:02.125Z</time></trkpt><trkpt lat="44.1482976" lon="10.41037"><ele>519.6666666666666</ele><time>2026-04-23T12:07:05.12Z</time></trkpt><trkpt lat="44.1483246" lon="10.4104865"><ele>522.3333333333334</ele><time>2026-04-23T12:07:08.124Z</time></trkpt><trkpt lat="44.1483639" lon="10.4105985"><ele>525.0</ele><time>2026-04-23T12:07:11.112Z</time></trkpt><trkpt lat="44.148409" lon="10.4107065"><ele>525.0</ele><time>2026-04-23T12:07:14.114Z</time></trkpt><trkpt lat="44.1484475" lon="10.4108203"><ele>525.0</ele><time>2026-04-23T12:07:17.109Z</time></trkpt><trkpt lat="44.1484871" lon="10.4109394"><ele>525.0</ele><time>2026-04-23T12:07:20.101Z</time></trkpt><trkpt lat="44.1485304" lon="10.411054"><ele>525.0</ele><time>2026-04-23T12:07:23.111Z</time></trkpt><trkpt lat="44.1485649" lon="10.4111292"><ele>525.0</ele><time>2026-04-23T12:07:25.102Z</time></trkpt><trkpt lat="44.1486014" lon="10.4112041"><ele>525.0</ele><time>2026-04-23T12:07:27.119Z</time></trkpt><trkpt lat="44.1486518" lon="10.4113034"><ele>525.0</ele><time>2026-04-23T12:07:30.111Z</time></trkpt><trkpt lat="44.1487165" lon="10.4113868"><ele>525.0</ele><time>2026-04-23T12:07:33.113Z</time></trkpt><trkpt lat="44.1487969" lon="10.4114363"><ele>525.0</ele><time>2026-04-23T12:07:36.109Z</time></trkpt><trkpt lat="44.1488608" lon="10.4114352"><ele>525.0</ele><time>2026-04-23T12:07:38.11Z</time></trkpt><trkpt lat="44.1489203" lon="10.4113956"><ele>525.0</ele><time>2026-04-23T12:07:40.106Z</time></trkpt><trkpt lat="44.1489704" lon="10.4113393"><ele>525.0</ele><time>2026-04-23T12:07:42.106Z</time></trkpt><trkpt lat="44.1490154" lon="10.4112771"><ele>525.0</ele><time>2026-04-23T12:07:44.11Z</time></trkpt><trkpt lat="44.1490676" lon="10.4112212"><ele>526.5714285714286</ele><time>2026-04-23T12:07:46.103Z</time></trkpt><trkpt lat="44.1491296" lon="10.4111828"><ele>528.1428571428571</ele><time>2026-04-23T12:07:48.103Z</time></trkpt><trkpt lat="44.149191" lon="10.4111569"><ele>529.7142857142858</ele><time>2026-04-23T12:07:50Z</time></trkpt><trkpt lat="44.1492553" lon="10.4111483"><ele>531.2857142857142</ele><time>2026-04-23T12:07:52.107Z</time></trkpt><trkpt lat="44.14932" lon="10.4111674"><ele>532.8571428571429</ele><time>2026-04-23T12:07:54.108Z</time></trkpt><trkpt lat="44.1493806" lon="10.411209"><ele>534.4285714285714</ele><time>2026-04-23T12:07:56.103Z</time></trkpt><trkpt lat="44.149469" lon="10.4112463"><ele>536.0</ele><time>2026-04-23T12:07:59.101Z</time></trkpt><trkpt lat="44.1495411" lon="10.4112919"><ele>535.0</ele><time>2026-04-23T12:08:02.106Z</time></trkpt><trkpt lat="44.1496164" lon="10.4113327"><ele>534.0</ele><time>2026-04-23T12:08:05.114Z</time></trkpt><trkpt lat="44.1496867" lon="10.4113735"><ele>533.0</ele><time>2026-04-23T12:08:08.106Z</time></trkpt><trkpt lat="44.1497626" lon="10.41141"><ele>532.0</ele><time>2026-04-23T12:08:11.119Z</time></trkpt><trkpt lat="44.1498267" lon="10.4114478"><ele>531.0</ele><time>2026-04-23T12:08:14.112Z</time></trkpt><trkpt lat="44.1499008" lon="10.4114855"><ele>530.0</ele><time>2026-04-23T12:08:17.102Z</time></trkpt><trkpt lat="44.1499662" lon="10.4115218"><ele>530.0</ele><time>2026-04-23T12:08:20.101Z</time></trkpt><trkpt lat="44.1500405" lon="10.4115532"><ele>530.0</ele><time>2026-04-23T12:08:23.111Z</time></trkpt><trkpt lat="44.1501197" lon="10.4116011"><ele>530.0</ele><time>2026-04-23T12:08:26.114Z</time></trkpt><trkpt lat="44.1501993" lon="10.4116376"><ele>530.0</ele><time>2026-04-23T12:08:29.11Z</time></trkpt><trkpt lat="44.1502795" lon="10.4116766"><ele>530.0</ele><time>2026-04-23T12:08:32.121Z</time></trkpt><trkpt lat="44.1503517" lon="10.411713"><ele>530.0</ele><time>2026-04-23T12:08:35.113Z</time></trkpt><trkpt lat="44.1504149" lon="10.4117425"><ele>529.9999999999999</ele><time>2026-04-23T12:08:38.108Z</time></trkpt><trkpt lat="44.150479" lon="10.4117666"><ele>530.0</ele><time>2026-04-23T12:08:41.111Z</time></trkpt><trkpt lat="44.1505442" lon="10.4117964"><ele>530.0</ele><time>2026-04-23T12:08:44.102Z</time></trkpt><trkpt lat="44.1506146" lon="10.4118155"><ele>530.0</ele><time>2026-04-23T12:08:47.109Z</time></trkpt><trkpt lat="44.1506819" lon="10.4118181"><ele>530.0</ele><time>2026-04-23T12:08:50.109Z</time></trkpt><trkpt lat="44.1507481" lon="10.4118142"><ele>529.9999999999999</ele><time>2026-04-23T12:08:53.118Z</time></trkpt><trkpt lat="44.1508165" lon="10.4117969"><ele>530.0</ele><time>2026-04-23T12:08:56.106Z</time></trkpt><trkpt lat="44.1508845" lon="10.4118073"><ele>530.1428571428571</ele><time>2026-04-23T12:08:59.112Z</time></trkpt><trkpt lat="44.1509435" lon="10.4118483"><ele>530.2857142857142</ele><time>2026-04-23T12:09:02.103Z</time></trkpt><trkpt lat="44.1510144" lon="10.4119094"><ele>530.4285714285714</ele><time>2026-04-23T12:09:06.127Z</time></trkpt><trkpt lat="44.151076" lon="10.4119447"><ele>530.5714285714286</ele><time>2026-04-23T12:09:09.113Z</time></trkpt><trkpt lat="44.1511197" lon="10.4120326"><ele>530.7142857142858</ele><time>2026-04-23T12:09:13.108Z</time></trkpt><trkpt lat="44.151068" lon="10.4120841"><ele>530.8571428571429</ele><time>2026-04-23T12:09:16.106Z</time></trkpt><trkpt lat="44.1509853" lon="10.4121015"><ele>531.0</ele><time>2026-04-23T12:09:20.11Z</time></trkpt><trkpt lat="44.150919" lon="10.4121081"><ele>531.0</ele><time>2026-04-23T12:09:23.106Z</time></trkpt><trkpt lat="44.1508528" lon="10.4121253"><ele>531.0</ele><time>2026-04-23T12:09:26Z</time></trkpt><trkpt lat="44.1508209" lon="10.4122239"><ele>546.0</ele><time>2026-04-23T12:09:30.109Z</time></trkpt><trkpt lat="44.1507973" lon="10.4123174"><ele>546.0</ele><time>2026-04-23T12:09:35.11Z</time></trkpt><trkpt lat="44.1507717" lon="10.4124443"><ele>546.0</ele><time>2026-04-23T12:09:41.107Z</time></trkpt><trkpt lat="44.1507442" lon="10.4125399"><ele>546.0</ele><time>2026-04-23T12:09:46.106Z</time></trkpt></trkseg></trk></gpx>